Wetterdaten: Freitag, 03.02.2017
Datum Zeit Temp. A. Temp. A. max Feuchte A. Luftdruck Regen Wind Richtung Richtung Sonnenschein ET UV Solar Taupunkt Windchill Windböen
03.02.2017 00:00 3,0 °C 3,1 °C 80 % 1009,3 hPa 0,0 mm 1,3 km/h (1 Bft) NW 320 ° 0 min 0,000 mm 0,0 UV-I 0 W/m² -0,1 °C 3,0 °C 1,6 km/h (1 Bft)
03.02.2017 00:01 2,9 °C 3,0 °C 80 % 1009,2 hPa 0,0 mm 0,0 km/h (0 Bft) NW 320 ° 0 min 0,000 mm 0,0 UV-I 0 W/m² -0,2 °C 2,9 °C 0,0 km/h (0 Bft)
03.02.2017 00:02 2,9 °C 2,9 °C 80 % 1009,2 hPa 0,0 mm 0,7 km/h (0 Bft) NW 320 ° 0 min 0,000 mm 0,0 UV-I 0 W/m² -0,2 °C 2,9 °C 1,6 km/h (1 Bft)
03.02.2017 00:03 2,8 °C 2,9 °C 80 % 1009,2 hPa 0,0 mm 1,5 km/h (1 Bft) NW 320 ° 0 min 0,000 mm 0,0 UV-I 0 W/m² -0,3 °C 2,8 °C 3,2 km/h (1 Bft)
03.02.2017 00:04 2,8 °C 2,8 °C 80 % 1009,2 hPa 0,0 mm 2,0 km/h (1 Bft) NW 320 ° 0 min 0,000 mm 0,0 UV-I 0 W/m² -0,3 °C 2,8 °C 3,2 km/h (1 Bft)
03.02.2017 00:05 2,8 °C 2,8 °C 80 % 1009,2 hPa 0,0 mm 1,3 km/h (1 Bft) NW 320 ° 0 min 0,000 mm 0,0 UV-I 0 W/m² -0,3 °C 2,8 °C 3,2 km/h (1 Bft)
03.02.2017 00:06 2,7 °C 2,8 °C 80 % 1009,2 hPa 0,0 mm 0,7 km/h (0 Bft) NW 320 ° 0 min 0,000 mm 0,0 UV-I 0 W/m² -0,4 °C 2,7 °C 1,6 km/h (1 Bft)
03.02.2017 00:07 2,7 °C 2,7 °C 80 % 1009,2 hPa 0,0 mm 0,8 km/h (0 Bft) NW 320 ° 0 min 0,000 mm 0,0 UV-I 0 W/m² -0,4 °C 2,7 °C 1,6 km/h (1 Bft)
03.02.2017 00:08 2,6 °C 2,7 °C 81 % 1009,2 hPa 0,0 mm 2,8 km/h (1 Bft) O-NO 67 ° 0 min 0,000 mm 0,0 UV-I 0 W/m² -0,3 °C 2,6 °C 4,8 km/h (1 Bft)
03.02.2017 00:09 2,6 °C 2,6 °C 81 % 1009,2 hPa 0,0 mm 3,1 km/h (1 Bft) O-NO 67 ° 0 min 0,000 mm 0,0 UV-I 0 W/m² -0,3 °C 2,6 °C 4,8 km/h (1 Bft)
03.02.2017 00:10 2,6 °C 2,6 °C 81 % 1009,2 hPa 0,0 mm 2,9 km/h (1 Bft) O-NO 67 ° 0 min 0,000 mm 0,0 UV-I 0 W/m² -0,3 °C 2,6 °C 4,8 km/h (1 Bft)
03.02.2017 00:11 2,4 °C 2,6 °C 82 % 1009,2 hPa 0,0 mm 1,3 km/h (1 Bft) O-NO 67 ° 0 min 0,000 mm 0,0 UV-I 0 W/m² -0,4 °C 2,4 °C 3,2 km/h (1 Bft)
03.02.2017 00:12 2,4 °C 2,4 °C 82 % 1009,1 hPa 0,0 mm 1,4 km/h (1 Bft) O-NO 67 ° 0 min 0,000 mm 0,0 UV-I 0 W/m² -0,4 °C 2,4 °C 1,6 km/h (1 Bft)
03.02.2017 00:13 2,4 °C 2,4 °C 82 % 1009,1 hPa 0,0 mm 1,3 km/h (1 Bft) O-NO 67 ° 0 min 0,000 mm 0,0 UV-I 0 W/m² -0,4 °C 2,4 °C 1,6 km/h (1 Bft)
03.02.2017 00:14 2,3 °C 2,4 °C 83 % 1009,2 hPa 0,0 mm 2,3 km/h (1 Bft) O-NO 67 ° 0 min 0,000 mm 0,0 UV-I 0 W/m² -0,3 °C 2,3 °C 3,2 km/h (1 Bft)
03.02.2017 00:15 2,3 °C 2,3 °C 83 % 1009,2 hPa 0,0 mm 4,2 km/h (1 Bft) W 263 ° 0 min 0,000 mm 0,0 UV-I 0 W/m² -0,3 °C 2,3 °C 6,4 km/h (2 Bft)
03.02.2017 00:16 2,2 °C 2,3 °C 83 % 1009,2 hPa 0,0 mm 2,4 km/h (1 Bft) W 263 ° 0 min 0,000 mm 0,0 UV-I 0 W/m² -0,4 °C 2,2 °C 3,2 km/h (1 Bft)
03.02.2017 00:17 2,2 °C 2,2 °C 83 % 1009,2 hPa 0,0 mm 0,5 km/h (0 Bft) W 263 ° 0 min 0,000 mm 0,0 UV-I 0 W/m² -0,4 °C 2,2 °C 1,6 km/h (1 Bft)
03.02.2017 00:18 2,2 °C 2,2 °C 83 % 1009,2 hPa 0,0 mm 1,7 km/h (1 Bft) W 263 ° 0 min 0,000 mm 0,0 UV-I 0 W/m² -0,4 °C 2,2 °C 3,2 km/h (1 Bft)
03.02.2017 00:19 2,1 °C 2,2 °C 83 % 1009,1 hPa 0,0 mm 3,1 km/h (1 Bft) S 179 ° 0 min 0,000 mm 0,0 UV-I 0 W/m² -0,5 °C 2,1 °C 4,8 km/h (1 Bft)
03.02.2017 00:20 2,1 °C 2,1 °C 83 % 1009,1 hPa 0,0 mm 3,0 km/h (1 Bft) S 179 ° 0 min 0,000 mm 0,0 UV-I 0 W/m² -0,5 °C 2,1 °C 4,8 km/h (1 Bft)
03.02.2017 00:21 2,1 °C 2,1 °C 83 % 1009,1 hPa 0,0 mm 1,9 km/h (1 Bft) S 179 ° 0 min 0,000 mm 0,0 UV-I 0 W/m² -0,5 °C 2,1 °C 3,2 km/h (1 Bft)
03.02.2017 00:22 2,0 °C 2,1 °C 83 % 1009,1 hPa 0,0 mm 1,7 km/h (1 Bft) S 179 ° 0 min 0,000 mm 0,0 UV-I 0 W/m² -0,6 °C 2,0 °C 4,8 km/h (1 Bft)
03.02.2017 00:23 2,1 °C 2,1 °C 83 % 1009,1 hPa 0,0 mm 5,2 km/h (1 Bft) SW 217 ° 0 min 0,000 mm 0,0 UV-I 0 W/m² -0,5 °C 0,7 °C 8,0 km/h (2 Bft)
03.02.2017 00:24 2,1 °C 2,1 °C 84 % 1009,1 hPa 0,0 mm 7,2 km/h (2 Bft) S-SW 198 ° 0 min 0,000 mm 0,0 UV-I 0 W/m² -0,3 °C -0,0 °C 11,3 km/h (2 Bft)
03.02.2017 00:25 2,2 °C 2,2 °C 84 % 1009,1 hPa 0,0 mm 8,9 km/h (2 Bft) S-SW 197 ° 0 min 0,000 mm 0,0 UV-I 0 W/m² -0,2 °C -0,4 °C 11,3 km/h (2 Bft)
03.02.2017 00:26 2,3 °C 2,3 °C 84 % 1009,1 hPa 0,0 mm 6,7 km/h (2 Bft) S-SW 200 ° 0 min 0,000 mm 0,0 UV-I 0 W/m² -0,1 °C 0,4 °C 9,7 km/h (2 Bft)
03.02.2017 00:27 2,4 °C 2,4 °C 84 % 1009,1 hPa 0,0 mm 4,2 km/h (1 Bft) S 190 ° 0 min 0,000 mm 0,0 UV-I 0 W/m² -0,0 °C 2,4 °C 6,4 km/h (2 Bft)
03.02.2017 00:28 2,4 °C 2,4 °C 83 % 1009,0 hPa 0,0 mm 2,8 km/h (1 Bft) S 190 ° 0 min 0,000 mm 0,0 UV-I 0 W/m² -0,2 °C 2,4 °C 4,8 km/h (1 Bft)
03.02.2017 00:29 2,5 °C 2,5 °C 83 % 1009,0 hPa 0,0 mm 1,6 km/h (1 Bft) S 190 ° 0 min 0,000 mm 0,0 UV-I 0 W/m² -0,1 °C 2,5 °C 3,2 km/h (1 Bft)
03.02.2017 00:30 2,6 °C 2,6 °C 83 % 1009,0 hPa 0,0 mm 0,6 km/h (0 Bft) S 190 ° 0 min 0,000 mm 0,0 UV-I 0 W/m² 0,0 °C 2,6 °C 1,6 km/h (1 Bft)
03.02.2017 00:31 2,6 °C 2,6 °C 83 % 1009,0 hPa 0,0 mm 0,0 km/h (0 Bft) S 190 ° 0 min 0,000 mm 0,0 UV-I 0 W/m² 0,0 °C 2,6 °C 0,0 km/h (0 Bft)
03.02.2017 00:32 2,6 °C 2,6 °C 83 % 1009,0 hPa 0,0 mm 0,0 km/h (0 Bft) S 190 ° 0 min 0,000 mm 0,0 UV-I 0 W/m² 0,0 °C 2,6 °C 0,0 km/h (0 Bft)
03.02.2017 00:33 2,6 °C 2,6 °C 82 % 1009,0 hPa 0,0 mm 1,8 km/h (1 Bft) S 190 ° 0 min 0,000 mm 0,0 UV-I 0 W/m² -0,2 °C 2,6 °C 3,2 km/h (1 Bft)
03.02.2017 00:34 2,6 °C 2,6 °C 81 % 1009,0 hPa 0,0 mm 1,7 km/h (1 Bft) S 190 ° 0 min 0,000 mm 0,0 UV-I 0 W/m² -0,3 °C 2,6 °C 3,2 km/h (1 Bft)
03.02.2017 00:35 2,6 °C 2,6 °C 81 % 1009,0 hPa 0,0 mm 0,3 km/h (0 Bft) S 190 ° 0 min 0,000 mm 0,0 UV-I 0 W/m² -0,3 °C 2,6 °C 1,6 km/h (1 Bft)
03.02.2017 00:36 2,4 °C 2,6 °C 80 % 1009,0 hPa 0,0 mm 0,0 km/h (0 Bft) S 190 ° 0 min 0,000 mm 0,0 UV-I 0 W/m² -0,7 °C 2,4 °C 0,0 km/h (0 Bft)
03.02.2017 00:37 2,4 °C 2,4 °C 80 % 1009,0 hPa 0,0 mm 0,2 km/h (0 Bft) S 190 ° 0 min 0,000 mm 0,0 UV-I 0 W/m² -0,7 °C 2,4 °C 1,6 km/h (1 Bft)
03.02.2017 00:38 2,4 °C 2,4 °C 81 % 1009,0 hPa 0,0 mm 0,0 km/h (0 Bft) S 190 ° 0 min 0,000 mm 0,0 UV-I 0 W/m² -0,5 °C 2,4 °C 0,0 km/h (0 Bft)
03.02.2017 00:39 2,3 °C 2,4 °C 81 % 1009,0 hPa 0,0 mm 0,0 km/h (0 Bft) S 190 ° 0 min 0,000 mm 0,0 UV-I 0 W/m² -0,6 °C 2,3 °C 0,0 km/h (0 Bft)
03.02.2017 00:40 2,3 °C 2,3 °C 81 % 1008,9 hPa 0,0 mm 0,1 km/h (0 Bft) S 190 ° 0 min 0,000 mm 0,0 UV-I 0 W/m² -0,6 °C 2,3 °C 1,6 km/h (1 Bft)
03.02.2017 00:41 2,3 °C 2,3 °C 81 % 1008,9 hPa 0,0 mm 0,0 km/h (0 Bft) S 190 ° 0 min 0,000 mm 0,0 UV-I 0 W/m² -0,6 °C 2,3 °C 0,0 km/h (0 Bft)
03.02.2017 00:42 2,3 °C 2,3 °C 82 % 1009,0 hPa 0,0 mm 0,3 km/h (0 Bft) S 190 ° 0 min 0,000 mm 0,0 UV-I 0 W/m² -0,4 °C 2,3 °C 1,6 km/h (1 Bft)
03.02.2017 00:43 2,3 °C 2,3 °C 82 % 1009,0 hPa 0,0 mm 0,5 km/h (0 Bft) S 190 ° 0 min 0,000 mm 0,0 UV-I 0 W/m² -0,4 °C 2,3 °C 1,6 km/h (1 Bft)
03.02.2017 00:44 2,2 °C 2,3 °C 82 % 1009,0 hPa 0,0 mm 0,0 km/h (0 Bft) S 190 ° 0 min 0,000 mm 0,0 UV-I 0 W/m² -0,5 °C 2,2 °C 0,0 km/h (0 Bft)
03.02.2017 00:45 2,2 °C 2,2 °C 82 % 1009,0 hPa 0,0 mm 0,0 km/h (0 Bft) S 190 ° 0 min 0,000 mm 0,0 UV-I 0 W/m² -0,5 °C 2,2 °C 0,0 km/h (0 Bft)
03.02.2017 00:46 2,2 °C 2,2 °C 82 % 1008,9 hPa 0,0 mm 0,7 km/h (0 Bft) S 190 ° 0 min 0,000 mm 0,0 UV-I 0 W/m² -0,5 °C 2,2 °C 3,2 km/h (1 Bft)
03.02.2017 00:47 2,2 °C 2,2 °C 82 % 1008,9 hPa 0,0 mm 1,3 km/h (1 Bft) S 190 ° 0 min 0,000 mm 0,0 UV-I 0 W/m² -0,5 °C 2,2 °C 3,2 km/h (1 Bft)
03.02.2017 00:48 2,1 °C 2,2 °C 82 % 1008,9 hPa 0,0 mm 1,3 km/h (1 Bft) S 190 ° 0 min 0,000 mm 0,0 UV-I 0 W/m² -0,6 °C 2,1 °C 3,2 km/h (1 Bft)
03.02.2017 00:49 2,1 °C 2,1 °C 83 % 1008,9 hPa 0,0 mm 0,9 km/h (0 Bft) S 190 ° 0 min 0,000 mm 0,0 UV-I 0 W/m² -0,5 °C 2,1 °C 1,6 km/h (1 Bft)
03.02.2017 00:50 2,1 °C 2,1 °C 83 % 1008,9 hPa 0,0 mm 1,8 km/h (1 Bft) S 190 ° 0 min 0,000 mm 0,0 UV-I 0 W/m² -0,5 °C 2,1 °C 3,2 km/h (1 Bft)
03.02.2017 00:51 1,9 °C 2,1 °C 83 % 1009,0 hPa 0,0 mm 1,8 km/h (1 Bft) S 190 ° 0 min 0,000 mm 0,0 UV-I 0 W/m² -0,7 °C 1,9 °C 3,2 km/h (1 Bft)
03.02.2017 00:52 1,9 °C 1,9 °C 83 % 1009,0 hPa 0,0 mm 0,7 km/h (0 Bft) S 190 ° 0 min 0,000 mm 0,0 UV-I 0 W/m² -0,7 °C 1,9 °C 1,6 km/h (1 Bft)
03.02.2017 00:53 1,8 °C 1,9 °C 83 % 1008,9 hPa 0,0 mm 1,1 km/h (1 Bft) S 190 ° 0 min 0,000 mm 0,0 UV-I 0 W/m² -0,8 °C 1,8 °C 3,2 km/h (1 Bft)
03.02.2017 00:54 1,8 °C 1,8 °C 83 % 1008,9 hPa 0,0 mm 0,3 km/h (0 Bft) S 190 ° 0 min 0,000 mm 0,0 UV-I 0 W/m² -0,8 °C 1,8 °C 1,6 km/h (1 Bft)
03.02.2017 00:55 1,7 °C 1,8 °C 83 % 1008,9 hPa 0,0 mm 1,5 km/h (1 Bft) S 190 ° 0 min 0,000 mm 0,0 UV-I 0 W/m² -0,9 °C 1,7 °C 3,2 km/h (1 Bft)
03.02.2017 00:56 1,7 °C 1,7 °C 84 % 1008,9 hPa 0,0 mm 0,0 km/h (0 Bft) S 190 ° 0 min 0,000 mm 0,0 UV-I 0 W/m² -0,7 °C 1,7 °C 0,0 km/h (0 Bft)
03.02.2017 00:57 1,7 °C 1,7 °C 83 % 1008,9 hPa 0,0 mm 0,0 km/h (0 Bft) S 190 ° 0 min 0,000 mm 0,0 UV-I 0 W/m² -0,9 °C 1,7 °C 0,0 km/h (0 Bft)
03.02.2017 00:58 1,6 °C 1,7 °C 83 % 1008,9 hPa 0,0 mm 0,7 km/h (0 Bft) S 190 ° 0 min 0,000 mm 0,0 UV-I 0 W/m² -1,0 °C 1,6 °C 1,6 km/h (1 Bft)
03.02.2017 00:59 1,6 °C 1,6 °C 84 % 1008,9 hPa 0,0 mm 0,0 km/h (0 Bft) S 190 ° 0 min 0,000 mm 0,0 UV-I 0 W/m² -0,8 °C 1,6 °C 0,0 km/h (0 Bft)
03.02.2017 01:00 1,6 °C 1,6 °C 84 % 1008,9 hPa 0,0 mm 0,6 km/h (0 Bft) S 190 ° 0 min 0,000 mm 0,0 UV-I 0 W/m² -0,8 °C 1,6 °C 1,6 km/h (1 Bft)
03.02.2017 01:01 1,5 °C 1,6 °C 84 % 1008,9 hPa 0,0 mm 1,8 km/h (1 Bft) S 190 ° 0 min 0,000 mm 0,0 UV-I 0 W/m² -0,9 °C 1,5 °C 3,2 km/h (1 Bft)
03.02.2017 01:02 1,5 °C 1,5 °C 84 % 1008,9 hPa 0,0 mm 1,9 km/h (1 Bft) S 190 ° 0 min 0,000 mm 0,0 UV-I 0 W/m² -0,9 °C 1,5 °C 3,2 km/h (1 Bft)
03.02.2017 01:03 1,4 °C 1,5 °C 84 % 1008,9 hPa 0,0 mm 1,1 km/h (1 Bft) S 190 ° 0 min 0,000 mm 0,0 UV-I 0 W/m² -1,0 °C 1,4 °C 3,2 km/h (1 Bft)
03.02.2017 01:04 1,4 °C 1,4 °C 85 % 1008,9 hPa 0,0 mm 1,8 km/h (1 Bft) S 190 ° 0 min 0,000 mm 0,0 UV-I 0 W/m² -0,8 °C 1,4 °C 3,2 km/h (1 Bft)
03.02.2017 01:05 1,3 °C 1,4 °C 85 % 1008,9 hPa 0,0 mm 1,2 km/h (1 Bft) S 190 ° 0 min 0,000 mm 0,0 UV-I 0 W/m² -0,9 °C 1,3 °C 3,2 km/h (1 Bft)
03.02.2017 01:06 1,3 °C 1,3 °C 85 % 1008,8 hPa 0,0 mm 0,0 km/h (0 Bft) S 190 ° 0 min 0,000 mm 0,0 UV-I 0 W/m² -0,9 °C 1,3 °C 0,0 km/h (0 Bft)
03.02.2017 01:07 1,3 °C 1,3 °C 85 % 1008,8 hPa 0,0 mm 0,0 km/h (0 Bft) S 190 ° 0 min 0,000 mm 0,0 UV-I 0 W/m² -0,9 °C 1,3 °C 0,0 km/h (0 Bft)
03.02.2017 01:08 1,3 °C 1,3 °C 85 % 1008,8 hPa 0,0 mm 0,0 km/h (0 Bft) S 190 ° 0 min 0,000 mm 0,0 UV-I 0 W/m² -0,9 °C 1,3 °C 0,0 km/h (0 Bft)
03.02.2017 01:09 1,2 °C 1,3 °C 85 % 1008,8 hPa 0,0 mm 0,0 km/h (0 Bft) S 190 ° 0 min 0,000 mm 0,0 UV-I 0 W/m² -1,0 °C 1,2 °C 0,0 km/h (0 Bft)
03.02.2017 01:10 1,2 °C 1,2 °C 86 % 1008,8 hPa 0,0 mm 0,0 km/h (0 Bft) S 190 ° 0 min 0,000 mm 0,0 UV-I 0 W/m² -0,9 °C 1,2 °C 0,0 km/h (0 Bft)
03.02.2017 01:11 1,2 °C 1,2 °C 86 % 1008,8 hPa 0,0 mm 0,0 km/h (0 Bft) S 190 ° 0 min 0,000 mm 0,0 UV-I 0 W/m² -0,9 °C 1,2 °C 0,0 km/h (0 Bft)
03.02.2017 01:12 1,2 °C 1,2 °C 86 % 1008,8 hPa 0,0 mm 0,0 km/h (0 Bft) S 190 ° 0 min 0,000 mm 0,0 UV-I 0 W/m² -0,9 °C 1,2 °C 0,0 km/h (0 Bft)
03.02.2017 01:13 1,2 °C 1,2 °C 86 % 1008,8 hPa 0,0 mm 0,0 km/h (0 Bft) S 190 ° 0 min 0,000 mm 0,0 UV-I 0 W/m² -0,9 °C 1,2 °C 0,0 km/h (0 Bft)
03.02.2017 01:14 1,1 °C 1,2 °C 86 % 1008,8 hPa 0,0 mm 0,0 km/h (0 Bft) S 190 ° 0 min 0,000 mm 0,0 UV-I 0 W/m² -1,0 °C 1,1 °C 0,0 km/h (0 Bft)
03.02.2017 01:15 1,1 °C 1,1 °C 86 % 1008,7 hPa 0,0 mm 0,0 km/h (0 Bft) S 190 ° 0 min 0,000 mm 0,0 UV-I 0 W/m² -1,0 °C 1,1 °C 0,0 km/h (0 Bft)
03.02.2017 01:16 1,1 °C 1,1 °C 87 % 1008,7 hPa 0,0 mm 0,0 km/h (0 Bft) S 190 ° 0 min 0,000 mm 0,0 UV-I 0 W/m² -0,8 °C 1,1 °C 0,0 km/h (0 Bft)
03.02.2017 01:17 1,1 °C 1,1 °C 87 % 1008,7 hPa 0,0 mm 0,0 km/h (0 Bft) S 190 ° 0 min 0,000 mm 0,0 UV-I 0 W/m² -0,8 °C 1,1 °C 0,0 km/h (0 Bft)
03.02.2017 01:18 1,0 °C 1,1 °C 87 % 1008,6 hPa 0,0 mm 0,0 km/h (0 Bft) S 190 ° 0 min 0,000 mm 0,0 UV-I 0 W/m² -0,9 °C 1,0 °C 0,0 km/h (0 Bft)
03.02.2017 01:19 1,0 °C 1,1 °C 87 % 1008,6 hPa 0,0 mm 0,0 km/h (0 Bft) S 190 ° 0 min 0,000 mm 0,0 UV-I 0 W/m² -0,9 °C 1,0 °C 0,0 km/h (0 Bft)
03.02.2017 01:20 1,0 °C 1,0 °C 87 % 1008,6 hPa 0,0 mm 0,0 km/h (0 Bft) S 190 ° 0 min 0,000 mm 0,0 UV-I 0 W/m² -0,9 °C 1,0 °C 0,0 km/h (0 Bft)
03.02.2017 01:21 1,0 °C 1,0 °C 87 % 1008,6 hPa 0,0 mm 0,0 km/h (0 Bft) S 190 ° 0 min 0,000 mm 0,0 UV-I 0 W/m² -0,9 °C 1,0 °C 0,0 km/h (0 Bft)
03.02.2017 01:22 0,9 °C 1,0 °C 87 % 1008,6 hPa 0,0 mm 2,0 km/h (1 Bft) W 275 ° 0 min 0,000 mm 0,0 UV-I 0 W/m² -1,0 °C 0,9 °C 3,2 km/h (1 Bft)
03.02.2017 01:23 0,9 °C 1,0 °C 87 % 1008,6 hPa 0,0 mm 2,3 km/h (1 Bft) W 275 ° 0 min 0,000 mm 0,0 UV-I 0 W/m² -1,0 °C 0,9 °C 3,2 km/h (1 Bft)
03.02.2017 01:24 0,9 °C 0,9 °C 87 % 1008,6 hPa 0,0 mm 0,5 km/h (0 Bft) W 275 ° 0 min 0,000 mm 0,0 UV-I 0 W/m² -1,0 °C 0,9 °C 1,6 km/h (1 Bft)
03.02.2017 01:25 0,9 °C 0,9 °C 87 % 1008,6 hPa 0,0 mm 0,0 km/h (0 Bft) W 275 ° 0 min 0,000 mm 0,0 UV-I 0 W/m² -1,0 °C 0,9 °C 0,0 km/h (0 Bft)
03.02.2017 01:26 0,9 °C 0,9 °C 87 % 1008,6 hPa 0,0 mm 0,0 km/h (0 Bft) W 275 ° 0 min 0,000 mm 0,0 UV-I 0 W/m² -1,0 °C 0,9 °C 0,0 km/h (0 Bft)
03.02.2017 01:27 0,8 °C 0,9 °C 87 % 1008,6 hPa 0,0 mm 0,0 km/h (0 Bft) W 275 ° 0 min 0,000 mm 0,0 UV-I 0 W/m² -1,1 °C 0,8 °C 0,0 km/h (0 Bft)
03.02.2017 01:28 0,8 °C 0,8 °C 87 % 1008,6 hPa 0,0 mm 0,0 km/h (0 Bft) W 275 ° 0 min 0,000 mm 0,0 UV-I 0 W/m² -1,1 °C 0,8 °C 0,0 km/h (0 Bft)
03.02.2017 01:29 0,8 °C 0,8 °C 87 % 1008,5 hPa 0,0 mm 0,0 km/h (0 Bft) W 275 ° 0 min 0,000 mm 0,0 UV-I 0 W/m² -1,1 °C 0,8 °C 0,0 km/h (0 Bft)
03.02.2017 01:30 0,8 °C 0,8 °C 87 % 1008,6 hPa 0,0 mm 0,1 km/h (0 Bft) W 275 ° 0 min 0,000 mm 0,0 UV-I 0 W/m² -1,1 °C 0,8 °C 1,6 km/h (1 Bft)
03.02.2017 01:31 0,8 °C 0,8 °C 87 % 1008,5 hPa 0,0 mm 0,0 km/h (0 Bft) W 275 ° 0 min 0,000 mm 0,0 UV-I 0 W/m² -1,1 °C 0,8 °C 0,0 km/h (0 Bft)
03.02.2017 01:32 0,8 °C 0,8 °C 87 % 1008,5 hPa 0,0 mm 0,0 km/h (0 Bft) W 275 ° 0 min 0,000 mm 0,0 UV-I 0 W/m² -1,1 °C 0,8 °C 0,0 km/h (0 Bft)
03.02.2017 01:33 0,8 °C 0,8 °C 87 % 1008,5 hPa 0,0 mm 0,3 km/h (0 Bft) W 275 ° 0 min 0,000 mm 0,0 UV-I 0 W/m² -1,1 °C 0,8 °C 1,6 km/h (1 Bft)
03.02.2017 01:34 0,7 °C 0,8 °C 87 % 1008,5 hPa 0,0 mm 0,6 km/h (0 Bft) W 275 ° 0 min 0,000 mm 0,0 UV-I 0 W/m² -1,2 °C 0,7 °C 1,6 km/h (1 Bft)
03.02.2017 01:35 0,7 °C 0,8 °C 88 % 1008,5 hPa 0,0 mm 0,5 km/h (0 Bft) W 275 ° 0 min 0,000 mm 0,0 UV-I 0 W/m² -1,1 °C 0,7 °C 1,6 km/h (1 Bft)
03.02.2017 01:36 0,7 °C 0,7 °C 88 % 1008,5 hPa 0,0 mm 0,7 km/h (0 Bft) W 275 ° 0 min 0,000 mm 0,0 UV-I 0 W/m² -1,1 °C 0,7 °C 1,6 km/h (1 Bft)
03.02.2017 01:37 0,7 °C 0,7 °C 88 % 1008,5 hPa 0,0 mm 0,1 km/h (0 Bft) W 275 ° 0 min 0,000 mm 0,0 UV-I 0 W/m² -1,1 °C 0,7 °C 1,6 km/h (1 Bft)
03.02.2017 01:38 0,7 °C 0,7 °C 88 % 1008,5 hPa 0,0 mm 0,0 km/h (0 Bft) W 275 ° 0 min 0,000 mm 0,0 UV-I 0 W/m² -1,1 °C 0,7 °C 0,0 km/h (0 Bft)
03.02.2017 01:39 0,7 °C 0,7 °C 88 % 1008,5 hPa 0,0 mm 0,1 km/h (0 Bft) W 275 ° 0 min 0,000 mm 0,0 UV-I 0 W/m² -1,1 °C 0,7 °C 1,6 km/h (1 Bft)
03.02.2017 01:40 0,7 °C 0,7 °C 88 % 1008,5 hPa 0,0 mm 0,5 km/h (0 Bft) W 275 ° 0 min 0,000 mm 0,0 UV-I 0 W/m² -1,1 °C 0,7 °C 1,6 km/h (1 Bft)
03.02.2017 01:41 0,6 °C 0,7 °C 88 % 1008,5 hPa 0,0 mm 0,0 km/h (0 Bft) W 275 ° 0 min 0,000 mm 0,0 UV-I 0 W/m² -1,2 °C 0,6 °C 0,0 km/h (0 Bft)
03.02.2017 01:42 0,6 °C 0,6 °C 88 % 1008,4 hPa 0,0 mm 0,0 km/h (0 Bft) W 275 ° 0 min 0,000 mm 0,0 UV-I 0 W/m² -1,2 °C 0,6 °C 0,0 km/h (0 Bft)
03.02.2017 01:43 0,6 °C 0,6 °C 88 % 1008,5 hPa 0,0 mm 0,6 km/h (0 Bft) W 275 ° 0 min 0,000 mm 0,0 UV-I 0 W/m² -1,2 °C 0,6 °C 1,6 km/h (1 Bft)
03.02.2017 01:44 0,6 °C 0,6 °C 88 % 1008,5 hPa 0,0 mm 1,3 km/h (1 Bft) W 275 ° 0 min 0,000 mm 0,0 UV-I 0 W/m² -1,2 °C 0,6 °C 3,2 km/h (1 Bft)
03.02.2017 01:45 0,6 °C 0,6 °C 88 % 1008,5 hPa 0,0 mm 0,4 km/h (0 Bft) W 275 ° 0 min 0,000 mm 0,0 UV-I 0 W/m² -1,2 °C 0,6 °C 1,6 km/h (1 Bft)
03.02.2017 01:46 0,6 °C 0,6 °C 88 % 1008,5 hPa 0,0 mm 0,3 km/h (0 Bft) W 275 ° 0 min 0,000 mm 0,0 UV-I 0 W/m² -1,2 °C 0,6 °C 1,6 km/h (1 Bft)
03.02.2017 01:47 0,6 °C 0,6 °C 88 % 1008,5 hPa 0,0 mm 0,2 km/h (0 Bft) W 275 ° 0 min 0,000 mm 0,0 UV-I 0 W/m² -1,2 °C 0,6 °C 1,6 km/h (1 Bft)
03.02.2017 01:48 0,5 °C 0,6 °C 88 % 1008,5 hPa 0,0 mm 0,6 km/h (0 Bft) W 275 ° 0 min 0,000 mm 0,0 UV-I 0 W/m² -1,3 °C 0,5 °C 1,6 km/h (1 Bft)
03.02.2017 01:49 0,5 °C 0,5 °C 88 % 1008,5 hPa 0,0 mm 0,4 km/h (0 Bft) W 275 ° 0 min 0,000 mm 0,0 UV-I 0 W/m² -1,3 °C 0,5 °C 1,6 km/h (1 Bft)
03.02.2017 01:50 0,4 °C 0,5 °C 88 % 1008,6 hPa 0,0 mm 1,1 km/h (1 Bft) W 275 ° 0 min 0,000 mm 0,0 UV-I 0 W/m² -1,3 °C 0,4 °C 1,6 km/h (1 Bft)
03.02.2017 01:51 0,4 °C 0,4 °C 88 % 1008,6 hPa 0,0 mm 1,3 km/h (1 Bft) W 275 ° 0 min 0,000 mm 0,0 UV-I 0 W/m² -1,3 °C 0,4 °C 3,2 km/h (1 Bft)
03.02.2017 01:52 0,4 °C 0,4 °C 88 % 1008,6 hPa 0,0 mm 0,3 km/h (0 Bft) W 275 ° 0 min 0,000 mm 0,0 UV-I 0 W/m² -1,3 °C 0,4 °C 1,6 km/h (1 Bft)
03.02.2017 01:53 0,4 °C 0,4 °C 89 % 1008,5 hPa 0,0 mm 0,1 km/h (0 Bft) W 275 ° 0 min 0,000 mm 0,0 UV-I 0 W/m² -1,2 °C 0,4 °C 1,6 km/h (1 Bft)
03.02.2017 01:54 0,4 °C 0,4 °C 89 % 1008,5 hPa 0,0 mm 0,2 km/h (0 Bft) W 275 ° 0 min 0,000 mm 0,0 UV-I 0 W/m² -1,2 °C 0,4 °C 1,6 km/h (1 Bft)
03.02.2017 01:55 0,4 °C 0,4 °C 89 % 1008,5 hPa 0,0 mm 1,0 km/h (0 Bft) W 275 ° 0 min 0,000 mm 0,0 UV-I 0 W/m² -1,2 °C 0,4 °C 1,6 km/h (1 Bft)
03.02.2017 01:56 0,4 °C 0,4 °C 89 % 1008,5 hPa 0,0 mm 0,5 km/h (0 Bft) W 275 ° 0 min 0,000 mm 0,0 UV-I 0 W/m² -1,2 °C 0,4 °C 1,6 km/h (1 Bft)
03.02.2017 01:57 0,4 °C 0,4 °C 89 % 1008,6 hPa 0,0 mm 0,1 km/h (0 Bft) W 275 ° 0 min 0,000 mm 0,0 UV-I 0 W/m² -1,2 °C 0,4 °C 1,6 km/h (1 Bft)
03.02.2017 01:58 0,4 °C 0,4 °C 89 % 1008,6 hPa 0,0 mm 0,2 km/h (0 Bft) W 275 ° 0 min 0,000 mm 0,0 UV-I 0 W/m² -1,2 °C 0,4 °C 1,6 km/h (1 Bft)
03.02.2017 01:59 0,3 °C 0,4 °C 89 % 1008,6 hPa 0,0 mm 0,4 km/h (0 Bft) W 275 ° 0 min 0,000 mm 0,0 UV-I 0 W/m² -1,3 °C 0,3 °C 1,6 km/h (1 Bft)
03.02.2017 02:00 0,3 °C 0,4 °C 89 % 1008,6 hPa 0,0 mm 0,6 km/h (0 Bft) W 275 ° 0 min 0,000 mm 0,0 UV-I 0 W/m² -1,3 °C 0,3 °C 1,6 km/h (1 Bft)
03.02.2017 02:01 0,3 °C 0,4 °C 89 % 1008,6 hPa 0,0 mm 1,3 km/h (1 Bft) W 275 ° 0 min 0,000 mm 0,0 UV-I 0 W/m² -1,3 °C 0,3 °C 3,2 km/h (1 Bft)
03.02.2017 02:02 0,3 °C 0,3 °C 89 % 1008,6 hPa 0,0 mm 1,5 km/h (1 Bft) W 275 ° 0 min 0,000 mm 0,0 UV-I 0 W/m² -1,3 °C 0,3 °C 3,2 km/h (1 Bft)
03.02.2017 02:03 0,3 °C 0,3 °C 89 % 1008,5 hPa 0,0 mm 1,3 km/h (1 Bft) W 275 ° 0 min 0,000 mm 0,0 UV-I 0 W/m² -1,3 °C 0,3 °C 3,2 km/h (1 Bft)
03.02.2017 02:04 0,3 °C 0,3 °C 89 % 1008,6 hPa 0,0 mm 0,0 km/h (0 Bft) W 275 ° 0 min 0,000 mm 0,0 UV-I 0 W/m² -1,3 °C 0,3 °C 0,0 km/h (0 Bft)
03.02.2017 02:05 0,3 °C 0,3 °C 90 % 1008,6 hPa 0,0 mm 0,0 km/h (0 Bft) W 275 ° 0 min 0,000 mm 0,0 UV-I 0 W/m² -1,1 °C 0,3 °C 0,0 km/h (0 Bft)
03.02.2017 02:06 0,3 °C 0,3 °C 90 % 1008,6 hPa 0,0 mm 0,0 km/h (0 Bft) W 275 ° 0 min 0,000 mm 0,0 UV-I 0 W/m² -1,1 °C 0,3 °C 0,0 km/h (0 Bft)
03.02.2017 02:07 0,3 °C 0,3 °C 90 % 1008,6 hPa 0,0 mm 0,4 km/h (0 Bft) W 275 ° 0 min 0,000 mm 0,0 UV-I 0 W/m² -1,1 °C 0,3 °C 1,6 km/h (1 Bft)
03.02.2017 02:08 0,3 °C 0,3 °C 90 % 1008,6 hPa 0,0 mm 3,0 km/h (1 Bft) W 275 ° 0 min 0,000 mm 0,0 UV-I 0 W/m² -1,1 °C 0,3 °C 3,2 km/h (1 Bft)
03.02.2017 02:09 0,3 °C 0,3 °C 90 % 1008,6 hPa 0,0 mm 3,3 km/h (1 Bft) W 275 ° 0 min 0,000 mm 0,0 UV-I 0 W/m² -1,1 °C 0,3 °C 4,8 km/h (1 Bft)
03.02.2017 02:10 0,3 °C 0,3 °C 90 % 1008,6 hPa 0,0 mm 1,5 km/h (1 Bft) W 275 ° 0 min 0,000 mm 0,0 UV-I 0 W/m² -1,1 °C 0,3 °C 3,2 km/h (1 Bft)
03.02.2017 02:11 0,3 °C 0,3 °C 90 % 1008,6 hPa 0,0 mm 0,0 km/h (0 Bft) W 275 ° 0 min 0,000 mm 0,0 UV-I 0 W/m² -1,1 °C 0,3 °C 0,0 km/h (0 Bft)
03.02.2017 02:12 0,3 °C 0,3 °C 90 % 1008,6 hPa 0,0 mm 0,7 km/h (0 Bft) W 275 ° 0 min 0,000 mm 0,0 UV-I 0 W/m² -1,1 °C 0,3 °C 1,6 km/h (1 Bft)
03.02.2017 02:13 0,4 °C 0,4 °C 91 % 1008,6 hPa 0,0 mm 2,3 km/h (1 Bft) W 275 ° 0 min 0,000 mm 0,0 UV-I 0 W/m² -0,9 °C 0,4 °C 3,2 km/h (1 Bft)
03.02.2017 02:14 0,4 °C 0,4 °C 91 % 1008,7 hPa 0,0 mm 0,6 km/h (0 Bft) W 275 ° 0 min 0,000 mm 0,0 UV-I 0 W/m² -0,9 °C 0,4 °C 1,6 km/h (1 Bft)
03.02.2017 02:15 0,4 °C 0,4 °C 91 % 1008,7 hPa 0,0 mm 0,1 km/h (0 Bft) W 275 ° 0 min 0,000 mm 0,0 UV-I 0 W/m² -0,9 °C 0,4 °C 1,6 km/h (1 Bft)
03.02.2017 02:16 0,4 °C 0,4 °C 90 % 1008,6 hPa 0,0 mm 0,3 km/h (0 Bft) W 275 ° 0 min 0,000 mm 0,0 UV-I 0 W/m² -1,0 °C 0,4 °C 1,6 km/h (1 Bft)
03.02.2017 02:17 0,4 °C 0,4 °C 90 % 1008,6 hPa 0,0 mm 0,0 km/h (0 Bft) W 275 ° 0 min 0,000 mm 0,0 UV-I 0 W/m² -1,0 °C 0,4 °C 0,0 km/h (0 Bft)
03.02.2017 02:18 0,4 °C 0,4 °C 90 % 1008,6 hPa 0,0 mm 0,2 km/h (0 Bft) W 275 ° 0 min 0,000 mm 0,0 UV-I 0 W/m² -1,0 °C 0,4 °C 1,6 km/h (1 Bft)
03.02.2017 02:19 0,4 °C 0,4 °C 90 % 1008,7 hPa 0,0 mm 0,9 km/h (0 Bft) W 275 ° 0 min 0,000 mm 0,0 UV-I 0 W/m² -1,0 °C 0,4 °C 3,2 km/h (1 Bft)
03.02.2017 02:20 0,4 °C 0,4 °C 90 % 1008,7 hPa 0,0 mm 0,1 km/h (0 Bft) W 275 ° 0 min 0,000 mm 0,0 UV-I 0 W/m² -1,0 °C 0,4 °C 1,6 km/h (1 Bft)
03.02.2017 02:21 0,4 °C 0,4 °C 90 % 1008,6 hPa 0,0 mm 0,0 km/h (0 Bft) W 275 ° 0 min 0,000 mm 0,0 UV-I 0 W/m² -1,0 °C 0,4 °C 0,0 km/h (0 Bft)
03.02.2017 02:22 0,4 °C 0,4 °C 90 % 1008,6 hPa 0,0 mm 0,3 km/h (0 Bft) W 275 ° 0 min 0,000 mm 0,0 UV-I 0 W/m² -1,0 °C 0,4 °C 1,6 km/h (1 Bft)
03.02.2017 02:23 0,4 °C 0,4 °C 90 % 1008,6 hPa 0,0 mm 0,5 km/h (0 Bft) W 275 ° 0 min 0,000 mm 0,0 UV-I 0 W/m² -1,0 °C 0,4 °C 1,6 km/h (1 Bft)
03.02.2017 02:24 0,4 °C 0,4 °C 90 % 1008,7 hPa 0,0 mm 0,0 km/h (0 Bft) W 275 ° 0 min 0,000 mm 0,0 UV-I 0 W/m² -1,0 °C 0,4 °C 0,0 km/h (0 Bft)
03.02.2017 02:25 0,4 °C 0,4 °C 90 % 1008,6 hPa 0,0 mm 0,9 km/h (0 Bft) W 275 ° 0 min 0,000 mm 0,0 UV-I 0 W/m² -1,0 °C 0,4 °C 3,2 km/h (1 Bft)
03.02.2017 02:26 0,4 °C 0,4 °C 90 % 1008,6 hPa 0,0 mm 0,7 km/h (0 Bft) W 275 ° 0 min 0,000 mm 0,0 UV-I 0 W/m² -1,0 °C 0,4 °C 1,6 km/h (1 Bft)
03.02.2017 02:27 0,4 °C 0,4 °C 90 % 1008,6 hPa 0,0 mm 0,0 km/h (0 Bft) W 275 ° 0 min 0,000 mm 0,0 UV-I 0 W/m² -1,0 °C 0,4 °C 0,0 km/h (0 Bft)
03.02.2017 02:28 0,4 °C 0,4 °C 90 % 1008,6 hPa 0,0 mm 0,0 km/h (0 Bft) W 275 ° 0 min 0,000 mm 0,0 UV-I 0 W/m² -1,0 °C 0,4 °C 0,0 km/h (0 Bft)
03.02.2017 02:29 0,4 °C 0,4 °C 90 % 1008,6 hPa 0,0 mm 0,0 km/h (0 Bft) W 275 ° 0 min 0,000 mm 0,0 UV-I 0 W/m² -1,0 °C 0,4 °C 0,0 km/h (0 Bft)
03.02.2017 02:30 0,4 °C 0,4 °C 90 % 1008,6 hPa 0,0 mm 0,0 km/h (0 Bft) W 275 ° 0 min 0,000 mm 0,0 UV-I 0 W/m² -1,0 °C 0,4 °C 0,0 km/h (0 Bft)
03.02.2017 02:31 0,4 °C 0,4 °C 90 % 1008,6 hPa 0,0 mm 0,0 km/h (0 Bft) W 275 ° 0 min 0,000 mm 0,0 UV-I 0 W/m² -1,0 °C 0,4 °C 0,0 km/h (0 Bft)
03.02.2017 02:32 0,4 °C 0,4 °C 90 % 1008,6 hPa 0,0 mm 0,5 km/h (0 Bft) W 275 ° 0 min 0,000 mm 0,0 UV-I 0 W/m² -1,0 °C 0,4 °C 1,6 km/h (1 Bft)
03.02.2017 02:33 0,4 °C 0,4 °C 90 % 1008,7 hPa 0,0 mm 3,2 km/h (1 Bft) NW 304 ° 0 min 0,000 mm 0,0 UV-I 0 W/m² -1,0 °C 0,4 °C 4,8 km/h (1 Bft)
03.02.2017 02:34 0,4 °C 0,4 °C 90 % 1008,7 hPa 0,0 mm 0,9 km/h (0 Bft) NW 304 ° 0 min 0,000 mm 0,0 UV-I 0 W/m² -1,0 °C 0,4 °C 1,6 km/h (1 Bft)
03.02.2017 02:35 0,4 °C 0,4 °C 90 % 1008,7 hPa 0,0 mm 0,0 km/h (0 Bft) NW 304 ° 0 min 0,000 mm 0,0 UV-I 0 W/m² -1,0 °C 0,4 °C 0,0 km/h (0 Bft)
03.02.2017 02:36 0,4 °C 0,4 °C 90 % 1008,6 hPa 0,0 mm 2,0 km/h (1 Bft) NW 304 ° 0 min 0,000 mm 0,0 UV-I 0 W/m² -1,0 °C 0,4 °C 3,2 km/h (1 Bft)
03.02.2017 02:37 0,4 °C 0,4 °C 90 % 1008,6 hPa 0,0 mm 2,8 km/h (1 Bft) NW 304 ° 0 min 0,000 mm 0,0 UV-I 0 W/m² -1,0 °C 0,4 °C 4,8 km/h (1 Bft)
03.02.2017 02:38 0,4 °C 0,4 °C 90 % 1008,6 hPa 0,0 mm 1,4 km/h (1 Bft) NW 304 ° 0 min 0,000 mm 0,0 UV-I 0 W/m² -1,0 °C 0,4 °C 3,2 km/h (1 Bft)
03.02.2017 02:39 0,4 °C 0,4 °C 90 % 1008,6 hPa 0,0 mm 1,0 km/h (0 Bft) NW 304 ° 0 min 0,000 mm 0,0 UV-I 0 W/m² -1,0 °C 0,4 °C 3,2 km/h (1 Bft)
03.02.2017 02:40 0,4 °C 0,4 °C 90 % 1008,6 hPa 0,0 mm 0,5 km/h (0 Bft) NW 304 ° 0 min 0,000 mm 0,0 UV-I 0 W/m² -1,0 °C 0,4 °C 1,6 km/h (1 Bft)
03.02.2017 02:41 0,4 °C 0,4 °C 90 % 1008,5 hPa 0,0 mm 0,0 km/h (0 Bft) NW 304 ° 0 min 0,000 mm 0,0 UV-I 0 W/m² -1,0 °C 0,4 °C 0,0 km/h (0 Bft)
03.02.2017 02:42 0,4 °C 0,4 °C 90 % 1008,6 hPa 0,0 mm 0,0 km/h (0 Bft) NW 304 ° 0 min 0,000 mm 0,0 UV-I 0 W/m² -1,0 °C 0,4 °C 0,0 km/h (0 Bft)
03.02.2017 02:43 0,4 °C 0,4 °C 90 % 1008,6 hPa 0,0 mm 0,0 km/h (0 Bft) NW 304 ° 0 min 0,000 mm 0,0 UV-I 0 W/m² -1,0 °C 0,4 °C 0,0 km/h (0 Bft)
03.02.2017 02:44 0,4 °C 0,4 °C 90 % 1008,6 hPa 0,0 mm 0,7 km/h (0 Bft) NW 304 ° 0 min 0,000 mm 0,0 UV-I 0 W/m² -1,0 °C 0,4 °C 1,6 km/h (1 Bft)
03.02.2017 02:45 0,4 °C 0,4 °C 90 % 1008,6 hPa 0,0 mm 2,0 km/h (1 Bft) NW 304 ° 0 min 0,000 mm 0,0 UV-I 0 W/m² -1,0 °C 0,4 °C 3,2 km/h (1 Bft)
03.02.2017 02:46 0,4 °C 0,4 °C 90 % 1008,6 hPa 0,0 mm 1,0 km/h (0 Bft) NW 304 ° 0 min 0,000 mm 0,0 UV-I 0 W/m² -1,0 °C 0,4 °C 3,2 km/h (1 Bft)
03.02.2017 02:47 0,4 °C 0,4 °C 90 % 1008,6 hPa 0,0 mm 0,8 km/h (0 Bft) NW 304 ° 0 min 0,000 mm 0,0 UV-I 0 W/m² -1,0 °C 0,4 °C 1,6 km/h (1 Bft)
03.02.2017 02:48 0,4 °C 0,4 °C 90 % 1008,6 hPa 0,0 mm 0,1 km/h (0 Bft) NW 304 ° 0 min 0,000 mm 0,0 UV-I 0 W/m² -1,0 °C 0,4 °C 1,6 km/h (1 Bft)
03.02.2017 02:49 0,4 °C 0,4 °C 90 % 1008,6 hPa 0,0 mm 0,3 km/h (0 Bft) NW 304 ° 0 min 0,000 mm 0,0 UV-I 0 W/m² -1,0 °C 0,4 °C 1,6 km/h (1 Bft)
03.02.2017 02:50 0,4 °C 0,4 °C 90 % 1008,6 hPa 0,0 mm 0,3 km/h (0 Bft) NW 304 ° 0 min 0,000 mm 0,0 UV-I 0 W/m² -1,0 °C 0,4 °C 1,6 km/h (1 Bft)
03.02.2017 02:51 0,4 °C 0,4 °C 90 % 1008,6 hPa 0,0 mm 0,4 km/h (0 Bft) NW 304 ° 0 min 0,000 mm 0,0 UV-I 0 W/m² -1,0 °C 0,4 °C 1,6 km/h (1 Bft)
03.02.2017 02:52 0,4 °C 0,4 °C 90 % 1008,5 hPa 0,0 mm 0,5 km/h (0 Bft) NW 304 ° 0 min 0,000 mm 0,0 UV-I 0 W/m² -1,0 °C 0,4 °C 1,6 km/h (1 Bft)
03.02.2017 02:53 0,4 °C 0,4 °C 90 % 1008,6 hPa 0,0 mm 0,7 km/h (0 Bft) NW 304 ° 0 min 0,000 mm 0,0 UV-I 0 W/m² -1,0 °C 0,4 °C 1,6 km/h (1 Bft)
03.02.2017 02:54 0,4 °C 0,4 °C 90 % 1008,6 hPa 0,0 mm 0,3 km/h (0 Bft) NW 304 ° 0 min 0,000 mm 0,0 UV-I 0 W/m² -1,0 °C 0,4 °C 1,6 km/h (1 Bft)
03.02.2017 02:55 0,4 °C 0,4 °C 90 % 1008,5 hPa 0,0 mm 0,0 km/h (0 Bft) NW 304 ° 0 min 0,000 mm 0,0 UV-I 0 W/m² -1,0 °C 0,4 °C 0,0 km/h (0 Bft)
03.02.2017 02:56 0,4 °C 0,4 °C 90 % 1008,5 hPa 0,0 mm 0,0 km/h (0 Bft) NW 304 ° 0 min 0,000 mm 0,0 UV-I 0 W/m² -1,0 °C 0,4 °C 0,0 km/h (0 Bft)
03.02.2017 02:57 0,4 °C 0,4 °C 90 % 1008,5 hPa 0,0 mm 0,0 km/h (0 Bft) NW 304 ° 0 min 0,000 mm 0,0 UV-I 0 W/m² -1,0 °C 0,4 °C 0,0 km/h (0 Bft)
03.02.2017 02:58 0,4 °C 0,4 °C 90 % 1008,5 hPa 0,0 mm 0,0 km/h (0 Bft) NW 304 ° 0 min 0,000 mm 0,0 UV-I 0 W/m² -1,0 °C 0,4 °C 0,0 km/h (0 Bft)
03.02.2017 02:59 0,4 °C 0,4 °C 90 % 1008,5 hPa 0,0 mm 0,3 km/h (0 Bft) NW 304 ° 0 min 0,000 mm 0,0 UV-I 0 W/m² -1,0 °C 0,4 °C 1,6 km/h (1 Bft)
03.02.2017 03:00 0,4 °C 0,4 °C 90 % 1008,5 hPa 0,0 mm 0,6 km/h (0 Bft) NW 304 ° 0 min 0,000 mm 0,0 UV-I 0 W/m² -1,0 °C 0,4 °C 1,6 km/h (1 Bft)
03.02.2017 03:01 0,4 °C 0,4 °C 90 % 1008,5 hPa 0,0 mm 0,1 km/h (0 Bft) NW 304 ° 0 min 0,000 mm 0,0 UV-I 0 W/m² -1,0 °C 0,4 °C 1,6 km/h (1 Bft)
03.02.2017 03:02 0,4 °C 0,4 °C 90 % 1008,5 hPa 0,0 mm 0,7 km/h (0 Bft) NW 304 ° 0 min 0,000 mm 0,0 UV-I 0 W/m² -1,0 °C 0,4 °C 1,6 km/h (1 Bft)
03.02.2017 03:03 0,3 °C 0,4 °C 90 % 1008,5 hPa 0,0 mm 1,1 km/h (1 Bft) NW 304 ° 0 min 0,000 mm 0,0 UV-I 0 W/m² -1,1 °C 0,3 °C 3,2 km/h (1 Bft)
03.02.2017 03:04 0,3 °C 0,4 °C 90 % 1008,5 hPa 0,0 mm 0,1 km/h (0 Bft) NW 304 ° 0 min 0,000 mm 0,0 UV-I 0 W/m² -1,1 °C 0,3 °C 1,6 km/h (1 Bft)
03.02.2017 03:05 0,3 °C 0,4 °C 90 % 1008,5 hPa 0,0 mm 0,0 km/h (0 Bft) NW 304 ° 0 min 0,000 mm 0,0 UV-I 0 W/m² -1,1 °C 0,3 °C 0,0 km/h (0 Bft)
03.02.2017 03:06 0,3 °C 0,3 °C 90 % 1008,4 hPa 0,0 mm 0,0 km/h (0 Bft) NW 304 ° 0 min 0,000 mm 0,0 UV-I 0 W/m² -1,1 °C 0,3 °C 0,0 km/h (0 Bft)
03.02.2017 03:07 0,3 °C 0,3 °C 90 % 1008,5 hPa 0,0 mm 1,4 km/h (1 Bft) NW 304 ° 0 min 0,000 mm 0,0 UV-I 0 W/m² -1,1 °C 0,3 °C 1,6 km/h (1 Bft)
03.02.2017 03:08 0,3 °C 0,3 °C 90 % 1008,5 hPa 0,0 mm 1,6 km/h (1 Bft) NW 304 ° 0 min 0,000 mm 0,0 UV-I 0 W/m² -1,1 °C 0,3 °C 3,2 km/h (1 Bft)
03.02.2017 03:09 0,3 °C 0,3 °C 89 % 1008,5 hPa 0,0 mm 0,1 km/h (0 Bft) NW 304 ° 0 min 0,000 mm 0,0 UV-I 0 W/m² -1,3 °C 0,3 °C 1,6 km/h (1 Bft)
03.02.2017 03:10 0,3 °C 0,3 °C 89 % 1008,5 hPa 0,0 mm 1,9 km/h (1 Bft) NW 304 ° 0 min 0,000 mm 0,0 UV-I 0 W/m² -1,3 °C 0,3 °C 3,2 km/h (1 Bft)
03.02.2017 03:11 0,3 °C 0,3 °C 89 % 1008,5 hPa 0,0 mm 1,4 km/h (1 Bft) NW 304 ° 0 min 0,000 mm 0,0 UV-I 0 W/m² -1,3 °C 0,3 °C 1,6 km/h (1 Bft)
03.02.2017 03:12 0,3 °C 0,3 °C 89 % 1008,5 hPa 0,0 mm 1,6 km/h (1 Bft) NW 304 ° 0 min 0,000 mm 0,0 UV-I 0 W/m² -1,3 °C 0,3 °C 3,2 km/h (1 Bft)
03.02.2017 03:13 0,3 °C 0,3 °C 89 % 1008,4 hPa 0,0 mm 1,6 km/h (1 Bft) NW 304 ° 0 min 0,000 mm 0,0 UV-I 0 W/m² -1,3 °C 0,3 °C 3,2 km/h (1 Bft)
03.02.2017 03:14 0,2 °C 0,3 °C 89 % 1008,4 hPa 0,0 mm 0,6 km/h (0 Bft) NW 304 ° 0 min 0,000 mm 0,0 UV-I 0 W/m² -1,4 °C 0,2 °C 1,6 km/h (1 Bft)
03.02.2017 03:15 0,2 °C 0,2 °C 89 % 1008,5 hPa 0,0 mm 0,4 km/h (0 Bft) NW 304 ° 0 min 0,000 mm 0,0 UV-I 0 W/m² -1,4 °C 0,2 °C 1,6 km/h (1 Bft)
03.02.2017 03:16 0,2 °C 0,3 °C 89 % 1008,5 hPa 0,0 mm 0,0 km/h (0 Bft) NW 304 ° 0 min 0,000 mm 0,0 UV-I 0 W/m² -1,4 °C 0,2 °C 0,0 km/h (0 Bft)
03.02.2017 03:17 0,2 °C 0,2 °C 89 % 1008,4 hPa 0,0 mm 0,0 km/h (0 Bft) NW 304 ° 0 min 0,000 mm 0,0 UV-I 0 W/m² -1,4 °C 0,2 °C 0,0 km/h (0 Bft)
03.02.2017 03:18 0,2 °C 0,2 °C 89 % 1008,5 hPa 0,0 mm 0,7 km/h (0 Bft) NW 304 ° 0 min 0,000 mm 0,0 UV-I 0 W/m² -1,4 °C 0,2 °C 3,2 km/h (1 Bft)
03.02.2017 03:19 0,2 °C 0,2 °C 89 % 1008,5 hPa 0,0 mm 1,4 km/h (1 Bft) NW 304 ° 0 min 0,000 mm 0,0 UV-I 0 W/m² -1,4 °C 0,2 °C 1,6 km/h (1 Bft)
03.02.2017 03:20 0,2 °C 0,2 °C 90 % 1008,5 hPa 0,0 mm 1,3 km/h (1 Bft) NW 304 ° 0 min 0,000 mm 0,0 UV-I 0 W/m² -1,2 °C 0,2 °C 1,6 km/h (1 Bft)
03.02.2017 03:21 0,2 °C 0,2 °C 90 % 1008,4 hPa 0,0 mm 0,5 km/h (0 Bft) NW 304 ° 0 min 0,000 mm 0,0 UV-I 0 W/m² -1,2 °C 0,2 °C 1,6 km/h (1 Bft)
03.02.2017 03:22 0,2 °C 0,2 °C 90 % 1008,5 hPa 0,0 mm 0,3 km/h (0 Bft) NW 304 ° 0 min 0,000 mm 0,0 UV-I 0 W/m² -1,2 °C 0,2 °C 1,6 km/h (1 Bft)
03.02.2017 03:23 0,2 °C 0,2 °C 90 % 1008,5 hPa 0,0 mm 0,4 km/h (0 Bft) NW 304 ° 0 min 0,000 mm 0,0 UV-I 0 W/m² -1,2 °C 0,2 °C 1,6 km/h (1 Bft)
03.02.2017 03:24 0,1 °C 0,2 °C 90 % 1008,5 hPa 0,0 mm 0,3 km/h (0 Bft) NW 304 ° 0 min 0,000 mm 0,0 UV-I 0 W/m² -1,3 °C 0,1 °C 1,6 km/h (1 Bft)
03.02.2017 03:25 0,1 °C 0,2 °C 90 % 1008,4 hPa 0,0 mm 0,0 km/h (0 Bft) NW 304 ° 0 min 0,000 mm 0,0 UV-I 0 W/m² -1,3 °C 0,1 °C 0,0 km/h (0 Bft)
03.02.2017 03:26 0,1 °C 0,2 °C 90 % 1008,4 hPa 0,0 mm 0,2 km/h (0 Bft) NW 304 ° 0 min 0,000 mm 0,0 UV-I 0 W/m² -1,3 °C 0,1 °C 1,6 km/h (1 Bft)
03.02.2017 03:27 0,1 °C 0,1 °C 90 % 1008,4 hPa 0,0 mm 0,9 km/h (0 Bft) NW 304 ° 0 min 0,000 mm 0,0 UV-I 0 W/m² -1,3 °C 0,1 °C 1,6 km/h (1 Bft)
03.02.2017 03:28 0,1 °C 0,1 °C 90 % 1008,4 hPa 0,0 mm 1,0 km/h (0 Bft) NW 304 ° 0 min 0,000 mm 0,0 UV-I 0 W/m² -1,3 °C 0,1 °C 1,6 km/h (1 Bft)
03.02.2017 03:29 0,1 °C 0,1 °C 90 % 1008,4 hPa 0,0 mm 0,0 km/h (0 Bft) NW 304 ° 0 min 0,000 mm 0,0 UV-I 0 W/m² -1,3 °C 0,1 °C 0,0 km/h (0 Bft)
03.02.2017 03:30 0,1 °C 0,1 °C 90 % 1008,4 hPa 0,0 mm 0,8 km/h (0 Bft) NW 304 ° 0 min 0,000 mm 0,0 UV-I 0 W/m² -1,3 °C 0,1 °C 3,2 km/h (1 Bft)
03.02.2017 03:31 0,1 °C 0,1 °C 90 % 1008,4 hPa 0,0 mm 0,5 km/h (0 Bft) NW 304 ° 0 min 0,000 mm 0,0 UV-I 0 W/m² -1,3 °C 0,1 °C 1,6 km/h (1 Bft)
03.02.2017 03:32 0,1 °C 0,1 °C 90 % 1008,4 hPa 0,0 mm 1,5 km/h (1 Bft) NW 304 ° 0 min 0,000 mm 0,0 UV-I 0 W/m² -1,3 °C 0,1 °C 3,2 km/h (1 Bft)
03.02.2017 03:33 0,1 °C 0,1 °C 90 % 1008,4 hPa 0,0 mm 0,3 km/h (0 Bft) NW 304 ° 0 min 0,000 mm 0,0 UV-I 0 W/m² -1,3 °C 0,1 °C 1,6 km/h (1 Bft)
03.02.2017 03:34 0,1 °C 0,1 °C 90 % 1008,4 hPa 0,0 mm 1,3 km/h (1 Bft) NW 304 ° 0 min 0,000 mm 0,0 UV-I 0 W/m² -1,3 °C 0,1 °C 1,6 km/h (1 Bft)
03.02.2017 03:35 0,1 °C 0,1 °C 90 % 1008,4 hPa 0,0 mm 0,1 km/h (0 Bft) NW 304 ° 0 min 0,000 mm 0,0 UV-I 0 W/m² -1,3 °C 0,1 °C 1,6 km/h (1 Bft)
03.02.2017 03:36 0,1 °C 0,1 °C 90 % 1008,4 hPa 0,0 mm 0,0 km/h (0 Bft) NW 304 ° 0 min 0,000 mm 0,0 UV-I 0 W/m² -1,3 °C 0,1 °C 0,0 km/h (0 Bft)
03.02.2017 03:37 0,0 °C 0,1 °C 90 % 1008,4 hPa 0,0 mm 0,0 km/h (0 Bft) NW 304 ° 0 min 0,000 mm 0,0 UV-I 0 W/m² -1,4 °C 0,0 °C 0,0 km/h (0 Bft)
03.02.2017 03:38 0,0 °C 0,1 °C 90 % 1008,4 hPa 0,0 mm 0,8 km/h (0 Bft) NW 304 ° 0 min 0,000 mm 0,0 UV-I 0 W/m² -1,4 °C 0,0 °C 1,6 km/h (1 Bft)
03.02.2017 03:39 0,0 °C 0,0 °C 90 % 1008,4 hPa 0,0 mm 1,2 km/h (1 Bft) NW 304 ° 0 min 0,000 mm 0,0 UV-I 0 W/m² -1,4 °C 0,0 °C 1,6 km/h (1 Bft)
03.02.2017 03:40 0,0 °C 0,0 °C 90 % 1008,4 hPa 0,0 mm 0,3 km/h (0 Bft) NW 304 ° 0 min 0,000 mm 0,0 UV-I 0 W/m² -1,4 °C 0,0 °C 1,6 km/h (1 Bft)
03.02.2017 03:41 0,0 °C 0,0 °C 90 % 1008,4 hPa 0,0 mm 0,1 km/h (0 Bft) NW 304 ° 0 min 0,000 mm 0,0 UV-I 0 W/m² -1,4 °C 0,0 °C 1,6 km/h (1 Bft)
03.02.2017 03:42 0,0 °C 0,0 °C 90 % 1008,4 hPa 0,0 mm 0,0 km/h (0 Bft) NW 304 ° 0 min 0,000 mm 0,0 UV-I 0 W/m² -1,4 °C 0,0 °C 0,0 km/h (0 Bft)
03.02.2017 03:43 0,0 °C 0,0 °C 91 % 1008,4 hPa 0,0 mm 0,0 km/h (0 Bft) NW 304 ° 0 min 0,000 mm 0,0 UV-I 0 W/m² -1,3 °C 0,0 °C 0,0 km/h (0 Bft)
03.02.2017 03:44 -0,1 °C 0,0 °C 91 % 1008,4 hPa 0,0 mm 0,0 km/h (0 Bft) NW 304 ° 0 min 0,000 mm 0,0 UV-I 0 W/m² -1,4 °C -0,1 °C 0,0 km/h (0 Bft)
03.02.2017 03:45 0,0 °C 0,0 °C 90 % 1008,4 hPa 0,0 mm 1,9 km/h (1 Bft) NW 304 ° 0 min 0,000 mm 0,0 UV-I 0 W/m² -1,4 °C 0,0 °C 3,2 km/h (1 Bft)
03.02.2017 03:46 -0,1 °C 0,0 °C 91 % 1008,4 hPa 0,0 mm 1,6 km/h (1 Bft) NW 304 ° 0 min 0,000 mm 0,0 UV-I 0 W/m² -1,4 °C -0,1 °C 3,2 km/h (1 Bft)
03.02.2017 03:47 0,0 °C 0,0 °C 91 % 1008,4 hPa 0,0 mm 0,0 km/h (0 Bft) NW 304 ° 0 min 0,000 mm 0,0 UV-I 0 W/m² -1,3 °C 0,0 °C 0,0 km/h (0 Bft)
03.02.2017 03:48 0,0 °C 0,0 °C 91 % 1008,4 hPa 0,0 mm 0,1 km/h (0 Bft) NW 304 ° 0 min 0,000 mm 0,0 UV-I 0 W/m² -1,3 °C 0,0 °C 1,6 km/h (1 Bft)
03.02.2017 03:49 0,0 °C 0,0 °C 91 % 1008,4 hPa 0,0 mm 0,1 km/h (0 Bft) NW 304 ° 0 min 0,000 mm 0,0 UV-I 0 W/m² -1,3 °C 0,0 °C 1,6 km/h (1 Bft)
03.02.2017 03:50 0,0 °C 0,0 °C 91 % 1008,4 hPa 0,0 mm 0,0 km/h (0 Bft) NW 304 ° 0 min 0,000 mm 0,0 UV-I 0 W/m² -1,3 °C 0,0 °C 0,0 km/h (0 Bft)
03.02.2017 03:51 0,0 °C 0,0 °C 91 % 1008,4 hPa 0,0 mm 0,4 km/h (0 Bft) NW 304 ° 0 min 0,000 mm 0,0 UV-I 0 W/m² -1,3 °C 0,0 °C 1,6 km/h (1 Bft)
03.02.2017 03:52 -0,1 °C 0,0 °C 91 % 1008,4 hPa 0,0 mm 0,2 km/h (0 Bft) NW 304 ° 0 min 0,000 mm 0,0 UV-I 0 W/m² -1,4 °C -0,1 °C 1,6 km/h (1 Bft)
03.02.2017 03:53 -0,1 °C -0,1 °C 90 % 1008,4 hPa 0,0 mm 0,3 km/h (0 Bft) NW 304 ° 0 min 0,000 mm 0,0 UV-I 0 W/m² -1,5 °C -0,1 °C 1,6 km/h (1 Bft)
03.02.2017 03:54 -0,1 °C -0,1 °C 90 % 1008,4 hPa 0,0 mm 0,0 km/h (0 Bft) NW 304 ° 0 min 0,000 mm 0,0 UV-I 0 W/m² -1,5 °C -0,1 °C 0,0 km/h (0 Bft)
03.02.2017 03:55 -0,1 °C -0,1 °C 90 % 1008,3 hPa 0,0 mm 0,6 km/h (0 Bft) NW 304 ° 0 min 0,000 mm 0,0 UV-I 0 W/m² -1,5 °C -0,1 °C 1,6 km/h (1 Bft)
03.02.2017 03:56 -0,1 °C -0,1 °C 90 % 1008,3 hPa 0,0 mm 1,3 km/h (1 Bft) NW 304 ° 0 min 0,000 mm 0,0 UV-I 0 W/m² -1,5 °C -0,1 °C 1,6 km/h (1 Bft)
03.02.2017 03:57 -0,1 °C -0,1 °C 90 % 1008,4 hPa 0,0 mm 0,5 km/h (0 Bft) NW 304 ° 0 min 0,000 mm 0,0 UV-I 0 W/m² -1,5 °C -0,1 °C 1,6 km/h (1 Bft)
03.02.2017 03:58 -0,1 °C -0,1 °C 90 % 1008,3 hPa 0,0 mm 1,1 km/h (1 Bft) NW 304 ° 0 min 0,000 mm 0,0 UV-I 0 W/m² -1,5 °C -0,1 °C 1,6 km/h (1 Bft)
03.02.2017 03:59 -0,1 °C -0,1 °C 90 % 1008,3 hPa 0,0 mm 1,3 km/h (1 Bft) NW 304 ° 0 min 0,000 mm 0,0 UV-I 0 W/m² -1,5 °C -0,1 °C 3,2 km/h (1 Bft)
03.02.2017 04:00 -0,1 °C -0,1 °C 90 % 1008,3 hPa 0,0 mm 2,4 km/h (1 Bft) NW 304 ° 0 min 0,000 mm 0,0 UV-I 0 W/m² -1,5 °C -0,1 °C 4,8 km/h (1 Bft)
03.02.2017 04:03 -0,1 °C -0,1 °C 91 % 1008,4 hPa 0,0 mm 0,4 km/h (0 Bft) NW 304 ° 0 min 0,000 mm 0,0 UV-I 0 W/m² -1,4 °C -0,1 °C 3,2 km/h (1 Bft)
03.02.2017 04:04 -0,1 °C -0,1 °C 91 % 1008,4 hPa 0,0 mm 0,0 km/h (0 Bft) NW 304 ° 0 min 0,000 mm 0,0 UV-I 0 W/m² -1,4 °C -0,1 °C 0,0 km/h (0 Bft)
03.02.2017 04:05 -0,1 °C -0,1 °C 91 % 1008,4 hPa 0,0 mm 0,1 km/h (0 Bft) NW 304 ° 0 min 0,000 mm 0,0 UV-I 0 W/m² -1,4 °C -0,1 °C 1,6 km/h (1 Bft)
03.02.2017 04:06 -0,1 °C -0,1 °C 91 % 1008,4 hPa 0,0 mm 0,6 km/h (0 Bft) NW 304 ° 0 min 0,000 mm 0,0 UV-I 0 W/m² -1,4 °C -0,1 °C 1,6 km/h (1 Bft)
03.02.2017 04:07 -0,1 °C -0,1 °C 91 % 1008,4 hPa 0,0 mm 1,3 km/h (1 Bft) NW 304 ° 0 min 0,000 mm 0,0 UV-I 0 W/m² -1,4 °C -0,1 °C 1,6 km/h (1 Bft)
03.02.2017 04:08 -0,2 °C -0,1 °C 91 % 1008,4 hPa 0,0 mm 0,2 km/h (0 Bft) NW 304 ° 0 min 0,000 mm 0,0 UV-I 0 W/m² -1,5 °C -0,2 °C 1,6 km/h (1 Bft)
03.02.2017 04:09 -0,1 °C -0,1 °C 91 % 1008,4 hPa 0,0 mm 0,0 km/h (0 Bft) NW 304 ° 0 min 0,000 mm 0,0 UV-I 0 W/m² -1,4 °C -0,1 °C 0,0 km/h (0 Bft)
03.02.2017 04:10 -0,1 °C -0,1 °C 91 % 1008,4 hPa 0,0 mm 0,0 km/h (0 Bft) NW 304 ° 0 min 0,000 mm 0,0 UV-I 0 W/m² -1,4 °C -0,1 °C 0,0 km/h (0 Bft)
03.02.2017 04:11 -0,1 °C -0,1 °C 91 % 1008,4 hPa 0,0 mm 0,0 km/h (0 Bft) NW 304 ° 0 min 0,000 mm 0,0 UV-I 0 W/m² -1,4 °C -0,1 °C 0,0 km/h (0 Bft)
03.02.2017 04:12 -0,1 °C -0,1 °C 91 % 1008,4 hPa 0,0 mm 1,1 km/h (1 Bft) NW 304 ° 0 min 0,000 mm 0,0 UV-I 0 W/m² -1,4 °C -0,1 °C 1,6 km/h (1 Bft)
03.02.2017 04:13 -0,1 °C -0,1 °C 91 % 1008,4 hPa 0,0 mm 0,3 km/h (0 Bft) NW 304 ° 0 min 0,000 mm 0,0 UV-I 0 W/m² -1,4 °C -0,1 °C 1,6 km/h (1 Bft)
03.02.2017 04:14 0,0 °C 0,0 °C 92 % 1008,4 hPa 0,0 mm 0,0 km/h (0 Bft) NW 304 ° 0 min 0,000 mm 0,0 UV-I 0 W/m² -1,1 °C 0,0 °C 0,0 km/h (0 Bft)
03.02.2017 04:15 0,0 °C 0,0 °C 92 % 1008,5 hPa 0,0 mm 1,5 km/h (1 Bft) NW 304 ° 0 min 0,000 mm 0,0 UV-I 0 W/m² -1,1 °C 0,0 °C 3,2 km/h (1 Bft)
03.02.2017 04:16 0,0 °C 0,0 °C 92 % 1008,4 hPa 0,0 mm 1,6 km/h (1 Bft) S-SW 194 ° 0 min 0,000 mm 0,0 UV-I 0 W/m² -1,1 °C 0,0 °C 3,2 km/h (1 Bft)
03.02.2017 04:17 0,1 °C 0,1 °C 92 % 1008,5 hPa 0,0 mm 0,3 km/h (0 Bft) S-SW 194 ° 0 min 0,000 mm 0,0 UV-I 0 W/m² -1,0 °C 0,1 °C 1,6 km/h (1 Bft)
03.02.2017 04:18 0,2 °C 0,2 °C 92 % 1008,6 hPa 0,0 mm 0,6 km/h (0 Bft) S-SW 194 ° 0 min 0,000 mm 0,0 UV-I 0 W/m² -0,9 °C 0,2 °C 1,6 km/h (1 Bft)
03.02.2017 04:19 0,3 °C 0,3 °C 92 % 1008,6 hPa 0,0 mm 0,8 km/h (0 Bft) S-SW 194 ° 0 min 0,000 mm 0,0 UV-I 0 W/m² -0,8 °C 0,3 °C 1,6 km/h (1 Bft)
03.02.2017 04:20 0,4 °C 0,4 °C 91 % 1008,6 hPa 0,0 mm 0,0 km/h (0 Bft) S-SW 194 ° 0 min 0,000 mm 0,0 UV-I 0 W/m² -0,9 °C 0,4 °C 0,0 km/h (0 Bft)
03.02.2017 04:21 0,4 °C 0,4 °C 91 % 1008,6 hPa 0,0 mm 0,0 km/h (0 Bft) S-SW 194 ° 0 min 0,000 mm 0,0 UV-I 0 W/m² -0,9 °C 0,4 °C 0,0 km/h (0 Bft)
03.02.2017 04:22 0,5 °C 0,5 °C 91 % 1008,6 hPa 0,0 mm 0,1 km/h (0 Bft) S-SW 194 ° 0 min 0,000 mm 0,0 UV-I 0 W/m² -0,8 °C 0,5 °C 1,6 km/h (1 Bft)
03.02.2017 04:23 0,5 °C 0,6 °C 91 % 1008,6 hPa 0,0 mm 0,0 km/h (0 Bft) S-SW 194 ° 0 min 0,000 mm 0,0 UV-I 0 W/m² -0,8 °C 0,5 °C 0,0 km/h (0 Bft)
03.02.2017 04:24 0,6 °C 0,6 °C 91 % 1008,6 hPa 0,0 mm 0,7 km/h (0 Bft) S-SW 194 ° 0 min 0,000 mm 0,0 UV-I 0 W/m² -0,7 °C 0,6 °C 1,6 km/h (1 Bft)
03.02.2017 04:25 0,6 °C 0,6 °C 91 % 1008,6 hPa 0,0 mm 1,7 km/h (1 Bft) S-SW 194 ° 0 min 0,000 mm 0,0 UV-I 0 W/m² -0,7 °C 0,6 °C 3,2 km/h (1 Bft)
03.02.2017 04:26 0,7 °C 0,7 °C 91 % 1008,6 hPa 0,0 mm 2,3 km/h (1 Bft) S-SW 194 ° 0 min 0,000 mm 0,0 UV-I 0 W/m² -0,6 °C 0,7 °C 3,2 km/h (1 Bft)
03.02.2017 04:27 0,8 °C 0,8 °C 91 % 1008,5 hPa 0,0 mm 2,5 km/h (1 Bft) S-SW 194 ° 0 min 0,000 mm 0,0 UV-I 0 W/m² -0,5 °C 0,8 °C 3,2 km/h (1 Bft)
03.02.2017 04:28 0,9 °C 0,9 °C 90 % 1008,5 hPa 0,0 mm 0,7 km/h (0 Bft) S-SW 194 ° 0 min 0,000 mm 0,0 UV-I 0 W/m² -0,6 °C 0,9 °C 3,2 km/h (1 Bft)
03.02.2017 04:29 1,0 °C 1,0 °C 89 % 1008,5 hPa 0,0 mm 0,6 km/h (0 Bft) S-SW 194 ° 0 min 0,000 mm 0,0 UV-I 0 W/m² -0,6 °C 1,0 °C 1,6 km/h (1 Bft)
03.02.2017 04:30 1,1 °C 1,1 °C 89 % 1008,6 hPa 0,0 mm 0,7 km/h (0 Bft) S-SW 194 ° 0 min 0,000 mm 0,0 UV-I 0 W/m² -0,5 °C 1,1 °C 1,6 km/h (1 Bft)
03.02.2017 04:31 1,2 °C 1,2 °C 89 % 1008,5 hPa 0,0 mm 0,4 km/h (0 Bft) S-SW 194 ° 0 min 0,000 mm 0,0 UV-I 0 W/m² -0,4 °C 1,2 °C 1,6 km/h (1 Bft)
03.02.2017 04:32 1,3 °C 1,3 °C 89 % 1008,6 hPa 0,0 mm 0,0 km/h (0 Bft) S-SW 194 ° 0 min 0,000 mm 0,0 UV-I 0 W/m² -0,3 °C 1,3 °C 0,0 km/h (0 Bft)
03.02.2017 04:33 1,3 °C 1,3 °C 89 % 1008,6 hPa 0,0 mm 0,0 km/h (0 Bft) S-SW 194 ° 0 min 0,000 mm 0,0 UV-I 0 W/m² -0,3 °C 1,3 °C 0,0 km/h (0 Bft)
03.02.2017 04:34 1,4 °C 1,4 °C 89 % 1008,6 hPa 0,0 mm 0,0 km/h (0 Bft) S-SW 194 ° 0 min 0,000 mm 0,0 UV-I 0 W/m² -0,2 °C 1,4 °C 0,0 km/h (0 Bft)
03.02.2017 04:35 1,4 °C 1,4 °C 89 % 1008,6 hPa 0,0 mm 0,1 km/h (0 Bft) S-SW 194 ° 0 min 0,000 mm 0,0 UV-I 0 W/m² -0,2 °C 1,4 °C 1,6 km/h (1 Bft)
03.02.2017 04:36 1,4 °C 1,4 °C 89 % 1008,6 hPa 0,0 mm 0,0 km/h (0 Bft) S-SW 194 ° 0 min 0,000 mm 0,0 UV-I 0 W/m² -0,2 °C 1,4 °C 0,0 km/h (0 Bft)
03.02.2017 04:37 1,4 °C 1,4 °C 89 % 1008,6 hPa 0,0 mm 0,6 km/h (0 Bft) S-SW 194 ° 0 min 0,000 mm 0,0 UV-I 0 W/m² -0,2 °C 1,4 °C 1,6 km/h (1 Bft)
03.02.2017 04:38 1,4 °C 1,4 °C 89 % 1008,7 hPa 0,0 mm 0,3 km/h (0 Bft) S-SW 194 ° 0 min 0,000 mm 0,0 UV-I 0 W/m² -0,2 °C 1,4 °C 1,6 km/h (1 Bft)
03.02.2017 04:39 1,5 °C 1,5 °C 88 % 1008,7 hPa 0,0 mm 0,7 km/h (0 Bft) S-SW 194 ° 0 min 0,000 mm 0,0 UV-I 0 W/m² -0,3 °C 1,5 °C 1,6 km/h (1 Bft)
03.02.2017 04:40 1,5 °C 1,5 °C 88 % 1008,6 hPa 0,0 mm 1,5 km/h (1 Bft) S-SW 194 ° 0 min 0,000 mm 0,0 UV-I 0 W/m² -0,3 °C 1,5 °C 3,2 km/h (1 Bft)
03.02.2017 04:41 1,6 °C 1,6 °C 88 % 1008,6 hPa 0,0 mm 1,9 km/h (1 Bft) S-SW 194 ° 0 min 0,000 mm 0,0 UV-I 0 W/m² -0,2 °C 1,6 °C 3,2 km/h (1 Bft)
03.02.2017 04:42 1,6 °C 1,6 °C 87 % 1008,6 hPa 0,0 mm 3,6 km/h (1 Bft) S 182 ° 0 min 0,000 mm 0,0 UV-I 0 W/m² -0,3 °C 1,6 °C 4,8 km/h (1 Bft)
03.02.2017 04:43 1,7 °C 1,7 °C 85 % 1008,6 hPa 0,0 mm 3,9 km/h (1 Bft) S 189 ° 0 min 0,000 mm 0,0 UV-I 0 W/m² -0,5 °C 1,7 °C 4,8 km/h (1 Bft)
03.02.2017 04:44 1,8 °C 1,8 °C 84 % 1008,6 hPa 0,0 mm 1,7 km/h (1 Bft) S 189 ° 0 min 0,000 mm 0,0 UV-I 0 W/m² -0,6 °C 1,8 °C 3,2 km/h (1 Bft)
03.02.2017 04:45 1,9 °C 1,9 °C 84 % 1008,6 hPa 0,0 mm 0,1 km/h (0 Bft) S 189 ° 0 min 0,000 mm 0,0 UV-I 0 W/m² -0,5 °C 1,9 °C 1,6 km/h (1 Bft)
03.02.2017 04:46 2,1 °C 2,1 °C 84 % 1008,6 hPa 0,0 mm 0,0 km/h (0 Bft) S 189 ° 0 min 0,000 mm 0,0 UV-I 0 W/m² -0,3 °C 2,1 °C 0,0 km/h (0 Bft)
03.02.2017 04:47 2,2 °C 2,2 °C 85 % 1008,5 hPa 0,0 mm 0,0 km/h (0 Bft) S 189 ° 0 min 0,000 mm 0,0 UV-I 0 W/m² -0,1 °C 2,2 °C 0,0 km/h (0 Bft)
03.02.2017 04:48 2,2 °C 2,2 °C 85 % 1008,5 hPa 0,0 mm 0,0 km/h (0 Bft) S 189 ° 0 min 0,000 mm 0,0 UV-I 0 W/m² -0,1 °C 2,2 °C 0,0 km/h (0 Bft)
03.02.2017 04:49 2,3 °C 2,3 °C 85 % 1008,5 hPa 0,0 mm 0,0 km/h (0 Bft) S 189 ° 0 min 0,000 mm 0,0 UV-I 0 W/m² 0,0 °C 2,3 °C 0,0 km/h (0 Bft)
03.02.2017 04:50 2,3 °C 2,3 °C 85 % 1008,5 hPa 0,0 mm 0,6 km/h (0 Bft) S 189 ° 0 min 0,000 mm 0,0 UV-I 0 W/m² 0,0 °C 2,3 °C 1,6 km/h (1 Bft)
03.02.2017 04:51 2,3 °C 2,3 °C 85 % 1008,5 hPa 0,0 mm 0,0 km/h (0 Bft) S 189 ° 0 min 0,000 mm 0,0 UV-I 0 W/m² 0,0 °C 2,3 °C 0,0 km/h (0 Bft)
03.02.2017 04:52 2,4 °C 2,4 °C 85 % 1008,5 hPa 0,0 mm 0,0 km/h (0 Bft) S 189 ° 0 min 0,000 mm 0,0 UV-I 0 W/m² 0,1 °C 2,4 °C 0,0 km/h (0 Bft)
03.02.2017 04:53 2,4 °C 2,4 °C 85 % 1008,5 hPa 0,0 mm 0,1 km/h (0 Bft) S 189 ° 0 min 0,000 mm 0,0 UV-I 0 W/m² 0,1 °C 2,4 °C 1,6 km/h (1 Bft)
03.02.2017 04:54 2,4 °C 2,4 °C 85 % 1008,5 hPa 0,0 mm 0,0 km/h (0 Bft) S 189 ° 0 min 0,000 mm 0,0 UV-I 0 W/m² 0,1 °C 2,4 °C 0,0 km/h (0 Bft)
03.02.2017 04:55 2,4 °C 2,5 °C 85 % 1008,5 hPa 0,0 mm 0,1 km/h (0 Bft) S 189 ° 0 min 0,000 mm 0,0 UV-I 0 W/m² 0,1 °C 2,4 °C 1,6 km/h (1 Bft)
03.02.2017 04:56 2,5 °C 2,5 °C 85 % 1008,5 hPa 0,0 mm 0,0 km/h (0 Bft) S 189 ° 0 min 0,000 mm 0,0 UV-I 0 W/m² 0,2 °C 2,5 °C 0,0 km/h (0 Bft)
03.02.2017 04:57 2,5 °C 2,6 °C 85 % 1008,5 hPa 0,0 mm 0,3 km/h (0 Bft) S 189 ° 0 min 0,000 mm 0,0 UV-I 0 W/m² 0,2 °C 2,5 °C 1,6 km/h (1 Bft)
03.02.2017 04:58 2,6 °C 2,6 °C 85 % 1008,6 hPa 0,0 mm 0,3 km/h (0 Bft) S 189 ° 0 min 0,000 mm 0,0 UV-I 0 W/m² 0,3 °C 2,6 °C 1,6 km/h (1 Bft)
03.02.2017 04:59 2,6 °C 2,6 °C 85 % 1008,6 hPa 0,0 mm 0,0 km/h (0 Bft) S 189 ° 0 min 0,000 mm 0,0 UV-I 0 W/m² 0,3 °C 2,6 °C 0,0 km/h (0 Bft)
03.02.2017 05:00 2,6 °C 2,6 °C 84 % 1008,6 hPa 0,0 mm 0,0 km/h (0 Bft) S 189 ° 0 min 0,000 mm 0,0 UV-I 0 W/m² 0,2 °C 2,6 °C 0,0 km/h (0 Bft)
03.02.2017 05:01 2,6 °C 2,6 °C 84 % 1008,5 hPa 0,0 mm 0,0 km/h (0 Bft) S 189 ° 0 min 0,000 mm 0,0 UV-I 0 W/m² 0,2 °C 2,6 °C 0,0 km/h (0 Bft)
03.02.2017 05:02 2,6 °C 2,6 °C 84 % 1008,5 hPa 0,0 mm 0,0 km/h (0 Bft) S 189 ° 0 min 0,000 mm 0,0 UV-I 0 W/m² 0,2 °C 2,6 °C 0,0 km/h (0 Bft)
03.02.2017 05:03 2,6 °C 2,7 °C 84 % 1008,6 hPa 0,0 mm 1,3 km/h (1 Bft) S 189 ° 0 min 0,000 mm 0,0 UV-I 0 W/m² 0,2 °C 2,6 °C 3,2 km/h (1 Bft)
03.02.2017 05:04 2,6 °C 2,7 °C 84 % 1008,6 hPa 0,0 mm 1,1 km/h (1 Bft) S 189 ° 0 min 0,000 mm 0,0 UV-I 0 W/m² 0,2 °C 2,6 °C 1,6 km/h (1 Bft)
03.02.2017 05:05 2,6 °C 2,6 °C 84 % 1008,6 hPa 0,0 mm 0,1 km/h (0 Bft) S 189 ° 0 min 0,000 mm 0,0 UV-I 0 W/m² 0,2 °C 2,6 °C 1,6 km/h (1 Bft)
03.02.2017 05:06 2,6 °C 2,6 °C 84 % 1008,6 hPa 0,0 mm 0,0 km/h (0 Bft) S 189 ° 0 min 0,000 mm 0,0 UV-I 0 W/m² 0,2 °C 2,6 °C 0,0 km/h (0 Bft)
03.02.2017 05:07 2,6 °C 2,6 °C 84 % 1008,6 hPa 0,0 mm 0,1 km/h (0 Bft) S 189 ° 0 min 0,000 mm 0,0 UV-I 0 W/m² 0,2 °C 2,6 °C 1,6 km/h (1 Bft)
03.02.2017 05:08 2,6 °C 2,6 °C 84 % 1008,6 hPa 0,0 mm 0,1 km/h (0 Bft) S 189 ° 0 min 0,000 mm 0,0 UV-I 0 W/m² 0,2 °C 2,6 °C 1,6 km/h (1 Bft)
03.02.2017 05:09 2,6 °C 2,6 °C 84 % 1008,6 hPa 0,0 mm 0,0 km/h (0 Bft) S 189 ° 0 min 0,000 mm 0,0 UV-I 0 W/m² 0,2 °C 2,6 °C 0,0 km/h (0 Bft)
03.02.2017 05:10 2,6 °C 2,6 °C 84 % 1008,6 hPa 0,0 mm 0,3 km/h (0 Bft) S 189 ° 0 min 0,000 mm 0,0 UV-I 0 W/m² 0,2 °C 2,6 °C 1,6 km/h (1 Bft)
03.02.2017 05:11 2,5 °C 2,6 °C 84 % 1008,6 hPa 0,0 mm 0,5 km/h (0 Bft) S 189 ° 0 min 0,000 mm 0,0 UV-I 0 W/m² 0,1 °C 2,5 °C 1,6 km/h (1 Bft)
03.02.2017 05:12 2,5 °C 2,5 °C 85 % 1008,6 hPa 0,0 mm 1,7 km/h (1 Bft) S 189 ° 0 min 0,000 mm 0,0 UV-I 0 W/m² 0,2 °C 2,5 °C 3,2 km/h (1 Bft)
03.02.2017 05:13 2,5 °C 2,5 °C 85 % 1008,6 hPa 0,0 mm 0,5 km/h (0 Bft) S 189 ° 0 min 0,000 mm 0,0 UV-I 0 W/m² 0,2 °C 2,5 °C 1,6 km/h (1 Bft)
03.02.2017 05:14 2,4 °C 2,5 °C 85 % 1008,6 hPa 0,0 mm 0,5 km/h (0 Bft) S 189 ° 0 min 0,000 mm 0,0 UV-I 0 W/m² 0,1 °C 2,4 °C 1,6 km/h (1 Bft)
03.02.2017 05:15 2,4 °C 2,5 °C 85 % 1008,5 hPa 0,0 mm 0,0 km/h (0 Bft) S 189 ° 0 min 0,000 mm 0,0 UV-I 0 W/m² 0,1 °C 2,4 °C 0,0 km/h (0 Bft)
03.02.2017 05:16 2,4 °C 2,4 °C 85 % 1008,5 hPa 0,0 mm 0,0 km/h (0 Bft) S 189 ° 0 min 0,000 mm 0,0 UV-I 0 W/m² 0,1 °C 2,4 °C 0,0 km/h (0 Bft)
03.02.2017 05:17 2,4 °C 2,4 °C 85 % 1008,5 hPa 0,0 mm 0,0 km/h (0 Bft) S 189 ° 0 min 0,000 mm 0,0 UV-I 0 W/m² 0,1 °C 2,4 °C 0,0 km/h (0 Bft)
03.02.2017 05:18 2,4 °C 2,4 °C 85 % 1008,5 hPa 0,0 mm 0,0 km/h (0 Bft) S 189 ° 0 min 0,000 mm 0,0 UV-I 0 W/m² 0,1 °C 2,4 °C 0,0 km/h (0 Bft)
03.02.2017 05:19 2,4 °C 2,4 °C 85 % 1008,5 hPa 0,0 mm 0,7 km/h (0 Bft) S 189 ° 0 min 0,000 mm 0,0 UV-I 0 W/m² 0,1 °C 2,4 °C 1,6 km/h (1 Bft)
03.02.2017 05:20 2,3 °C 2,4 °C 84 % 1008,5 hPa 0,0 mm 0,7 km/h (0 Bft) S 189 ° 0 min 0,000 mm 0,0 UV-I 0 W/m² -0,1 °C 2,3 °C 1,6 km/h (1 Bft)
03.02.2017 05:21 2,3 °C 2,4 °C 84 % 1008,5 hPa 0,0 mm 0,0 km/h (0 Bft) S 189 ° 0 min 0,000 mm 0,0 UV-I 0 W/m² -0,1 °C 2,3 °C 0,0 km/h (0 Bft)
03.02.2017 05:22 2,3 °C 2,3 °C 84 % 1008,5 hPa 0,0 mm 0,2 km/h (0 Bft) S 189 ° 0 min 0,000 mm 0,0 UV-I 0 W/m² -0,1 °C 2,3 °C 1,6 km/h (1 Bft)
03.02.2017 05:23 2,3 °C 2,3 °C 84 % 1008,5 hPa 0,0 mm 0,2 km/h (0 Bft) S 189 ° 0 min 0,000 mm 0,0 UV-I 0 W/m² -0,1 °C 2,3 °C 1,6 km/h (1 Bft)
03.02.2017 05:24 2,3 °C 2,3 °C 85 % 1008,5 hPa 0,0 mm 0,0 km/h (0 Bft) S 189 ° 0 min 0,000 mm 0,0 UV-I 0 W/m² 0,0 °C 2,3 °C 0,0 km/h (0 Bft)
03.02.2017 05:25 2,3 °C 2,3 °C 85 % 1008,5 hPa 0,0 mm 0,5 km/h (0 Bft) S 189 ° 0 min 0,000 mm 0,0 UV-I 0 W/m² 0,0 °C 2,3 °C 1,6 km/h (1 Bft)
03.02.2017 05:26 2,3 °C 2,3 °C 85 % 1008,5 hPa 0,0 mm 0,3 km/h (0 Bft) S 189 ° 0 min 0,000 mm 0,0 UV-I 0 W/m² 0,0 °C 2,3 °C 1,6 km/h (1 Bft)
03.02.2017 05:27 2,2 °C 2,3 °C 85 % 1008,5 hPa 0,0 mm 0,5 km/h (0 Bft) S 189 ° 0 min 0,000 mm 0,0 UV-I 0 W/m² -0,1 °C 2,2 °C 1,6 km/h (1 Bft)
03.02.2017 05:28 2,2 °C 2,2 °C 85 % 1008,4 hPa 0,0 mm 0,3 km/h (0 Bft) S 189 ° 0 min 0,000 mm 0,0 UV-I 0 W/m² -0,1 °C 2,2 °C 1,6 km/h (1 Bft)
03.02.2017 05:29 2,2 °C 2,2 °C 85 % 1008,5 hPa 0,0 mm 0,0 km/h (0 Bft) S 189 ° 0 min 0,000 mm 0,0 UV-I 0 W/m² -0,1 °C 2,2 °C 0,0 km/h (0 Bft)
03.02.2017 05:30 2,2 °C 2,2 °C 85 % 1008,4 hPa 0,0 mm 0,0 km/h (0 Bft) S 189 ° 0 min 0,000 mm 0,0 UV-I 0 W/m² -0,1 °C 2,2 °C 0,0 km/h (0 Bft)
03.02.2017 05:31 2,1 °C 2,2 °C 85 % 1008,4 hPa 0,0 mm 0,1 km/h (0 Bft) S 189 ° 0 min 0,000 mm 0,0 UV-I 0 W/m² -0,2 °C 2,1 °C 1,6 km/h (1 Bft)
03.02.2017 05:32 2,1 °C 2,1 °C 85 % 1008,4 hPa 0,0 mm 0,3 km/h (0 Bft) S 189 ° 0 min 0,000 mm 0,0 UV-I 0 W/m² -0,2 °C 2,1 °C 1,6 km/h (1 Bft)
03.02.2017 05:33 2,1 °C 2,1 °C 85 % 1008,4 hPa 0,0 mm 0,1 km/h (0 Bft) S 189 ° 0 min 0,000 mm 0,0 UV-I 0 W/m² -0,2 °C 2,1 °C 1,6 km/h (1 Bft)
03.02.2017 05:34 2,0 °C 2,1 °C 85 % 1008,5 hPa 0,0 mm 0,0 km/h (0 Bft) S 189 ° 0 min 0,000 mm 0,0 UV-I 0 W/m² -0,3 °C 2,0 °C 0,0 km/h (0 Bft)
03.02.2017 05:35 2,0 °C 2,1 °C 85 % 1008,5 hPa 0,0 mm 0,0 km/h (0 Bft) S 189 ° 0 min 0,000 mm 0,0 UV-I 0 W/m² -0,3 °C 2,0 °C 0,0 km/h (0 Bft)
03.02.2017 05:36 1,9 °C 2,0 °C 85 % 1008,5 hPa 0,0 mm 0,1 km/h (0 Bft) S 189 ° 0 min 0,000 mm 0,0 UV-I 0 W/m² -0,3 °C 1,9 °C 1,6 km/h (1 Bft)
03.02.2017 05:37 1,9 °C 1,9 °C 85 % 1008,5 hPa 0,0 mm 0,2 km/h (0 Bft) S 189 ° 0 min 0,000 mm 0,0 UV-I 0 W/m² -0,3 °C 1,9 °C 1,6 km/h (1 Bft)
03.02.2017 05:38 1,9 °C 1,9 °C 84 % 1008,4 hPa 0,0 mm 0,0 km/h (0 Bft) S 189 ° 0 min 0,000 mm 0,0 UV-I 0 W/m² -0,5 °C 1,9 °C 0,0 km/h (0 Bft)
03.02.2017 05:39 1,9 °C 1,9 °C 84 % 1008,4 hPa 0,0 mm 1,5 km/h (1 Bft) S 189 ° 0 min 0,000 mm 0,0 UV-I 0 W/m² -0,5 °C 1,9 °C 3,2 km/h (1 Bft)
03.02.2017 05:40 2,0 °C 2,0 °C 83 % 1008,4 hPa 0,0 mm 1,9 km/h (1 Bft) S 189 ° 0 min 0,000 mm 0,0 UV-I 0 W/m² -0,6 °C 2,0 °C 3,2 km/h (1 Bft)
03.02.2017 05:41 2,0 °C 2,1 °C 82 % 1008,5 hPa 0,0 mm 3,5 km/h (1 Bft) S 188 ° 0 min 0,000 mm 0,0 UV-I 0 W/m² -0,7 °C 2,0 °C 4,8 km/h (1 Bft)
03.02.2017 05:42 2,1 °C 2,1 °C 82 % 1008,4 hPa 0,0 mm 2,4 km/h (1 Bft) S 188 ° 0 min 0,000 mm 0,0 UV-I 0 W/m² -0,6 °C 2,1 °C 4,8 km/h (1 Bft)
03.02.2017 05:43 2,2 °C 2,2 °C 82 % 1008,4 hPa 0,0 mm 0,9 km/h (0 Bft) S 188 ° 0 min 0,000 mm 0,0 UV-I 0 W/m² -0,5 °C 2,2 °C 3,2 km/h (1 Bft)
03.02.2017 05:44 2,2 °C 2,2 °C 82 % 1008,5 hPa 0,0 mm 0,3 km/h (0 Bft) S 188 ° 0 min 0,000 mm 0,0 UV-I 0 W/m² -0,5 °C 2,2 °C 1,6 km/h (1 Bft)
03.02.2017 05:45 2,3 °C 2,3 °C 82 % 1008,5 hPa 0,0 mm 0,1 km/h (0 Bft) S 188 ° 0 min 0,000 mm 0,0 UV-I 0 W/m² -0,4 °C 2,3 °C 1,6 km/h (1 Bft)
03.02.2017 05:46 2,3 °C 2,3 °C 82 % 1008,5 hPa 0,0 mm 0,2 km/h (0 Bft) S 188 ° 0 min 0,000 mm 0,0 UV-I 0 W/m² -0,4 °C 2,3 °C 1,6 km/h (1 Bft)
03.02.2017 05:47 2,3 °C 2,3 °C 82 % 1008,4 hPa 0,0 mm 2,7 km/h (1 Bft) S 178 ° 0 min 0,000 mm 0,0 UV-I 0 W/m² -0,4 °C 2,3 °C 4,8 km/h (1 Bft)
03.02.2017 05:48 2,4 °C 2,4 °C 82 % 1008,4 hPa 0,0 mm 3,0 km/h (1 Bft) S 177 ° 0 min 0,000 mm 0,0 UV-I 0 W/m² -0,4 °C 2,4 °C 4,8 km/h (1 Bft)
03.02.2017 05:49 2,6 °C 2,6 °C 81 % 1008,4 hPa 0,0 mm 2,0 km/h (1 Bft) S 178 ° 0 min 0,000 mm 0,0 UV-I 0 W/m² -0,3 °C 2,6 °C 4,8 km/h (1 Bft)
03.02.2017 05:50 2,7 °C 2,7 °C 81 % 1008,4 hPa 0,0 mm 3,5 km/h (1 Bft) S 178 ° 0 min 0,000 mm 0,0 UV-I 0 W/m² -0,2 °C 2,7 °C 4,8 km/h (1 Bft)
03.02.2017 05:51 2,8 °C 2,8 °C 81 % 1008,4 hPa 0,0 mm 2,6 km/h (1 Bft) S 177 ° 0 min 0,000 mm 0,0 UV-I 0 W/m² -0,1 °C 2,8 °C 4,8 km/h (1 Bft)
03.02.2017 05:52 2,8 °C 2,8 °C 80 % 1008,4 hPa 0,0 mm 2,9 km/h (1 Bft) S 178 ° 0 min 0,000 mm 0,0 UV-I 0 W/m² -0,3 °C 2,8 °C 3,2 km/h (1 Bft)
03.02.2017 05:53 2,9 °C 2,9 °C 80 % 1008,4 hPa 0,0 mm 2,7 km/h (1 Bft) S 177 ° 0 min 0,000 mm 0,0 UV-I 0 W/m² -0,2 °C 2,9 °C 4,8 km/h (1 Bft)
03.02.2017 05:54 2,9 °C 2,9 °C 80 % 1008,4 hPa 0,0 mm 4,2 km/h (1 Bft) S 177 ° 0 min 0,000 mm 0,0 UV-I 0 W/m² -0,2 °C 2,9 °C 4,8 km/h (1 Bft)
03.02.2017 05:55 3,0 °C 3,0 °C 79 % 1008,4 hPa 0,0 mm 4,3 km/h (1 Bft) S 176 ° 0 min 0,000 mm 0,0 UV-I 0 W/m² -0,3 °C 3,0 °C 6,4 km/h (2 Bft)
03.02.2017 05:56 3,1 °C 3,1 °C 79 % 1008,4 hPa 0,0 mm 4,1 km/h (1 Bft) S 176 ° 0 min 0,000 mm 0,0 UV-I 0 W/m² -0,2 °C 3,1 °C 4,8 km/h (1 Bft)
03.02.2017 05:57 3,2 °C 3,2 °C 79 % 1008,3 hPa 0,0 mm 3,3 km/h (1 Bft) S 176 ° 0 min 0,000 mm 0,0 UV-I 0 W/m² -0,1 °C 3,2 °C 4,8 km/h (1 Bft)
03.02.2017 05:58 3,2 °C 3,2 °C 79 % 1008,3 hPa 0,0 mm 1,1 km/h (1 Bft) S 176 ° 0 min 0,000 mm 0,0 UV-I 0 W/m² -0,1 °C 3,2 °C 3,2 km/h (1 Bft)
03.02.2017 05:59 3,3 °C 3,3 °C 78 % 1008,3 hPa 0,0 mm 0,0 km/h (0 Bft) S 176 ° 0 min 0,000 mm 0,0 UV-I 0 W/m² -0,2 °C 3,3 °C 0,0 km/h (0 Bft)
03.02.2017 06:00 3,3 °C 3,3 °C 78 % 1008,2 hPa 0,0 mm 0,4 km/h (0 Bft) S 176 ° 0 min 0,000 mm 0,0 UV-I 0 W/m² -0,2 °C 3,3 °C 1,6 km/h (1 Bft)
03.02.2017 06:01 3,4 °C 3,4 °C 78 % 1008,2 hPa 0,0 mm 1,4 km/h (1 Bft) S 176 ° 0 min 0,000 mm 0,0 UV-I 0 W/m² -0,1 °C 3,4 °C 1,6 km/h (1 Bft)
03.02.2017 06:02 3,4 °C 3,4 °C 78 % 1008,2 hPa 0,0 mm 2,2 km/h (1 Bft) S 176 ° 0 min 0,000 mm 0,0 UV-I 0 W/m² -0,1 °C 3,4 °C 4,8 km/h (1 Bft)
03.02.2017 06:03 3,5 °C 3,5 °C 78 % 1008,2 hPa 0,0 mm 2,6 km/h (1 Bft) S 176 ° 0 min 0,000 mm 0,0 UV-I 0 W/m² 0,0 °C 3,5 °C 3,2 km/h (1 Bft)
03.02.2017 06:04 3,6 °C 3,6 °C 77 % 1008,2 hPa 0,0 mm 2,0 km/h (1 Bft) S 176 ° 0 min 0,000 mm 0,0 UV-I 0 W/m² -0,0 °C 3,6 °C 3,2 km/h (1 Bft)
03.02.2017 06:05 3,6 °C 3,6 °C 77 % 1008,2 hPa 0,0 mm 2,6 km/h (1 Bft) S 176 ° 0 min 0,000 mm 0,0 UV-I 0 W/m² -0,0 °C 3,6 °C 3,2 km/h (1 Bft)
03.02.2017 06:06 3,7 °C 3,7 °C 77 % 1008,2 hPa 0,0 mm 3,1 km/h (1 Bft) S 176 ° 0 min 0,000 mm 0,0 UV-I 0 W/m² 0,1 °C 3,7 °C 4,8 km/h (1 Bft)
03.02.2017 06:07 3,7 °C 3,7 °C 77 % 1008,2 hPa 0,0 mm 2,9 km/h (1 Bft) S 176 ° 0 min 0,000 mm 0,0 UV-I 0 W/m² 0,1 °C 3,7 °C 3,2 km/h (1 Bft)
03.02.2017 06:08 3,8 °C 3,8 °C 77 % 1008,2 hPa 0,0 mm 3,0 km/h (1 Bft) S 176 ° 0 min 0,000 mm 0,0 UV-I 0 W/m² 0,1 °C 3,8 °C 3,2 km/h (1 Bft)
03.02.2017 06:09 3,8 °C 3,8 °C 77 % 1008,2 hPa 0,0 mm 2,3 km/h (1 Bft) S 176 ° 0 min 0,000 mm 0,0 UV-I 0 W/m² 0,1 °C 3,8 °C 3,2 km/h (1 Bft)
03.02.2017 06:10 3,9 °C 3,9 °C 77 % 1008,2 hPa 0,0 mm 1,4 km/h (1 Bft) S 176 ° 0 min 0,000 mm 0,0 UV-I 0 W/m² 0,2 °C 3,9 °C 3,2 km/h (1 Bft)
03.02.2017 06:11 3,9 °C 3,9 °C 76 % 1008,2 hPa 0,0 mm 1,5 km/h (1 Bft) S 176 ° 0 min 0,000 mm 0,0 UV-I 0 W/m² 0,1 °C 3,9 °C 3,2 km/h (1 Bft)
03.02.2017 06:12 3,9 °C 3,9 °C 76 % 1008,2 hPa 0,0 mm 0,0 km/h (0 Bft) S 176 ° 0 min 0,000 mm 0,0 UV-I 0 W/m² 0,1 °C 3,9 °C 0,0 km/h (0 Bft)
03.02.2017 06:13 3,9 °C 3,9 °C 76 % 1008,1 hPa 0,0 mm 0,4 km/h (0 Bft) S 176 ° 0 min 0,000 mm 0,0 UV-I 0 W/m² 0,1 °C 3,9 °C 1,6 km/h (1 Bft)
03.02.2017 06:14 4,0 °C 4,0 °C 76 % 1008,1 hPa 0,0 mm 1,7 km/h (1 Bft) S 176 ° 0 min 0,000 mm 0,0 UV-I 0 W/m² 0,2 °C 4,0 °C 3,2 km/h (1 Bft)
03.02.2017 06:15 3,9 °C 4,0 °C 76 % 1008,1 hPa 0,0 mm 0,5 km/h (0 Bft) S 176 ° 0 min 0,000 mm 0,0 UV-I 0 W/m² 0,1 °C 3,9 °C 1,6 km/h (1 Bft)
03.02.2017 06:16 3,9 °C 3,9 °C 77 % 1008,1 hPa 0,0 mm 0,7 km/h (0 Bft) S 176 ° 0 min 0,000 mm 0,0 UV-I 0 W/m² 0,2 °C 3,9 °C 1,6 km/h (1 Bft)
03.02.2017 06:17 3,9 °C 3,9 °C 77 % 1008,1 hPa 0,0 mm 1,1 km/h (1 Bft) S 176 ° 0 min 0,000 mm 0,0 UV-I 0 W/m² 0,2 °C 3,9 °C 1,6 km/h (1 Bft)
03.02.2017 06:18 3,8 °C 3,9 °C 77 % 1008,1 hPa 0,0 mm 0,1 km/h (0 Bft) S 176 ° 0 min 0,000 mm 0,0 UV-I 0 W/m² 0,1 °C 3,8 °C 1,6 km/h (1 Bft)
03.02.2017 06:19 3,8 °C 3,8 °C 78 % 1008,1 hPa 0,0 mm 0,0 km/h (0 Bft) S 176 ° 0 min 0,000 mm 0,0 UV-I 0 W/m² 0,3 °C 3,8 °C 0,0 km/h (0 Bft)
03.02.2017 06:20 3,8 °C 3,8 °C 78 % 1008,1 hPa 0,0 mm 0,0 km/h (0 Bft) S 176 ° 0 min 0,000 mm 0,0 UV-I 0 W/m² 0,3 °C 3,8 °C 0,0 km/h (0 Bft)
03.02.2017 06:21 3,7 °C 3,8 °C 78 % 1008,1 hPa 0,0 mm 0,1 km/h (0 Bft) S 176 ° 0 min 0,000 mm 0,0 UV-I 0 W/m² 0,2 °C 3,7 °C 1,6 km/h (1 Bft)
03.02.2017 06:22 3,7 °C 3,7 °C 78 % 1008,1 hPa 0,0 mm 0,0 km/h (0 Bft) S 176 ° 0 min 0,000 mm 0,0 UV-I 0 W/m² 0,2 °C 3,7 °C 0,0 km/h (0 Bft)
03.02.2017 06:23 3,6 °C 3,7 °C 78 % 1008,1 hPa 0,0 mm 0,0 km/h (0 Bft) S 176 ° 0 min 0,000 mm 0,0 UV-I 0 W/m² 0,1 °C 3,6 °C 0,0 km/h (0 Bft)
03.02.2017 06:24 3,6 °C 3,6 °C 78 % 1008,1 hPa 0,0 mm 0,0 km/h (0 Bft) S 176 ° 0 min 0,000 mm 0,0 UV-I 0 W/m² 0,1 °C 3,6 °C 0,0 km/h (0 Bft)
03.02.2017 06:25 3,6 °C 3,6 °C 79 % 1008,1 hPa 0,0 mm 0,0 km/h (0 Bft) S 176 ° 0 min 0,000 mm 0,0 UV-I 0 W/m² 0,3 °C 3,6 °C 0,0 km/h (0 Bft)
03.02.2017 06:26 3,5 °C 3,6 °C 79 % 1008,1 hPa 0,0 mm 0,2 km/h (0 Bft) S 176 ° 0 min 0,000 mm 0,0 UV-I 0 W/m² 0,2 °C 3,5 °C 1,6 km/h (1 Bft)
03.02.2017 06:27 3,5 °C 3,5 °C 79 % 1008,1 hPa 0,0 mm 0,7 km/h (0 Bft) S 176 ° 0 min 0,000 mm 0,0 UV-I 0 W/m² 0,2 °C 3,5 °C 1,6 km/h (1 Bft)
03.02.2017 06:28 3,4 °C 3,5 °C 79 % 1008,1 hPa 0,0 mm 0,2 km/h (0 Bft) S 176 ° 0 min 0,000 mm 0,0 UV-I 0 W/m² 0,1 °C 3,4 °C 1,6 km/h (1 Bft)
03.02.2017 06:29 3,4 °C 3,4 °C 79 % 1008,1 hPa 0,0 mm 0,0 km/h (0 Bft) S 176 ° 0 min 0,000 mm 0,0 UV-I 0 W/m² 0,1 °C 3,4 °C 0,0 km/h (0 Bft)
03.02.2017 06:30 3,4 °C 3,4 °C 79 % 1008,0 hPa 0,0 mm 0,0 km/h (0 Bft) S 176 ° 0 min 0,000 mm 0,0 UV-I 0 W/m² 0,1 °C 3,4 °C 0,0 km/h (0 Bft)
03.02.2017 06:31 3,4 °C 3,4 °C 79 % 1008,1 hPa 0,0 mm 0,0 km/h (0 Bft) S 176 ° 0 min 0,000 mm 0,0 UV-I 0 W/m² 0,1 °C 3,4 °C 0,0 km/h (0 Bft)
03.02.2017 06:32 3,4 °C 3,4 °C 79 % 1008,1 hPa 0,0 mm 0,0 km/h (0 Bft) S 176 ° 0 min 0,000 mm 0,0 UV-I 0 W/m² 0,1 °C 3,4 °C 0,0 km/h (0 Bft)
03.02.2017 06:33 3,3 °C 3,4 °C 79 % 1008,0 hPa 0,0 mm 0,0 km/h (0 Bft) S 176 ° 0 min 0,000 mm 0,0 UV-I 0 W/m² 0,0 °C 3,3 °C 0,0 km/h (0 Bft)
03.02.2017 06:34 3,3 °C 3,3 °C 79 % 1008,0 hPa 0,0 mm 0,0 km/h (0 Bft) S 176 ° 0 min 0,000 mm 0,0 UV-I 0 W/m² 0,0 °C 3,3 °C 0,0 km/h (0 Bft)
03.02.2017 06:35 3,3 °C 3,3 °C 79 % 1008,0 hPa 0,0 mm 0,0 km/h (0 Bft) S 176 ° 0 min 0,000 mm 0,0 UV-I 0 W/m² 0,0 °C 3,3 °C 0,0 km/h (0 Bft)
03.02.2017 06:36 3,2 °C 3,3 °C 79 % 1008,0 hPa 0,0 mm 0,0 km/h (0 Bft) S 176 ° 0 min 0,000 mm 0,0 UV-I 0 W/m² -0,1 °C 3,2 °C 0,0 km/h (0 Bft)
03.02.2017 06:37 3,2 °C 3,2 °C 79 % 1008,1 hPa 0,0 mm 0,0 km/h (0 Bft) S 176 ° 0 min 0,000 mm 0,0 UV-I 0 W/m² -0,1 °C 3,2 °C 0,0 km/h (0 Bft)
03.02.2017 06:38 3,2 °C 3,2 °C 79 % 1007,9 hPa 0,0 mm 0,0 km/h (0 Bft) S 176 ° 0 min 0,000 mm 0,0 UV-I 0 W/m² -0,1 °C 3,2 °C 0,0 km/h (0 Bft)
03.02.2017 06:39 3,2 °C 3,2 °C 80 % 1007,9 hPa 0,0 mm 0,0 km/h (0 Bft) S 176 ° 0 min 0,000 mm 0,0 UV-I 0 W/m² 0,1 °C 3,2 °C 0,0 km/h (0 Bft)
03.02.2017 06:40 3,1 °C 3,2 °C 80 % 1007,9 hPa 0,0 mm 0,0 km/h (0 Bft) S 176 ° 0 min 0,000 mm 0,0 UV-I 0 W/m² -0,0 °C 3,1 °C 0,0 km/h (0 Bft)
03.02.2017 06:41 3,1 °C 3,1 °C 80 % 1007,9 hPa 0,0 mm 0,0 km/h (0 Bft) S 176 ° 0 min 0,000 mm 0,0 UV-I 0 W/m² -0,0 °C 3,1 °C 0,0 km/h (0 Bft)
03.02.2017 06:42 3,1 °C 3,1 °C 80 % 1008,0 hPa 0,0 mm 0,0 km/h (0 Bft) S 176 ° 0 min 0,000 mm 0,0 UV-I 0 W/m² -0,0 °C 3,1 °C 0,0 km/h (0 Bft)
03.02.2017 06:43 3,1 °C 3,1 °C 80 % 1008,0 hPa 0,0 mm 0,0 km/h (0 Bft) S 176 ° 0 min 0,000 mm 0,0 UV-I 0 W/m² -0,0 °C 3,1 °C 0,0 km/h (0 Bft)
03.02.2017 06:44 3,0 °C 3,1 °C 80 % 1007,9 hPa 0,0 mm 0,0 km/h (0 Bft) S 176 ° 0 min 0,000 mm 0,0 UV-I 0 W/m² -0,1 °C 3,0 °C 0,0 km/h (0 Bft)
03.02.2017 06:45 2,9 °C 3,0 °C 80 % 1007,8 hPa 0,0 mm 0,0 km/h (0 Bft) S 176 ° 0 min 0,000 mm 0,0 UV-I 0 W/m² -0,2 °C 2,9 °C 0,0 km/h (0 Bft)
03.02.2017 06:46 2,9 °C 3,0 °C 80 % 1007,8 hPa 0,0 mm 0,0 km/h (0 Bft) S 176 ° 0 min 0,000 mm 0,0 UV-I 0 W/m² -0,2 °C 2,9 °C 0,0 km/h (0 Bft)
03.02.2017 06:47 2,9 °C 2,9 °C 81 % 1007,9 hPa 0,0 mm 0,0 km/h (0 Bft) S 176 ° 0 min 0,000 mm 0,0 UV-I 0 W/m² -0,0 °C 2,9 °C 0,0 km/h (0 Bft)
03.02.2017 06:48 2,9 °C 2,9 °C 81 % 1007,8 hPa 0,0 mm 0,0 km/h (0 Bft) S 176 ° 0 min 0,000 mm 0,0 UV-I 0 W/m² -0,0 °C 2,9 °C 0,0 km/h (0 Bft)
03.02.2017 06:49 2,8 °C 2,9 °C 80 % 1007,9 hPa 0,0 mm 0,0 km/h (0 Bft) S 176 ° 0 min 0,000 mm 0,0 UV-I 0 W/m² -0,3 °C 2,8 °C 0,0 km/h (0 Bft)
03.02.2017 06:50 2,8 °C 2,8 °C 80 % 1007,9 hPa 0,0 mm 0,0 km/h (0 Bft) S 176 ° 0 min 0,000 mm 0,0 UV-I 0 W/m² -0,3 °C 2,8 °C 0,0 km/h (0 Bft)
03.02.2017 06:51 2,8 °C 2,8 °C 81 % 1007,9 hPa 0,0 mm 0,0 km/h (0 Bft) S 176 ° 0 min 0,000 mm 0,0 UV-I 0 W/m² -0,1 °C 2,8 °C 0,0 km/h (0 Bft)
03.02.2017 06:52 2,8 °C 2,8 °C 81 % 1007,8 hPa 0,0 mm 0,0 km/h (0 Bft) S 176 ° 0 min 0,000 mm 0,0 UV-I 0 W/m² -0,1 °C 2,8 °C 0,0 km/h (0 Bft)
03.02.2017 06:53 2,7 °C 2,8 °C 81 % 1007,8 hPa 0,0 mm 0,0 km/h (0 Bft) S 176 ° 0 min 0,000 mm 0,0 UV-I 0 W/m² -0,2 °C 2,7 °C 0,0 km/h (0 Bft)
03.02.2017 06:54 2,7 °C 2,7 °C 81 % 1007,8 hPa 0,0 mm 0,0 km/h (0 Bft) S 176 ° 0 min 0,000 mm 0,0 UV-I 0 W/m² -0,2 °C 2,7 °C 0,0 km/h (0 Bft)
03.02.2017 06:55 2,7 °C 2,7 °C 81 % 1007,8 hPa 0,0 mm 0,0 km/h (0 Bft) S 176 ° 0 min 0,000 mm 0,0 UV-I 0 W/m² -0,2 °C 2,7 °C 0,0 km/h (0 Bft)
03.02.2017 06:56 2,6 °C 2,7 °C 81 % 1007,8 hPa 0,0 mm 0,0 km/h (0 Bft) S 176 ° 0 min 0,000 mm 0,0 UV-I 0 W/m² -0,3 °C 2,6 °C 0,0 km/h (0 Bft)
03.02.2017 06:57 2,6 °C 2,6 °C 81 % 1007,8 hPa 0,0 mm 0,0 km/h (0 Bft) S 176 ° 0 min 0,000 mm 0,0 UV-I 0 W/m² -0,3 °C 2,6 °C 0,0 km/h (0 Bft)
03.02.2017 06:58 2,6 °C 2,6 °C 82 % 1007,8 hPa 0,0 mm 0,0 km/h (0 Bft) S 176 ° 0 min 0,000 mm 0,0 UV-I 0 W/m² -0,2 °C 2,6 °C 0,0 km/h (0 Bft)
03.02.2017 06:59 2,5 °C 2,6 °C 82 % 1007,8 hPa 0,0 mm 0,5 km/h (0 Bft) S 176 ° 0 min 0,000 mm 0,0 UV-I 0 W/m² -0,3 °C 2,5 °C 1,6 km/h (1 Bft)
03.02.2017 07:00 2,4 °C 2,5 °C 82 % 1007,8 hPa 0,0 mm 0,6 km/h (0 Bft) S 176 ° 0 min 0,000 mm 0,0 UV-I 0 W/m² -0,4 °C 2,4 °C 1,6 km/h (1 Bft)
03.02.2017 07:01 2,4 °C 2,4 °C 82 % 1007,8 hPa 0,0 mm 0,0 km/h (0 Bft) S 176 ° 0 min 0,000 mm 0,0 UV-I 0 W/m² -0,4 °C 2,4 °C 0,0 km/h (0 Bft)
03.02.2017 07:02 2,4 °C 2,4 °C 82 % 1007,8 hPa 0,0 mm 0,1 km/h (0 Bft) S 176 ° 0 min 0,000 mm 0,0 UV-I 0 W/m² -0,4 °C 2,4 °C 1,6 km/h (1 Bft)
03.02.2017 07:03 2,4 °C 2,4 °C 82 % 1007,8 hPa 0,0 mm 0,9 km/h (0 Bft) S 176 ° 0 min 0,000 mm 0,0 UV-I 0 W/m² -0,4 °C 2,4 °C 1,6 km/h (1 Bft)
03.02.2017 07:04 2,3 °C 2,4 °C 82 % 1007,8 hPa 0,0 mm 1,0 km/h (0 Bft) S 176 ° 0 min 0,000 mm 0,0 UV-I 0 W/m² -0,4 °C 2,3 °C 1,6 km/h (1 Bft)
03.02.2017 07:05 2,3 °C 2,3 °C 82 % 1007,8 hPa 0,0 mm 0,4 km/h (0 Bft) S 176 ° 0 min 0,000 mm 0,0 UV-I 0 W/m² -0,4 °C 2,3 °C 1,6 km/h (1 Bft)
03.02.2017 07:06 2,3 °C 2,3 °C 82 % 1007,8 hPa 0,0 mm 0,4 km/h (0 Bft) S 176 ° 0 min 0,000 mm 0,0 UV-I 0 W/m² -0,4 °C 2,3 °C 1,6 km/h (1 Bft)
03.02.2017 07:07 2,3 °C 2,3 °C 82 % 1007,7 hPa 0,0 mm 0,7 km/h (0 Bft) S 176 ° 0 min 0,000 mm 0,0 UV-I 0 W/m² -0,4 °C 2,3 °C 1,6 km/h (1 Bft)
03.02.2017 07:08 2,2 °C 2,3 °C 83 % 1007,7 hPa 0,0 mm 0,0 km/h (0 Bft) S 176 ° 0 min 0,000 mm 0,0 UV-I 0 W/m² -0,4 °C 2,2 °C 0,0 km/h (0 Bft)
03.02.2017 07:09 2,2 °C 2,2 °C 83 % 1007,7 hPa 0,0 mm 0,1 km/h (0 Bft) S 176 ° 0 min 0,000 mm 0,0 UV-I 0 W/m² -0,4 °C 2,2 °C 1,6 km/h (1 Bft)
03.02.2017 07:10 2,2 °C 2,2 °C 83 % 1007,8 hPa 0,0 mm 0,0 km/h (0 Bft) S 176 ° 0 min 0,000 mm 0,0 UV-I 0 W/m² -0,4 °C 2,2 °C 0,0 km/h (0 Bft)
03.02.2017 07:11 2,2 °C 2,2 °C 83 % 1007,7 hPa 0,0 mm 0,1 km/h (0 Bft) S 176 ° 0 min 0,000 mm 0,0 UV-I 0 W/m² -0,4 °C 2,2 °C 1,6 km/h (1 Bft)
03.02.2017 07:12 2,1 °C 2,2 °C 83 % 1007,8 hPa 0,0 mm 0,0 km/h (0 Bft) S 176 ° 0 min 0,000 mm 0,0 UV-I 0 W/m² -0,5 °C 2,1 °C 0,0 km/h (0 Bft)
03.02.2017 07:13 2,1 °C 2,1 °C 83 % 1007,7 hPa 0,0 mm 0,0 km/h (0 Bft) S 176 ° 0 min 0,000 mm 0,0 UV-I 0 W/m² -0,5 °C 2,1 °C 0,0 km/h (0 Bft)
03.02.2017 07:14 2,1 °C 2,1 °C 83 % 1007,8 hPa 0,0 mm 0,0 km/h (0 Bft) S 176 ° 0 min 0,000 mm 0,0 UV-I 0 W/m² -0,5 °C 2,1 °C 0,0 km/h (0 Bft)
03.02.2017 07:15 2,0 °C 2,1 °C 83 % 1007,8 hPa 0,0 mm 0,0 km/h (0 Bft) S 176 ° 0 min 0,000 mm 0,0 UV-I 0 W/m² -0,6 °C 2,0 °C 0,0 km/h (0 Bft)
03.02.2017 07:16 2,0 °C 2,1 °C 83 % 1007,7 hPa 0,0 mm 0,0 km/h (0 Bft) S 176 ° 0 min 0,000 mm 0,0 UV-I 0 W/m² -0,6 °C 2,0 °C 0,0 km/h (0 Bft)
03.02.2017 07:17 1,9 °C 2,0 °C 83 % 1007,7 hPa 0,0 mm 0,0 km/h (0 Bft) S 176 ° 0 min 0,000 mm 0,0 UV-I 0 W/m² -0,7 °C 1,9 °C 0,0 km/h (0 Bft)
03.02.2017 07:18 1,9 °C 2,0 °C 83 % 1007,7 hPa 0,0 mm 0,0 km/h (0 Bft) S 176 ° 0 min 0,000 mm 0,0 UV-I 0 W/m² -0,7 °C 1,9 °C 0,0 km/h (0 Bft)
03.02.2017 07:19 1,9 °C 1,9 °C 83 % 1007,7 hPa 0,0 mm 0,2 km/h (0 Bft) S 176 ° 0 min 0,000 mm 0,0 UV-I 0 W/m² -0,7 °C 1,9 °C 1,6 km/h (1 Bft)
03.02.2017 07:20 1,9 °C 1,9 °C 83 % 1007,7 hPa 0,0 mm 0,2 km/h (0 Bft) S 176 ° 0 min 0,000 mm 0,0 UV-I 0 W/m² -0,7 °C 1,9 °C 1,6 km/h (1 Bft)
03.02.2017 07:21 1,9 °C 1,9 °C 84 % 1007,7 hPa 0,0 mm 0,0 km/h (0 Bft) S 176 ° 0 min 0,000 mm 0,0 UV-I 0 W/m² -0,5 °C 1,9 °C 0,0 km/h (0 Bft)
03.02.2017 07:22 1,8 °C 1,9 °C 84 % 1007,7 hPa 0,0 mm 0,0 km/h (0 Bft) S 176 ° 0 min 0,000 mm 0,0 UV-I 0 W/m² -0,6 °C 1,8 °C 0,0 km/h (0 Bft)
03.02.2017 07:23 1,8 °C 1,9 °C 84 % 1007,7 hPa 0,0 mm 0,0 km/h (0 Bft) S 176 ° 0 min 0,000 mm 0,0 UV-I 0 W/m² -0,6 °C 1,8 °C 0,0 km/h (0 Bft)
03.02.2017 07:24 1,8 °C 1,8 °C 84 % 1007,7 hPa 0,0 mm 0,0 km/h (0 Bft) S 176 ° 0 min 0,000 mm 0,0 UV-I 0 W/m² -0,6 °C 1,8 °C 0,0 km/h (0 Bft)
03.02.2017 07:25 1,8 °C 1,8 °C 84 % 1007,7 hPa 0,0 mm 0,0 km/h (0 Bft) S 176 ° 0 min 0,000 mm 0,0 UV-I 0 W/m² -0,6 °C 1,8 °C 0,0 km/h (0 Bft)
03.02.2017 07:26 1,8 °C 1,8 °C 84 % 1007,7 hPa 0,0 mm 0,0 km/h (0 Bft) S 176 ° 0 min 0,000 mm 0,0 UV-I 0 W/m² -0,6 °C 1,8 °C 0,0 km/h (0 Bft)
03.02.2017 07:27 1,7 °C 1,8 °C 85 % 1007,7 hPa 0,0 mm 0,0 km/h (0 Bft) S 176 ° 0 min 0,000 mm 0,0 UV-I 0 W/m² -0,5 °C 1,7 °C 0,0 km/h (0 Bft)
03.02.2017 07:28 1,7 °C 1,8 °C 85 % 1007,7 hPa 0,0 mm 0,3 km/h (0 Bft) S 176 ° 0 min 0,000 mm 0,0 UV-I 0 W/m² -0,5 °C 1,7 °C 1,6 km/h (1 Bft)
03.02.2017 07:29 1,7 °C 1,7 °C 85 % 1007,7 hPa 0,0 mm 0,0 km/h (0 Bft) S 176 ° 0 min 0,000 mm 0,0 UV-I 0 W/m² -0,5 °C 1,7 °C 0,0 km/h (0 Bft)
03.02.2017 07:30 1,7 °C 1,7 °C 85 % 1007,7 hPa 0,0 mm 0,0 km/h (0 Bft) S 176 ° 0 min 0,000 mm 0,0 UV-I 0 W/m² -0,5 °C 1,7 °C 0,0 km/h (0 Bft)
03.02.2017 07:31 1,7 °C 1,7 °C 85 % 1007,7 hPa 0,0 mm 0,5 km/h (0 Bft) S 176 ° 0 min 0,000 mm 0,0 UV-I 0 W/m² -0,5 °C 1,7 °C 1,6 km/h (1 Bft)
03.02.2017 07:32 1,7 °C 1,7 °C 85 % 1007,6 hPa 0,0 mm 0,6 km/h (0 Bft) S 176 ° 0 min 0,000 mm 0,0 UV-I 0 W/m² -0,5 °C 1,7 °C 1,6 km/h (1 Bft)
03.02.2017 07:33 1,7 °C 1,7 °C 86 % 1007,6 hPa 0,0 mm 0,4 km/h (0 Bft) S 176 ° 0 min 0,000 mm 0,0 UV-I 0 W/m² -0,4 °C 1,7 °C 1,6 km/h (1 Bft)
03.02.2017 07:34 1,7 °C 1,7 °C 86 % 1007,7 hPa 0,0 mm 1,0 km/h (0 Bft) S 176 ° 0 min 0,000 mm 0,0 UV-I 0 W/m² -0,4 °C 1,7 °C 1,6 km/h (1 Bft)
03.02.2017 07:35 1,6 °C 1,7 °C 86 % 1007,6 hPa 0,0 mm 1,8 km/h (1 Bft) S 176 ° 0 min 0,000 mm 0,0 UV-I 0 W/m² -0,5 °C 1,6 °C 3,2 km/h (1 Bft)
03.02.2017 07:36 1,6 °C 1,6 °C 86 % 1007,6 hPa 0,0 mm 1,2 km/h (1 Bft) S 176 ° 0 min 0,000 mm 0,0 UV-I 0 W/m² -0,5 °C 1,6 °C 1,6 km/h (1 Bft)
03.02.2017 07:37 1,6 °C 1,6 °C 86 % 1007,6 hPa 0,0 mm 0,8 km/h (0 Bft) S 176 ° 0 min 0,000 mm 0,0 UV-I 0 W/m² -0,5 °C 1,6 °C 1,6 km/h (1 Bft)
03.02.2017 07:38 1,6 °C 1,6 °C 86 % 1007,7 hPa 0,0 mm 0,0 km/h (0 Bft) S 176 ° 0 min 0,000 mm 0,0 UV-I 0 W/m² -0,5 °C 1,6 °C 0,0 km/h (0 Bft)
03.02.2017 07:39 1,6 °C 1,6 °C 87 % 1007,6 hPa 0,0 mm 0,0 km/h (0 Bft) S 176 ° 0 min 0,000 mm 0,0 UV-I 0 W/m² -0,3 °C 1,6 °C 0,0 km/h (0 Bft)
03.02.2017 07:40 1,5 °C 1,6 °C 87 % 1007,7 hPa 0,0 mm 0,0 km/h (0 Bft) S 176 ° 0 min 0,000 mm 0,0 UV-I 0 W/m² -0,4 °C 1,5 °C 0,0 km/h (0 Bft)
03.02.2017 07:41 1,6 °C 1,6 °C 87 % 1007,6 hPa 0,0 mm 0,0 km/h (0 Bft) S 176 ° 0 min 0,000 mm 0,0 UV-I 0 W/m² -0,3 °C 1,6 °C 0,0 km/h (0 Bft)
03.02.2017 07:42 1,5 °C 1,6 °C 87 % 1007,6 hPa 0,0 mm 0,0 km/h (0 Bft) S 176 ° 0 min 0,000 mm 0,0 UV-I 0 W/m² -0,4 °C 1,5 °C 0,0 km/h (0 Bft)
03.02.2017 07:43 1,5 °C 1,5 °C 87 % 1007,6 hPa 0,0 mm 0,0 km/h (0 Bft) S 176 ° 0 min 0,000 mm 0,0 UV-I 0 W/m² -0,4 °C 1,5 °C 0,0 km/h (0 Bft)
03.02.2017 07:44 1,5 °C 1,5 °C 87 % 1007,5 hPa 0,0 mm 0,0 km/h (0 Bft) S 176 ° 0 min 0,000 mm 0,0 UV-I 0 W/m² -0,4 °C 1,5 °C 0,0 km/h (0 Bft)
03.02.2017 07:45 1,4 °C 1,5 °C 87 % 1007,5 hPa 0,0 mm 0,1 km/h (0 Bft) S 176 ° 0 min 0,000 mm 0,0 UV-I 0 W/m² -0,5 °C 1,4 °C 1,6 km/h (1 Bft)
03.02.2017 07:46 1,5 °C 1,5 °C 87 % 1007,5 hPa 0,0 mm 0,2 km/h (0 Bft) S 176 ° 0 min 0,000 mm 0,0 UV-I 0 W/m² -0,4 °C 1,5 °C 1,6 km/h (1 Bft)
03.02.2017 07:47 1,4 °C 1,5 °C 87 % 1007,6 hPa 0,0 mm 0,1 km/h (0 Bft) S 176 ° 0 min 0,000 mm 0,0 UV-I 5 W/m² -0,5 °C 1,4 °C 1,6 km/h (1 Bft)
03.02.2017 07:48 1,4 °C 1,4 °C 87 % 1007,5 hPa 0,0 mm 0,2 km/h (0 Bft) S 176 ° 0 min 0,000 mm 0,0 UV-I 5 W/m² -0,5 °C 1,4 °C 1,6 km/h (1 Bft)
03.02.2017 07:49 1,4 °C 1,4 °C 87 % 1007,6 hPa 0,0 mm 1,2 km/h (1 Bft) S 176 ° 0 min 0,000 mm 0,0 UV-I 5 W/m² -0,5 °C 1,4 °C 1,6 km/h (1 Bft)
03.02.2017 07:50 1,4 °C 1,4 °C 87 % 1007,6 hPa 0,0 mm 0,8 km/h (0 Bft) S 176 ° 0 min 0,000 mm 0,0 UV-I 7 W/m² -0,5 °C 1,4 °C 1,6 km/h (1 Bft)
03.02.2017 07:51 1,5 °C 1,5 °C 87 % 1007,5 hPa 0,0 mm 1,7 km/h (1 Bft) S 176 ° 0 min 0,000 mm 0,0 UV-I 7 W/m² -0,4 °C 1,5 °C 3,2 km/h (1 Bft)
03.02.2017 07:52 1,5 °C 1,5 °C 87 % 1007,5 hPa 0,0 mm 1,3 km/h (1 Bft) S 176 ° 0 min 0,000 mm 0,0 UV-I 9 W/m² -0,4 °C 1,5 °C 3,2 km/h (1 Bft)
03.02.2017 07:53 1,5 °C 1,5 °C 87 % 1007,5 hPa 0,0 mm 1,3 km/h (1 Bft) S 176 ° 0 min 0,000 mm 0,0 UV-I 11 W/m² -0,4 °C 1,5 °C 1,6 km/h (1 Bft)
03.02.2017 07:54 1,6 °C 1,6 °C 87 % 1007,5 hPa 0,0 mm 2,5 km/h (1 Bft) S 176 ° 0 min 0,000 mm 0,0 UV-I 11 W/m² -0,3 °C 1,6 °C 4,8 km/h (1 Bft)
03.02.2017 07:55 1,6 °C 1,6 °C 87 % 1007,5 hPa 0,0 mm 2,5 km/h (1 Bft) S 176 ° 0 min 0,000 mm 0,0 UV-I 12 W/m² -0,3 °C 1,6 °C 3,2 km/h (1 Bft)
03.02.2017 07:56 1,7 °C 1,7 °C 87 % 1007,5 hPa 0,0 mm 2,7 km/h (1 Bft) S 176 ° 0 min 0,000 mm 0,0 UV-I 12 W/m² -0,2 °C 1,7 °C 3,2 km/h (1 Bft)
03.02.2017 07:57 1,7 °C 1,7 °C 87 % 1007,5 hPa 0,0 mm 0,7 km/h (0 Bft) S 176 ° 0 min 0,000 mm 0,0 UV-I 14 W/m² -0,2 °C 1,7 °C 1,6 km/h (1 Bft)
03.02.2017 07:58 1,7 °C 1,8 °C 87 % 1007,5 hPa 0,0 mm 0,0 km/h (0 Bft) S 176 ° 0 min 0,000 mm 0,0 UV-I 18 W/m² -0,2 °C 1,7 °C 0,0 km/h (0 Bft)
03.02.2017 07:59 1,8 °C 1,8 °C 87 % 1007,5 hPa 0,0 mm 0,0 km/h (0 Bft) S 176 ° 0 min 0,000 mm 0,0 UV-I 19 W/m² -0,1 °C 1,8 °C 0,0 km/h (0 Bft)
03.02.2017 08:00 1,8 °C 1,8 °C 87 % 1007,5 hPa 0,0 mm 0,0 km/h (0 Bft) S 176 ° 0 min 0,000 mm 0,0 UV-I 21 W/m² -0,1 °C 1,8 °C 0,0 km/h (0 Bft)
03.02.2017 08:01 1,8 °C 1,8 °C 87 % 1007,5 hPa 0,0 mm 0,0 km/h (0 Bft) S 176 ° 0 min 0,000 mm 0,0 UV-I 21 W/m² -0,1 °C 1,8 °C 0,0 km/h (0 Bft)
03.02.2017 08:02 1,9 °C 1,9 °C 87 % 1007,5 hPa 0,0 mm 0,0 km/h (0 Bft) S 176 ° 0 min 0,000 mm 0,0 UV-I 23 W/m² -0,0 °C 1,9 °C 0,0 km/h (0 Bft)
03.02.2017 08:03 1,9 °C 1,9 °C 87 % 1007,5 hPa 0,0 mm 0,2 km/h (0 Bft) S 176 ° 0 min 0,000 mm 0,0 UV-I 25 W/m² -0,0 °C 1,9 °C 1,6 km/h (1 Bft)
03.02.2017 08:04 1,9 °C 1,9 °C 87 % 1007,5 hPa 0,0 mm 0,8 km/h (0 Bft) S 176 ° 0 min 0,000 mm 0,0 UV-I 28 W/m² -0,0 °C 1,9 °C 3,2 km/h (1 Bft)
03.02.2017 08:05 1,9 °C 1,9 °C 86 % 1007,5 hPa 0,0 mm 1,4 km/h (1 Bft) S 176 ° 0 min 0,000 mm 0,0 UV-I 30 W/m² -0,2 °C 1,9 °C 3,2 km/h (1 Bft)
03.02.2017 08:06 2,0 °C 2,0 °C 86 % 1007,5 hPa 0,0 mm 2,0 km/h (1 Bft) S 176 ° 0 min 0,000 mm 0,0 UV-I 30 W/m² -0,1 °C 2,0 °C 3,2 km/h (1 Bft)
03.02.2017 08:07 2,1 °C 2,1 °C 86 % 1007,5 hPa 0,0 mm 1,7 km/h (1 Bft) S 176 ° 0 min 0,000 mm 0,0 UV-I 32 W/m² 0,0 °C 2,1 °C 3,2 km/h (1 Bft)
03.02.2017 08:08 2,2 °C 2,2 °C 86 % 1007,5 hPa 0,0 mm 2,1 km/h (1 Bft) S 176 ° 0 min 0,000 mm 0,0 UV-I 33 W/m² 0,1 °C 2,2 °C 3,2 km/h (1 Bft)
03.02.2017 08:09 2,2 °C 2,2 °C 86 % 1007,5 hPa 0,0 mm 0,2 km/h (0 Bft) S 176 ° 0 min 0,000 mm 0,0 UV-I 33 W/m² 0,1 °C 2,2 °C 1,6 km/h (1 Bft)
03.02.2017 08:10 2,2 °C 2,2 °C 86 % 1007,5 hPa 0,0 mm 1,1 km/h (1 Bft) S 176 ° 0 min 0,000 mm 0,0 UV-I 35 W/m² 0,1 °C 2,2 °C 3,2 km/h (1 Bft)
03.02.2017 08:11 2,2 °C 2,2 °C 85 % 1007,5 hPa 0,0 mm 0,5 km/h (0 Bft) S 176 ° 0 min 0,000 mm 0,0 UV-I 37 W/m² -0,1 °C 2,2 °C 1,6 km/h (1 Bft)
03.02.2017 08:12 2,2 °C 2,3 °C 85 % 1007,5 hPa 0,0 mm 0,0 km/h (0 Bft) S 176 ° 0 min 0,000 mm 0,0 UV-I 39 W/m² -0,1 °C 2,2 °C 0,0 km/h (0 Bft)
03.02.2017 08:13 2,2 °C 2,3 °C 85 % 1007,5 hPa 0,0 mm 0,4 km/h (0 Bft) S 176 ° 0 min 0,000 mm 0,0 UV-I 39 W/m² -0,1 °C 2,2 °C 1,6 km/h (1 Bft)
03.02.2017 08:14 2,3 °C 2,3 °C 85 % 1007,5 hPa 0,0 mm 0,3 km/h (0 Bft) S 176 ° 0 min 0,000 mm 0,0 UV-I 40 W/m² 0,0 °C 2,3 °C 1,6 km/h (1 Bft)
03.02.2017 08:15 2,3 °C 2,3 °C 86 % 1007,5 hPa 0,0 mm 0,2 km/h (0 Bft) S 176 ° 0 min 0,000 mm 0,0 UV-I 40 W/m² 0,2 °C 2,3 °C 1,6 km/h (1 Bft)
03.02.2017 08:16 2,3 °C 2,3 °C 86 % 1007,5 hPa 0,0 mm 0,0 km/h (0 Bft) S 176 ° 0 min 0,000 mm 0,0 UV-I 42 W/m² 0,2 °C 2,3 °C 0,0 km/h (0 Bft)
03.02.2017 08:17 2,3 °C 2,3 °C 86 % 1007,5 hPa 0,0 mm 0,0 km/h (0 Bft) S 176 ° 0 min 0,000 mm 0,0 UV-I 42 W/m² 0,2 °C 2,3 °C 0,0 km/h (0 Bft)
03.02.2017 08:18 2,3 °C 2,3 °C 86 % 1007,5 hPa 0,0 mm 0,0 km/h (0 Bft) S 176 ° 0 min 0,000 mm 0,0 UV-I 42 W/m² 0,2 °C 2,3 °C 0,0 km/h (0 Bft)
03.02.2017 08:19 2,3 °C 2,3 °C 86 % 1007,5 hPa 0,0 mm 0,0 km/h (0 Bft) S 176 ° 0 min 0,000 mm 0,0 UV-I 42 W/m² 0,2 °C 2,3 °C 0,0 km/h (0 Bft)
03.02.2017 08:20 2,3 °C 2,3 °C 86 % 1007,5 hPa 0,0 mm 0,0 km/h (0 Bft) S 176 ° 0 min 0,000 mm 0,0 UV-I 42 W/m² 0,2 °C 2,3 °C 0,0 km/h (0 Bft)
03.02.2017 08:21 2,3 °C 2,3 °C 86 % 1007,5 hPa 0,0 mm 0,0 km/h (0 Bft) S 176 ° 0 min 0,000 mm 0,0 UV-I 44 W/m² 0,2 °C 2,3 °C 0,0 km/h (0 Bft)
03.02.2017 08:22 2,3 °C 2,4 °C 86 % 1007,6 hPa 0,0 mm 0,0 km/h (0 Bft) S 176 ° 0 min 0,000 mm 0,0 UV-I 44 W/m² 0,2 °C 2,3 °C 0,0 km/h (0 Bft)
03.02.2017 08:23 2,4 °C 2,4 °C 86 % 1007,6 hPa 0,0 mm 0,0 km/h (0 Bft) S 176 ° 0 min 0,000 mm 0,0 UV-I 46 W/m² 0,3 °C 2,4 °C 0,0 km/h (0 Bft)
03.02.2017 08:24 2,4 °C 2,4 °C 86 % 1007,6 hPa 0,0 mm 0,0 km/h (0 Bft) S 176 ° 0 min 0,000 mm 0,0 UV-I 46 W/m² 0,3 °C 2,4 °C 0,0 km/h (0 Bft)
03.02.2017 08:25 2,4 °C 2,4 °C 86 % 1007,6 hPa 0,0 mm 0,0 km/h (0 Bft) S 176 ° 0 min 0,000 mm 0,0 UV-I 47 W/m² 0,3 °C 2,4 °C 0,0 km/h (0 Bft)
03.02.2017 08:26 2,4 °C 2,4 °C 86 % 1007,6 hPa 0,0 mm 0,0 km/h (0 Bft) S 176 ° 0 min 0,000 mm 0,0 UV-I 49 W/m² 0,3 °C 2,4 °C 0,0 km/h (0 Bft)
03.02.2017 08:27 2,4 °C 2,4 °C 86 % 1007,7 hPa 0,0 mm 0,0 km/h (0 Bft) S 176 ° 0 min 0,000 mm 0,0 UV-I 51 W/m² 0,3 °C 2,4 °C 0,0 km/h (0 Bft)
03.02.2017 08:28 2,4 °C 2,4 °C 86 % 1007,7 hPa 0,0 mm 0,3 km/h (0 Bft) S 176 ° 0 min 0,000 mm 0,0 UV-I 51 W/m² 0,3 °C 2,4 °C 1,6 km/h (1 Bft)
03.02.2017 08:29 2,4 °C 2,4 °C 86 % 1007,7 hPa 0,0 mm 0,4 km/h (0 Bft) S 176 ° 0 min 0,000 mm 0,0 UV-I 51 W/m² 0,3 °C 2,4 °C 1,6 km/h (1 Bft)
03.02.2017 08:30 2,4 °C 2,4 °C 86 % 1007,7 hPa 0,0 mm 0,1 km/h (0 Bft) S 176 ° 0 min 0,000 mm 0,0 UV-I 53 W/m² 0,3 °C 2,4 °C 1,6 km/h (1 Bft)
03.02.2017 08:31 2,4 °C 2,4 °C 86 % 1007,7 hPa 0,0 mm 0,2 km/h (0 Bft) S 176 ° 0 min 0,000 mm 0,0 UV-I 53 W/m² 0,3 °C 2,4 °C 1,6 km/h (1 Bft)
03.02.2017 08:32 2,4 °C 2,4 °C 85 % 1007,7 hPa 0,0 mm 0,1 km/h (0 Bft) S 176 ° 0 min 0,000 mm 0,0 UV-I 54 W/m² 0,1 °C 2,4 °C 1,6 km/h (1 Bft)
03.02.2017 08:33 2,4 °C 2,4 °C 86 % 1007,7 hPa 0,0 mm 0,4 km/h (0 Bft) S 176 ° 0 min 0,000 mm 0,0 UV-I 56 W/m² 0,3 °C 2,4 °C 1,6 km/h (1 Bft)
03.02.2017 08:34 2,4 °C 2,4 °C 85 % 1007,8 hPa 0,0 mm 1,7 km/h (1 Bft) S 176 ° 0 min 0,000 mm 0,0 UV-I 58 W/m² 0,1 °C 2,4 °C 3,2 km/h (1 Bft)
03.02.2017 08:35 2,4 °C 2,4 °C 85 % 1007,7 hPa 0,0 mm 1,3 km/h (1 Bft) S 176 ° 0 min 0,000 mm 0,0 UV-I 58 W/m² 0,1 °C 2,4 °C 3,2 km/h (1 Bft)
03.02.2017 08:36 2,4 °C 2,4 °C 85 % 1007,7 hPa 0,0 mm 0,2 km/h (0 Bft) S 176 ° 0 min 0,000 mm 0,0 UV-I 60 W/m² 0,1 °C 2,4 °C 1,6 km/h (1 Bft)
03.02.2017 08:37 2,5 °C 2,5 °C 85 % 1007,7 hPa 0,0 mm 0,8 km/h (0 Bft) S-SW 213 ° 0 min 0,000 mm 0,0 UV-I 60 W/m² 0,2 °C 2,5 °C 3,2 km/h (1 Bft)
03.02.2017 08:38 2,5 °C 2,5 °C 85 % 1007,8 hPa 0,0 mm 4,4 km/h (1 Bft) S 191 ° 0 min 0,000 mm 0,0 UV-I 62 W/m² 0,2 °C 2,5 °C 11,3 km/h (2 Bft)
03.02.2017 08:39 2,6 °C 2,6 °C 84 % 1007,7 hPa 0,0 mm 8,6 km/h (2 Bft) SW 216 ° 0 min 0,000 mm 0,0 UV-I 62 W/m² 0,2 °C 0,1 °C 12,9 km/h (3 Bft)
03.02.2017 08:40 2,7 °C 2,7 °C 83 % 1007,7 hPa 0,0 mm 9,1 km/h (2 Bft) S-SW 202 ° 0 min 0,000 mm 0,0 UV-I 62 W/m² 0,1 °C 0,1 °C 14,5 km/h (3 Bft)
03.02.2017 08:41 2,8 °C 2,8 °C 82 % 1007,8 hPa 0,0 mm 6,4 km/h (2 Bft) S-SW 207 ° 0 min 0,000 mm 0,0 UV-I 62 W/m² 0,0 °C 1,1 °C 11,3 km/h (2 Bft)
03.02.2017 08:42 3,0 °C 3,0 °C 82 % 1007,8 hPa 0,0 mm 6,2 km/h (2 Bft) S-SW 196 ° 0 min 0,000 mm 0,0 UV-I 62 W/m² 0,2 °C 1,4 °C 9,7 km/h (2 Bft)
03.02.2017 08:43 3,1 °C 3,1 °C 83 % 1007,8 hPa 0,0 mm 4,4 km/h (1 Bft) S-SW 204 ° 0 min 0,000 mm 0,0 UV-I 63 W/m² 0,5 °C 3,1 °C 8,0 km/h (2 Bft)
03.02.2017 08:44 3,2 °C 3,2 °C 83 % 1007,8 hPa 0,0 mm 5,8 km/h (2 Bft) S-SW 192 ° 0 min 0,000 mm 0,0 UV-I 63 W/m² 0,6 °C 1,7 °C 11,3 km/h (2 Bft)
03.02.2017 08:45 3,3 °C 3,3 °C 82 % 1007,8 hPa 0,0 mm 9,3 km/h (2 Bft) S-SW 196 ° 0 min 0,000 mm 0,0 UV-I 63 W/m² 0,5 °C 0,8 °C 11,3 km/h (2 Bft)
03.02.2017 08:46 3,3 °C 3,3 °C 81 % 1007,8 hPa 0,0 mm 5,6 km/h (1 Bft) S 180 ° 0 min 0,000 mm 0,0 UV-I 63 W/m² 0,4 °C 1,9 °C 9,7 km/h (2 Bft)
03.02.2017 08:47 3,4 °C 3,4 °C 81 % 1007,8 hPa 0,0 mm 5,3 km/h (1 Bft) S-SW 200 ° 0 min 0,000 mm 0,0 UV-I 63 W/m² 0,5 °C 2,1 °C 8,0 km/h (2 Bft)
03.02.2017 08:48 3,4 °C 3,4 °C 80 % 1007,8 hPa 0,0 mm 5,9 km/h (2 Bft) S-SW 193 ° 0 min 0,000 mm 0,0 UV-I 63 W/m² 0,3 °C 1,9 °C 8,0 km/h (2 Bft)
03.02.2017 08:49 3,5 °C 3,5 °C 80 % 1007,8 hPa 0,0 mm 7,5 km/h (2 Bft) S 177 ° 0 min 0,000 mm 0,0 UV-I 62 W/m² 0,4 °C 1,5 °C 9,7 km/h (2 Bft)
03.02.2017 08:50 3,6 °C 3,6 °C 79 % 1007,8 hPa 0,0 mm 7,4 km/h (2 Bft) S-SW 196 ° 0 min 0,000 mm 0,0 UV-I 62 W/m² 0,3 °C 1,7 °C 9,7 km/h (2 Bft)
03.02.2017 08:51 3,7 °C 3,7 °C 79 % 1007,9 hPa 0,0 mm 7,4 km/h (2 Bft) S-SW 206 ° 0 min 0,000 mm 0,0 UV-I 60 W/m² 0,4 °C 1,8 °C 9,7 km/h (2 Bft)
03.02.2017 08:52 3,7 °C 3,7 °C 79 % 1007,8 hPa 0,0 mm 5,4 km/h (1 Bft) S-SW 196 ° 0 min 0,000 mm 0,0 UV-I 58 W/m² 0,4 °C 2,4 °C 8,0 km/h (2 Bft)
03.02.2017 08:53 3,8 °C 3,8 °C 79 % 1007,9 hPa 0,0 mm 4,7 km/h (1 Bft) S-SW 200 ° 0 min 0,000 mm 0,0 UV-I 56 W/m² 0,5 °C 2,8 °C 6,4 km/h (2 Bft)
03.02.2017 08:54 3,9 °C 3,9 °C 79 % 1007,9 hPa 0,0 mm 3,2 km/h (1 Bft) S-SW 199 ° 0 min 0,000 mm 0,0 UV-I 56 W/m² 0,6 °C 3,9 °C 4,8 km/h (1 Bft)
03.02.2017 08:55 3,9 °C 3,9 °C 78 % 1007,9 hPa 0,0 mm 3,7 km/h (1 Bft) SW 221 ° 0 min 0,000 mm 0,0 UV-I 54 W/m² 0,4 °C 3,9 °C 4,8 km/h (1 Bft)
03.02.2017 08:56 4,0 °C 4,0 °C 78 % 1007,9 hPa 0,0 mm 5,0 km/h (1 Bft) S-SW 204 ° 0 min 0,000 mm 0,0 UV-I 54 W/m² 0,5 °C 2,9 °C 6,4 km/h (2 Bft)
03.02.2017 08:57 4,1 °C 4,1 °C 77 % 1007,9 hPa 0,0 mm 1,9 km/h (1 Bft) S-SW 204 ° 0 min 0,000 mm 0,0 UV-I 51 W/m² 0,4 °C 4,1 °C 3,2 km/h (1 Bft)
03.02.2017 08:58 4,2 °C 4,2 °C 77 % 1007,9 hPa 0,0 mm 5,0 km/h (1 Bft) S-SW 193 ° 0 min 0,000 mm 0,0 UV-I 51 W/m² 0,5 °C 3,2 °C 6,4 km/h (2 Bft)
03.02.2017 08:59 4,2 °C 4,2 °C 77 % 1007,9 hPa 0,0 mm 4,4 km/h (1 Bft) S-SW 204 ° 0 min 0,000 mm 0,0 UV-I 49 W/m² 0,5 °C 4,2 °C 8,0 km/h (2 Bft)
03.02.2017 09:00 4,3 °C 4,3 °C 78 % 1007,9 hPa 0,0 mm 4,0 km/h (1 Bft) S-SW 205 ° 0 min 0,025 mm 0,0 UV-I 49 W/m² 0,8 °C 4,3 °C 6,4 km/h (2 Bft)
03.02.2017 09:01 4,3 °C 4,3 °C 78 % 1007,9 hPa 0,0 mm 3,6 km/h (1 Bft) S-SW 212 ° 0 min 0,000 mm 0,0 UV-I 49 W/m² 0,8 °C 4,3 °C 6,4 km/h (2 Bft)
03.02.2017 09:02 4,3 °C 4,3 °C 77 % 1008,0 hPa 0,0 mm 4,8 km/h (1 Bft) S-SW 200 ° 0 min 0,000 mm 0,0 UV-I 47 W/m² 0,6 °C 3,4 °C 8,0 km/h (2 Bft)
03.02.2017 09:03 4,3 °C 4,3 °C 77 % 1008,0 hPa 0,0 mm 1,9 km/h (1 Bft) S-SW 196 ° 0 min 0,000 mm 0,0 UV-I 47 W/m² 0,6 °C 4,3 °C 4,8 km/h (1 Bft)
03.02.2017 09:04 4,3 °C 4,3 °C 77 % 1008,0 hPa 0,0 mm 1,4 km/h (1 Bft) S-SW 200 ° 0 min 0,000 mm 0,0 UV-I 47 W/m² 0,6 °C 4,3 °C 3,2 km/h (1 Bft)
03.02.2017 09:05 4,3 °C 4,3 °C 78 % 1008,1 hPa 0,0 mm 2,3 km/h (1 Bft) S-SW 200 ° 0 min 0,000 mm 0,0 UV-I 46 W/m² 0,8 °C 4,3 °C 3,2 km/h (1 Bft)
03.02.2017 09:06 4,4 °C 4,4 °C 77 % 1008,1 hPa 0,0 mm 3,7 km/h (1 Bft) S-SW 212 ° 0 min 0,000 mm 0,0 UV-I 46 W/m² 0,7 °C 4,4 °C 4,8 km/h (1 Bft)
03.02.2017 09:07 4,4 °C 4,4 °C 77 % 1008,0 hPa 0,0 mm 4,4 km/h (1 Bft) S 184 ° 0 min 0,000 mm 0,0 UV-I 44 W/m² 0,7 °C 4,4 °C 9,7 km/h (2 Bft)
03.02.2017 09:08 4,4 °C 4,4 °C 77 % 1008,0 hPa 0,0 mm 5,0 km/h (1 Bft) W-SW 243 ° 0 min 0,000 mm 0,0 UV-I 42 W/m² 0,7 °C 3,4 °C 8,0 km/h (2 Bft)
03.02.2017 09:09 4,4 °C 4,4 °C 77 % 1008,1 hPa 0,0 mm 2,7 km/h (1 Bft) W 280 ° 0 min 0,000 mm 0,0 UV-I 42 W/m² 0,7 °C 4,4 °C 4,8 km/h (1 Bft)
03.02.2017 09:10 4,4 °C 4,4 °C 78 % 1008,1 hPa 0,0 mm 3,0 km/h (1 Bft) W-NW 284 ° 0 min 0,000 mm 0,0 UV-I 42 W/m² 0,9 °C 4,4 °C 4,8 km/h (1 Bft)
03.02.2017 09:11 4,4 °C 4,4 °C 78 % 1008,1 hPa 0,0 mm 1,5 km/h (1 Bft) W-NW 284 ° 0 min 0,000 mm 0,0 UV-I 42 W/m² 0,9 °C 4,4 °C 3,2 km/h (1 Bft)
03.02.2017 09:12 4,4 °C 4,4 °C 78 % 1008,1 hPa 0,0 mm 0,0 km/h (0 Bft) W-NW 284 ° 0 min 0,000 mm 0,0 UV-I 42 W/m² 0,9 °C 4,4 °C 0,0 km/h (0 Bft)
03.02.2017 09:13 4,3 °C 4,4 °C 78 % 1008,1 hPa 0,0 mm 0,0 km/h (0 Bft) W-NW 284 ° 0 min 0,000 mm 0,0 UV-I 42 W/m² 0,8 °C 4,3 °C 0,0 km/h (0 Bft)
03.02.2017 09:14 4,3 °C 4,3 °C 78 % 1008,0 hPa 0,0 mm 0,0 km/h (0 Bft) W-NW 284 ° 0 min 0,000 mm 0,0 UV-I 44 W/m² 0,8 °C 4,3 °C 0,0 km/h (0 Bft)
03.02.2017 09:15 4,3 °C 4,3 °C 79 % 1008,0 hPa 0,0 mm 0,2 km/h (0 Bft) W-NW 284 ° 0 min 0,000 mm 0,0 UV-I 44 W/m² 1,0 °C 4,3 °C 1,6 km/h (1 Bft)
03.02.2017 09:16 4,3 °C 4,3 °C 79 % 1008,0 hPa 0,0 mm 1,1 km/h (1 Bft) W-NW 284 ° 0 min 0,000 mm 0,0 UV-I 46 W/m² 1,0 °C 4,3 °C 1,6 km/h (1 Bft)
03.02.2017 09:17 4,3 °C 4,3 °C 79 % 1008,0 hPa 0,0 mm 0,5 km/h (0 Bft) W-NW 284 ° 0 min 0,000 mm 0,0 UV-I 47 W/m² 1,0 °C 4,3 °C 1,6 km/h (1 Bft)
03.02.2017 09:18 4,3 °C 4,3 °C 79 % 1008,0 hPa 0,0 mm 0,0 km/h (0 Bft) W-NW 284 ° 0 min 0,000 mm 0,0 UV-I 47 W/m² 1,0 °C 4,3 °C 0,0 km/h (0 Bft)
03.02.2017 09:19 4,3 °C 4,3 °C 79 % 1008,0 hPa 0,0 mm 0,0 km/h (0 Bft) W-NW 284 ° 0 min 0,000 mm 0,0 UV-I 47 W/m² 1,0 °C 4,3 °C 0,0 km/h (0 Bft)
03.02.2017 09:20 4,3 °C 4,3 °C 79 % 1008,0 hPa 0,0 mm 0,0 km/h (0 Bft) W-NW 284 ° 0 min 0,000 mm 0,0 UV-I 49 W/m² 1,0 °C 4,3 °C 0,0 km/h (0 Bft)
03.02.2017 09:21 4,3 °C 4,3 °C 79 % 1008,0 hPa 0,0 mm 0,0 km/h (0 Bft) W-NW 284 ° 0 min 0,000 mm 0,0 UV-I 49 W/m² 1,0 °C 4,3 °C 0,0 km/h (0 Bft)
03.02.2017 09:22 4,3 °C 4,3 °C 80 % 1008,1 hPa 0,0 mm 0,1 km/h (0 Bft) W-NW 284 ° 0 min 0,000 mm 0,0 UV-I 51 W/m² 1,2 °C 4,3 °C 1,6 km/h (1 Bft)
03.02.2017 09:23 4,3 °C 4,3 °C 79 % 1008,1 hPa 0,0 mm 1,4 km/h (1 Bft) W-NW 284 ° 0 min 0,000 mm 0,0 UV-I 51 W/m² 1,0 °C 4,3 °C 3,2 km/h (1 Bft)
03.02.2017 09:24 4,3 °C 4,3 °C 79 % 1008,1 hPa 0,0 mm 0,1 km/h (0 Bft) W-NW 284 ° 0 min 0,000 mm 0,0 UV-I 51 W/m² 1,0 °C 4,3 °C 1,6 km/h (1 Bft)
03.02.2017 09:25 4,3 °C 4,3 °C 79 % 1008,1 hPa 0,0 mm 1,7 km/h (1 Bft) W-NW 284 ° 0 min 0,000 mm 0,0 UV-I 51 W/m² 1,0 °C 4,3 °C 3,2 km/h (1 Bft)
03.02.2017 09:26 4,2 °C 4,3 °C 79 % 1008,1 hPa 0,0 mm 2,1 km/h (1 Bft) W-NW 284 ° 0 min 0,000 mm 0,0 UV-I 53 W/m² 0,9 °C 4,2 °C 3,2 km/h (1 Bft)
03.02.2017 09:27 4,2 °C 4,2 °C 80 % 1008,1 hPa 0,0 mm 0,1 km/h (0 Bft) W-NW 284 ° 0 min 0,000 mm 0,0 UV-I 53 W/m² 1,1 °C 4,2 °C 1,6 km/h (1 Bft)
03.02.2017 09:28 4,2 °C 4,2 °C 80 % 1008,1 hPa 0,0 mm 0,0 km/h (0 Bft) W-NW 284 ° 0 min 0,000 mm 0,0 UV-I 54 W/m² 1,1 °C 4,2 °C 0,0 km/h (0 Bft)
03.02.2017 09:29 4,2 °C 4,2 °C 80 % 1008,0 hPa 0,0 mm 0,3 km/h (0 Bft) W-NW 284 ° 0 min 0,000 mm 0,0 UV-I 54 W/m² 1,1 °C 4,2 °C 1,6 km/h (1 Bft)
03.02.2017 09:30 4,2 °C 4,2 °C 80 % 1008,0 hPa 0,0 mm 2,7 km/h (1 Bft) W-NW 284 ° 0 min 0,000 mm 0,0 UV-I 56 W/m² 1,1 °C 4,2 °C 4,8 km/h (1 Bft)
03.02.2017 09:31 4,2 °C 4,2 °C 80 % 1008,1 hPa 0,0 mm 2,3 km/h (1 Bft) W-NW 284 ° 0 min 0,000 mm 0,0 UV-I 56 W/m² 1,1 °C 4,2 °C 4,8 km/h (1 Bft)
03.02.2017 09:32 4,1 °C 4,2 °C 81 % 1008,1 hPa 0,0 mm 0,1 km/h (0 Bft) W-NW 284 ° 0 min 0,000 mm 0,0 UV-I 58 W/m² 1,1 °C 4,1 °C 1,6 km/h (1 Bft)
03.02.2017 09:33 4,1 °C 4,2 °C 81 % 1008,1 hPa 0,0 mm 3,3 km/h (1 Bft) W-SW 242 ° 0 min 0,000 mm 0,0 UV-I 58 W/m² 1,1 °C 4,1 °C 6,4 km/h (2 Bft)
03.02.2017 09:34 4,1 °C 4,2 °C 80 % 1008,1 hPa 0,0 mm 6,4 km/h (2 Bft) S-SW 203 ° 0 min 0,000 mm 0,0 UV-I 58 W/m² 1,0 °C 2,6 °C 11,3 km/h (2 Bft)
03.02.2017 09:35 4,1 °C 4,1 °C 79 % 1008,1 hPa 0,0 mm 4,4 km/h (1 Bft) S 171 ° 0 min 0,000 mm 0,0 UV-I 58 W/m² 0,8 °C 4,1 °C 8,0 km/h (2 Bft)
03.02.2017 09:36 4,2 °C 4,2 °C 80 % 1008,1 hPa 0,0 mm 1,3 km/h (1 Bft) S 171 ° 0 min 0,000 mm 0,0 UV-I 58 W/m² 1,1 °C 4,2 °C 3,2 km/h (1 Bft)
03.02.2017 09:37 4,2 °C 4,2 °C 80 % 1008,1 hPa 0,0 mm 1,9 km/h (1 Bft) S 171 ° 0 min 0,000 mm 0,0 UV-I 60 W/m² 1,1 °C 4,2 °C 3,2 km/h (1 Bft)
03.02.2017 09:38 4,2 °C 4,2 °C 80 % 1008,1 hPa 0,0 mm 0,9 km/h (0 Bft) S 171 ° 0 min 0,000 mm 0,0 UV-I 62 W/m² 1,1 °C 4,2 °C 1,6 km/h (1 Bft)
03.02.2017 09:39 4,2 °C 4,2 °C 80 % 1008,1 hPa 0,0 mm 0,8 km/h (0 Bft) S 171 ° 0 min 0,000 mm 0,0 UV-I 62 W/m² 1,1 °C 4,2 °C 1,6 km/h (1 Bft)
03.02.2017 09:40 4,2 °C 4,2 °C 80 % 1008,1 hPa 0,0 mm 0,3 km/h (0 Bft) S 171 ° 0 min 0,000 mm 0,0 UV-I 63 W/m² 1,1 °C 4,2 °C 1,6 km/h (1 Bft)
03.02.2017 09:41 4,2 °C 4,2 °C 80 % 1008,0 hPa 0,0 mm 2,2 km/h (1 Bft) S 171 ° 0 min 0,000 mm 0,0 UV-I 63 W/m² 1,1 °C 4,2 °C 3,2 km/h (1 Bft)
03.02.2017 09:42 4,2 °C 4,2 °C 80 % 1008,0 hPa 0,0 mm 0,7 km/h (0 Bft) S 171 ° 0 min 0,000 mm 0,0 UV-I 65 W/m² 1,1 °C 4,2 °C 1,6 km/h (1 Bft)
03.02.2017 09:43 4,2 °C 4,2 °C 80 % 1008,1 hPa 0,0 mm 0,0 km/h (0 Bft) S 171 ° 0 min 0,000 mm 0,0 UV-I 65 W/m² 1,1 °C 4,2 °C 0,0 km/h (0 Bft)
03.02.2017 09:44 4,2 °C 4,2 °C 80 % 1008,1 hPa 0,0 mm 1,4 km/h (1 Bft) S 171 ° 0 min 0,000 mm 0,0 UV-I 67 W/m² 1,1 °C 4,2 °C 3,2 km/h (1 Bft)
03.02.2017 09:45 4,2 °C 4,2 °C 80 % 1008,1 hPa 0,0 mm 0,9 km/h (0 Bft) S 171 ° 0 min 0,000 mm 0,0 UV-I 67 W/m² 1,1 °C 4,2 °C 3,2 km/h (1 Bft)
03.02.2017 09:46 4,2 °C 4,2 °C 80 % 1008,1 hPa 0,0 mm 0,2 km/h (0 Bft) S 171 ° 0 min 0,000 mm 0,0 UV-I 67 W/m² 1,1 °C 4,2 °C 1,6 km/h (1 Bft)
03.02.2017 09:47 4,2 °C 4,2 °C 80 % 1008,1 hPa 0,0 mm 1,3 km/h (1 Bft) S 171 ° 0 min 0,000 mm 0,0 UV-I 69 W/m² 1,1 °C 4,2 °C 1,6 km/h (1 Bft)
03.02.2017 09:48 4,2 °C 4,2 °C 80 % 1008,1 hPa 0,0 mm 1,9 km/h (1 Bft) S 171 ° 0 min 0,000 mm 0,0 UV-I 69 W/m² 1,1 °C 4,2 °C 3,2 km/h (1 Bft)
03.02.2017 09:49 4,2 °C 4,2 °C 79 % 1008,0 hPa 0,0 mm 1,3 km/h (1 Bft) S 171 ° 0 min 0,000 mm 0,0 UV-I 69 W/m² 0,9 °C 4,2 °C 1,6 km/h (1 Bft)
03.02.2017 09:50 4,2 °C 4,2 °C 80 % 1008,0 hPa 0,0 mm 0,9 km/h (0 Bft) S 171 ° 0 min 0,000 mm 0,0 UV-I 70 W/m² 1,1 °C 4,2 °C 1,6 km/h (1 Bft)
03.02.2017 09:51 4,3 °C 4,3 °C 80 % 1008,0 hPa 0,0 mm 1,3 km/h (1 Bft) S 171 ° 0 min 0,000 mm 0,0 UV-I 70 W/m² 1,2 °C 4,3 °C 3,2 km/h (1 Bft)
03.02.2017 09:52 4,2 °C 4,3 °C 80 % 1008,0 hPa 0,0 mm 0,7 km/h (0 Bft) S 171 ° 0 min 0,000 mm 0,0 UV-I 72 W/m² 1,1 °C 4,2 °C 1,6 km/h (1 Bft)
03.02.2017 09:53 4,2 °C 4,2 °C 79 % 1007,9 hPa 0,0 mm 1,4 km/h (1 Bft) S 171 ° 0 min 0,000 mm 0,0 UV-I 72 W/m² 0,9 °C 4,2 °C 3,2 km/h (1 Bft)
03.02.2017 09:54 4,2 °C 4,2 °C 80 % 1007,9 hPa 0,0 mm 0,8 km/h (0 Bft) S 171 ° 0 min 0,000 mm 0,0 UV-I 74 W/m² 1,1 °C 4,2 °C 1,6 km/h (1 Bft)
03.02.2017 09:55 4,2 °C 4,2 °C 80 % 1007,8 hPa 0,0 mm 0,3 km/h (0 Bft) S 171 ° 0 min 0,000 mm 0,0 UV-I 74 W/m² 1,1 °C 4,2 °C 1,6 km/h (1 Bft)
03.02.2017 09:56 4,2 °C 4,2 °C 80 % 1007,9 hPa 0,0 mm 1,4 km/h (1 Bft) S 171 ° 0 min 0,000 mm 0,5 UV-I 76 W/m² 1,1 °C 4,2 °C 3,2 km/h (1 Bft)
03.02.2017 09:57 4,2 °C 4,2 °C 80 % 1007,8 hPa 0,0 mm 1,3 km/h (1 Bft) S 171 ° 0 min 0,000 mm 0,5 UV-I 76 W/m² 1,1 °C 4,2 °C 3,2 km/h (1 Bft)
03.02.2017 09:58 4,2 °C 4,2 °C 80 % 1007,8 hPa 0,0 mm 2,9 km/h (1 Bft) S 171 ° 0 min 0,000 mm 0,5 UV-I 76 W/m² 1,1 °C 4,2 °C 3,2 km/h (1 Bft)
03.02.2017 09:59 4,3 °C 4,3 °C 80 % 1007,8 hPa 0,0 mm 2,1 km/h (1 Bft) S 171 ° 0 min 0,000 mm 0,5 UV-I 76 W/m² 1,2 °C 4,3 °C 3,2 km/h (1 Bft)
03.02.2017 10:00 4,2 °C 4,3 °C 81 % 1007,8 hPa 0,0 mm 2,0 km/h (1 Bft) S 171 ° 0 min 0,000 mm 0,5 UV-I 77 W/m² 1,2 °C 4,2 °C 3,2 km/h (1 Bft)
03.02.2017 10:01 4,3 °C 4,3 °C 81 % 1007,8 hPa 0,0 mm 0,6 km/h (0 Bft) S 171 ° 0 min 0,026 mm 0,5 UV-I 81 W/m² 1,3 °C 4,3 °C 1,6 km/h (1 Bft)
03.02.2017 10:02 4,3 °C 4,3 °C 81 % 1007,8 hPa 0,0 mm 2,3 km/h (1 Bft) W-NW 296 ° 0 min 0,000 mm 0,5 UV-I 81 W/m² 1,3 °C 4,3 °C 4,8 km/h (1 Bft)
03.02.2017 10:03 4,2 °C 4,3 °C 81 % 1007,9 hPa 0,0 mm 4,8 km/h (1 Bft) NW 304 ° 0 min 0,000 mm 0,5 UV-I 83 W/m² 1,2 °C 3,3 °C 6,4 km/h (2 Bft)
03.02.2017 10:04 4,2 °C 4,3 °C 81 % 1007,9 hPa 0,0 mm 1,5 km/h (1 Bft) NW 304 ° 0 min 0,000 mm 0,5 UV-I 84 W/m² 1,2 °C 4,2 °C 1,6 km/h (1 Bft)
03.02.2017 10:05 4,2 °C 4,2 °C 81 % 1008,0 hPa 0,0 mm 3,2 km/h (1 Bft) NW 304 ° 0 min 0,000 mm 0,5 UV-I 86 W/m² 1,2 °C 4,2 °C 4,8 km/h (1 Bft)
03.02.2017 10:06 4,2 °C 4,2 °C 80 % 1008,0 hPa 0,0 mm 4,3 km/h (1 Bft) W 265 ° 0 min 0,000 mm 0,5 UV-I 88 W/m² 1,1 °C 4,2 °C 4,8 km/h (1 Bft)
03.02.2017 10:07 4,2 °C 4,2 °C 81 % 1008,0 hPa 0,0 mm 3,0 km/h (1 Bft) W 265 ° 0 min 0,000 mm 0,6 UV-I 90 W/m² 1,2 °C 4,2 °C 4,8 km/h (1 Bft)
03.02.2017 10:08 4,2 °C 4,2 °C 81 % 1008,1 hPa 0,0 mm 1,4 km/h (1 Bft) W 265 ° 0 min 0,000 mm 0,6 UV-I 91 W/m² 1,2 °C 4,2 °C 3,2 km/h (1 Bft)
03.02.2017 10:09 4,2 °C 4,2 °C 80 % 1008,1 hPa 0,0 mm 3,2 km/h (1 Bft) SW 229 ° 0 min 0,000 mm 0,6 UV-I 91 W/m² 1,1 °C 4,2 °C 4,8 km/h (1 Bft)
03.02.2017 10:10 4,2 °C 4,2 °C 80 % 1008,1 hPa 0,0 mm 4,6 km/h (1 Bft) S-SW 198 ° 0 min 0,000 mm 0,6 UV-I 91 W/m² 1,1 °C 3,3 °C 8,0 km/h (2 Bft)
03.02.2017 10:11 4,2 °C 4,2 °C 80 % 1008,1 hPa 0,0 mm 2,7 km/h (1 Bft) S 188 ° 0 min 0,000 mm 0,6 UV-I 91 W/m² 1,1 °C 4,2 °C 4,8 km/h (1 Bft)
03.02.2017 10:12 4,2 °C 4,2 °C 80 % 1008,1 hPa 0,0 mm 3,5 km/h (1 Bft) S-SW 194 ° 0 min 0,000 mm 0,6 UV-I 91 W/m² 1,1 °C 4,2 °C 4,8 km/h (1 Bft)
03.02.2017 10:13 4,2 °C 4,2 °C 80 % 1008,2 hPa 0,0 mm 3,1 km/h (1 Bft) S-SW 194 ° 0 min 0,000 mm 0,6 UV-I 91 W/m² 1,1 °C 4,2 °C 3,2 km/h (1 Bft)
03.02.2017 10:14 4,2 °C 4,2 °C 80 % 1008,2 hPa 0,0 mm 3,4 km/h (1 Bft) S-SW 198 ° 0 min 0,000 mm 0,6 UV-I 90 W/m² 1,1 °C 4,2 °C 6,4 km/h (2 Bft)
03.02.2017 10:15 4,2 °C 4,2 °C 80 % 1008,2 hPa 0,0 mm 2,4 km/h (1 Bft) S-SW 198 ° 0 min 0,000 mm 0,6 UV-I 90 W/m² 1,1 °C 4,2 °C 4,8 km/h (1 Bft)
03.02.2017 10:16 4,3 °C 4,3 °C 80 % 1008,2 hPa 0,0 mm 2,1 km/h (1 Bft) S-SW 198 ° 0 min 0,000 mm 0,6 UV-I 90 W/m² 1,2 °C 4,3 °C 3,2 km/h (1 Bft)
03.02.2017 10:17 4,3 °C 4,3 °C 80 % 1008,1 hPa 0,0 mm 1,0 km/h (0 Bft) S-SW 198 ° 0 min 0,000 mm 0,6 UV-I 90 W/m² 1,2 °C 4,3 °C 1,6 km/h (1 Bft)
03.02.2017 10:18 4,3 °C 4,3 °C 80 % 1008,1 hPa 0,0 mm 1,6 km/h (1 Bft) S-SW 198 ° 0 min 0,000 mm 0,6 UV-I 88 W/m² 1,2 °C 4,3 °C 1,6 km/h (1 Bft)
03.02.2017 10:19 4,3 °C 4,3 °C 80 % 1008,2 hPa 0,0 mm 1,0 km/h (0 Bft) S-SW 198 ° 0 min 0,000 mm 0,6 UV-I 86 W/m² 1,2 °C 4,3 °C 3,2 km/h (1 Bft)
03.02.2017 10:20 4,3 °C 4,3 °C 79 % 1008,2 hPa 0,0 mm 0,6 km/h (0 Bft) S-SW 198 ° 0 min 0,000 mm 0,6 UV-I 86 W/m² 1,0 °C 4,3 °C 1,6 km/h (1 Bft)
03.02.2017 10:21 4,4 °C 4,4 °C 79 % 1008,1 hPa 0,0 mm 1,5 km/h (1 Bft) S-SW 198 ° 0 min 0,000 mm 0,6 UV-I 84 W/m² 1,1 °C 4,4 °C 3,2 km/h (1 Bft)
03.02.2017 10:22 4,4 °C 4,4 °C 78 % 1008,2 hPa 0,0 mm 1,1 km/h (1 Bft) S-SW 198 ° 0 min 0,000 mm 0,6 UV-I 84 W/m² 0,9 °C 4,4 °C 3,2 km/h (1 Bft)
03.02.2017 10:23 4,5 °C 4,5 °C 78 % 1008,1 hPa 0,0 mm 0,5 km/h (0 Bft) S-SW 198 ° 0 min 0,000 mm 0,6 UV-I 84 W/m² 1,0 °C 4,5 °C 1,6 km/h (1 Bft)
03.02.2017 10:24 4,6 °C 4,6 °C 78 % 1008,2 hPa 0,0 mm 0,2 km/h (0 Bft) S-SW 198 ° 0 min 0,000 mm 0,6 UV-I 84 W/m² 1,1 °C 4,6 °C 1,6 km/h (1 Bft)
03.02.2017 10:25 4,6 °C 4,6 °C 77 % 1008,2 hPa 0,0 mm 0,0 km/h (0 Bft) S-SW 198 ° 0 min 0,000 mm 0,6 UV-I 86 W/m² 0,9 °C 4,6 °C 0,0 km/h (0 Bft)
03.02.2017 10:26 4,6 °C 4,6 °C 77 % 1008,2 hPa 0,0 mm 0,2 km/h (0 Bft) S-SW 198 ° 0 min 0,000 mm 0,6 UV-I 88 W/m² 0,9 °C 4,6 °C 1,6 km/h (1 Bft)
03.02.2017 10:27 4,7 °C 4,7 °C 78 % 1008,2 hPa 0,0 mm 0,6 km/h (0 Bft) S-SW 198 ° 0 min 0,000 mm 0,6 UV-I 91 W/m² 1,2 °C 4,7 °C 1,6 km/h (1 Bft)
03.02.2017 10:28 4,7 °C 4,7 °C 79 % 1008,2 hPa 0,0 mm 0,0 km/h (0 Bft) S-SW 198 ° 0 min 0,000 mm 0,7 UV-I 95 W/m² 1,4 °C 4,7 °C 0,0 km/h (0 Bft)
03.02.2017 10:29 4,7 °C 4,7 °C 79 % 1008,2 hPa 0,0 mm 0,0 km/h (0 Bft) S-SW 198 ° 0 min 0,000 mm 0,7 UV-I 97 W/m² 1,4 °C 4,7 °C 0,0 km/h (0 Bft)
03.02.2017 10:30 4,8 °C 4,8 °C 79 % 1008,2 hPa 0,0 mm 0,0 km/h (0 Bft) S-SW 198 ° 0 min 0,000 mm 0,7 UV-I 102 W/m² 1,5 °C 4,8 °C 0,0 km/h (0 Bft)
03.02.2017 10:31 4,8 °C 4,8 °C 79 % 1008,3 hPa 0,0 mm 0,6 km/h (0 Bft) S-SW 198 ° 0 min 0,000 mm 0,7 UV-I 104 W/m² 1,5 °C 4,8 °C 1,6 km/h (1 Bft)
03.02.2017 10:32 4,8 °C 4,8 °C 79 % 1008,3 hPa 0,0 mm 1,1 km/h (1 Bft) S-SW 198 ° 0 min 0,000 mm 0,7 UV-I 104 W/m² 1,5 °C 4,8 °C 1,6 km/h (1 Bft)
03.02.2017 10:33 4,8 °C 4,8 °C 79 % 1008,4 hPa 0,0 mm 0,8 km/h (0 Bft) S-SW 198 ° 0 min 0,000 mm 0,7 UV-I 104 W/m² 1,5 °C 4,8 °C 1,6 km/h (1 Bft)
03.02.2017 10:34 4,9 °C 4,9 °C 80 % 1008,4 hPa 0,0 mm 0,9 km/h (0 Bft) S-SW 198 ° 0 min 0,000 mm 0,7 UV-I 104 W/m² 1,7 °C 4,9 °C 1,6 km/h (1 Bft)
03.02.2017 10:35 4,8 °C 4,9 °C 79 % 1008,4 hPa 0,0 mm 0,1 km/h (0 Bft) S-SW 198 ° 0 min 0,000 mm 0,7 UV-I 102 W/m² 1,5 °C 4,8 °C 1,6 km/h (1 Bft)
03.02.2017 10:36 4,9 °C 4,9 °C 79 % 1008,5 hPa 0,0 mm 1,1 km/h (1 Bft) S-SW 202 ° 0 min 0,000 mm 0,7 UV-I 100 W/m² 1,6 °C 4,9 °C 3,2 km/h (1 Bft)
03.02.2017 10:37 4,9 °C 4,9 °C 80 % 1008,5 hPa 0,0 mm 1,8 km/h (1 Bft) S-SW 202 ° 0 min 0,000 mm 0,7 UV-I 98 W/m² 1,7 °C 4,9 °C 3,2 km/h (1 Bft)
03.02.2017 10:38 4,9 °C 4,9 °C 80 % 1008,5 hPa 0,0 mm 2,9 km/h (1 Bft) S-SW 202 ° 0 min 0,000 mm 0,7 UV-I 98 W/m² 1,7 °C 4,9 °C 3,2 km/h (1 Bft)
03.02.2017 10:39 4,9 °C 4,9 °C 80 % 1008,5 hPa 0,0 mm 1,9 km/h (1 Bft) S-SW 202 ° 0 min 0,000 mm 0,7 UV-I 98 W/m² 1,7 °C 4,9 °C 3,2 km/h (1 Bft)
03.02.2017 10:40 4,9 °C 4,9 °C 79 % 1008,7 hPa 0,0 mm 3,4 km/h (1 Bft) S-SW 192 ° 0 min 0,000 mm 0,7 UV-I 98 W/m² 1,6 °C 4,9 °C 6,4 km/h (2 Bft)
03.02.2017 10:41 4,9 °C 4,9 °C 78 % 1008,7 hPa 0,0 mm 0,3 km/h (0 Bft) S-SW 192 ° 0 min 0,000 mm 0,7 UV-I 100 W/m² 1,4 °C 4,9 °C 1,6 km/h (1 Bft)
03.02.2017 10:42 4,9 °C 4,9 °C 78 % 1008,7 hPa 0,0 mm 2,8 km/h (1 Bft) W-NW 286 ° 0 min 0,000 mm 0,7 UV-I 102 W/m² 1,4 °C 4,9 °C 4,8 km/h (1 Bft)
03.02.2017 10:43 4,9 °C 4,9 °C 78 % 1008,8 hPa 0,0 mm 2,9 km/h (1 Bft) W-NW 286 ° 0 min 0,000 mm 0,7 UV-I 105 W/m² 1,4 °C 4,9 °C 3,2 km/h (1 Bft)
03.02.2017 10:44 4,9 °C 4,9 °C 79 % 1008,8 hPa 0,0 mm 4,9 km/h (1 Bft) W-NW 282 ° 0 min 0,000 mm 0,7 UV-I 107 W/m² 1,6 °C 4,0 °C 9,7 km/h (2 Bft)
03.02.2017 10:45 4,8 °C 4,9 °C 79 % 1008,8 hPa 0,0 mm 3,5 km/h (1 Bft) W-NW 284 ° 0 min 0,000 mm 0,7 UV-I 109 W/m² 1,5 °C 4,8 °C 6,4 km/h (2 Bft)
03.02.2017 10:46 4,8 °C 4,8 °C 78 % 1008,8 hPa 0,0 mm 2,3 km/h (1 Bft) W-NW 284 ° 0 min 0,000 mm 0,8 UV-I 111 W/m² 1,3 °C 4,8 °C 4,8 km/h (1 Bft)
03.02.2017 10:47 4,7 °C 4,8 °C 77 % 1008,9 hPa 0,0 mm 1,9 km/h (1 Bft) W-NW 284 ° 0 min 0,000 mm 0,8 UV-I 113 W/m² 1,0 °C 4,7 °C 3,2 km/h (1 Bft)
03.02.2017 10:48 4,9 °C 4,9 °C 76 % 1008,9 hPa 0,0 mm 3,4 km/h (1 Bft) SW 216 ° 0 min 0,000 mm 0,8 UV-I 114 W/m² 1,0 °C 4,9 °C 6,4 km/h (2 Bft)
03.02.2017 10:49 5,1 °C 5,1 °C 75 % 1008,9 hPa 0,0 mm 12,7 km/h (3 Bft) W 265 ° 0 min 0,000 mm 0,8 UV-I 116 W/m² 1,0 °C 2,3 °C 17,7 km/h (3 Bft)
03.02.2017 10:50 5,2 °C 5,2 °C 75 % 1008,9 hPa 0,0 mm 10,5 km/h (2 Bft) W-SW 238 ° 0 min 0,000 mm 0,8 UV-I 118 W/m² 1,1 °C 2,8 °C 14,5 km/h (3 Bft)
03.02.2017 10:51 5,4 °C 5,4 °C 73 % 1008,9 hPa 0,0 mm 9,0 km/h (2 Bft) W 270 ° 0 min 0,000 mm 0,8 UV-I 120 W/m² 1,0 °C 3,4 °C 14,5 km/h (3 Bft)
03.02.2017 10:52 5,6 °C 5,6 °C 73 % 1008,9 hPa 0,0 mm 13,9 km/h (3 Bft) W 262 ° 0 min 0,000 mm 0,8 UV-I 120 W/m² 1,2 °C 2,7 °C 20,9 km/h (4 Bft)
03.02.2017 10:53 5,6 °C 5,6 °C 73 % 1009,0 hPa 0,0 mm 14,3 km/h (3 Bft) W-NW 294 ° 0 min 0,000 mm 0,8 UV-I 121 W/m² 1,2 °C 2,6 °C 20,9 km/h (4 Bft)
03.02.2017 10:54 5,6 °C 5,6 °C 73 % 1008,9 hPa 0,0 mm 8,4 km/h (2 Bft) W-SW 257 ° 0 min 0,000 mm 0,8 UV-I 125 W/m² 1,2 °C 3,7 °C 12,9 km/h (3 Bft)
03.02.2017 10:55 5,7 °C 5,7 °C 73 % 1009,0 hPa 0,0 mm 9,8 km/h (2 Bft) W 260 ° 0 min 0,000 mm 0,8 UV-I 125 W/m² 1,2 °C 3,5 °C 14,5 km/h (3 Bft)
03.02.2017 10:56 5,6 °C 5,7 °C 73 % 1009,0 hPa 0,0 mm 12,4 km/h (3 Bft) W-SW 243 ° 0 min 0,000 mm 0,9 UV-I 127 W/m² 1,2 °C 2,9 °C 20,9 km/h (4 Bft)
03.02.2017 10:57 5,6 °C 5,6 °C 73 % 1009,1 hPa 0,0 mm 17,5 km/h (3 Bft) W 273 ° 0 min 0,000 mm 0,9 UV-I 128 W/m² 1,2 °C 2,1 °C 22,5 km/h (4 Bft)
03.02.2017 10:58 5,6 °C 5,7 °C 73 % 1009,1 hPa 0,0 mm 11,0 km/h (2 Bft) W 260 ° 0 min 0,000 mm 0,9 UV-I 128 W/m² 1,2 °C 3,2 °C 16,1 km/h (3 Bft)
03.02.2017 10:59 5,6 °C 5,6 °C 73 % 1009,2 hPa 0,0 mm 11,2 km/h (2 Bft) W 269 ° 0 min 0,000 mm 0,9 UV-I 130 W/m² 1,2 °C 3,1 °C 16,1 km/h (3 Bft)
03.02.2017 11:00 5,6 °C 5,6 °C 73 % 1009,2 hPa 0,0 mm 13,4 km/h (3 Bft) W-SW 245 ° 0 min 0,000 mm 0,9 UV-I 130 W/m² 1,2 °C 2,7 °C 25,7 km/h (4 Bft)
03.02.2017 11:01 5,6 °C 5,6 °C 73 % 1009,2 hPa 0,0 mm 10,5 km/h (2 Bft) SW 234 ° 0 min 0,051 mm 0,9 UV-I 132 W/m² 1,2 °C 3,3 °C 17,7 km/h (3 Bft)
03.02.2017 11:02 5,6 °C 5,6 °C 73 % 1009,2 hPa 0,0 mm 9,2 km/h (2 Bft) W 269 ° 0 min 0,000 mm 0,9 UV-I 132 W/m² 1,2 °C 3,6 °C 12,9 km/h (3 Bft)
03.02.2017 11:03 5,5 °C 5,6 °C 74 % 1009,2 hPa 0,0 mm 8,8 km/h (2 Bft) W 261 ° 0 min 0,000 mm 0,9 UV-I 132 W/m² 1,2 °C 3,5 °C 16,1 km/h (3 Bft)
03.02.2017 11:04 5,5 °C 5,5 °C 74 % 1009,3 hPa 0,0 mm 16,5 km/h (3 Bft) W 279 ° 0 min 0,000 mm 0,9 UV-I 132 W/m² 1,2 °C 2,1 °C 20,9 km/h (4 Bft)
03.02.2017 11:05 5,5 °C 5,5 °C 74 % 1009,2 hPa 0,0 mm 9,3 km/h (2 Bft) W 261 ° 0 min 0,000 mm 0,9 UV-I 134 W/m² 1,2 °C 3,4 °C 12,9 km/h (3 Bft)
03.02.2017 11:06 5,5 °C 5,6 °C 74 % 1009,2 hPa 0,0 mm 11,9 km/h (2 Bft) W-SW 244 ° 0 min 0,000 mm 0,9 UV-I 134 W/m² 1,2 °C 2,9 °C 20,9 km/h (4 Bft)
03.02.2017 11:07 5,5 °C 5,5 °C 74 % 1009,2 hPa 0,0 mm 12,1 km/h (2 Bft) W-SW 252 ° 0 min 0,000 mm 0,9 UV-I 134 W/m² 1,2 °C 2,8 °C 20,9 km/h (4 Bft)
03.02.2017 11:08 5,4 °C 5,5 °C 74 % 1009,2 hPa 0,0 mm 11,3 km/h (2 Bft) W-SW 247 ° 0 min 0,000 mm 0,9 UV-I 135 W/m² 1,1 °C 2,9 °C 12,9 km/h (3 Bft)
03.02.2017 11:09 5,4 °C 5,5 °C 74 % 1009,2 hPa 0,0 mm 14,1 km/h (3 Bft) W-SW 241 ° 0 min 0,000 mm 0,9 UV-I 135 W/m² 1,1 °C 2,4 °C 24,1 km/h (4 Bft)
03.02.2017 11:10 5,4 °C 5,5 °C 75 % 1009,2 hPa 0,0 mm 14,3 km/h (3 Bft) W-SW 252 ° 0 min 0,000 mm 0,9 UV-I 137 W/m² 1,3 °C 2,4 °C 20,9 km/h (4 Bft)
03.02.2017 11:11 5,4 °C 5,5 °C 75 % 1009,2 hPa 0,0 mm 14,9 km/h (3 Bft) W 265 ° 0 min 0,000 mm 0,9 UV-I 137 W/m² 1,3 °C 2,3 °C 19,3 km/h (3 Bft)
03.02.2017 11:12 5,4 °C 5,5 °C 75 % 1009,2 hPa 0,0 mm 10,4 km/h (2 Bft) W-SW 258 ° 0 min 0,000 mm 0,9 UV-I 137 W/m² 1,3 °C 3,1 °C 12,9 km/h (3 Bft)
03.02.2017 11:13 5,4 °C 5,5 °C 75 % 1009,2 hPa 0,0 mm 10,1 km/h (2 Bft) W 261 ° 0 min 0,000 mm 0,9 UV-I 135 W/m² 1,3 °C 3,1 °C 16,1 km/h (3 Bft)
03.02.2017 11:14 5,4 °C 5,4 °C 75 % 1009,2 hPa 0,0 mm 16,0 km/h (3 Bft) W-SW 239 ° 0 min 0,000 mm 0,9 UV-I 135 W/m² 1,3 °C 2,1 °C 22,5 km/h (4 Bft)
03.02.2017 11:15 5,4 °C 5,4 °C 76 % 1009,2 hPa 0,0 mm 12,9 km/h (3 Bft) W-SW 248 ° 0 min 0,000 mm 0,9 UV-I 135 W/m² 1,5 °C 2,6 °C 20,9 km/h (4 Bft)
03.02.2017 11:16 5,4 °C 5,5 °C 76 % 1009,2 hPa 0,0 mm 12,4 km/h (3 Bft) W 277 ° 0 min 0,000 mm 0,9 UV-I 135 W/m² 1,5 °C 2,7 °C 16,1 km/h (3 Bft)
03.02.2017 11:17 5,4 °C 5,5 °C 76 % 1009,2 hPa 0,0 mm 15,3 km/h (3 Bft) W 265 ° 0 min 0,000 mm 0,9 UV-I 135 W/m² 1,5 °C 2,2 °C 27,4 km/h (4 Bft)
03.02.2017 11:18 5,4 °C 5,4 °C 76 % 1009,2 hPa 0,0 mm 15,4 km/h (3 Bft) W 278 ° 0 min 0,000 mm 0,9 UV-I 134 W/m² 1,5 °C 2,2 °C 20,9 km/h (4 Bft)
03.02.2017 11:19 5,4 °C 5,4 °C 76 % 1009,2 hPa 0,0 mm 14,3 km/h (3 Bft) SW 232 ° 0 min 0,000 mm 0,9 UV-I 134 W/m² 1,5 °C 2,4 °C 19,3 km/h (3 Bft)
03.02.2017 11:20 5,5 °C 5,5 °C 77 % 1009,2 hPa 0,0 mm 17,5 km/h (3 Bft) W-NW 282 ° 0 min 0,000 mm 0,9 UV-I 134 W/m² 1,8 °C 2,0 °C 27,4 km/h (4 Bft)
03.02.2017 11:21 5,5 °C 5,5 °C 77 % 1009,2 hPa 0,0 mm 14,8 km/h (3 Bft) W-SW 254 ° 0 min 0,000 mm 0,9 UV-I 134 W/m² 1,8 °C 2,4 °C 20,9 km/h (4 Bft)
03.02.2017 11:22 5,4 °C 5,5 °C 77 % 1009,3 hPa 0,0 mm 12,1 km/h (2 Bft) W-SW 254 ° 0 min 0,000 mm 0,9 UV-I 132 W/m² 1,7 °C 2,7 °C 17,7 km/h (3 Bft)
03.02.2017 11:23 5,4 °C 5,4 °C 77 % 1009,3 hPa 0,0 mm 12,7 km/h (3 Bft) SW 231 ° 0 min 0,000 mm 0,9 UV-I 132 W/m² 1,7 °C 2,6 °C 22,5 km/h (4 Bft)
03.02.2017 11:24 5,4 °C 5,4 °C 77 % 1009,3 hPa 0,0 mm 15,7 km/h (3 Bft) W 269 ° 0 min 0,000 mm 0,9 UV-I 132 W/m² 1,7 °C 2,1 °C 20,9 km/h (4 Bft)
03.02.2017 11:25 5,3 °C 5,4 °C 78 % 1009,2 hPa 0,0 mm 13,7 km/h (3 Bft) W 261 ° 0 min 0,000 mm 0,9 UV-I 134 W/m² 1,8 °C 2,3 °C 19,3 km/h (3 Bft)
03.02.2017 11:26 5,3 °C 5,3 °C 78 % 1009,2 hPa 0,0 mm 13,1 km/h (3 Bft) W 270 ° 0 min 0,000 mm 0,9 UV-I 134 W/m² 1,8 °C 2,4 °C 19,3 km/h (3 Bft)
03.02.2017 11:27 5,3 °C 5,3 °C 78 % 1009,2 hPa 0,0 mm 14,3 km/h (3 Bft) W-SW 248 ° 0 min 0,000 mm 0,9 UV-I 135 W/m² 1,8 °C 2,2 °C 24,1 km/h (4 Bft)
03.02.2017 11:28 5,3 °C 5,3 °C 79 % 1009,2 hPa 0,0 mm 15,4 km/h (3 Bft) W-SW 255 ° 0 min 0,000 mm 0,9 UV-I 137 W/m² 2,0 °C 2,1 °C 22,5 km/h (4 Bft)
03.02.2017 11:29 5,3 °C 5,3 °C 79 % 1009,2 hPa 0,0 mm 18,4 km/h (3 Bft) W 265 ° 0 min 0,000 mm 1,0 UV-I 141 W/m² 2,0 °C 1,6 °C 24,1 km/h (4 Bft)
03.02.2017 11:30 5,3 °C 5,3 °C 79 % 1009,2 hPa 0,0 mm 18,7 km/h (3 Bft) W-NW 288 ° 0 min 0,000 mm 1,0 UV-I 142 W/m² 2,0 °C 1,6 °C 25,7 km/h (4 Bft)
03.02.2017 11:31 5,2 °C 5,3 °C 79 % 1009,2 hPa 0,0 mm 13,9 km/h (3 Bft) W-SW 244 ° 0 min 0,000 mm 1,0 UV-I 142 W/m² 1,9 °C 2,2 °C 17,7 km/h (3 Bft)
03.02.2017 11:32 5,2 °C 5,2 °C 80 % 1009,2 hPa 0,0 mm 18,0 km/h (3 Bft) W-NW 284 ° 0 min 0,000 mm 1,0 UV-I 144 W/m² 2,0 °C 1,6 °C 27,4 km/h (4 Bft)
03.02.2017 11:33 5,2 °C 5,3 °C 80 % 1009,1 hPa 0,0 mm 12,7 km/h (3 Bft) SW 236 ° 0 min 0,000 mm 1,0 UV-I 144 W/m² 2,0 °C 2,4 °C 16,1 km/h (3 Bft)
03.02.2017 11:34 5,2 °C 5,3 °C 80 % 1009,2 hPa 0,0 mm 12,2 km/h (2 Bft) W-SW 238 ° 0 min 0,000 mm 1,0 UV-I 144 W/m² 2,0 °C 2,5 °C 19,3 km/h (3 Bft)
03.02.2017 11:35 5,2 °C 5,3 °C 80 % 1009,2 hPa 0,0 mm 15,6 km/h (3 Bft) W 275 ° 0 min 0,000 mm 1,0 UV-I 144 W/m² 2,0 °C 1,9 °C 24,1 km/h (4 Bft)
03.02.2017 11:36 5,2 °C 5,3 °C 81 % 1009,2 hPa 0,0 mm 17,8 km/h (3 Bft) W-SW 250 ° 0 min 0,000 mm 1,0 UV-I 144 W/m² 2,2 °C 1,6 °C 25,7 km/h (4 Bft)
03.02.2017 11:37 5,2 °C 5,2 °C 81 % 1009,2 hPa 0,0 mm 14,8 km/h (3 Bft) W-SW 252 ° 0 min 0,000 mm 1,0 UV-I 144 W/m² 2,2 °C 2,0 °C 20,9 km/h (4 Bft)
03.02.2017 11:38 5,2 °C 5,2 °C 81 % 1009,2 hPa 0,0 mm 9,6 km/h (2 Bft) W 271 ° 0 min 0,000 mm 1,0 UV-I 142 W/m² 2,2 °C 3,0 °C 17,7 km/h (3 Bft)
03.02.2017 11:39 5,2 °C 5,2 °C 81 % 1009,2 hPa 0,0 mm 15,1 km/h (3 Bft) W 276 ° 0 min 0,000 mm 1,0 UV-I 142 W/m² 2,2 °C 2,0 °C 20,9 km/h (4 Bft)
03.02.2017 11:40 5,2 °C 5,2 °C 81 % 1009,2 hPa 0,0 mm 18,3 km/h (3 Bft) W 267 ° 0 min 0,000 mm 1,0 UV-I 142 W/m² 2,2 °C 1,5 °C 24,1 km/h (4 Bft)
03.02.2017 11:41 5,2 °C 5,3 °C 82 % 1009,2 hPa 0,0 mm 19,5 km/h (3 Bft) W 269 ° 0 min 0,000 mm 1,0 UV-I 141 W/m² 2,4 °C 1,4 °C 29,0 km/h (5 Bft)
03.02.2017 11:42 5,3 °C 5,3 °C 82 % 1009,2 hPa 0,0 mm 16,9 km/h (3 Bft) W-SW 252 ° 0 min 0,000 mm 1,0 UV-I 141 W/m² 2,5 °C 1,8 °C 25,7 km/h (4 Bft)
03.02.2017 11:43 5,3 °C 5,3 °C 82 % 1009,2 hPa 0,0 mm 12,9 km/h (3 Bft) W 281 ° 0 min 0,000 mm 1,0 UV-I 142 W/m² 2,5 °C 2,5 °C 16,1 km/h (3 Bft)
03.02.2017 11:44 5,3 °C 5,3 °C 82 % 1009,2 hPa 0,0 mm 14,1 km/h (3 Bft) W-NW 288 ° 0 min 0,000 mm 1,0 UV-I 142 W/m² 2,5 °C 2,3 °C 20,9 km/h (4 Bft)
03.02.2017 11:45 5,3 °C 5,3 °C 82 % 1009,1 hPa 0,0 mm 10,6 km/h (2 Bft) W 269 ° 0 min 0,000 mm 1,0 UV-I 144 W/m² 2,5 °C 2,9 °C 17,7 km/h (3 Bft)
03.02.2017 11:46 5,3 °C 5,3 °C 82 % 1009,1 hPa 0,0 mm 14,0 km/h (3 Bft) W 273 ° 0 min 0,000 mm 1,0 UV-I 144 W/m² 2,5 °C 2,3 °C 20,9 km/h (4 Bft)
03.02.2017 11:47 5,3 °C 5,3 °C 82 % 1009,1 hPa 0,0 mm 12,3 km/h (3 Bft) W-SW 244 ° 0 min 0,000 mm 1,0 UV-I 148 W/m² 2,5 °C 2,6 °C 16,1 km/h (3 Bft)
03.02.2017 11:48 5,4 °C 5,4 °C 83 % 1009,0 hPa 0,0 mm 9,6 km/h (2 Bft) W 280 ° 0 min 0,000 mm 1,1 UV-I 149 W/m² 2,7 °C 3,2 °C 19,3 km/h (3 Bft)
03.02.2017 11:49 5,4 °C 5,4 °C 83 % 1009,0 hPa 0,0 mm 10,3 km/h (2 Bft) W 276 ° 0 min 0,000 mm 1,1 UV-I 151 W/m² 2,7 °C 3,1 °C 16,1 km/h (3 Bft)
03.02.2017 11:50 5,4 °C 5,4 °C 82 % 1009,0 hPa 0,0 mm 13,6 km/h (3 Bft) W-SW 258 ° 0 min 0,000 mm 1,1 UV-I 155 W/m² 2,6 °C 2,5 °C 19,3 km/h (3 Bft)
03.02.2017 11:51 5,4 °C 5,4 °C 83 % 1009,0 hPa 0,0 mm 13,1 km/h (3 Bft) W-NW 283 ° 0 min 0,000 mm 1,1 UV-I 156 W/m² 2,7 °C 2,5 °C 17,7 km/h (3 Bft)
03.02.2017 11:52 5,3 °C 5,4 °C 83 % 1009,0 hPa 0,0 mm 11,5 km/h (2 Bft) W 281 ° 0 min 0,000 mm 1,1 UV-I 160 W/m² 2,7 °C 2,7 °C 17,7 km/h (3 Bft)
03.02.2017 11:53 5,3 °C 5,4 °C 83 % 1008,9 hPa 0,0 mm 6,4 km/h (2 Bft) W-SW 257 ° 0 min 0,000 mm 1,2 UV-I 163 W/m² 2,7 °C 3,9 °C 11,3 km/h (2 Bft)
03.02.2017 11:54 5,3 °C 5,4 °C 83 % 1009,0 hPa 0,0 mm 10,4 km/h (2 Bft) W-SW 254 ° 0 min 0,000 mm 1,2 UV-I 165 W/m² 2,7 °C 2,9 °C 25,7 km/h (4 Bft)
03.02.2017 11:55 5,3 °C 5,3 °C 83 % 1008,9 hPa 0,0 mm 17,1 km/h (3 Bft) W-SW 248 ° 0 min 0,000 mm 1,2 UV-I 167 W/m² 2,7 °C 1,8 °C 22,5 km/h (4 Bft)
03.02.2017 11:56 5,3 °C 5,4 °C 83 % 1008,9 hPa 0,0 mm 15,3 km/h (3 Bft) W-SW 254 ° 0 min 0,000 mm 1,2 UV-I 169 W/m² 2,7 °C 2,1 °C 19,3 km/h (3 Bft)
03.02.2017 11:57 5,3 °C 5,4 °C 83 % 1009,0 hPa 0,0 mm 12,3 km/h (3 Bft) W-SW 257 ° 0 min 0,000 mm 1,2 UV-I 171 W/m² 2,7 °C 2,6 °C 19,3 km/h (3 Bft)
03.02.2017 11:58 5,3 °C 5,4 °C 83 % 1009,0 hPa 0,0 mm 13,0 km/h (3 Bft) W 265 ° 0 min 0,000 mm 1,2 UV-I 174 W/m² 2,7 °C 2,4 °C 22,5 km/h (4 Bft)
03.02.2017 11:59 5,4 °C 5,4 °C 83 % 1009,0 hPa 0,0 mm 16,4 km/h (3 Bft) W 264 ° 0 min 0,000 mm 1,2 UV-I 174 W/m² 2,7 °C 2,0 °C 19,3 km/h (3 Bft)
03.02.2017 12:00 5,4 °C 5,4 °C 83 % 1009,0 hPa 0,0 mm 11,9 km/h (2 Bft) S-SW 213 ° 0 min 0,000 mm 1,2 UV-I 174 W/m² 2,7 °C 2,8 °C 17,7 km/h (3 Bft)
03.02.2017 12:01 5,4 °C 5,4 °C 83 % 1008,9 hPa 0,0 mm 10,7 km/h (2 Bft) W-SW 244 ° 0 min 0,076 mm 1,2 UV-I 174 W/m² 2,7 °C 3,0 °C 17,7 km/h (3 Bft)
03.02.2017 12:02 5,4 °C 5,4 °C 83 % 1009,0 hPa 0,0 mm 17,7 km/h (3 Bft) W-SW 258 ° 0 min 0,000 mm 1,2 UV-I 174 W/m² 2,7 °C 1,9 °C 20,9 km/h (4 Bft)
03.02.2017 12:03 5,4 °C 5,4 °C 83 % 1008,9 hPa 0,0 mm 12,4 km/h (3 Bft) SW 225 ° 0 min 0,000 mm 1,3 UV-I 176 W/m² 2,7 °C 2,7 °C 17,7 km/h (3 Bft)
03.02.2017 12:04 5,4 °C 5,4 °C 84 % 1008,9 hPa 0,0 mm 8,8 km/h (2 Bft) W-SW 252 ° 0 min 0,000 mm 1,3 UV-I 176 W/m² 2,9 °C 3,4 °C 16,1 km/h (3 Bft)
03.02.2017 12:05 5,4 °C 5,4 °C 84 % 1008,9 hPa 0,0 mm 14,3 km/h (3 Bft) W 261 ° 0 min 0,000 mm 1,3 UV-I 176 W/m² 2,9 °C 2,4 °C 22,5 km/h (4 Bft)
03.02.2017 12:06 5,4 °C 5,4 °C 84 % 1008,9 hPa 0,0 mm 10,7 km/h (2 Bft) S-SW 198 ° 0 min 0,000 mm 1,3 UV-I 176 W/m² 2,9 °C 3,0 °C 17,7 km/h (3 Bft)
03.02.2017 12:07 5,4 °C 5,4 °C 84 % 1008,9 hPa 0,0 mm 8,2 km/h (2 Bft) W 259 ° 0 min 0,000 mm 1,3 UV-I 176 W/m² 2,9 °C 3,6 °C 17,7 km/h (3 Bft)
03.02.2017 12:08 5,4 °C 5,4 °C 84 % 1008,9 hPa 0,0 mm 8,2 km/h (2 Bft) W 267 ° 0 min 0,000 mm 1,3 UV-I 178 W/m² 2,9 °C 3,6 °C 17,7 km/h (3 Bft)
03.02.2017 12:09 5,4 °C 5,4 °C 84 % 1008,8 hPa 0,0 mm 9,3 km/h (2 Bft) W-SW 252 ° 0 min 0,000 mm 1,3 UV-I 179 W/m² 2,9 °C 3,3 °C 14,5 km/h (3 Bft)
03.02.2017 12:10 5,4 °C 5,4 °C 84 % 1008,8 hPa 0,0 mm 7,6 km/h (2 Bft) W 265 ° 0 min 0,000 mm 1,3 UV-I 185 W/m² 2,9 °C 3,7 °C 11,3 km/h (2 Bft)
03.02.2017 12:11 5,4 °C 5,4 °C 84 % 1008,8 hPa 0,0 mm 9,5 km/h (2 Bft) W-SW 253 ° 0 min 0,000 mm 1,3 UV-I 188 W/m² 2,9 °C 3,2 °C 17,7 km/h (3 Bft)
03.02.2017 12:12 5,4 °C 5,4 °C 84 % 1008,7 hPa 0,0 mm 13,8 km/h (3 Bft) W-SW 241 ° 0 min 0,000 mm 1,3 UV-I 190 W/m² 2,9 °C 2,4 °C 19,3 km/h (3 Bft)
03.02.2017 12:13 5,4 °C 5,4 °C 84 % 1008,7 hPa 0,0 mm 10,3 km/h (2 Bft) W-SW 240 ° 0 min 0,000 mm 1,3 UV-I 195 W/m² 2,9 °C 3,1 °C 14,5 km/h (3 Bft)
03.02.2017 12:14 5,4 °C 5,4 °C 84 % 1008,7 hPa 0,0 mm 12,8 km/h (3 Bft) W-SW 246 ° 0 min 0,000 mm 1,4 UV-I 199 W/m² 2,9 °C 2,6 °C 17,7 km/h (3 Bft)
03.02.2017 12:15 5,3 °C 5,4 °C 84 % 1008,7 hPa 0,0 mm 10,9 km/h (2 Bft) W-NW 283 ° 1 min 0,000 mm 1,4 UV-I 202 W/m² 2,8 °C 2,8 °C 17,7 km/h (3 Bft)
03.02.2017 12:16 5,3 °C 5,4 °C 84 % 1008,7 hPa 0,0 mm 11,5 km/h (2 Bft) W 272 ° 1 min 0,000 mm 1,4 UV-I 207 W/m² 2,8 °C 2,7 °C 14,5 km/h (3 Bft)
03.02.2017 12:17 5,4 °C 5,4 °C 84 % 1008,6 hPa 0,0 mm 9,6 km/h (2 Bft) W 277 ° 1 min 0,000 mm 1,4 UV-I 211 W/m² 2,9 °C 3,2 °C 12,9 km/h (3 Bft)
03.02.2017 12:18 5,4 °C 5,4 °C 84 % 1008,7 hPa 0,0 mm 11,4 km/h (2 Bft) W 276 ° 1 min 0,000 mm 1,4 UV-I 213 W/m² 2,9 °C 2,9 °C 14,5 km/h (3 Bft)
03.02.2017 12:19 5,4 °C 5,4 °C 84 % 1008,6 hPa 0,0 mm 7,7 km/h (2 Bft) W-SW 244 ° 1 min 0,000 mm 1,4 UV-I 214 W/m² 2,9 °C 3,7 °C 14,5 km/h (3 Bft)
03.02.2017 12:20 5,4 °C 5,4 °C 84 % 1008,7 hPa 0,0 mm 12,0 km/h (2 Bft) W 261 ° 1 min 0,000 mm 1,5 UV-I 214 W/m² 2,9 °C 2,7 °C 17,7 km/h (3 Bft)
03.02.2017 12:21 5,4 °C 5,4 °C 84 % 1008,7 hPa 0,0 mm 13,8 km/h (3 Bft) S-SW 209 ° 1 min 0,000 mm 1,5 UV-I 214 W/m² 2,9 °C 2,4 °C 20,9 km/h (4 Bft)
03.02.2017 12:22 5,5 °C 5,5 °C 84 % 1008,7 hPa 0,0 mm 7,2 km/h (2 Bft) W-SW 237 ° 1 min 0,000 mm 1,5 UV-I 214 W/m² 3,0 °C 3,9 °C 11,3 km/h (2 Bft)
03.02.2017 12:23 5,6 °C 5,6 °C 84 % 1008,7 hPa 0,0 mm 5,5 km/h (1 Bft) SW 234 ° 1 min 0,000 mm 1,5 UV-I 213 W/m² 3,1 °C 4,6 °C 11,3 km/h (2 Bft)
03.02.2017 12:24 5,6 °C 5,6 °C 84 % 1008,7 hPa 0,0 mm 8,6 km/h (2 Bft) W-SW 258 ° 1 min 0,000 mm 1,5 UV-I 211 W/m² 3,1 °C 3,7 °C 12,9 km/h (3 Bft)
03.02.2017 12:25 5,6 °C 5,6 °C 84 % 1008,7 hPa 0,0 mm 7,6 km/h (2 Bft) W-SW 254 ° 1 min 0,000 mm 1,4 UV-I 209 W/m² 3,1 °C 3,9 °C 11,3 km/h (2 Bft)
03.02.2017 12:26 5,6 °C 5,6 °C 84 % 1008,8 hPa 0,0 mm 8,4 km/h (2 Bft) W-SW 237 ° 1 min 0,000 mm 1,4 UV-I 209 W/m² 3,1 °C 3,7 °C 12,9 km/h (3 Bft)
03.02.2017 12:27 5,7 °C 5,7 °C 84 % 1008,7 hPa 0,0 mm 6,6 km/h (2 Bft) W-SW 256 ° 1 min 0,000 mm 1,4 UV-I 206 W/m² 3,2 °C 4,3 °C 11,3 km/h (2 Bft)
03.02.2017 12:28 5,7 °C 5,7 °C 83 % 1008,7 hPa 0,0 mm 8,6 km/h (2 Bft) W 280 ° 1 min 0,000 mm 1,4 UV-I 204 W/m² 3,0 °C 3,8 °C 12,9 km/h (3 Bft)
03.02.2017 12:29 5,7 °C 5,8 °C 83 % 1008,7 hPa 0,0 mm 8,9 km/h (2 Bft) S-SW 205 ° 1 min 0,000 mm 1,4 UV-I 204 W/m² 3,0 °C 3,7 °C 12,9 km/h (3 Bft)
03.02.2017 12:30 5,7 °C 5,7 °C 83 % 1008,7 hPa 0,0 mm 12,1 km/h (2 Bft) W-SW 244 ° 1 min 0,000 mm 1,4 UV-I 204 W/m² 3,0 °C 3,1 °C 17,7 km/h (3 Bft)
03.02.2017 12:31 5,7 °C 5,7 °C 83 % 1008,7 hPa 0,0 mm 14,4 km/h (3 Bft) W 274 ° 1 min 0,000 mm 1,4 UV-I 204 W/m² 3,0 °C 2,7 °C 17,7 km/h (3 Bft)
03.02.2017 12:32 5,7 °C 5,7 °C 83 % 1008,7 hPa 0,0 mm 10,0 km/h (2 Bft) W-SW 241 ° 1 min 0,000 mm 1,4 UV-I 204 W/m² 3,0 °C 3,5 °C 16,1 km/h (3 Bft)
03.02.2017 12:33 5,7 °C 5,7 °C 83 % 1008,7 hPa 0,0 mm 7,3 km/h (2 Bft) W 260 ° 1 min 0,000 mm 1,4 UV-I 204 W/m² 3,0 °C 4,1 °C 12,9 km/h (3 Bft)
03.02.2017 12:34 5,7 °C 5,7 °C 83 % 1008,6 hPa 0,0 mm 7,7 km/h (2 Bft) W-SW 252 ° 1 min 0,000 mm 1,4 UV-I 204 W/m² 3,0 °C 4,0 °C 11,3 km/h (2 Bft)
03.02.2017 12:35 5,7 °C 5,7 °C 83 % 1008,6 hPa 0,0 mm 8,0 km/h (2 Bft) W-SW 247 ° 1 min 0,000 mm 1,4 UV-I 204 W/m² 3,0 °C 4,0 °C 14,5 km/h (3 Bft)
03.02.2017 12:36 5,6 °C 5,7 °C 83 % 1008,6 hPa 0,0 mm 9,2 km/h (2 Bft) W-SW 255 ° 1 min 0,000 mm 1,4 UV-I 206 W/m² 2,9 °C 3,6 °C 14,5 km/h (3 Bft)
03.02.2017 12:37 5,7 °C 5,7 °C 83 % 1008,6 hPa 0,0 mm 11,4 km/h (2 Bft) W 275 ° 1 min 0,000 mm 1,5 UV-I 207 W/m² 3,0 °C 3,2 °C 16,1 km/h (3 Bft)
03.02.2017 12:38 5,7 °C 5,7 °C 83 % 1008,6 hPa 0,0 mm 4,7 km/h (1 Bft) W-SW 247 ° 1 min 0,000 mm 1,5 UV-I 209 W/m² 3,0 °C 5,0 °C 8,0 km/h (2 Bft)
03.02.2017 12:39 5,7 °C 5,7 °C 83 % 1008,6 hPa 0,0 mm 9,2 km/h (2 Bft) W-SW 242 ° 1 min 0,000 mm 1,5 UV-I 214 W/m² 3,0 °C 3,7 °C 14,5 km/h (3 Bft)
03.02.2017 12:40 5,7 °C 5,8 °C 83 % 1008,5 hPa 0,0 mm 4,4 km/h (1 Bft) W 268 ° 1 min 0,000 mm 1,5 UV-I 220 W/m² 3,0 °C 5,7 °C 8,0 km/h (2 Bft)
03.02.2017 12:41 5,8 °C 5,8 °C 83 % 1008,5 hPa 0,0 mm 11,6 km/h (2 Bft) W-SW 243 ° 1 min 0,000 mm 1,6 UV-I 223 W/m² 3,1 °C 3,3 °C 16,1 km/h (3 Bft)
03.02.2017 12:42 5,9 °C 5,9 °C 83 % 1008,5 hPa 0,0 mm 6,4 km/h (2 Bft) W-SW 257 ° 1 min 0,000 mm 1,6 UV-I 225 W/m² 3,2 °C 4,6 °C 9,7 km/h (2 Bft)
03.02.2017 12:43 5,9 °C 5,9 °C 82 % 1008,5 hPa 0,0 mm 11,7 km/h (2 Bft) W 273 ° 1 min 0,000 mm 1,6 UV-I 229 W/m² 3,1 °C 3,4 °C 19,3 km/h (3 Bft)
03.02.2017 12:44 5,9 °C 5,9 °C 82 % 1008,5 hPa 0,0 mm 9,5 km/h (2 Bft) W 262 ° 1 min 0,000 mm 1,6 UV-I 232 W/m² 3,1 °C 3,8 °C 17,7 km/h (3 Bft)
03.02.2017 12:45 5,9 °C 5,9 °C 82 % 1008,5 hPa 0,0 mm 8,4 km/h (2 Bft) W 271 ° 1 min 0,000 mm 1,6 UV-I 234 W/m² 3,1 °C 4,1 °C 17,7 km/h (3 Bft)
03.02.2017 12:46 6,0 °C 6,0 °C 82 % 1008,5 hPa 0,0 mm 8,5 km/h (2 Bft) W-SW 258 ° 1 min 0,000 mm 1,7 UV-I 237 W/m² 3,2 °C 4,2 °C 14,5 km/h (3 Bft)
03.02.2017 12:47 6,0 °C 6,0 °C 82 % 1008,5 hPa 0,0 mm 9,1 km/h (2 Bft) W 276 ° 1 min 0,000 mm 1,7 UV-I 239 W/m² 3,2 °C 4,0 °C 14,5 km/h (3 Bft)
03.02.2017 12:48 6,1 °C 6,1 °C 82 % 1008,5 hPa 0,0 mm 8,0 km/h (2 Bft) W-NW 295 ° 1 min 0,000 mm 1,7 UV-I 239 W/m² 3,3 °C 4,4 °C 11,3 km/h (2 Bft)
03.02.2017 12:49 6,1 °C 6,1 °C 82 % 1008,5 hPa 0,0 mm 8,5 km/h (2 Bft) W 278 ° 1 min 0,000 mm 1,7 UV-I 239 W/m² 3,3 °C 4,3 °C 14,5 km/h (3 Bft)
03.02.2017 12:50 6,2 °C 6,2 °C 82 % 1008,5 hPa 0,0 mm 8,6 km/h (2 Bft) W-NW 302 ° 1 min 0,000 mm 1,7 UV-I 237 W/m² 3,4 °C 4,4 °C 12,9 km/h (3 Bft)
03.02.2017 12:51 6,2 °C 6,2 °C 82 % 1008,4 hPa 0,0 mm 6,7 km/h (2 Bft) W-NW 283 ° 1 min 0,000 mm 1,7 UV-I 232 W/m² 3,4 °C 4,9 °C 11,3 km/h (2 Bft)
03.02.2017 12:52 6,3 °C 6,3 °C 82 % 1008,4 hPa 0,0 mm 5,2 km/h (1 Bft) W-SW 253 ° 1 min 0,000 mm 1,7 UV-I 229 W/m² 3,5 °C 5,5 °C 6,4 km/h (2 Bft)
03.02.2017 12:53 6,4 °C 6,4 °C 81 % 1008,4 hPa 0,0 mm 4,8 km/h (1 Bft) W-NW 283 ° 1 min 0,000 mm 1,7 UV-I 225 W/m² 3,4 °C 5,7 °C 11,3 km/h (2 Bft)
03.02.2017 12:54 6,3 °C 6,4 °C 81 % 1008,4 hPa 0,0 mm 7,4 km/h (2 Bft) W 271 ° 1 min 0,000 mm 1,7 UV-I 221 W/m² 3,3 °C 4,8 °C 12,9 km/h (3 Bft)
03.02.2017 12:55 6,3 °C 6,3 °C 81 % 1008,4 hPa 0,0 mm 12,0 km/h (2 Bft) W 269 ° 1 min 0,000 mm 1,7 UV-I 216 W/m² 3,3 °C 3,8 °C 19,3 km/h (3 Bft)
03.02.2017 12:56 6,3 °C 6,3 °C 81 % 1008,5 hPa 0,0 mm 14,6 km/h (3 Bft) W-NW 284 ° 1 min 0,000 mm 1,7 UV-I 214 W/m² 3,3 °C 3,4 °C 19,3 km/h (3 Bft)
03.02.2017 12:57 6,3 °C 6,3 °C 81 % 1008,4 hPa 0,0 mm 13,3 km/h (3 Bft) W-SW 257 ° 1 min 0,000 mm 1,7 UV-I 207 W/m² 3,3 °C 3,6 °C 19,3 km/h (3 Bft)
03.02.2017 12:58 6,3 °C 6,3 °C 81 % 1008,5 hPa 0,0 mm 10,4 km/h (2 Bft) W 275 ° 1 min 0,000 mm 1,7 UV-I 202 W/m² 3,3 °C 4,1 °C 14,5 km/h (3 Bft)
03.02.2017 12:59 6,3 °C 6,3 °C 81 % 1008,4 hPa 0,0 mm 4,4 km/h (1 Bft) W-SW 254 ° 0 min 0,000 mm 1,6 UV-I 199 W/m² 3,3 °C 6,3 °C 6,4 km/h (2 Bft)
03.02.2017 13:00 6,3 °C 6,3 °C 81 % 1008,4 hPa 0,0 mm 5,2 km/h (1 Bft) W-SW 254 ° 0 min 0,000 mm 1,6 UV-I 195 W/m² 3,3 °C 5,5 °C 12,9 km/h (3 Bft)
03.02.2017 13:01 6,3 °C 6,3 °C 81 % 1008,4 hPa 0,0 mm 9,9 km/h (2 Bft) SW 227 ° 0 min 0,101 mm 1,6 UV-I 190 W/m² 3,3 °C 4,2 °C 14,5 km/h (3 Bft)
03.02.2017 13:02 6,3 °C 6,3 °C 81 % 1008,5 hPa 0,0 mm 11,3 km/h (2 Bft) W-SW 248 ° 0 min 0,000 mm 1,5 UV-I 183 W/m² 3,3 °C 4,0 °C 17,7 km/h (3 Bft)
03.02.2017 13:03 6,3 °C 6,3 °C 81 % 1008,5 hPa 0,0 mm 15,4 km/h (3 Bft) W-NW 286 ° 0 min 0,000 mm 1,5 UV-I 174 W/m² 3,3 °C 3,3 °C 19,3 km/h (3 Bft)
03.02.2017 13:04 6,3 °C 6,3 °C 81 % 1008,4 hPa 0,0 mm 9,3 km/h (2 Bft) SW 225 ° 0 min 0,000 mm 1,5 UV-I 172 W/m² 3,3 °C 4,4 °C 14,5 km/h (3 Bft)
03.02.2017 13:05 6,2 °C 6,3 °C 81 % 1008,5 hPa 0,0 mm 8,7 km/h (2 Bft) W-SW 242 ° 0 min 0,000 mm 1,4 UV-I 172 W/m² 3,2 °C 4,4 °C 14,5 km/h (3 Bft)
03.02.2017 13:06 6,1 °C 6,2 °C 81 % 1008,4 hPa 0,0 mm 7,4 km/h (2 Bft) W 261 ° 0 min 0,000 mm 1,4 UV-I 174 W/m² 3,1 °C 4,6 °C 16,1 km/h (3 Bft)
03.02.2017 13:07 6,1 °C 6,1 °C 81 % 1008,4 hPa 0,0 mm 9,6 km/h (2 Bft) W 263 ° 0 min 0,000 mm 1,4 UV-I 176 W/m² 3,1 °C 4,1 °C 16,1 km/h (3 Bft)
03.02.2017 13:08 6,1 °C 6,1 °C 81 % 1008,5 hPa 0,0 mm 7,8 km/h (2 Bft) W-SW 247 ° 0 min 0,000 mm 1,4 UV-I 181 W/m² 3,1 °C 4,5 °C 14,5 km/h (3 Bft)
03.02.2017 13:09 6,1 °C 6,1 °C 81 % 1008,5 hPa 0,0 mm 16,6 km/h (3 Bft) W 264 ° 0 min 0,000 mm 1,4 UV-I 183 W/m² 3,1 °C 2,9 °C 24,1 km/h (4 Bft)
03.02.2017 13:10 6,1 °C 6,1 °C 82 % 1008,4 hPa 0,0 mm 10,0 km/h (2 Bft) W-SW 242 ° 0 min 0,000 mm 1,4 UV-I 183 W/m² 3,3 °C 4,0 °C 14,5 km/h (3 Bft)
03.02.2017 13:11 6,1 °C 6,1 °C 82 % 1008,4 hPa 0,0 mm 9,3 km/h (2 Bft) W 271 ° 0 min 0,000 mm 1,4 UV-I 193 W/m² 3,3 °C 4,1 °C 16,1 km/h (3 Bft)
03.02.2017 13:12 6,1 °C 6,1 °C 81 % 1008,4 hPa 0,0 mm 14,1 km/h (3 Bft) W 275 ° 1 min 0,000 mm 1,4 UV-I 202 W/m² 3,1 °C 3,2 °C 17,7 km/h (3 Bft)
03.02.2017 13:13 6,1 °C 6,1 °C 81 % 1008,4 hPa 0,0 mm 13,8 km/h (3 Bft) W-SW 252 ° 1 min 0,000 mm 1,5 UV-I 213 W/m² 3,1 °C 3,3 °C 17,7 km/h (3 Bft)
03.02.2017 13:14 6,1 °C 6,1 °C 81 % 1008,3 hPa 0,0 mm 14,0 km/h (3 Bft) W 267 ° 1 min 0,000 mm 1,5 UV-I 225 W/m² 3,1 °C 3,3 °C 19,3 km/h (3 Bft)
03.02.2017 13:15 6,1 °C 6,1 °C 82 % 1008,3 hPa 0,0 mm 11,3 km/h (2 Bft) W-SW 251 ° 1 min 0,000 mm 1,5 UV-I 236 W/m² 3,3 °C 3,7 °C 14,5 km/h (3 Bft)
03.02.2017 13:16 6,1 °C 6,2 °C 81 % 1008,3 hPa 0,0 mm 10,5 km/h (2 Bft) W-NW 282 ° 1 min 0,000 mm 1,6 UV-I 239 W/m² 3,1 °C 3,9 °C 14,5 km/h (3 Bft)
03.02.2017 13:17 6,2 °C 6,2 °C 82 % 1008,3 hPa 0,0 mm 8,7 km/h (2 Bft) W-NW 299 ° 1 min 0,000 mm 1,6 UV-I 241 W/m² 3,4 °C 4,4 °C 12,9 km/h (3 Bft)
03.02.2017 13:18 6,2 °C 6,3 °C 81 % 1008,3 hPa 0,0 mm 7,6 km/h (2 Bft) W-SW 248 ° 1 min 0,000 mm 1,6 UV-I 244 W/m² 3,2 °C 4,6 °C 14,5 km/h (3 Bft)
03.02.2017 13:19 6,2 °C 6,2 °C 81 % 1008,2 hPa 0,0 mm 9,3 km/h (2 Bft) W-SW 249 ° 1 min 0,000 mm 1,6 UV-I 248 W/m² 3,2 °C 4,2 °C 12,9 km/h (3 Bft)
03.02.2017 13:20 6,3 °C 6,3 °C 81 % 1008,2 hPa 0,0 mm 9,3 km/h (2 Bft) W-SW 254 ° 1 min 0,000 mm 1,6 UV-I 250 W/m² 3,3 °C 4,4 °C 14,5 km/h (3 Bft)
03.02.2017 13:21 6,3 °C 6,3 °C 81 % 1008,2 hPa 0,0 mm 6,7 km/h (2 Bft) W-NW 290 ° 1 min 0,000 mm 1,6 UV-I 250 W/m² 3,3 °C 5,0 °C 11,3 km/h (2 Bft)
03.02.2017 13:22 6,3 °C 6,3 °C 81 % 1008,1 hPa 0,0 mm 8,6 km/h (2 Bft) W-SW 251 ° 1 min 0,000 mm 1,6 UV-I 246 W/m² 3,3 °C 4,5 °C 14,5 km/h (3 Bft)
03.02.2017 13:23 6,4 °C 6,4 °C 81 % 1008,1 hPa 0,0 mm 6,7 km/h (2 Bft) W-NW 286 ° 1 min 0,000 mm 1,6 UV-I 241 W/m² 3,4 °C 5,1 °C 11,3 km/h (2 Bft)
03.02.2017 13:24 6,4 °C 6,4 °C 81 % 1008,1 hPa 0,0 mm 4,6 km/h (1 Bft) W-NW 294 ° 1 min 0,000 mm 1,6 UV-I 236 W/m² 3,4 °C 5,8 °C 6,4 km/h (2 Bft)
03.02.2017 13:25 6,4 °C 6,4 °C 81 % 1008,1 hPa 0,0 mm 4,3 km/h (1 Bft) NW 319 ° 1 min 0,000 mm 1,6 UV-I 227 W/m² 3,4 °C 6,4 °C 6,4 km/h (2 Bft)
03.02.2017 13:26 6,4 °C 6,4 °C 81 % 1008,1 hPa 0,0 mm 4,8 km/h (1 Bft) W 269 ° 1 min 0,000 mm 1,6 UV-I 213 W/m² 3,4 °C 5,7 °C 6,4 km/h (2 Bft)
03.02.2017 13:27 6,4 °C 6,5 °C 80 % 1008,1 hPa 0,0 mm 9,2 km/h (2 Bft) W-NW 296 ° 1 min 0,000 mm 1,5 UV-I 204 W/m² 3,2 °C 4,5 °C 12,9 km/h (3 Bft)
03.02.2017 13:28 6,4 °C 6,4 °C 81 % 1008,1 hPa 0,0 mm 9,0 km/h (2 Bft) W 273 ° 0 min 0,000 mm 1,5 UV-I 199 W/m² 3,4 °C 4,5 °C 12,9 km/h (3 Bft)
03.02.2017 13:29 6,4 °C 6,4 °C 81 % 1008,0 hPa 0,0 mm 9,3 km/h (2 Bft) W 272 ° 1 min 0,000 mm 1,5 UV-I 200 W/m² 3,4 °C 4,5 °C 14,5 km/h (3 Bft)
03.02.2017 13:30 6,4 °C 6,4 °C 81 % 1008,1 hPa 0,0 mm 12,7 km/h (3 Bft) W 275 ° 1 min 0,000 mm 1,6 UV-I 202 W/m² 3,4 °C 3,8 °C 17,7 km/h (3 Bft)
03.02.2017 13:31 6,4 °C 6,4 °C 80 % 1008,1 hPa 0,0 mm 11,2 km/h (2 Bft) W-SW 248 ° 1 min 0,000 mm 1,6 UV-I 200 W/m² 3,2 °C 4,1 °C 14,5 km/h (3 Bft)
03.02.2017 13:32 6,4 °C 6,4 °C 81 % 1008,1 hPa 0,0 mm 9,9 km/h (2 Bft) W-NW 298 ° 0 min 0,000 mm 1,6 UV-I 190 W/m² 3,4 °C 4,4 °C 16,1 km/h (3 Bft)
03.02.2017 13:33 6,4 °C 6,4 °C 81 % 1008,1 hPa 0,0 mm 7,0 km/h (2 Bft) W-NW 285 ° 0 min 0,000 mm 1,6 UV-I 183 W/m² 3,4 °C 5,0 °C 11,3 km/h (2 Bft)
03.02.2017 13:34 6,4 °C 6,4 °C 81 % 1008,1 hPa 0,0 mm 6,6 km/h (2 Bft) W-SW 238 ° 0 min 0,000 mm 1,6 UV-I 178 W/m² 3,4 °C 5,2 °C 9,7 km/h (2 Bft)
03.02.2017 13:35 6,5 °C 6,5 °C 81 % 1008,1 hPa 0,0 mm 11,5 km/h (2 Bft) W 280 ° 0 min 0,000 mm 1,6 UV-I 172 W/m² 3,5 °C 4,2 °C 16,1 km/h (3 Bft)
03.02.2017 13:36 6,6 °C 6,6 °C 80 % 1008,0 hPa 0,0 mm 7,1 km/h (2 Bft) W 271 ° 0 min 0,000 mm 1,6 UV-I 169 W/m² 3,4 °C 5,2 °C 9,7 km/h (2 Bft)
03.02.2017 13:37 6,6 °C 6,6 °C 80 % 1008,0 hPa 0,0 mm 11,4 km/h (2 Bft) W-NW 286 ° 0 min 0,000 mm 1,6 UV-I 167 W/m² 3,4 °C 4,3 °C 14,5 km/h (3 Bft)
03.02.2017 13:38 6,7 °C 6,7 °C 80 % 1008,0 hPa 0,0 mm 10,2 km/h (2 Bft) W 277 ° 0 min 0,000 mm 1,6 UV-I 163 W/m² 3,5 °C 4,6 °C 12,9 km/h (3 Bft)
03.02.2017 13:39 6,6 °C 6,7 °C 80 % 1008,0 hPa 0,0 mm 5,4 km/h (1 Bft) W-SW 253 ° 0 min 0,000 mm 1,6 UV-I 162 W/m² 3,4 °C 5,8 °C 9,7 km/h (2 Bft)
03.02.2017 13:40 6,7 °C 6,7 °C 80 % 1008,0 hPa 0,0 mm 7,2 km/h (2 Bft) W 275 ° 0 min 0,000 mm 1,6 UV-I 163 W/m² 3,5 °C 5,3 °C 12,9 km/h (3 Bft)
03.02.2017 13:41 6,8 °C 6,8 °C 80 % 1008,0 hPa 0,0 mm 7,6 km/h (2 Bft) W 275 ° 0 min 0,000 mm 1,6 UV-I 165 W/m² 3,6 °C 5,3 °C 12,9 km/h (3 Bft)
03.02.2017 13:42 6,8 °C 6,8 °C 80 % 1008,0 hPa 0,0 mm 5,6 km/h (1 Bft) NW 309 ° 0 min 0,000 mm 1,6 UV-I 172 W/m² 3,6 °C 5,9 °C 8,0 km/h (2 Bft)
03.02.2017 13:43 6,7 °C 6,8 °C 79 % 1008,0 hPa 0,0 mm 6,9 km/h (2 Bft) W 274 ° 0 min 0,000 mm 1,6 UV-I 174 W/m² 3,3 °C 5,4 °C 9,7 km/h (2 Bft)
03.02.2017 13:44 6,7 °C 6,8 °C 80 % 1007,9 hPa 0,0 mm 6,6 km/h (2 Bft) W 274 ° 0 min 0,000 mm 1,6 UV-I 167 W/m² 3,5 °C 5,5 °C 12,9 km/h (3 Bft)
03.02.2017 13:45 6,7 °C 6,7 °C 80 % 1007,9 hPa 0,0 mm 4,2 km/h (1 Bft) W-NW 301 ° 0 min 0,000 mm 1,5 UV-I 163 W/m² 3,5 °C 6,7 °C 6,4 km/h (2 Bft)
03.02.2017 13:46 6,7 °C 6,7 °C 80 % 1007,9 hPa 0,0 mm 4,3 km/h (1 Bft) W 280 ° 0 min 0,000 mm 1,5 UV-I 162 W/m² 3,5 °C 6,7 °C 6,4 km/h (2 Bft)
03.02.2017 13:47 6,7 °C 6,7 °C 80 % 1007,9 hPa 0,0 mm 2,8 km/h (1 Bft) W-NW 296 ° 0 min 0,000 mm 1,5 UV-I 151 W/m² 3,5 °C 6,7 °C 4,8 km/h (1 Bft)
03.02.2017 13:48 6,7 °C 6,7 °C 80 % 1007,8 hPa 0,0 mm 3,4 km/h (1 Bft) W-NW 298 ° 1 min 0,000 mm 1,6 UV-I 218 W/m² 3,5 °C 6,7 °C 4,8 km/h (1 Bft)
03.02.2017 13:49 6,8 °C 6,8 °C 80 % 1007,8 hPa 0,0 mm 4,6 km/h (1 Bft) NW 308 ° 1 min 0,000 mm 1,7 UV-I 404 W/m² 3,6 °C 6,3 °C 6,4 km/h (2 Bft)
03.02.2017 13:50 6,8 °C 6,8 °C 79 % 1007,8 hPa 0,0 mm 4,3 km/h (1 Bft) W-NW 300 ° 1 min 0,000 mm 1,9 UV-I 383 W/m² 3,4 °C 6,8 °C 6,4 km/h (2 Bft)
03.02.2017 13:51 6,8 °C 6,8 °C 80 % 1007,8 hPa 0,0 mm 5,2 km/h (1 Bft) NW 318 ° 1 min 0,000 mm 1,7 UV-I 316 W/m² 3,6 °C 6,1 °C 8,0 km/h (2 Bft)
03.02.2017 13:52 6,8 °C 6,8 °C 80 % 1007,8 hPa 0,0 mm 7,1 km/h (2 Bft) NW 315 ° 1 min 0,000 mm 1,6 UV-I 292 W/m² 3,6 °C 5,5 °C 9,7 km/h (2 Bft)
03.02.2017 13:53 6,8 °C 6,8 °C 80 % 1007,8 hPa 0,0 mm 9,2 km/h (2 Bft) W 277 ° 1 min 0,000 mm 1,6 UV-I 295 W/m² 3,6 °C 5,0 °C 14,5 km/h (3 Bft)
03.02.2017 13:54 6,8 °C 6,8 °C 79 % 1007,7 hPa 0,0 mm 6,2 km/h (2 Bft) W 273 ° 1 min 0,000 mm 1,6 UV-I 308 W/m² 3,4 °C 5,7 °C 12,9 km/h (3 Bft)
03.02.2017 13:55 6,8 °C 6,8 °C 79 % 1007,7 hPa 0,0 mm 3,5 km/h (1 Bft) W 277 ° 1 min 0,000 mm 1,7 UV-I 283 W/m² 3,4 °C 6,8 °C 6,4 km/h (2 Bft)
03.02.2017 13:56 6,7 °C 6,8 °C 79 % 1007,6 hPa 0,0 mm 5,0 km/h (1 Bft) W 277 ° 1 min 0,000 mm 1,5 UV-I 223 W/m² 3,3 °C 6,0 °C 8,0 km/h (2 Bft)
03.02.2017 13:57 6,7 °C 6,7 °C 79 % 1007,7 hPa 0,0 mm 3,6 km/h (1 Bft) W 274 ° 1 min 0,000 mm 1,4 UV-I 200 W/m² 3,3 °C 6,7 °C 4,8 km/h (1 Bft)
03.02.2017 13:58 6,7 °C 6,7 °C 80 % 1007,6 hPa 0,0 mm 1,5 km/h (1 Bft) W 274 ° 0 min 0,000 mm 1,4 UV-I 192 W/m² 3,5 °C 6,7 °C 3,2 km/h (1 Bft)
03.02.2017 13:59 6,7 °C 6,7 °C 80 % 1007,7 hPa 0,0 mm 4,6 km/h (1 Bft) W 261 ° 0 min 0,000 mm 1,3 UV-I 185 W/m² 3,5 °C 6,2 °C 9,7 km/h (2 Bft)
03.02.2017 14:00 6,7 °C 6,7 °C 80 % 1007,6 hPa 0,0 mm 3,2 km/h (1 Bft) W 279 ° 1 min 0,000 mm 1,3 UV-I 204 W/m² 3,5 °C 6,7 °C 9,7 km/h (2 Bft)
03.02.2017 14:01 6,7 °C 6,7 °C 80 % 1007,7 hPa 0,0 mm 7,6 km/h (2 Bft) W-NW 284 ° 0 min 0,102 mm 1,3 UV-I 123 W/m² 3,5 °C 5,2 °C 11,3 km/h (2 Bft)
03.02.2017 14:02 6,6 °C 6,7 °C 80 % 1007,6 hPa 0,0 mm 5,4 km/h (1 Bft) W 277 ° 0 min 0,000 mm 1,2 UV-I 132 W/m² 3,4 °C 5,8 °C 9,7 km/h (2 Bft)
03.02.2017 14:03 6,5 °C 6,6 °C 80 % 1007,6 hPa 0,0 mm 8,0 km/h (2 Bft) W 276 ° 0 min 0,000 mm 1,2 UV-I 151 W/m² 3,3 °C 4,9 °C 11,3 km/h (2 Bft)
03.02.2017 14:04 6,5 °C 6,6 °C 80 % 1007,7 hPa 0,0 mm 7,2 km/h (2 Bft) W-NW 290 ° 0 min 0,000 mm 1,2 UV-I 156 W/m² 3,3 °C 5,1 °C 11,3 km/h (2 Bft)
03.02.2017 14:05 6,5 °C 6,5 °C 80 % 1007,6 hPa 0,0 mm 6,2 km/h (2 Bft) W 275 ° 0 min 0,000 mm 1,3 UV-I 165 W/m² 3,3 °C 5,4 °C 9,7 km/h (2 Bft)
03.02.2017 14:06 6,5 °C 6,5 °C 80 % 1007,7 hPa 0,0 mm 5,0 km/h (1 Bft) W 275 ° 1 min 0,000 mm 1,3 UV-I 236 W/m² 3,3 °C 5,8 °C 6,4 km/h (2 Bft)
03.02.2017 14:07 6,4 °C 6,5 °C 80 % 1007,6 hPa 0,0 mm 5,5 km/h (1 Bft) W 275 ° 1 min 0,000 mm 1,3 UV-I 232 W/m² 3,2 °C 5,5 °C 9,7 km/h (2 Bft)
03.02.2017 14:08 6,3 °C 6,4 °C 80 % 1007,7 hPa 0,0 mm 3,7 km/h (1 Bft) W-SW 247 ° 1 min 0,000 mm 1,3 UV-I 260 W/m² 3,1 °C 6,3 °C 4,8 km/h (1 Bft)
03.02.2017 14:09 6,3 °C 6,3 °C 81 % 1007,6 hPa 0,0 mm 3,2 km/h (1 Bft) W-NW 285 ° 0 min 0,000 mm 1,3 UV-I 197 W/m² 3,3 °C 6,3 °C 4,8 km/h (1 Bft)
03.02.2017 14:10 6,3 °C 6,3 °C 80 % 1007,6 hPa 0,0 mm 3,4 km/h (1 Bft) W-NW 285 ° 1 min 0,000 mm 1,3 UV-I 246 W/m² 3,1 °C 6,3 °C 4,8 km/h (1 Bft)
03.02.2017 14:11 6,2 °C 6,3 °C 81 % 1007,6 hPa 0,0 mm 2,7 km/h (1 Bft) W 269 ° 1 min 0,000 mm 1,3 UV-I 267 W/m² 3,2 °C 6,2 °C 4,8 km/h (1 Bft)
03.02.2017 14:12 6,2 °C 6,2 °C 81 % 1007,6 hPa 0,0 mm 3,5 km/h (1 Bft) W 268 ° 1 min 0,000 mm 1,4 UV-I 290 W/m² 3,2 °C 6,2 °C 4,8 km/h (1 Bft)
03.02.2017 14:13 6,3 °C 6,3 °C 81 % 1007,6 hPa 0,0 mm 3,8 km/h (1 Bft) W 267 ° 1 min 0,000 mm 1,4 UV-I 243 W/m² 3,3 °C 6,3 °C 6,4 km/h (2 Bft)
03.02.2017 14:14 6,3 °C 6,3 °C 81 % 1007,6 hPa 0,0 mm 1,5 km/h (1 Bft) W 267 ° 1 min 0,000 mm 1,3 UV-I 237 W/m² 3,3 °C 6,3 °C 3,2 km/h (1 Bft)
03.02.2017 14:15 6,3 °C 6,3 °C 81 % 1007,6 hPa 0,0 mm 2,5 km/h (1 Bft) W 267 ° 0 min 0,000 mm 1,3 UV-I 197 W/m² 3,3 °C 6,3 °C 4,8 km/h (1 Bft)
03.02.2017 14:16 6,3 °C 6,3 °C 81 % 1007,6 hPa 0,0 mm 5,4 km/h (1 Bft) W-NW 301 ° 1 min 0,000 mm 1,3 UV-I 232 W/m² 3,3 °C 5,4 °C 9,7 km/h (2 Bft)
03.02.2017 14:17 6,4 °C 6,4 °C 81 % 1007,6 hPa 0,0 mm 4,5 km/h (1 Bft) W-NW 284 ° 1 min 0,000 mm 1,4 UV-I 267 W/m² 3,4 °C 6,4 °C 6,4 km/h (2 Bft)
03.02.2017 14:18 6,6 °C 6,6 °C 81 % 1007,5 hPa 0,0 mm 8,1 km/h (2 Bft) W 279 ° 1 min 0,000 mm 1,5 UV-I 322 W/m² 3,6 °C 5,0 °C 9,7 km/h (2 Bft)
03.02.2017 14:19 6,6 °C 6,6 °C 80 % 1007,4 hPa 0,0 mm 3,4 km/h (1 Bft) W-NW 284 ° 1 min 0,000 mm 1,5 UV-I 315 W/m² 3,4 °C 6,6 °C 4,8 km/h (1 Bft)
03.02.2017 14:20 6,4 °C 6,6 °C 80 % 1007,4 hPa 0,0 mm 2,7 km/h (1 Bft) W-NW 288 ° 1 min 0,000 mm 1,4 UV-I 278 W/m² 3,2 °C 6,4 °C 4,8 km/h (1 Bft)
03.02.2017 14:21 6,4 °C 6,5 °C 80 % 1007,4 hPa 0,0 mm 3,1 km/h (1 Bft) W-NW 298 ° 1 min 0,000 mm 1,4 UV-I 258 W/m² 3,2 °C 6,4 °C 4,8 km/h (1 Bft)
03.02.2017 14:22 6,4 °C 6,4 °C 81 % 1007,3 hPa 0,0 mm 1,9 km/h (1 Bft) W-NW 298 ° 1 min 0,000 mm 1,4 UV-I 262 W/m² 3,4 °C 6,4 °C 3,2 km/h (1 Bft)
03.02.2017 14:23 6,6 °C 6,6 °C 81 % 1007,3 hPa 0,0 mm 2,4 km/h (1 Bft) W-NW 298 ° 1 min 0,000 mm 1,3 UV-I 237 W/m² 3,6 °C 6,6 °C 3,2 km/h (1 Bft)
03.02.2017 14:24 6,6 °C 6,6 °C 80 % 1007,3 hPa 0,0 mm 3,3 km/h (1 Bft) NW 314 ° 1 min 0,000 mm 1,3 UV-I 214 W/m² 3,4 °C 6,6 °C 8,0 km/h (2 Bft)
03.02.2017 14:25 6,7 °C 6,7 °C 80 % 1007,3 hPa 0,0 mm 4,6 km/h (1 Bft) W 265 ° 1 min 0,000 mm 1,3 UV-I 230 W/m² 3,5 °C 6,2 °C 6,4 km/h (2 Bft)
03.02.2017 14:26 6,7 °C 6,7 °C 80 % 1007,3 hPa 0,0 mm 4,5 km/h (1 Bft) W-NW 303 ° 1 min 0,000 mm 1,3 UV-I 246 W/m² 3,5 °C 6,7 °C 6,4 km/h (2 Bft)
03.02.2017 14:27 6,7 °C 6,7 °C 80 % 1007,2 hPa 0,0 mm 4,0 km/h (1 Bft) W-NW 284 ° 1 min 0,000 mm 1,4 UV-I 250 W/m² 3,5 °C 6,7 °C 4,8 km/h (1 Bft)
03.02.2017 14:28 6,6 °C 6,7 °C 79 % 1007,3 hPa 0,0 mm 3,2 km/h (1 Bft) W-NW 284 ° 1 min 0,000 mm 1,4 UV-I 308 W/m² 3,2 °C 6,6 °C 6,4 km/h (2 Bft)
03.02.2017 14:29 6,6 °C 6,6 °C 80 % 1007,3 hPa 0,0 mm 3,4 km/h (1 Bft) W-NW 299 ° 1 min 0,000 mm 1,4 UV-I 323 W/m² 3,4 °C 6,6 °C 4,8 km/h (1 Bft)
03.02.2017 14:30 6,6 °C 6,6 °C 80 % 1007,3 hPa 0,0 mm 4,6 km/h (1 Bft) W 266 ° 1 min 0,000 mm 1,4 UV-I 294 W/m² 3,4 °C 6,0 °C 9,7 km/h (2 Bft)
03.02.2017 14:31 6,7 °C 6,7 °C 80 % 1007,3 hPa 0,0 mm 4,0 km/h (1 Bft) W-NW 295 ° 1 min 0,000 mm 1,4 UV-I 294 W/m² 3,5 °C 6,7 °C 6,4 km/h (2 Bft)
03.02.2017 14:32 6,7 °C 6,7 °C 80 % 1007,3 hPa 0,0 mm 4,4 km/h (1 Bft) NW 305 ° 1 min 0,000 mm 1,4 UV-I 295 W/m² 3,5 °C 6,7 °C 6,4 km/h (2 Bft)
03.02.2017 14:33 6,7 °C 6,7 °C 80 % 1007,3 hPa 0,0 mm 2,1 km/h (1 Bft) NW 305 ° 1 min 0,000 mm 1,4 UV-I 308 W/m² 3,5 °C 6,7 °C 3,2 km/h (1 Bft)
03.02.2017 14:34 6,7 °C 6,7 °C 80 % 1007,3 hPa 0,0 mm 2,7 km/h (1 Bft) NW 305 ° 1 min 0,000 mm 1,4 UV-I 320 W/m² 3,5 °C 6,7 °C 4,8 km/h (1 Bft)
03.02.2017 14:35 6,6 °C 6,7 °C 80 % 1007,3 hPa 0,0 mm 3,8 km/h (1 Bft) NW 304 ° 1 min 0,000 mm 1,4 UV-I 336 W/m² 3,4 °C 6,6 °C 4,8 km/h (1 Bft)
03.02.2017 14:36 6,6 °C 6,6 °C 80 % 1007,3 hPa 0,0 mm 3,3 km/h (1 Bft) NW 304 ° 1 min 0,000 mm 1,4 UV-I 257 W/m² 3,4 °C 6,6 °C 4,8 km/h (1 Bft)
03.02.2017 14:37 6,6 °C 6,6 °C 80 % 1007,3 hPa 0,0 mm 3,0 km/h (1 Bft) W-SW 244 ° 1 min 0,000 mm 1,4 UV-I 276 W/m² 3,4 °C 6,6 °C 6,4 km/h (2 Bft)
03.02.2017 14:38 6,5 °C 6,6 °C 79 % 1007,3 hPa 0,0 mm 3,5 km/h (1 Bft) W 273 ° 1 min 0,000 mm 1,3 UV-I 272 W/m² 3,1 °C 6,5 °C 4,8 km/h (1 Bft)
03.02.2017 14:39 6,4 °C 6,5 °C 80 % 1007,3 hPa 0,0 mm 4,9 km/h (1 Bft) W 276 ° 1 min 0,000 mm 1,3 UV-I 246 W/m² 3,2 °C 5,7 °C 6,4 km/h (2 Bft)
03.02.2017 14:40 6,4 °C 6,4 °C 81 % 1007,3 hPa 0,0 mm 6,3 km/h (2 Bft) W-NW 285 ° 0 min 0,000 mm 1,2 UV-I 179 W/m² 3,4 °C 5,2 °C 9,7 km/h (2 Bft)
03.02.2017 14:41 6,5 °C 6,5 °C 81 % 1007,3 hPa 0,0 mm 4,2 km/h (1 Bft) W-NW 285 ° 0 min 0,000 mm 1,2 UV-I 148 W/m² 3,5 °C 6,5 °C 6,4 km/h (2 Bft)
03.02.2017 14:42 6,6 °C 6,6 °C 80 % 1007,2 hPa 0,0 mm 2,1 km/h (1 Bft) W-NW 285 ° 0 min 0,000 mm 1,1 UV-I 134 W/m² 3,4 °C 6,6 °C 3,2 km/h (1 Bft)
03.02.2017 14:43 6,6 °C 6,6 °C 80 % 1007,2 hPa 0,0 mm 3,4 km/h (1 Bft) W-NW 286 ° 0 min 0,000 mm 1,1 UV-I 155 W/m² 3,4 °C 6,6 °C 4,8 km/h (1 Bft)
03.02.2017 14:44 6,6 °C 6,6 °C 80 % 1007,2 hPa 0,0 mm 4,0 km/h (1 Bft) W-NW 286 ° 0 min 0,000 mm 1,1 UV-I 162 W/m² 3,4 °C 6,6 °C 6,4 km/h (2 Bft)
03.02.2017 14:45 6,6 °C 6,7 °C 80 % 1007,2 hPa 0,0 mm 4,3 km/h (1 Bft) W-NW 286 ° 0 min 0,000 mm 1,1 UV-I 172 W/m² 3,4 °C 6,6 °C 6,4 km/h (2 Bft)
03.02.2017 14:46 6,5 °C 6,6 °C 79 % 1007,2 hPa 0,0 mm 3,1 km/h (1 Bft) W-NW 292 ° 0 min 0,000 mm 1,1 UV-I 192 W/m² 3,1 °C 6,5 °C 4,8 km/h (1 Bft)
03.02.2017 14:47 6,4 °C 6,5 °C 80 % 1007,2 hPa 0,0 mm 4,7 km/h (1 Bft) W 281 ° 0 min 0,000 mm 1,1 UV-I 171 W/m² 3,2 °C 5,8 °C 6,4 km/h (2 Bft)
03.02.2017 14:48 6,4 °C 6,4 °C 80 % 1007,2 hPa 0,0 mm 3,5 km/h (1 Bft) W 277 ° 0 min 0,000 mm 1,1 UV-I 174 W/m² 3,2 °C 6,4 °C 4,8 km/h (1 Bft)
03.02.2017 14:49 6,4 °C 6,4 °C 80 % 1007,2 hPa 0,0 mm 5,3 km/h (1 Bft) W-NW 296 ° 0 min 0,000 mm 1,0 UV-I 156 W/m² 3,2 °C 5,6 °C 6,4 km/h (2 Bft)
03.02.2017 14:50 6,4 °C 6,4 °C 80 % 1007,2 hPa 0,0 mm 3,2 km/h (1 Bft) W-NW 298 ° 0 min 0,000 mm 1,0 UV-I 141 W/m² 3,2 °C 6,4 °C 6,4 km/h (2 Bft)
03.02.2017 14:51 6,4 °C 6,4 °C 80 % 1007,2 hPa 0,0 mm 4,0 km/h (1 Bft) W-NW 294 ° 0 min 0,000 mm 1,0 UV-I 118 W/m² 3,2 °C 6,4 °C 6,4 km/h (2 Bft)
03.02.2017 14:52 6,3 °C 6,4 °C 80 % 1007,2 hPa 0,0 mm 4,5 km/h (1 Bft) W-NW 282 ° 0 min 0,000 mm 0,9 UV-I 95 W/m² 3,1 °C 6,3 °C 6,4 km/h (2 Bft)
03.02.2017 14:53 6,2 °C 6,3 °C 80 % 1007,2 hPa 0,0 mm 3,2 km/h (1 Bft) W-NW 282 ° 0 min 0,000 mm 0,9 UV-I 86 W/m² 3,0 °C 6,2 °C 4,8 km/h (1 Bft)
03.02.2017 14:54 6,2 °C 6,2 °C 81 % 1007,2 hPa 0,0 mm 2,2 km/h (1 Bft) W-NW 282 ° 0 min 0,000 mm 0,9 UV-I 90 W/m² 3,2 °C 6,2 °C 4,8 km/h (1 Bft)
03.02.2017 14:55 6,2 °C 6,2 °C 81 % 1007,2 hPa 0,0 mm 3,8 km/h (1 Bft) W 277 ° 0 min 0,000 mm 0,9 UV-I 95 W/m² 3,2 °C 6,2 °C 4,8 km/h (1 Bft)
03.02.2017 14:56 6,1 °C 6,2 °C 81 % 1007,2 hPa 0,0 mm 3,8 km/h (1 Bft) W 276 ° 0 min 0,000 mm 0,9 UV-I 98 W/m² 3,1 °C 6,1 °C 6,4 km/h (2 Bft)
03.02.2017 14:57 6,1 °C 6,1 °C 81 % 1007,2 hPa 0,0 mm 2,5 km/h (1 Bft) W 276 ° 0 min 0,000 mm 0,9 UV-I 102 W/m² 3,1 °C 6,1 °C 4,8 km/h (1 Bft)
03.02.2017 14:58 6,0 °C 6,1 °C 81 % 1007,3 hPa 0,0 mm 1,5 km/h (1 Bft) W 276 ° 0 min 0,000 mm 0,9 UV-I 104 W/m² 3,0 °C 6,0 °C 3,2 km/h (1 Bft)
03.02.2017 14:59 6,0 °C 6,0 °C 81 % 1007,2 hPa 0,0 mm 4,4 km/h (1 Bft) W 280 ° 0 min 0,000 mm 0,9 UV-I 107 W/m² 3,0 °C 6,0 °C 4,8 km/h (1 Bft)
03.02.2017 15:00 5,9 °C 6,0 °C 81 % 1007,2 hPa 0,0 mm 3,0 km/h (1 Bft) W 280 ° 0 min 0,000 mm 0,9 UV-I 120 W/m² 2,9 °C 5,9 °C 4,8 km/h (1 Bft)
03.02.2017 15:01 6,0 °C 6,0 °C 81 % 1007,2 hPa 0,0 mm 1,8 km/h (1 Bft) W 280 ° 0 min 0,102 mm 1,0 UV-I 125 W/m² 3,0 °C 6,0 °C 3,2 km/h (1 Bft)
03.02.2017 15:02 6,0 °C 6,0 °C 82 % 1007,2 hPa 0,0 mm 2,0 km/h (1 Bft) W 280 ° 0 min 0,000 mm 1,0 UV-I 125 W/m² 3,2 °C 6,0 °C 3,2 km/h (1 Bft)
03.02.2017 15:03 6,1 °C 6,1 °C 81 % 1007,2 hPa 0,0 mm 1,1 km/h (1 Bft) W 280 ° 0 min 0,000 mm 1,0 UV-I 121 W/m² 3,1 °C 6,1 °C 1,6 km/h (1 Bft)
03.02.2017 15:04 6,1 °C 6,1 °C 81 % 1007,2 hPa 0,0 mm 0,8 km/h (0 Bft) W 280 ° 0 min 0,000 mm 0,9 UV-I 116 W/m² 3,1 °C 6,1 °C 3,2 km/h (1 Bft)
03.02.2017 15:05 6,1 °C 6,1 °C 81 % 1007,2 hPa 0,0 mm 0,3 km/h (0 Bft) W 280 ° 0 min 0,000 mm 0,9 UV-I 116 W/m² 3,1 °C 6,1 °C 1,6 km/h (1 Bft)
03.02.2017 15:06 6,1 °C 6,1 °C 81 % 1007,3 hPa 0,0 mm 1,7 km/h (1 Bft) W 280 ° 0 min 0,000 mm 0,9 UV-I 120 W/m² 3,1 °C 6,1 °C 3,2 km/h (1 Bft)
03.02.2017 15:07 6,0 °C 6,1 °C 81 % 1007,2 hPa 0,0 mm 0,2 km/h (0 Bft) W 280 ° 0 min 0,000 mm 0,9 UV-I 118 W/m² 3,0 °C 6,0 °C 1,6 km/h (1 Bft)
03.02.2017 15:08 6,0 °C 6,1 °C 81 % 1007,2 hPa 0,0 mm 0,0 km/h (0 Bft) W 280 ° 0 min 0,000 mm 0,9 UV-I 118 W/m² 3,0 °C 6,0 °C 0,0 km/h (0 Bft)
03.02.2017 15:09 6,1 °C 6,1 °C 81 % 1007,3 hPa 0,0 mm 0,0 km/h (0 Bft) W 280 ° 0 min 0,000 mm 0,9 UV-I 118 W/m² 3,1 °C 6,1 °C 0,0 km/h (0 Bft)
03.02.2017 15:10 6,1 °C 6,1 °C 81 % 1007,3 hPa 0,0 mm 0,0 km/h (0 Bft) W 280 ° 0 min 0,000 mm 0,9 UV-I 116 W/m² 3,1 °C 6,1 °C 0,0 km/h (0 Bft)
03.02.2017 15:11 6,1 °C 6,1 °C 82 % 1007,3 hPa 0,0 mm 0,0 km/h (0 Bft) W 280 ° 0 min 0,000 mm 0,9 UV-I 125 W/m² 3,3 °C 6,1 °C 0,0 km/h (0 Bft)
03.02.2017 15:12 6,1 °C 6,1 °C 81 % 1007,3 hPa 0,0 mm 0,0 km/h (0 Bft) W 280 ° 0 min 0,000 mm 0,9 UV-I 132 W/m² 3,1 °C 6,1 °C 0,0 km/h (0 Bft)
03.02.2017 15:13 6,1 °C 6,2 °C 81 % 1007,3 hPa 0,0 mm 0,0 km/h (0 Bft) W 280 ° 0 min 0,000 mm 0,9 UV-I 137 W/m² 3,1 °C 6,1 °C 0,0 km/h (0 Bft)
03.02.2017 15:14 6,2 °C 6,2 °C 81 % 1007,4 hPa 0,0 mm 0,0 km/h (0 Bft) W 280 ° 0 min 0,000 mm 0,9 UV-I 134 W/m² 3,2 °C 6,2 °C 0,0 km/h (0 Bft)
03.02.2017 15:15 6,2 °C 6,2 °C 81 % 1007,3 hPa 0,0 mm 0,0 km/h (0 Bft) W 280 ° 0 min 0,000 mm 0,9 UV-I 132 W/m² 3,2 °C 6,2 °C 0,0 km/h (0 Bft)
03.02.2017 15:16 6,2 °C 6,2 °C 81 % 1007,4 hPa 0,0 mm 0,0 km/h (0 Bft) W 280 ° 0 min 0,000 mm 0,9 UV-I 128 W/m² 3,2 °C 6,2 °C 0,0 km/h (0 Bft)
03.02.2017 15:17 6,2 °C 6,2 °C 81 % 1007,4 hPa 0,0 mm 0,0 km/h (0 Bft) W 280 ° 0 min 0,000 mm 0,8 UV-I 125 W/m² 3,2 °C 6,2 °C 0,0 km/h (0 Bft)
03.02.2017 15:18 6,2 °C 6,2 °C 81 % 1007,4 hPa 0,0 mm 0,0 km/h (0 Bft) W 280 ° 0 min 0,000 mm 0,8 UV-I 121 W/m² 3,2 °C 6,2 °C 0,0 km/h (0 Bft)
03.02.2017 15:19 6,2 °C 6,2 °C 81 % 1007,4 hPa 0,0 mm 0,0 km/h (0 Bft) W 280 ° 0 min 0,000 mm 0,8 UV-I 114 W/m² 3,2 °C 6,2 °C 0,0 km/h (0 Bft)
03.02.2017 15:20 6,2 °C 6,2 °C 81 % 1007,5 hPa 0,0 mm 0,0 km/h (0 Bft) W 280 ° 0 min 0,000 mm 0,8 UV-I 111 W/m² 3,2 °C 6,2 °C 0,0 km/h (0 Bft)
03.02.2017 15:21 6,2 °C 6,2 °C 81 % 1007,5 hPa 0,0 mm 0,0 km/h (0 Bft) W 280 ° 0 min 0,000 mm 0,7 UV-I 107 W/m² 3,2 °C 6,2 °C 0,0 km/h (0 Bft)
03.02.2017 15:22 6,2 °C 6,2 °C 81 % 1007,5 hPa 0,0 mm 2,4 km/h (1 Bft) W-NW 284 ° 0 min 0,000 mm 0,7 UV-I 102 W/m² 3,2 °C 6,2 °C 4,8 km/h (1 Bft)
03.02.2017 15:23 6,2 °C 6,2 °C 81 % 1007,5 hPa 0,0 mm 2,0 km/h (1 Bft) W-NW 284 ° 0 min 0,000 mm 0,7 UV-I 83 W/m² 3,2 °C 6,2 °C 3,2 km/h (1 Bft)
03.02.2017 15:24 6,2 °C 6,2 °C 81 % 1007,5 hPa 0,0 mm 1,6 km/h (1 Bft) W-NW 284 ° 0 min 0,000 mm 0,6 UV-I 74 W/m² 3,2 °C 6,2 °C 3,2 km/h (1 Bft)
03.02.2017 15:25 6,1 °C 6,2 °C 81 % 1007,5 hPa 0,0 mm 2,6 km/h (1 Bft) W-NW 284 ° 0 min 0,000 mm 0,5 UV-I 67 W/m² 3,1 °C 6,1 °C 3,2 km/h (1 Bft)
03.02.2017 15:26 6,2 °C 6,2 °C 81 % 1007,5 hPa 0,0 mm 1,9 km/h (1 Bft) W-NW 284 ° 0 min 0,000 mm 0,5 UV-I 62 W/m² 3,2 °C 6,2 °C 3,2 km/h (1 Bft)
03.02.2017 15:27 6,1 °C 6,2 °C 81 % 1007,6 hPa 0,0 mm 2,2 km/h (1 Bft) W-NW 284 ° 0 min 0,000 mm 0,5 UV-I 56 W/m² 3,1 °C 6,1 °C 3,2 km/h (1 Bft)
03.02.2017 15:28 6,1 °C 6,1 °C 81 % 1007,6 hPa 0,0 mm 1,8 km/h (1 Bft) W-NW 284 ° 0 min 0,000 mm 0,0 UV-I 54 W/m² 3,1 °C 6,1 °C 3,2 km/h (1 Bft)
03.02.2017 15:29 6,1 °C 6,1 °C 81 % 1007,6 hPa 0,0 mm 2,4 km/h (1 Bft) W-NW 284 ° 0 min 0,000 mm 0,0 UV-I 53 W/m² 3,1 °C 6,1 °C 3,2 km/h (1 Bft)
03.02.2017 15:30 6,1 °C 6,1 °C 81 % 1007,6 hPa 0,0 mm 1,6 km/h (1 Bft) W-NW 284 ° 0 min 0,000 mm 0,0 UV-I 53 W/m² 3,1 °C 6,1 °C 1,6 km/h (1 Bft)
03.02.2017 15:31 6,1 °C 6,1 °C 82 % 1007,6 hPa 0,0 mm 0,8 km/h (0 Bft) W-NW 284 ° 0 min 0,000 mm 0,0 UV-I 47 W/m² 3,3 °C 6,1 °C 1,6 km/h (1 Bft)
03.02.2017 15:32 6,1 °C 6,1 °C 82 % 1007,6 hPa 0,0 mm 1,9 km/h (1 Bft) W-NW 284 ° 0 min 0,000 mm 0,0 UV-I 46 W/m² 3,3 °C 6,1 °C 3,2 km/h (1 Bft)
03.02.2017 15:33 6,1 °C 6,1 °C 82 % 1007,6 hPa 0,0 mm 3,2 km/h (1 Bft) W-NW 283 ° 0 min 0,000 mm 0,0 UV-I 44 W/m² 3,3 °C 6,1 °C 4,8 km/h (1 Bft)
03.02.2017 15:34 6,1 °C 6,1 °C 82 % 1007,6 hPa 0,0 mm 1,4 km/h (1 Bft) W-NW 283 ° 0 min 0,000 mm 0,0 UV-I 42 W/m² 3,3 °C 6,1 °C 3,2 km/h (1 Bft)
03.02.2017 15:35 6,1 °C 6,1 °C 81 % 1007,6 hPa 0,0 mm 2,5 km/h (1 Bft) W-NW 283 ° 0 min 0,000 mm 0,0 UV-I 40 W/m² 3,1 °C 6,1 °C 4,8 km/h (1 Bft)
03.02.2017 15:36 6,0 °C 6,1 °C 81 % 1007,6 hPa 0,0 mm 2,8 km/h (1 Bft) W-NW 283 ° 0 min 0,000 mm 0,0 UV-I 40 W/m² 3,0 °C 6,0 °C 3,2 km/h (1 Bft)
03.02.2017 15:37 6,0 °C 6,1 °C 82 % 1007,7 hPa 0,0 mm 1,7 km/h (1 Bft) W-NW 283 ° 0 min 0,000 mm 0,0 UV-I 39 W/m² 3,2 °C 6,0 °C 3,2 km/h (1 Bft)
03.02.2017 15:38 6,0 °C 6,0 °C 81 % 1007,6 hPa 0,0 mm 1,3 km/h (1 Bft) W-NW 283 ° 0 min 0,000 mm 0,0 UV-I 39 W/m² 3,0 °C 6,0 °C 3,2 km/h (1 Bft)
03.02.2017 15:39 6,0 °C 6,0 °C 82 % 1007,7 hPa 0,0 mm 1,1 km/h (1 Bft) W-NW 283 ° 0 min 0,000 mm 0,0 UV-I 39 W/m² 3,2 °C 6,0 °C 1,6 km/h (1 Bft)
03.02.2017 15:40 6,0 °C 6,0 °C 82 % 1007,6 hPa 0,0 mm 0,7 km/h (0 Bft) W-NW 283 ° 0 min 0,000 mm 0,0 UV-I 40 W/m² 3,2 °C 6,0 °C 1,6 km/h (1 Bft)
03.02.2017 15:41 6,0 °C 6,0 °C 82 % 1007,6 hPa 0,0 mm 1,2 km/h (1 Bft) W-NW 283 ° 0 min 0,000 mm 0,0 UV-I 42 W/m² 3,2 °C 6,0 °C 1,6 km/h (1 Bft)
03.02.2017 15:42 6,0 °C 6,0 °C 82 % 1007,6 hPa 0,0 mm 0,3 km/h (0 Bft) W-NW 283 ° 0 min 0,000 mm 0,0 UV-I 42 W/m² 3,2 °C 6,0 °C 1,6 km/h (1 Bft)
03.02.2017 15:43 6,0 °C 6,1 °C 82 % 1007,6 hPa 0,0 mm 0,9 km/h (0 Bft) W-NW 283 ° 0 min 0,000 mm 0,0 UV-I 42 W/m² 3,2 °C 6,0 °C 3,2 km/h (1 Bft)
03.02.2017 15:44 6,1 °C 6,1 °C 82 % 1007,5 hPa 0,0 mm 0,6 km/h (0 Bft) W-NW 283 ° 0 min 0,000 mm 0,0 UV-I 42 W/m² 3,3 °C 6,1 °C 1,6 km/h (1 Bft)
03.02.2017 15:45 6,1 °C 6,1 °C 82 % 1007,6 hPa 0,0 mm 0,3 km/h (0 Bft) W-NW 283 ° 0 min 0,000 mm 0,0 UV-I 40 W/m² 3,3 °C 6,1 °C 1,6 km/h (1 Bft)
03.02.2017 15:46 6,1 °C 6,1 °C 82 % 1007,6 hPa 0,0 mm 1,9 km/h (1 Bft) W-NW 283 ° 0 min 0,000 mm 0,0 UV-I 39 W/m² 3,3 °C 6,1 °C 3,2 km/h (1 Bft)
03.02.2017 15:47 6,1 °C 6,1 °C 81 % 1007,6 hPa 0,0 mm 2,5 km/h (1 Bft) W-NW 283 ° 0 min 0,000 mm 0,0 UV-I 39 W/m² 3,1 °C 6,1 °C 4,8 km/h (1 Bft)
03.02.2017 15:48 6,1 °C 6,1 °C 82 % 1007,6 hPa 0,0 mm 3,6 km/h (1 Bft) W-NW 283 ° 0 min 0,000 mm 0,0 UV-I 39 W/m² 3,3 °C 6,1 °C 4,8 km/h (1 Bft)
03.02.2017 15:49 6,1 °C 6,1 °C 81 % 1007,6 hPa 0,0 mm 2,0 km/h (1 Bft) W-NW 283 ° 0 min 0,000 mm 0,0 UV-I 42 W/m² 3,1 °C 6,1 °C 3,2 km/h (1 Bft)
03.02.2017 15:50 6,1 °C 6,1 °C 82 % 1007,6 hPa 0,0 mm 1,3 km/h (1 Bft) W-NW 283 ° 0 min 0,000 mm 0,0 UV-I 46 W/m² 3,3 °C 6,1 °C 3,2 km/h (1 Bft)
03.02.2017 15:51 6,1 °C 6,1 °C 82 % 1007,6 hPa 0,0 mm 0,2 km/h (0 Bft) W-NW 283 ° 0 min 0,000 mm 0,0 UV-I 49 W/m² 3,3 °C 6,1 °C 1,6 km/h (1 Bft)
03.02.2017 15:52 6,1 °C 6,2 °C 82 % 1007,6 hPa 0,0 mm 0,7 km/h (0 Bft) W-NW 283 ° 0 min 0,000 mm 0,0 UV-I 53 W/m² 3,3 °C 6,1 °C 1,6 km/h (1 Bft)
03.02.2017 15:53 6,2 °C 6,2 °C 82 % 1007,5 hPa 0,0 mm 1,7 km/h (1 Bft) W-NW 283 ° 0 min 0,000 mm 0,0 UV-I 53 W/m² 3,4 °C 6,2 °C 3,2 km/h (1 Bft)
03.02.2017 15:54 6,2 °C 6,2 °C 82 % 1007,5 hPa 0,0 mm 2,0 km/h (1 Bft) W-NW 283 ° 0 min 0,000 mm 0,0 UV-I 53 W/m² 3,4 °C 6,2 °C 3,2 km/h (1 Bft)
03.02.2017 15:55 6,2 °C 6,2 °C 82 % 1007,5 hPa 0,0 mm 0,5 km/h (0 Bft) W-NW 283 ° 0 min 0,000 mm 0,0 UV-I 53 W/m² 3,4 °C 6,2 °C 1,6 km/h (1 Bft)
03.02.2017 15:56 6,2 °C 6,2 °C 82 % 1007,5 hPa 0,0 mm 0,2 km/h (0 Bft) W-NW 283 ° 0 min 0,000 mm 0,0 UV-I 51 W/m² 3,4 °C 6,2 °C 1,6 km/h (1 Bft)
03.02.2017 15:57 6,2 °C 6,2 °C 82 % 1007,5 hPa 0,0 mm 0,0 km/h (0 Bft) W-NW 283 ° 0 min 0,000 mm 0,0 UV-I 49 W/m² 3,4 °C 6,2 °C 0,0 km/h (0 Bft)
03.02.2017 15:58 6,2 °C 6,2 °C 82 % 1007,5 hPa 0,0 mm 0,0 km/h (0 Bft) W-NW 283 ° 0 min 0,000 mm 0,0 UV-I 47 W/m² 3,4 °C 6,2 °C 0,0 km/h (0 Bft)
03.02.2017 15:59 6,1 °C 6,2 °C 82 % 1007,5 hPa 0,0 mm 0,1 km/h (0 Bft) W-NW 283 ° 0 min 0,000 mm 0,0 UV-I 46 W/m² 3,3 °C 6,1 °C 1,6 km/h (1 Bft)
03.02.2017 16:00 6,1 °C 6,1 °C 82 % 1007,5 hPa 0,0 mm 0,7 km/h (0 Bft) W-NW 283 ° 0 min 0,000 mm 0,0 UV-I 44 W/m² 3,3 °C 6,1 °C 3,2 km/h (1 Bft)
03.02.2017 16:01 6,1 °C 6,1 °C 82 % 1007,5 hPa 0,0 mm 0,0 km/h (0 Bft) W-NW 283 ° 0 min 0,025 mm 0,0 UV-I 42 W/m² 3,3 °C 6,1 °C 0,0 km/h (0 Bft)
03.02.2017 16:02 6,2 °C 6,2 °C 82 % 1007,4 hPa 0,0 mm 0,0 km/h (0 Bft) W-NW 283 ° 0 min 0,000 mm 0,0 UV-I 42 W/m² 3,4 °C 6,2 °C 0,0 km/h (0 Bft)
03.02.2017 16:03 6,2 °C 6,2 °C 82 % 1007,4 hPa 0,0 mm 0,0 km/h (0 Bft) W-NW 283 ° 0 min 0,000 mm 0,0 UV-I 40 W/m² 3,4 °C 6,2 °C 0,0 km/h (0 Bft)
03.02.2017 16:04 6,1 °C 6,2 °C 82 % 1007,4 hPa 0,0 mm 0,0 km/h (0 Bft) W-NW 283 ° 0 min 0,000 mm 0,0 UV-I 37 W/m² 3,3 °C 6,1 °C 0,0 km/h (0 Bft)
03.02.2017 16:05 6,1 °C 6,1 °C 82 % 1007,3 hPa 0,0 mm 0,0 km/h (0 Bft) W-NW 283 ° 0 min 0,000 mm 0,0 UV-I 35 W/m² 3,3 °C 6,1 °C 0,0 km/h (0 Bft)
03.02.2017 16:06 6,1 °C 6,1 °C 82 % 1007,3 hPa 0,0 mm 0,0 km/h (0 Bft) W-NW 283 ° 0 min 0,000 mm 0,0 UV-I 35 W/m² 3,3 °C 6,1 °C 0,0 km/h (0 Bft)
03.02.2017 16:07 5,9 °C 6,1 °C 81 % 1007,3 hPa 0,0 mm 0,0 km/h (0 Bft) W-NW 283 ° 0 min 0,000 mm 0,0 UV-I 33 W/m² 2,9 °C 5,9 °C 0,0 km/h (0 Bft)
03.02.2017 16:08 5,8 °C 5,9 °C 83 % 1007,4 hPa 0,0 mm 0,0 km/h (0 Bft) W-NW 283 ° 0 min 0,000 mm 0,0 UV-I 32 W/m² 3,1 °C 5,8 °C 0,0 km/h (0 Bft)
03.02.2017 16:09 5,7 °C 5,8 °C 83 % 1007,3 hPa 0,0 mm 0,0 km/h (0 Bft) W-NW 283 ° 0 min 0,000 mm 0,0 UV-I 30 W/m² 3,0 °C 5,7 °C 0,0 km/h (0 Bft)
03.02.2017 16:10 5,7 °C 5,7 °C 83 % 1007,4 hPa 0,0 mm 0,0 km/h (0 Bft) W-NW 283 ° 0 min 0,000 mm 0,0 UV-I 25 W/m² 3,0 °C 5,7 °C 0,0 km/h (0 Bft)
03.02.2017 16:11 5,8 °C 5,8 °C 84 % 1007,4 hPa 0,0 mm 0,0 km/h (0 Bft) W-NW 283 ° 0 min 0,000 mm 0,0 UV-I 23 W/m² 3,3 °C 5,8 °C 0,0 km/h (0 Bft)
03.02.2017 16:12 5,8 °C 5,8 °C 83 % 1007,4 hPa 0,0 mm 0,4 km/h (0 Bft) W-NW 283 ° 0 min 0,000 mm 0,0 UV-I 23 W/m² 3,1 °C 5,8 °C 1,6 km/h (1 Bft)
03.02.2017 16:13 5,8 °C 5,8 °C 83 % 1007,5 hPa 0,0 mm 0,5 km/h (0 Bft) W-NW 283 ° 0 min 0,000 mm 0,0 UV-I 21 W/m² 3,1 °C 5,8 °C 1,6 km/h (1 Bft)
03.02.2017 16:14 5,8 °C 5,8 °C 83 % 1007,4 hPa 0,0 mm 0,2 km/h (0 Bft) W-NW 283 ° 0 min 0,000 mm 0,0 UV-I 21 W/m² 3,1 °C 5,8 °C 1,6 km/h (1 Bft)
03.02.2017 16:15 5,9 °C 5,9 °C 83 % 1007,4 hPa 0,0 mm 1,5 km/h (1 Bft) W-NW 283 ° 0 min 0,000 mm 0,0 UV-I 23 W/m² 3,2 °C 5,9 °C 3,2 km/h (1 Bft)
03.02.2017 16:16 5,7 °C 5,9 °C 82 % 1007,4 hPa 0,0 mm 1,1 km/h (1 Bft) W-NW 283 ° 0 min 0,000 mm 0,0 UV-I 23 W/m² 2,9 °C 5,7 °C 1,6 km/h (1 Bft)
03.02.2017 16:17 5,5 °C 5,7 °C 82 % 1007,3 hPa 0,0 mm 1,4 km/h (1 Bft) W-NW 283 ° 0 min 0,000 mm 0,0 UV-I 23 W/m² 2,7 °C 5,5 °C 1,6 km/h (1 Bft)
03.02.2017 16:18 5,3 °C 5,5 °C 83 % 1007,2 hPa 0,0 mm 0,5 km/h (0 Bft) W-NW 283 ° 0 min 0,000 mm 0,0 UV-I 23 W/m² 2,7 °C 5,3 °C 1,6 km/h (1 Bft)
03.02.2017 16:19 5,3 °C 5,3 °C 85 % 1007,3 hPa 0,0 mm 0,0 km/h (0 Bft) W-NW 283 ° 0 min 0,000 mm 0,0 UV-I 23 W/m² 3,0 °C 5,3 °C 0,0 km/h (0 Bft)
03.02.2017 16:20 5,3 °C 5,3 °C 85 % 1007,4 hPa 0,0 mm 0,0 km/h (0 Bft) W-NW 283 ° 0 min 0,000 mm 0,0 UV-I 23 W/m² 3,0 °C 5,3 °C 0,0 km/h (0 Bft)
03.02.2017 16:21 5,3 °C 5,3 °C 84 % 1007,4 hPa 0,0 mm 0,0 km/h (0 Bft) W-NW 283 ° 0 min 0,000 mm 0,0 UV-I 23 W/m² 2,8 °C 5,3 °C 0,0 km/h (0 Bft)
03.02.2017 16:22 5,4 °C 5,4 °C 84 % 1007,4 hPa 0,0 mm 0,0 km/h (0 Bft) W-NW 283 ° 0 min 0,000 mm 0,0 UV-I 23 W/m² 2,9 °C 5,4 °C 0,0 km/h (0 Bft)
03.02.2017 16:23 5,4 °C 5,4 °C 84 % 1007,4 hPa 0,0 mm 0,0 km/h (0 Bft) W-NW 283 ° 0 min 0,000 mm 0,0 UV-I 23 W/m² 2,9 °C 5,4 °C 0,0 km/h (0 Bft)
03.02.2017 16:24 5,4 °C 5,4 °C 84 % 1007,5 hPa 0,0 mm 0,1 km/h (0 Bft) W-NW 283 ° 0 min 0,000 mm 0,0 UV-I 23 W/m² 2,9 °C 5,4 °C 1,6 km/h (1 Bft)
03.02.2017 16:25 5,5 °C 5,5 °C 84 % 1007,5 hPa 0,0 mm 0,0 km/h (0 Bft) W-NW 283 ° 0 min 0,000 mm 0,0 UV-I 23 W/m² 3,0 °C 5,5 °C 0,0 km/h (0 Bft)
03.02.2017 16:26 5,6 °C 5,6 °C 84 % 1007,5 hPa 0,0 mm 0,2 km/h (0 Bft) W-NW 283 ° 0 min 0,000 mm 0,0 UV-I 23 W/m² 3,1 °C 5,6 °C 1,6 km/h (1 Bft)
03.02.2017 16:27 5,6 °C 5,6 °C 84 % 1007,5 hPa 0,0 mm 0,3 km/h (0 Bft) W-NW 283 ° 0 min 0,000 mm 0,0 UV-I 23 W/m² 3,1 °C 5,6 °C 1,6 km/h (1 Bft)
03.02.2017 16:28 5,6 °C 5,6 °C 84 % 1007,6 hPa 0,0 mm 0,3 km/h (0 Bft) W-NW 283 ° 0 min 0,000 mm 0,0 UV-I 21 W/m² 3,1 °C 5,6 °C 1,6 km/h (1 Bft)
03.02.2017 16:29 5,6 °C 5,6 °C 84 % 1007,6 hPa 0,0 mm 1,1 km/h (1 Bft) W-NW 283 ° 0 min 0,000 mm 0,0 UV-I 23 W/m² 3,1 °C 5,6 °C 1,6 km/h (1 Bft)
03.02.2017 16:30 5,7 °C 5,7 °C 83 % 1007,6 hPa 0,0 mm 0,7 km/h (0 Bft) W-NW 283 ° 0 min 0,000 mm 0,0 UV-I 23 W/m² 3,0 °C 5,7 °C 1,6 km/h (1 Bft)
03.02.2017 16:31 5,7 °C 5,7 °C 83 % 1007,6 hPa 0,0 mm 0,2 km/h (0 Bft) W-NW 283 ° 0 min 0,000 mm 0,0 UV-I 25 W/m² 3,0 °C 5,7 °C 1,6 km/h (1 Bft)
03.02.2017 16:32 5,7 °C 5,7 °C 83 % 1007,6 hPa 0,0 mm 0,0 km/h (0 Bft) W-NW 283 ° 0 min 0,000 mm 0,0 UV-I 25 W/m² 3,0 °C 5,7 °C 0,0 km/h (0 Bft)
03.02.2017 16:33 5,7 °C 5,7 °C 83 % 1007,6 hPa 0,0 mm 0,5 km/h (0 Bft) W-NW 283 ° 0 min 0,000 mm 0,0 UV-I 25 W/m² 3,0 °C 5,7 °C 1,6 km/h (1 Bft)
03.02.2017 16:34 5,7 °C 5,7 °C 83 % 1007,6 hPa 0,0 mm 0,5 km/h (0 Bft) W-NW 283 ° 0 min 0,000 mm 0,0 UV-I 25 W/m² 3,0 °C 5,7 °C 1,6 km/h (1 Bft)
03.02.2017 16:35 5,7 °C 5,7 °C 83 % 1007,7 hPa 0,0 mm 0,0 km/h (0 Bft) W-NW 283 ° 0 min 0,000 mm 0,0 UV-I 23 W/m² 3,0 °C 5,7 °C 0,0 km/h (0 Bft)
03.02.2017 16:36 5,7 °C 5,7 °C 83 % 1007,6 hPa 0,0 mm 0,0 km/h (0 Bft) W-NW 283 ° 0 min 0,000 mm 0,0 UV-I 23 W/m² 3,0 °C 5,7 °C 0,0 km/h (0 Bft)
03.02.2017 16:37 5,7 °C 5,7 °C 83 % 1007,7 hPa 0,0 mm 0,0 km/h (0 Bft) W-NW 283 ° 0 min 0,000 mm 0,0 UV-I 23 W/m² 3,0 °C 5,7 °C 0,0 km/h (0 Bft)
03.02.2017 16:38 5,7 °C 5,7 °C 84 % 1007,7 hPa 0,0 mm 0,0 km/h (0 Bft) W-NW 283 ° 0 min 0,000 mm 0,0 UV-I 23 W/m² 3,2 °C 5,7 °C 0,0 km/h (0 Bft)
03.02.2017 16:39 5,8 °C 5,8 °C 83 % 1007,6 hPa 0,0 mm 0,0 km/h (0 Bft) W-NW 283 ° 0 min 0,000 mm 0,0 UV-I 21 W/m² 3,1 °C 5,8 °C 0,0 km/h (0 Bft)
03.02.2017 16:40 5,8 °C 5,8 °C 83 % 1007,7 hPa 0,0 mm 0,1 km/h (0 Bft) W-NW 283 ° 0 min 0,000 mm 0,0 UV-I 23 W/m² 3,1 °C 5,8 °C 1,6 km/h (1 Bft)
03.02.2017 16:41 5,7 °C 5,8 °C 83 % 1007,7 hPa 0,0 mm 0,1 km/h (0 Bft) W-NW 283 ° 0 min 0,000 mm 0,0 UV-I 23 W/m² 3,0 °C 5,7 °C 1,6 km/h (1 Bft)
03.02.2017 16:42 5,7 °C 5,7 °C 83 % 1007,6 hPa 0,0 mm 0,1 km/h (0 Bft) W-NW 283 ° 0 min 0,000 mm 0,0 UV-I 25 W/m² 3,0 °C 5,7 °C 1,6 km/h (1 Bft)
03.02.2017 16:43 5,7 °C 5,7 °C 82 % 1007,7 hPa 0,0 mm 0,1 km/h (0 Bft) W-NW 283 ° 0 min 0,000 mm 0,0 UV-I 26 W/m² 2,9 °C 5,7 °C 1,6 km/h (1 Bft)
03.02.2017 16:44 5,5 °C 5,7 °C 82 % 1007,7 hPa 0,0 mm 0,0 km/h (0 Bft) W-NW 283 ° 0 min 0,000 mm 0,0 UV-I 28 W/m² 2,7 °C 5,5 °C 0,0 km/h (0 Bft)
03.02.2017 16:45 5,3 °C 5,5 °C 83 % 1007,7 hPa 0,0 mm 0,0 km/h (0 Bft) W-NW 283 ° 0 min 0,000 mm 0,0 UV-I 33 W/m² 2,7 °C 5,3 °C 0,0 km/h (0 Bft)
03.02.2017 16:46 5,1 °C 5,3 °C 83 % 1007,6 hPa 0,0 mm 0,0 km/h (0 Bft) W-NW 283 ° 0 min 0,000 mm 0,0 UV-I 33 W/m² 2,5 °C 5,1 °C 0,0 km/h (0 Bft)
03.02.2017 16:47 5,0 °C 5,1 °C 83 % 1007,7 hPa 0,0 mm 0,0 km/h (0 Bft) W-NW 283 ° 0 min 0,000 mm 0,0 UV-I 33 W/m² 2,4 °C 5,0 °C 0,0 km/h (0 Bft)
03.02.2017 16:48 5,0 °C 5,0 °C 84 % 1007,6 hPa 0,0 mm 0,0 km/h (0 Bft) W-NW 283 ° 0 min 0,000 mm 0,0 UV-I 32 W/m² 2,5 °C 5,0 °C 0,0 km/h (0 Bft)
03.02.2017 16:49 5,1 °C 5,1 °C 85 % 1007,6 hPa 0,0 mm 0,0 km/h (0 Bft) W-NW 283 ° 0 min 0,000 mm 0,0 UV-I 30 W/m² 2,8 °C 5,1 °C 0,0 km/h (0 Bft)
03.02.2017 16:50 5,1 °C 5,1 °C 85 % 1007,7 hPa 0,0 mm 0,4 km/h (0 Bft) W-NW 283 ° 0 min 0,000 mm 0,0 UV-I 28 W/m² 2,8 °C 5,1 °C 1,6 km/h (1 Bft)
03.02.2017 16:51 5,2 °C 5,2 °C 85 % 1007,6 hPa 0,0 mm 1,2 km/h (1 Bft) W-NW 283 ° 0 min 0,000 mm 0,0 UV-I 25 W/m² 2,9 °C 5,2 °C 1,6 km/h (1 Bft)
03.02.2017 16:52 5,3 °C 5,3 °C 85 % 1007,6 hPa 0,0 mm 0,5 km/h (0 Bft) W-NW 283 ° 0 min 0,000 mm 0,0 UV-I 25 W/m² 3,0 °C 5,3 °C 1,6 km/h (1 Bft)
03.02.2017 16:53 5,4 °C 5,4 °C 85 % 1007,6 hPa 0,0 mm 0,6 km/h (0 Bft) W-NW 283 ° 0 min 0,000 mm 0,0 UV-I 25 W/m² 3,1 °C 5,4 °C 1,6 km/h (1 Bft)
03.02.2017 16:54 5,5 °C 5,5 °C 85 % 1007,6 hPa 0,0 mm 0,9 km/h (0 Bft) W-NW 283 ° 0 min 0,000 mm 0,0 UV-I 25 W/m² 3,2 °C 5,5 °C 1,6 km/h (1 Bft)
03.02.2017 16:55 5,6 °C 5,6 °C 85 % 1007,6 hPa 0,0 mm 0,6 km/h (0 Bft) W-NW 283 ° 0 min 0,000 mm 0,0 UV-I 25 W/m² 3,3 °C 5,6 °C 1,6 km/h (1 Bft)
03.02.2017 16:56 5,6 °C 5,6 °C 84 % 1007,5 hPa 0,0 mm 0,1 km/h (0 Bft) W-NW 283 ° 0 min 0,000 mm 0,0 UV-I 23 W/m² 3,1 °C 5,6 °C 1,6 km/h (1 Bft)
03.02.2017 16:57 5,6 °C 5,6 °C 84 % 1007,5 hPa 0,0 mm 0,0 km/h (0 Bft) W-NW 283 ° 0 min 0,000 mm 0,0 UV-I 21 W/m² 3,1 °C 5,6 °C 0,0 km/h (0 Bft)
03.02.2017 16:58 5,6 °C 5,6 °C 84 % 1007,5 hPa 0,0 mm 0,0 km/h (0 Bft) W-NW 283 ° 0 min 0,000 mm 0,0 UV-I 21 W/m² 3,1 °C 5,6 °C 0,0 km/h (0 Bft)
03.02.2017 16:59 5,6 °C 5,6 °C 84 % 1007,5 hPa 0,0 mm 0,0 km/h (0 Bft) W-NW 283 ° 0 min 0,000 mm 0,0 UV-I 19 W/m² 3,1 °C 5,6 °C 0,0 km/h (0 Bft)
03.02.2017 17:00 5,6 °C 5,6 °C 83 % 1007,5 hPa 0,0 mm 0,0 km/h (0 Bft) W-NW 283 ° 0 min 0,000 mm 0,0 UV-I 19 W/m² 2,9 °C 5,6 °C 0,0 km/h (0 Bft)
03.02.2017 17:01 5,6 °C 5,6 °C 83 % 1007,5 hPa 0,0 mm 0,0 km/h (0 Bft) W-NW 283 ° 0 min 0,025 mm 0,0 UV-I 18 W/m² 2,9 °C 5,6 °C 0,0 km/h (0 Bft)
03.02.2017 17:02 5,6 °C 5,6 °C 84 % 1007,5 hPa 0,0 mm 0,1 km/h (0 Bft) W-NW 283 ° 0 min 0,000 mm 0,0 UV-I 16 W/m² 3,1 °C 5,6 °C 1,6 km/h (1 Bft)
03.02.2017 17:03 5,6 °C 5,6 °C 84 % 1007,6 hPa 0,0 mm 0,8 km/h (0 Bft) W-NW 283 ° 0 min 0,000 mm 0,0 UV-I 12 W/m² 3,1 °C 5,6 °C 1,6 km/h (1 Bft)
03.02.2017 17:04 5,6 °C 5,6 °C 84 % 1007,5 hPa 0,0 mm 0,8 km/h (0 Bft) W-NW 283 ° 0 min 0,000 mm 0,0 UV-I 12 W/m² 3,1 °C 5,6 °C 1,6 km/h (1 Bft)
03.02.2017 17:05 5,6 °C 5,6 °C 84 % 1007,5 hPa 0,0 mm 0,1 km/h (0 Bft) W-NW 283 ° 0 min 0,000 mm 0,0 UV-I 11 W/m² 3,1 °C 5,6 °C 1,6 km/h (1 Bft)
03.02.2017 17:06 5,6 °C 5,6 °C 84 % 1007,6 hPa 0,0 mm 0,0 km/h (0 Bft) W-NW 283 ° 0 min 0,000 mm 0,0 UV-I 9 W/m² 3,1 °C 5,6 °C 0,0 km/h (0 Bft)
03.02.2017 17:07 5,6 °C 5,6 °C 84 % 1007,6 hPa 0,0 mm 0,0 km/h (0 Bft) W-NW 283 ° 0 min 0,000 mm 0,0 UV-I 7 W/m² 3,1 °C 5,6 °C 0,0 km/h (0 Bft)
03.02.2017 17:08 5,3 °C 5,6 °C 83 % 1007,6 hPa 0,0 mm 0,0 km/h (0 Bft) W-NW 283 ° 0 min 0,000 mm 0,0 UV-I 5 W/m² 2,7 °C 5,3 °C 0,0 km/h (0 Bft)
03.02.2017 17:09 5,2 °C 5,3 °C 84 % 1007,6 hPa 0,0 mm 0,0 km/h (0 Bft) W-NW 283 ° 0 min 0,000 mm 0,0 UV-I 5 W/m² 2,7 °C 5,2 °C 0,0 km/h (0 Bft)
03.02.2017 17:10 5,1 °C 5,2 °C 84 % 1007,5 hPa 0,0 mm 0,0 km/h (0 Bft) W-NW 283 ° 0 min 0,000 mm 0,0 UV-I 0 W/m² 2,6 °C 5,1 °C 0,0 km/h (0 Bft)
03.02.2017 17:11 4,9 °C 5,1 °C 84 % 1007,5 hPa 0,0 mm 0,0 km/h (0 Bft) W-NW 283 ° 0 min 0,000 mm 0,0 UV-I 0 W/m² 2,4 °C 4,9 °C 0,0 km/h (0 Bft)
03.02.2017 17:12 4,8 °C 4,9 °C 85 % 1007,5 hPa 0,0 mm 0,0 km/h (0 Bft) W-NW 283 ° 0 min 0,000 mm 0,0 UV-I 0 W/m² 2,5 °C 4,8 °C 0,0 km/h (0 Bft)
03.02.2017 17:13 4,7 °C 4,8 °C 85 % 1007,5 hPa 0,0 mm 0,0 km/h (0 Bft) W-NW 283 ° 0 min 0,000 mm 0,0 UV-I 0 W/m² 2,4 °C 4,7 °C 0,0 km/h (0 Bft)
03.02.2017 17:14 4,7 °C 4,7 °C 86 % 1007,5 hPa 0,0 mm 0,0 km/h (0 Bft) W-NW 283 ° 0 min 0,000 mm 0,0 UV-I 0 W/m² 2,6 °C 4,7 °C 0,0 km/h (0 Bft)
03.02.2017 17:15 4,7 °C 4,7 °C 86 % 1007,6 hPa 0,0 mm 0,0 km/h (0 Bft) W-NW 283 ° 0 min 0,000 mm 0,0 UV-I 0 W/m² 2,6 °C 4,7 °C 0,0 km/h (0 Bft)
03.02.2017 17:16 4,7 °C 4,7 °C 86 % 1007,5 hPa 0,0 mm 0,0 km/h (0 Bft) W-NW 283 ° 0 min 0,000 mm 0,0 UV-I 0 W/m² 2,6 °C 4,7 °C 0,0 km/h (0 Bft)
03.02.2017 17:17 4,8 °C 4,8 °C 87 % 1007,6 hPa 0,0 mm 0,0 km/h (0 Bft) W-NW 283 ° 0 min 0,000 mm 0,0 UV-I 0 W/m² 2,8 °C 4,8 °C 0,0 km/h (0 Bft)
03.02.2017 17:18 4,8 °C 4,8 °C 87 % 1007,6 hPa 0,0 mm 0,0 km/h (0 Bft) W-NW 283 ° 0 min 0,000 mm 0,0 UV-I 0 W/m² 2,8 °C 4,8 °C 0,0 km/h (0 Bft)
03.02.2017 17:19 4,9 °C 4,9 °C 87 % 1007,6 hPa 0,0 mm 0,1 km/h (0 Bft) W-NW 283 ° 0 min 0,000 mm 0,0 UV-I 0 W/m² 2,9 °C 4,9 °C 1,6 km/h (1 Bft)
03.02.2017 17:20 4,9 °C 4,9 °C 86 % 1007,6 hPa 0,0 mm 0,0 km/h (0 Bft) W-NW 283 ° 0 min 0,000 mm 0,0 UV-I 0 W/m² 2,8 °C 4,9 °C 0,0 km/h (0 Bft)
03.02.2017 17:21 4,9 °C 4,9 °C 86 % 1007,6 hPa 0,0 mm 0,0 km/h (0 Bft) W-NW 283 ° 0 min 0,000 mm 0,0 UV-I 0 W/m² 2,8 °C 4,9 °C 0,0 km/h (0 Bft)
03.02.2017 17:22 5,0 °C 5,0 °C 86 % 1007,7 hPa 0,0 mm 0,4 km/h (0 Bft) W-NW 283 ° 0 min 0,000 mm 0,0 UV-I 0 W/m² 2,9 °C 5,0 °C 1,6 km/h (1 Bft)
03.02.2017 17:23 5,1 °C 5,1 °C 86 % 1007,7 hPa 0,0 mm 1,0 km/h (0 Bft) W-NW 283 ° 0 min 0,000 mm 0,0 UV-I 0 W/m² 3,0 °C 5,1 °C 1,6 km/h (1 Bft)
03.02.2017 17:24 5,1 °C 5,1 °C 86 % 1007,6 hPa 0,0 mm 0,0 km/h (0 Bft) W-NW 283 ° 0 min 0,000 mm 0,0 UV-I 0 W/m² 3,0 °C 5,1 °C 0,0 km/h (0 Bft)
03.02.2017 17:25 5,1 °C 5,1 °C 86 % 1007,7 hPa 0,0 mm 0,0 km/h (0 Bft) W-NW 283 ° 0 min 0,000 mm 0,0 UV-I 0 W/m² 3,0 °C 5,1 °C 0,0 km/h (0 Bft)
03.02.2017 17:26 5,1 °C 5,1 °C 85 % 1007,7 hPa 0,0 mm 0,4 km/h (0 Bft) W-NW 283 ° 0 min 0,000 mm 0,0 UV-I 0 W/m² 2,8 °C 5,1 °C 1,6 km/h (1 Bft)
03.02.2017 17:27 5,1 °C 5,1 °C 85 % 1007,7 hPa 0,0 mm 1,3 km/h (1 Bft) W-NW 283 ° 0 min 0,000 mm 0,0 UV-I 0 W/m² 2,8 °C 5,1 °C 1,6 km/h (1 Bft)
03.02.2017 17:28 5,1 °C 5,1 °C 85 % 1007,7 hPa 0,0 mm 0,2 km/h (0 Bft) W-NW 283 ° 0 min 0,000 mm 0,0 UV-I 0 W/m² 2,8 °C 5,1 °C 1,6 km/h (1 Bft)
03.02.2017 17:29 5,1 °C 5,1 °C 86 % 1007,7 hPa 0,0 mm 0,0 km/h (0 Bft) W-NW 283 ° 0 min 0,000 mm 0,0 UV-I 0 W/m² 3,0 °C 5,1 °C 0,0 km/h (0 Bft)
03.02.2017 17:30 5,1 °C 5,1 °C 85 % 1007,6 hPa 0,0 mm 0,0 km/h (0 Bft) W-NW 283 ° 0 min 0,000 mm 0,0 UV-I 0 W/m² 2,8 °C 5,1 °C 0,0 km/h (0 Bft)
03.02.2017 17:31 5,1 °C 5,1 °C 86 % 1007,6 hPa 0,0 mm 0,0 km/h (0 Bft) W-NW 283 ° 0 min 0,000 mm 0,0 UV-I 0 W/m² 3,0 °C 5,1 °C 0,0 km/h (0 Bft)
03.02.2017 17:32 5,1 °C 5,1 °C 86 % 1007,6 hPa 0,0 mm 0,0 km/h (0 Bft) W-NW 283 ° 0 min 0,000 mm 0,0 UV-I 0 W/m² 3,0 °C 5,1 °C 0,0 km/h (0 Bft)
03.02.2017 17:33 5,0 °C 5,1 °C 86 % 1007,7 hPa 0,0 mm 0,0 km/h (0 Bft) W-NW 283 ° 0 min 0,000 mm 0,0 UV-I 0 W/m² 2,9 °C 5,0 °C 0,0 km/h (0 Bft)
03.02.2017 17:34 5,0 °C 5,0 °C 86 % 1007,7 hPa 0,0 mm 0,0 km/h (0 Bft) W-NW 283 ° 0 min 0,000 mm 0,0 UV-I 0 W/m² 2,9 °C 5,0 °C 0,0 km/h (0 Bft)
03.02.2017 17:35 5,0 °C 5,1 °C 86 % 1007,7 hPa 0,0 mm 0,0 km/h (0 Bft) W-NW 283 ° 0 min 0,000 mm 0,0 UV-I 0 W/m² 2,9 °C 5,0 °C 0,0 km/h (0 Bft)
03.02.2017 17:36 5,1 °C 5,1 °C 86 % 1007,7 hPa 0,0 mm 0,0 km/h (0 Bft) W-NW 283 ° 0 min 0,000 mm 0,0 UV-I 0 W/m² 3,0 °C 5,1 °C 0,0 km/h (0 Bft)
03.02.2017 17:37 5,1 °C 5,1 °C 86 % 1007,8 hPa 0,0 mm 0,0 km/h (0 Bft) W-NW 283 ° 0 min 0,000 mm 0,0 UV-I 0 W/m² 3,0 °C 5,1 °C 0,0 km/h (0 Bft)
03.02.2017 17:38 5,1 °C 5,1 °C 86 % 1007,8 hPa 0,0 mm 0,0 km/h (0 Bft) W-NW 283 ° 0 min 0,000 mm 0,0 UV-I 0 W/m² 3,0 °C 5,1 °C 0,0 km/h (0 Bft)
03.02.2017 17:39 5,0 °C 5,1 °C 85 % 1007,8 hPa 0,0 mm 0,0 km/h (0 Bft) W-NW 283 ° 0 min 0,000 mm 0,0 UV-I 0 W/m² 2,7 °C 5,0 °C 0,0 km/h (0 Bft)
03.02.2017 17:40 4,8 °C 5,0 °C 83 % 1007,8 hPa 0,0 mm 0,0 km/h (0 Bft) W-NW 283 ° 0 min 0,000 mm 0,0 UV-I 0 W/m² 2,2 °C 4,8 °C 0,0 km/h (0 Bft)
03.02.2017 17:41 4,6 °C 4,8 °C 84 % 1007,8 hPa 0,0 mm 0,0 km/h (0 Bft) W-NW 283 ° 0 min 0,000 mm 0,0 UV-I 0 W/m² 2,1 °C 4,6 °C 0,0 km/h (0 Bft)
03.02.2017 17:42 4,3 °C 4,6 °C 85 % 1007,8 hPa 0,0 mm 0,0 km/h (0 Bft) W-NW 283 ° 0 min 0,000 mm 0,0 UV-I 0 W/m² 2,0 °C 4,3 °C 0,0 km/h (0 Bft)
03.02.2017 17:43 4,2 °C 4,3 °C 86 % 1007,8 hPa 0,0 mm 0,0 km/h (0 Bft) W-NW 283 ° 0 min 0,000 mm 0,0 UV-I 0 W/m² 2,1 °C 4,2 °C 0,0 km/h (0 Bft)
03.02.2017 17:44 3,9 °C 4,2 °C 86 % 1007,8 hPa 0,0 mm 0,0 km/h (0 Bft) W-NW 283 ° 0 min 0,000 mm 0,0 UV-I 0 W/m² 1,8 °C 3,9 °C 0,0 km/h (0 Bft)
03.02.2017 17:45 3,8 °C 3,9 °C 86 % 1007,9 hPa 0,0 mm 0,0 km/h (0 Bft) W-NW 283 ° 0 min 0,000 mm 0,0 UV-I 0 W/m² 1,7 °C 3,8 °C 0,0 km/h (0 Bft)
03.02.2017 17:46 3,8 °C 3,8 °C 87 % 1007,8 hPa 0,0 mm 0,0 km/h (0 Bft) W-NW 283 ° 0 min 0,000 mm 0,0 UV-I 0 W/m² 1,8 °C 3,8 °C 0,0 km/h (0 Bft)
03.02.2017 17:47 3,7 °C 3,8 °C 88 % 1007,8 hPa 0,0 mm 0,0 km/h (0 Bft) W-NW 283 ° 0 min 0,000 mm 0,0 UV-I 0 W/m² 1,9 °C 3,7 °C 0,0 km/h (0 Bft)
03.02.2017 17:48 3,7 °C 3,7 °C 88 % 1007,9 hPa 0,0 mm 0,0 km/h (0 Bft) W-NW 283 ° 0 min 0,000 mm 0,0 UV-I 0 W/m² 1,9 °C 3,7 °C 0,0 km/h (0 Bft)
03.02.2017 17:49 3,7 °C 3,7 °C 89 % 1007,9 hPa 0,0 mm 0,0 km/h (0 Bft) W-NW 283 ° 0 min 0,000 mm 0,0 UV-I 0 W/m² 2,1 °C 3,7 °C 0,0 km/h (0 Bft)
03.02.2017 17:50 3,9 °C 3,9 °C 90 % 1007,9 hPa 0,0 mm 0,0 km/h (0 Bft) W-NW 283 ° 0 min 0,000 mm 0,0 UV-I 0 W/m² 2,4 °C 3,9 °C 0,0 km/h (0 Bft)
03.02.2017 17:51 4,1 °C 4,1 °C 90 % 1007,9 hPa 0,0 mm 1,2 km/h (1 Bft) W-NW 283 ° 0 min 0,000 mm 0,0 UV-I 0 W/m² 2,6 °C 4,1 °C 3,2 km/h (1 Bft)
03.02.2017 17:52 4,3 °C 4,3 °C 89 % 1007,9 hPa 0,0 mm 0,1 km/h (0 Bft) W-NW 283 ° 0 min 0,000 mm 0,0 UV-I 0 W/m² 2,7 °C 4,3 °C 1,6 km/h (1 Bft)
03.02.2017 17:53 4,4 °C 4,4 °C 88 % 1007,9 hPa 0,0 mm 0,0 km/h (0 Bft) W-NW 283 ° 0 min 0,000 mm 0,0 UV-I 0 W/m² 2,6 °C 4,4 °C 0,0 km/h (0 Bft)
03.02.2017 17:54 4,4 °C 4,4 °C 88 % 1007,9 hPa 0,0 mm 0,0 km/h (0 Bft) W-NW 283 ° 0 min 0,000 mm 0,0 UV-I 0 W/m² 2,6 °C 4,4 °C 0,0 km/h (0 Bft)
03.02.2017 17:55 4,5 °C 4,6 °C 88 % 1007,9 hPa 0,0 mm 0,0 km/h (0 Bft) W-NW 283 ° 0 min 0,000 mm 0,0 UV-I 0 W/m² 2,7 °C 4,5 °C 0,0 km/h (0 Bft)
03.02.2017 17:56 4,6 °C 4,6 °C 88 % 1007,9 hPa 0,0 mm 0,0 km/h (0 Bft) W-NW 283 ° 0 min 0,000 mm 0,0 UV-I 0 W/m² 2,8 °C 4,6 °C 0,0 km/h (0 Bft)
03.02.2017 17:57 4,6 °C 4,6 °C 88 % 1007,9 hPa 0,0 mm 0,0 km/h (0 Bft) W-NW 283 ° 0 min 0,000 mm 0,0 UV-I 0 W/m² 2,8 °C 4,6 °C 0,0 km/h (0 Bft)
03.02.2017 17:58 4,7 °C 4,7 °C 88 % 1007,8 hPa 0,0 mm 0,0 km/h (0 Bft) W-NW 283 ° 0 min 0,000 mm 0,0 UV-I 0 W/m² 2,9 °C 4,7 °C 0,0 km/h (0 Bft)
03.02.2017 17:59 4,8 °C 4,8 °C 87 % 1007,8 hPa 0,0 mm 0,0 km/h (0 Bft) W-NW 283 ° 0 min 0,000 mm 0,0 UV-I 0 W/m² 2,8 °C 4,8 °C 0,0 km/h (0 Bft)
03.02.2017 18:00 4,8 °C 4,8 °C 87 % 1007,9 hPa 0,0 mm 0,0 km/h (0 Bft) W-NW 283 ° 0 min 0,000 mm 0,0 UV-I 0 W/m² 2,8 °C 4,8 °C 0,0 km/h (0 Bft)
03.02.2017 18:01 4,7 °C 4,8 °C 85 % 1007,8 hPa 0,0 mm 0,0 km/h (0 Bft) W-NW 283 ° 0 min 0,000 mm 0,0 UV-I 0 W/m² 2,4 °C 4,7 °C 0,0 km/h (0 Bft)
03.02.2017 18:02 4,6 °C 4,7 °C 86 % 1007,8 hPa 0,0 mm 0,0 km/h (0 Bft) W-NW 283 ° 0 min 0,000 mm 0,0 UV-I 0 W/m² 2,5 °C 4,6 °C 0,0 km/h (0 Bft)
03.02.2017 18:03 4,4 °C 4,6 °C 86 % 1007,8 hPa 0,0 mm 0,0 km/h (0 Bft) W-NW 283 ° 0 min 0,000 mm 0,0 UV-I 0 W/m² 2,3 °C 4,4 °C 0,0 km/h (0 Bft)
03.02.2017 18:04 4,3 °C 4,4 °C 86 % 1007,8 hPa 0,0 mm 0,0 km/h (0 Bft) W-NW 283 ° 0 min 0,000 mm 0,0 UV-I 0 W/m² 2,2 °C 4,3 °C 0,0 km/h (0 Bft)
03.02.2017 18:05 4,2 °C 4,3 °C 87 % 1007,8 hPa 0,0 mm 0,0 km/h (0 Bft) W-NW 283 ° 0 min 0,000 mm 0,0 UV-I 0 W/m² 2,2 °C 4,2 °C 0,0 km/h (0 Bft)
03.02.2017 18:06 4,1 °C 4,2 °C 87 % 1007,8 hPa 0,0 mm 0,0 km/h (0 Bft) W-NW 283 ° 0 min 0,000 mm 0,0 UV-I 0 W/m² 2,1 °C 4,1 °C 0,0 km/h (0 Bft)
03.02.2017 18:07 4,0 °C 4,1 °C 87 % 1007,8 hPa 0,0 mm 0,0 km/h (0 Bft) W-NW 283 ° 0 min 0,000 mm 0,0 UV-I 0 W/m² 2,0 °C 4,0 °C 0,0 km/h (0 Bft)
03.02.2017 18:08 3,9 °C 4,0 °C 87 % 1007,8 hPa 0,0 mm 0,0 km/h (0 Bft) W-NW 283 ° 0 min 0,000 mm 0,0 UV-I 0 W/m² 1,9 °C 3,9 °C 0,0 km/h (0 Bft)
03.02.2017 18:09 3,9 °C 3,9 °C 88 % 1007,8 hPa 0,0 mm 0,0 km/h (0 Bft) W-NW 283 ° 0 min 0,000 mm 0,0 UV-I 0 W/m² 2,1 °C 3,9 °C 0,0 km/h (0 Bft)
03.02.2017 18:10 3,9 °C 3,9 °C 89 % 1007,9 hPa 0,0 mm 0,0 km/h (0 Bft) W-NW 283 ° 0 min 0,000 mm 0,0 UV-I 0 W/m² 2,3 °C 3,9 °C 0,0 km/h (0 Bft)
03.02.2017 18:11 4,0 °C 4,0 °C 89 % 1007,9 hPa 0,0 mm 0,0 km/h (0 Bft) W-NW 283 ° 0 min 0,000 mm 0,0 UV-I 0 W/m² 2,4 °C 4,0 °C 0,0 km/h (0 Bft)
03.02.2017 18:12 4,1 °C 4,1 °C 89 % 1007,9 hPa 0,0 mm 0,0 km/h (0 Bft) W-NW 283 ° 0 min 0,000 mm 0,0 UV-I 0 W/m² 2,5 °C 4,1 °C 0,0 km/h (0 Bft)
03.02.2017 18:13 4,1 °C 4,1 °C 88 % 1007,9 hPa 0,0 mm 0,0 km/h (0 Bft) W-NW 283 ° 0 min 0,000 mm 0,0 UV-I 0 W/m² 2,3 °C 4,1 °C 0,0 km/h (0 Bft)
03.02.2017 18:14 4,0 °C 4,1 °C 87 % 1007,9 hPa 0,0 mm 0,0 km/h (0 Bft) W-NW 283 ° 0 min 0,000 mm 0,0 UV-I 0 W/m² 2,0 °C 4,0 °C 0,0 km/h (0 Bft)
03.02.2017 18:15 3,9 °C 4,0 °C 88 % 1007,9 hPa 0,0 mm 0,0 km/h (0 Bft) W-NW 283 ° 0 min 0,000 mm 0,0 UV-I 0 W/m² 2,1 °C 3,9 °C 0,0 km/h (0 Bft)
03.02.2017 18:16 3,9 °C 3,9 °C 88 % 1007,9 hPa 0,0 mm 0,0 km/h (0 Bft) W-NW 283 ° 0 min 0,000 mm 0,0 UV-I 0 W/m² 2,1 °C 3,9 °C 0,0 km/h (0 Bft)
03.02.2017 18:17 3,9 °C 3,9 °C 88 % 1007,9 hPa 0,0 mm 0,0 km/h (0 Bft) W-NW 283 ° 0 min 0,000 mm 0,0 UV-I 0 W/m² 2,1 °C 3,9 °C 0,0 km/h (0 Bft)
03.02.2017 18:18 3,8 °C 3,9 °C 88 % 1007,9 hPa 0,0 mm 0,0 km/h (0 Bft) W-NW 283 ° 0 min 0,000 mm 0,0 UV-I 0 W/m² 2,0 °C 3,8 °C 0,0 km/h (0 Bft)
03.02.2017 18:19 3,8 °C 3,8 °C 88 % 1007,9 hPa 0,0 mm 0,0 km/h (0 Bft) W-NW 283 ° 0 min 0,000 mm 0,0 UV-I 0 W/m² 2,0 °C 3,8 °C 0,0 km/h (0 Bft)
03.02.2017 18:20 3,7 °C 3,8 °C 88 % 1007,9 hPa 0,0 mm 0,0 km/h (0 Bft) W-NW 283 ° 0 min 0,000 mm 0,0 UV-I 0 W/m² 1,9 °C 3,7 °C 0,0 km/h (0 Bft)
03.02.2017 18:21 3,7 °C 3,8 °C 89 % 1007,9 hPa 0,0 mm 0,0 km/h (0 Bft) W-NW 283 ° 0 min 0,000 mm 0,0 UV-I 0 W/m² 2,1 °C 3,7 °C 0,0 km/h (0 Bft)
03.02.2017 18:22 3,7 °C 3,7 °C 89 % 1007,9 hPa 0,0 mm 0,0 km/h (0 Bft) W-NW 283 ° 0 min 0,000 mm 0,0 UV-I 0 W/m² 2,1 °C 3,7 °C 0,0 km/h (0 Bft)
03.02.2017 18:23 3,7 °C 3,7 °C 89 % 1007,8 hPa 0,0 mm 0,0 km/h (0 Bft) W-NW 283 ° 0 min 0,000 mm 0,0 UV-I 0 W/m² 2,1 °C 3,7 °C 0,0 km/h (0 Bft)
03.02.2017 18:24 3,7 °C 3,7 °C 89 % 1007,8 hPa 0,0 mm 0,0 km/h (0 Bft) W-NW 283 ° 0 min 0,000 mm 0,0 UV-I 0 W/m² 2,1 °C 3,7 °C 0,0 km/h (0 Bft)
03.02.2017 18:25 3,6 °C 3,7 °C 89 % 1007,9 hPa 0,0 mm 0,0 km/h (0 Bft) W-NW 283 ° 0 min 0,000 mm 0,0 UV-I 0 W/m² 2,0 °C 3,6 °C 0,0 km/h (0 Bft)
03.02.2017 18:26 3,6 °C 3,6 °C 89 % 1008,0 hPa 0,0 mm 0,0 km/h (0 Bft) W-NW 283 ° 0 min 0,000 mm 0,0 UV-I 0 W/m² 2,0 °C 3,6 °C 0,0 km/h (0 Bft)
03.02.2017 18:27 3,6 °C 3,6 °C 89 % 1007,9 hPa 0,0 mm 0,0 km/h (0 Bft) W-NW 283 ° 0 min 0,000 mm 0,0 UV-I 0 W/m² 2,0 °C 3,6 °C 0,0 km/h (0 Bft)
03.02.2017 18:28 3,6 °C 3,6 °C 89 % 1008,0 hPa 0,0 mm 0,0 km/h (0 Bft) W-NW 283 ° 0 min 0,000 mm 0,0 UV-I 0 W/m² 2,0 °C 3,6 °C 0,0 km/h (0 Bft)
03.02.2017 18:29 3,6 °C 3,6 °C 88 % 1007,9 hPa 0,0 mm 0,0 km/h (0 Bft) W-NW 283 ° 0 min 0,000 mm 0,0 UV-I 0 W/m² 1,8 °C 3,6 °C 0,0 km/h (0 Bft)
03.02.2017 18:30 3,5 °C 3,6 °C 89 % 1008,0 hPa 0,0 mm 0,0 km/h (0 Bft) W-NW 283 ° 0 min 0,000 mm 0,0 UV-I 0 W/m² 1,9 °C 3,5 °C 0,0 km/h (0 Bft)
03.02.2017 18:31 3,5 °C 3,5 °C 89 % 1008,0 hPa 0,0 mm 0,0 km/h (0 Bft) W-NW 283 ° 0 min 0,000 mm 0,0 UV-I 0 W/m² 1,9 °C 3,5 °C 0,0 km/h (0 Bft)
03.02.2017 18:32 3,5 °C 3,5 °C 88 % 1008,0 hPa 0,0 mm 0,0 km/h (0 Bft) W-NW 283 ° 0 min 0,000 mm 0,0 UV-I 0 W/m² 1,7 °C 3,5 °C 0,0 km/h (0 Bft)
03.02.2017 18:33 3,5 °C 3,5 °C 88 % 1008,1 hPa 0,0 mm 0,0 km/h (0 Bft) W-NW 283 ° 0 min 0,000 mm 0,0 UV-I 0 W/m² 1,7 °C 3,5 °C 0,0 km/h (0 Bft)
03.02.2017 18:34 3,5 °C 3,5 °C 88 % 1008,1 hPa 0,0 mm 0,0 km/h (0 Bft) W-NW 283 ° 0 min 0,000 mm 0,0 UV-I 0 W/m² 1,7 °C 3,5 °C 0,0 km/h (0 Bft)
03.02.2017 18:35 3,5 °C 3,5 °C 88 % 1008,1 hPa 0,0 mm 0,0 km/h (0 Bft) W-NW 283 ° 0 min 0,000 mm 0,0 UV-I 0 W/m² 1,7 °C 3,5 °C 0,0 km/h (0 Bft)
03.02.2017 18:36 3,5 °C 3,5 °C 88 % 1008,1 hPa 0,0 mm 0,0 km/h (0 Bft) W-NW 283 ° 0 min 0,000 mm 0,0 UV-I 0 W/m² 1,7 °C 3,5 °C 0,0 km/h (0 Bft)
03.02.2017 18:37 3,5 °C 3,5 °C 88 % 1008,1 hPa 0,0 mm 0,0 km/h (0 Bft) W-NW 283 ° 0 min 0,000 mm 0,0 UV-I 0 W/m² 1,7 °C 3,5 °C 0,0 km/h (0 Bft)
03.02.2017 18:38 3,5 °C 3,5 °C 88 % 1008,0 hPa 0,0 mm 0,0 km/h (0 Bft) W-NW 283 ° 0 min 0,000 mm 0,0 UV-I 0 W/m² 1,7 °C 3,5 °C 0,0 km/h (0 Bft)
03.02.2017 18:39 3,5 °C 3,5 °C 88 % 1008,0 hPa 0,0 mm 0,0 km/h (0 Bft) W-NW 283 ° 0 min 0,000 mm 0,0 UV-I 0 W/m² 1,7 °C 3,5 °C 0,0 km/h (0 Bft)
03.02.2017 18:40 3,5 °C 3,5 °C 89 % 1008,0 hPa 0,0 mm 0,0 km/h (0 Bft) W-NW 283 ° 0 min 0,000 mm 0,0 UV-I 0 W/m² 1,9 °C 3,5 °C 0,0 km/h (0 Bft)
03.02.2017 18:41 3,5 °C 3,5 °C 89 % 1008,0 hPa 0,0 mm 0,0 km/h (0 Bft) W-NW 283 ° 0 min 0,000 mm 0,0 UV-I 0 W/m² 1,9 °C 3,5 °C 0,0 km/h (0 Bft)
03.02.2017 18:42 3,5 °C 3,5 °C 89 % 1008,1 hPa 0,0 mm 0,0 km/h (0 Bft) W-NW 283 ° 0 min 0,000 mm 0,0 UV-I 0 W/m² 1,9 °C 3,5 °C 0,0 km/h (0 Bft)
03.02.2017 18:43 3,6 °C 3,6 °C 90 % 1008,0 hPa 0,0 mm 0,5 km/h (0 Bft) W-NW 283 ° 0 min 0,000 mm 0,0 UV-I 0 W/m² 2,1 °C 3,6 °C 1,6 km/h (1 Bft)
03.02.2017 18:44 3,6 °C 3,6 °C 90 % 1008,1 hPa 0,0 mm 0,6 km/h (0 Bft) W-NW 283 ° 0 min 0,000 mm 0,0 UV-I 0 W/m² 2,1 °C 3,6 °C 1,6 km/h (1 Bft)
03.02.2017 18:45 3,6 °C 3,6 °C 90 % 1008,1 hPa 0,0 mm 2,4 km/h (1 Bft) W-NW 283 ° 0 min 0,000 mm 0,0 UV-I 0 W/m² 2,1 °C 3,6 °C 3,2 km/h (1 Bft)
03.02.2017 18:46 3,6 °C 3,6 °C 90 % 1008,1 hPa 0,0 mm 3,2 km/h (1 Bft) W-NW 283 ° 0 min 0,000 mm 0,0 UV-I 0 W/m² 2,1 °C 3,6 °C 3,2 km/h (1 Bft)
03.02.2017 18:47 3,7 °C 3,7 °C 90 % 1008,1 hPa 0,0 mm 2,1 km/h (1 Bft) W-NW 283 ° 0 min 0,000 mm 0,0 UV-I 0 W/m² 2,2 °C 3,7 °C 3,2 km/h (1 Bft)
03.02.2017 18:48 3,7 °C 3,7 °C 91 % 1008,1 hPa 0,0 mm 1,8 km/h (1 Bft) W-NW 283 ° 0 min 0,000 mm 0,0 UV-I 0 W/m² 2,4 °C 3,7 °C 3,2 km/h (1 Bft)
03.02.2017 18:49 3,7 °C 3,7 °C 91 % 1008,1 hPa 0,0 mm 2,0 km/h (1 Bft) W-NW 283 ° 0 min 0,000 mm 0,0 UV-I 0 W/m² 2,4 °C 3,7 °C 3,2 km/h (1 Bft)
03.02.2017 18:50 3,7 °C 3,7 °C 91 % 1008,1 hPa 0,0 mm 1,9 km/h (1 Bft) W-NW 283 ° 0 min 0,000 mm 0,0 UV-I 0 W/m² 2,4 °C 3,7 °C 3,2 km/h (1 Bft)
03.02.2017 18:51 3,8 °C 3,8 °C 90 % 1008,0 hPa 0,0 mm 1,6 km/h (1 Bft) W-NW 283 ° 0 min 0,000 mm 0,0 UV-I 0 W/m² 2,3 °C 3,8 °C 3,2 km/h (1 Bft)
03.02.2017 18:52 3,8 °C 3,8 °C 90 % 1008,1 hPa 0,0 mm 1,5 km/h (1 Bft) W-NW 283 ° 0 min 0,000 mm 0,0 UV-I 0 W/m² 2,3 °C 3,8 °C 3,2 km/h (1 Bft)
03.02.2017 18:53 3,9 °C 3,9 °C 90 % 1008,1 hPa 0,0 mm 2,9 km/h (1 Bft) W-NW 283 ° 0 min 0,000 mm 0,0 UV-I 0 W/m² 2,4 °C 3,9 °C 4,8 km/h (1 Bft)
03.02.2017 18:54 3,9 °C 3,9 °C 90 % 1008,2 hPa 0,0 mm 3,2 km/h (1 Bft) W-NW 283 ° 0 min 0,000 mm 0,0 UV-I 0 W/m² 2,4 °C 3,9 °C 3,2 km/h (1 Bft)
03.02.2017 18:55 3,9 °C 3,9 °C 90 % 1008,1 hPa 0,0 mm 2,7 km/h (1 Bft) W-NW 283 ° 0 min 0,000 mm 0,0 UV-I 0 W/m² 2,4 °C 3,9 °C 3,2 km/h (1 Bft)
03.02.2017 18:56 4,1 °C 4,1 °C 90 % 1008,1 hPa 0,0 mm 0,3 km/h (0 Bft) W-NW 283 ° 0 min 0,000 mm 0,0 UV-I 0 W/m² 2,6 °C 4,1 °C 1,6 km/h (1 Bft)
03.02.2017 18:57 4,0 °C 4,1 °C 90 % 1008,1 hPa 0,0 mm 0,3 km/h (0 Bft) W-NW 283 ° 0 min 0,000 mm 0,0 UV-I 0 W/m² 2,5 °C 4,0 °C 1,6 km/h (1 Bft)
03.02.2017 18:58 4,0 °C 4,1 °C 89 % 1008,1 hPa 0,0 mm 0,0 km/h (0 Bft) W-NW 283 ° 0 min 0,000 mm 0,0 UV-I 0 W/m² 2,4 °C 4,0 °C 0,0 km/h (0 Bft)
03.02.2017 18:59 4,0 °C 4,1 °C 89 % 1008,0 hPa 0,0 mm 0,0 km/h (0 Bft) W-NW 283 ° 0 min 0,000 mm 0,0 UV-I 0 W/m² 2,4 °C 4,0 °C 0,0 km/h (0 Bft)
03.02.2017 19:00 4,0 °C 4,0 °C 88 % 1008,1 hPa 0,0 mm 0,1 km/h (0 Bft) W-NW 283 ° 0 min 0,000 mm 0,0 UV-I 0 W/m² 2,2 °C 4,0 °C 1,6 km/h (1 Bft)
03.02.2017 19:01 4,0 °C 4,0 °C 88 % 1008,1 hPa 0,0 mm 0,3 km/h (0 Bft) W-NW 283 ° 0 min 0,000 mm 0,0 UV-I 0 W/m² 2,2 °C 4,0 °C 1,6 km/h (1 Bft)
03.02.2017 19:02 3,9 °C 4,0 °C 88 % 1008,0 hPa 0,0 mm 0,1 km/h (0 Bft) W-NW 283 ° 0 min 0,000 mm 0,0 UV-I 0 W/m² 2,1 °C 3,9 °C 1,6 km/h (1 Bft)
03.02.2017 19:03 3,9 °C 4,0 °C 88 % 1008,0 hPa 0,0 mm 0,0 km/h (0 Bft) W-NW 283 ° 0 min 0,000 mm 0,0 UV-I 0 W/m² 2,1 °C 3,9 °C 0,0 km/h (0 Bft)
03.02.2017 19:04 3,9 °C 3,9 °C 88 % 1008,1 hPa 0,0 mm 0,0 km/h (0 Bft) W-NW 283 ° 0 min 0,000 mm 0,0 UV-I 0 W/m² 2,1 °C 3,9 °C 0,0 km/h (0 Bft)
03.02.2017 19:05 3,9 °C 3,9 °C 88 % 1008,0 hPa 0,0 mm 0,0 km/h (0 Bft) W-NW 283 ° 0 min 0,000 mm 0,0 UV-I 0 W/m² 2,1 °C 3,9 °C 0,0 km/h (0 Bft)
03.02.2017 19:06 3,9 °C 3,9 °C 88 % 1008,0 hPa 0,0 mm 0,0 km/h (0 Bft) W-NW 283 ° 0 min 0,000 mm 0,0 UV-I 0 W/m² 2,1 °C 3,9 °C 0,0 km/h (0 Bft)
03.02.2017 19:07 3,9 °C 3,9 °C 88 % 1008,0 hPa 0,0 mm 0,0 km/h (0 Bft) W-NW 283 ° 0 min 0,000 mm 0,0 UV-I 0 W/m² 2,1 °C 3,9 °C 0,0 km/h (0 Bft)
03.02.2017 19:08 3,9 °C 3,9 °C 88 % 1008,0 hPa 0,0 mm 0,0 km/h (0 Bft) W-NW 283 ° 0 min 0,000 mm 0,0 UV-I 0 W/m² 2,1 °C 3,9 °C 0,0 km/h (0 Bft)
03.02.2017 19:09 3,9 °C 3,9 °C 87 % 1008,0 hPa 0,0 mm 0,0 km/h (0 Bft) W-NW 283 ° 0 min 0,000 mm 0,0 UV-I 0 W/m² 1,9 °C 3,9 °C 0,0 km/h (0 Bft)
03.02.2017 19:10 3,9 °C 3,9 °C 87 % 1008,0 hPa 0,0 mm 0,0 km/h (0 Bft) W-NW 283 ° 0 min 0,000 mm 0,0 UV-I 0 W/m² 1,9 °C 3,9 °C 0,0 km/h (0 Bft)
03.02.2017 19:11 3,9 °C 3,9 °C 87 % 1008,0 hPa 0,0 mm 0,0 km/h (0 Bft) W-NW 283 ° 0 min 0,000 mm 0,0 UV-I 0 W/m² 1,9 °C 3,9 °C 0,0 km/h (0 Bft)
03.02.2017 19:12 3,9 °C 3,9 °C 87 % 1007,9 hPa 0,0 mm 0,0 km/h (0 Bft) W-NW 283 ° 0 min 0,000 mm 0,0 UV-I 0 W/m² 1,9 °C 3,9 °C 0,0 km/h (0 Bft)
03.02.2017 19:13 3,9 °C 3,9 °C 87 % 1007,9 hPa 0,0 mm 0,7 km/h (0 Bft) W-NW 283 ° 0 min 0,000 mm 0,0 UV-I 0 W/m² 1,9 °C 3,9 °C 1,6 km/h (1 Bft)
03.02.2017 19:14 3,9 °C 3,9 °C 87 % 1007,9 hPa 0,0 mm 1,6 km/h (1 Bft) W-NW 283 ° 0 min 0,000 mm 0,0 UV-I 0 W/m² 1,9 °C 3,9 °C 1,6 km/h (1 Bft)
03.02.2017 19:15 3,9 °C 3,9 °C 88 % 1007,8 hPa 0,0 mm 1,7 km/h (1 Bft) W-NW 283 ° 0 min 0,000 mm 0,0 UV-I 0 W/m² 2,1 °C 3,9 °C 3,2 km/h (1 Bft)
03.02.2017 19:16 3,9 °C 3,9 °C 88 % 1007,8 hPa 0,0 mm 0,5 km/h (0 Bft) W-NW 283 ° 0 min 0,000 mm 0,0 UV-I 0 W/m² 2,1 °C 3,9 °C 1,6 km/h (1 Bft)
03.02.2017 19:17 3,8 °C 3,9 °C 88 % 1007,8 hPa 0,0 mm 0,4 km/h (0 Bft) W-NW 283 ° 0 min 0,000 mm 0,0 UV-I 0 W/m² 2,0 °C 3,8 °C 1,6 km/h (1 Bft)
03.02.2017 19:18 3,8 °C 3,8 °C 89 % 1007,8 hPa 0,0 mm 0,1 km/h (0 Bft) W-NW 283 ° 0 min 0,000 mm 0,0 UV-I 0 W/m² 2,2 °C 3,8 °C 1,6 km/h (1 Bft)
03.02.2017 19:19 3,8 °C 3,8 °C 89 % 1007,8 hPa 0,0 mm 0,1 km/h (0 Bft) W-NW 283 ° 0 min 0,000 mm 0,0 UV-I 0 W/m² 2,2 °C 3,8 °C 1,6 km/h (1 Bft)
03.02.2017 19:20 3,8 °C 3,8 °C 89 % 1007,8 hPa 0,0 mm 0,0 km/h (0 Bft) W-NW 283 ° 0 min 0,000 mm 0,0 UV-I 0 W/m² 2,2 °C 3,8 °C 0,0 km/h (0 Bft)
03.02.2017 19:21 3,8 °C 3,8 °C 89 % 1007,7 hPa 0,0 mm 0,0 km/h (0 Bft) W-NW 283 ° 0 min 0,000 mm 0,0 UV-I 0 W/m² 2,2 °C 3,8 °C 0,0 km/h (0 Bft)
03.02.2017 19:22 3,8 °C 3,8 °C 89 % 1007,7 hPa 0,0 mm 0,0 km/h (0 Bft) W-NW 283 ° 0 min 0,000 mm 0,0 UV-I 0 W/m² 2,2 °C 3,8 °C 0,0 km/h (0 Bft)
03.02.2017 19:23 3,8 °C 3,8 °C 89 % 1007,7 hPa 0,0 mm 0,0 km/h (0 Bft) W-NW 283 ° 0 min 0,000 mm 0,0 UV-I 0 W/m² 2,2 °C 3,8 °C 0,0 km/h (0 Bft)
03.02.2017 19:24 3,8 °C 3,8 °C 89 % 1007,7 hPa 0,0 mm 0,0 km/h (0 Bft) W-NW 283 ° 0 min 0,000 mm 0,0 UV-I 0 W/m² 2,2 °C 3,8 °C 0,0 km/h (0 Bft)
03.02.2017 19:25 3,8 °C 3,8 °C 89 % 1007,7 hPa 0,0 mm 0,0 km/h (0 Bft) W-NW 283 ° 0 min 0,000 mm 0,0 UV-I 0 W/m² 2,2 °C 3,8 °C 0,0 km/h (0 Bft)
03.02.2017 19:26 3,8 °C 3,8 °C 88 % 1007,7 hPa 0,0 mm 0,1 km/h (0 Bft) W-NW 283 ° 0 min 0,000 mm 0,0 UV-I 0 W/m² 2,0 °C 3,8 °C 1,6 km/h (1 Bft)
03.02.2017 19:27 3,7 °C 3,8 °C 88 % 1007,6 hPa 0,0 mm 0,0 km/h (0 Bft) W-NW 283 ° 0 min 0,000 mm 0,0 UV-I 0 W/m² 1,9 °C 3,7 °C 0,0 km/h (0 Bft)
03.02.2017 19:28 3,7 °C 3,7 °C 88 % 1007,7 hPa 0,0 mm 0,0 km/h (0 Bft) W-NW 283 ° 0 min 0,000 mm 0,0 UV-I 0 W/m² 1,9 °C 3,7 °C 0,0 km/h (0 Bft)
03.02.2017 19:29 3,7 °C 3,7 °C 88 % 1007,6 hPa 0,0 mm 0,0 km/h (0 Bft) W-NW 283 ° 0 min 0,000 mm 0,0 UV-I 0 W/m² 1,9 °C 3,7 °C 0,0 km/h (0 Bft)
03.02.2017 19:30 3,7 °C 3,7 °C 88 % 1007,6 hPa 0,0 mm 0,0 km/h (0 Bft) W-NW 283 ° 0 min 0,000 mm 0,0 UV-I 0 W/m² 1,9 °C 3,7 °C 0,0 km/h (0 Bft)
03.02.2017 19:31 3,7 °C 3,7 °C 88 % 1007,6 hPa 0,0 mm 0,0 km/h (0 Bft) W-NW 283 ° 0 min 0,000 mm 0,0 UV-I 0 W/m² 1,9 °C 3,7 °C 0,0 km/h (0 Bft)
03.02.2017 19:32 3,7 °C 3,7 °C 89 % 1007,5 hPa 0,0 mm 0,9 km/h (0 Bft) W-NW 283 ° 0 min 0,000 mm 0,0 UV-I 0 W/m² 2,1 °C 3,7 °C 3,2 km/h (1 Bft)
03.02.2017 19:33 3,7 °C 3,7 °C 89 % 1007,5 hPa 0,0 mm 3,0 km/h (1 Bft) W-NW 283 ° 0 min 0,000 mm 0,0 UV-I 0 W/m² 2,1 °C 3,7 °C 3,2 km/h (1 Bft)
03.02.2017 19:34 3,7 °C 3,7 °C 89 % 1007,4 hPa 0,0 mm 3,6 km/h (1 Bft) W-NW 283 ° 0 min 0,000 mm 0,0 UV-I 0 W/m² 2,1 °C 3,7 °C 4,8 km/h (1 Bft)
03.02.2017 19:35 3,6 °C 3,7 °C 89 % 1007,3 hPa 0,0 mm 4,8 km/h (1 Bft) W-NW 283 ° 0 min 0,000 mm 0,0 UV-I 0 W/m² 2,0 °C 2,6 °C 6,4 km/h (2 Bft)
03.02.2017 19:36 3,6 °C 3,6 °C 89 % 1007,2 hPa 0,0 mm 4,0 km/h (1 Bft) O 88 ° 0 min 0,000 mm 0,0 UV-I 0 W/m² 2,0 °C 3,6 °C 4,8 km/h (1 Bft)
03.02.2017 19:37 3,6 °C 3,6 °C 89 % 1007,2 hPa 0,0 mm 4,8 km/h (1 Bft) O 88 ° 0 min 0,000 mm 0,0 UV-I 0 W/m² 2,0 °C 2,6 °C 6,4 km/h (2 Bft)
03.02.2017 19:38 3,6 °C 3,6 °C 89 % 1007,1 hPa 0,0 mm 3,2 km/h (1 Bft) O 88 ° 0 min 0,000 mm 0,0 UV-I 0 W/m² 2,0 °C 3,6 °C 4,8 km/h (1 Bft)
03.02.2017 19:39 3,6 °C 3,6 °C 89 % 1007,0 hPa 0,0 mm 1,9 km/h (1 Bft) O 88 ° 0 min 0,000 mm 0,0 UV-I 0 W/m² 2,0 °C 3,6 °C 3,2 km/h (1 Bft)
03.02.2017 19:40 3,5 °C 3,6 °C 89 % 1007,0 hPa 0,0 mm 0,2 km/h (0 Bft) O 88 ° 0 min 0,000 mm 0,0 UV-I 0 W/m² 1,9 °C 3,5 °C 1,6 km/h (1 Bft)
03.02.2017 19:41 3,5 °C 3,6 °C 89 % 1007,0 hPa 0,0 mm 0,7 km/h (0 Bft) O 88 ° 0 min 0,000 mm 0,0 UV-I 0 W/m² 1,9 °C 3,5 °C 1,6 km/h (1 Bft)
03.02.2017 19:42 3,5 °C 3,6 °C 89 % 1007,1 hPa 0,0 mm 2,1 km/h (1 Bft) O-SO 121 ° 0 min 0,000 mm 0,0 UV-I 0 W/m² 1,9 °C 3,5 °C 3,2 km/h (1 Bft)
03.02.2017 19:43 3,5 °C 3,5 °C 89 % 1007,2 hPa 0,0 mm 2,2 km/h (1 Bft) O-SO 121 ° 0 min 0,000 mm 0,0 UV-I 0 W/m² 1,9 °C 3,5 °C 3,2 km/h (1 Bft)
03.02.2017 19:44 3,5 °C 3,5 °C 89 % 1007,3 hPa 0,0 mm 2,6 km/h (1 Bft) O-SO 121 ° 0 min 0,000 mm 0,0 UV-I 0 W/m² 1,9 °C 3,5 °C 3,2 km/h (1 Bft)
03.02.2017 19:45 3,4 °C 3,5 °C 88 % 1007,2 hPa 0,0 mm 2,7 km/h (1 Bft) O-SO 121 ° 0 min 0,000 mm 0,0 UV-I 0 W/m² 1,6 °C 3,4 °C 4,8 km/h (1 Bft)
03.02.2017 19:46 3,4 °C 3,5 °C 88 % 1007,3 hPa 0,0 mm 1,1 km/h (1 Bft) O-SO 121 ° 0 min 0,000 mm 0,0 UV-I 0 W/m² 1,6 °C 3,4 °C 3,2 km/h (1 Bft)
03.02.2017 19:47 3,4 °C 3,4 °C 88 % 1007,3 hPa 0,0 mm 0,3 km/h (0 Bft) O-SO 121 ° 0 min 0,000 mm 0,0 UV-I 0 W/m² 1,6 °C 3,4 °C 1,6 km/h (1 Bft)
03.02.2017 19:48 3,4 °C 3,4 °C 88 % 1007,3 hPa 0,0 mm 0,2 km/h (0 Bft) O-SO 121 ° 0 min 0,000 mm 0,0 UV-I 0 W/m² 1,6 °C 3,4 °C 1,6 km/h (1 Bft)
03.02.2017 19:49 3,4 °C 3,4 °C 88 % 1007,3 hPa 0,0 mm 0,0 km/h (0 Bft) O-SO 121 ° 0 min 0,000 mm 0,0 UV-I 0 W/m² 1,6 °C 3,4 °C 0,0 km/h (0 Bft)
03.02.2017 19:50 3,3 °C 3,4 °C 88 % 1007,3 hPa 0,0 mm 0,3 km/h (0 Bft) O-SO 121 ° 0 min 0,000 mm 0,0 UV-I 0 W/m² 1,5 °C 3,3 °C 1,6 km/h (1 Bft)
03.02.2017 19:51 3,3 °C 3,3 °C 88 % 1007,3 hPa 0,0 mm 2,0 km/h (1 Bft) O 101 ° 0 min 0,000 mm 0,0 UV-I 0 W/m² 1,5 °C 3,3 °C 3,2 km/h (1 Bft)
03.02.2017 19:52 3,3 °C 3,3 °C 88 % 1007,3 hPa 0,0 mm 1,1 km/h (1 Bft) O 101 ° 0 min 0,000 mm 0,0 UV-I 0 W/m² 1,5 °C 3,3 °C 3,2 km/h (1 Bft)
03.02.2017 19:53 3,3 °C 3,3 °C 88 % 1007,4 hPa 0,0 mm 0,5 km/h (0 Bft) O 101 ° 0 min 0,000 mm 0,0 UV-I 0 W/m² 1,5 °C 3,3 °C 1,6 km/h (1 Bft)
03.02.2017 19:54 3,3 °C 3,3 °C 88 % 1007,4 hPa 0,0 mm 0,1 km/h (0 Bft) O 101 ° 0 min 0,000 mm 0,0 UV-I 0 W/m² 1,5 °C 3,3 °C 1,6 km/h (1 Bft)
03.02.2017 19:55 3,3 °C 3,3 °C 88 % 1007,4 hPa 0,0 mm 0,0 km/h (0 Bft) O 101 ° 0 min 0,000 mm 0,0 UV-I 0 W/m² 1,5 °C 3,3 °C 0,0 km/h (0 Bft)
03.02.2017 19:56 3,3 °C 3,3 °C 88 % 1007,4 hPa 0,0 mm 0,3 km/h (0 Bft) O 101 ° 0 min 0,000 mm 0,0 UV-I 0 W/m² 1,5 °C 3,3 °C 1,6 km/h (1 Bft)
03.02.2017 19:57 3,3 °C 3,3 °C 88 % 1007,4 hPa 0,0 mm 0,0 km/h (0 Bft) O 101 ° 0 min 0,000 mm 0,0 UV-I 0 W/m² 1,5 °C 3,3 °C 0,0 km/h (0 Bft)
03.02.2017 19:58 3,2 °C 3,3 °C 88 % 1007,4 hPa 0,0 mm 0,2 km/h (0 Bft) O 101 ° 0 min 0,000 mm 0,0 UV-I 0 W/m² 1,4 °C 3,2 °C 1,6 km/h (1 Bft)
03.02.2017 19:59 3,2 °C 3,2 °C 88 % 1007,5 hPa 0,0 mm 2,4 km/h (1 Bft) O 101 ° 0 min 0,000 mm 0,0 UV-I 0 W/m² 1,4 °C 3,2 °C 3,2 km/h (1 Bft)
03.02.2017 20:00 3,2 °C 3,2 °C 88 % 1007,4 hPa 0,0 mm 1,7 km/h (1 Bft) O 101 ° 0 min 0,000 mm 0,0 UV-I 0 W/m² 1,4 °C 3,2 °C 3,2 km/h (1 Bft)
03.02.2017 20:01 3,1 °C 3,2 °C 88 % 1007,5 hPa 0,0 mm 1,7 km/h (1 Bft) O 100 ° 0 min 0,000 mm 0,0 UV-I 0 W/m² 1,3 °C 3,1 °C 3,2 km/h (1 Bft)
03.02.2017 20:02 3,1 °C 3,2 °C 88 % 1007,5 hPa 0,0 mm 1,1 km/h (1 Bft) O 101 ° 0 min 0,000 mm 0,0 UV-I 0 W/m² 1,3 °C 3,1 °C 1,6 km/h (1 Bft)
03.02.2017 20:03 3,1 °C 3,1 °C 88 % 1007,5 hPa 0,0 mm 0,3 km/h (0 Bft) O 101 ° 0 min 0,000 mm 0,0 UV-I 0 W/m² 1,3 °C 3,1 °C 1,6 km/h (1 Bft)
03.02.2017 20:04 3,0 °C 3,1 °C 87 % 1007,5 hPa 0,0 mm 0,1 km/h (0 Bft) O 101 ° 0 min 0,000 mm 0,0 UV-I 0 W/m² 1,1 °C 3,0 °C 1,6 km/h (1 Bft)
03.02.2017 20:05 3,0 °C 3,1 °C 87 % 1007,5 hPa 0,0 mm 0,0 km/h (0 Bft) O 101 ° 0 min 0,000 mm 0,0 UV-I 0 W/m² 1,1 °C 3,0 °C 0,0 km/h (0 Bft)
03.02.2017 20:06 3,0 °C 3,0 °C 87 % 1007,5 hPa 0,0 mm 1,0 km/h (0 Bft) O 101 ° 0 min 0,000 mm 0,0 UV-I 0 W/m² 1,1 °C 3,0 °C 1,6 km/h (1 Bft)
03.02.2017 20:07 2,9 °C 3,0 °C 87 % 1007,5 hPa 0,0 mm 0,1 km/h (0 Bft) O 101 ° 0 min 0,000 mm 0,0 UV-I 0 W/m² 1,0 °C 2,9 °C 1,6 km/h (1 Bft)
03.02.2017 20:08 2,9 °C 2,9 °C 88 % 1007,5 hPa 0,0 mm 0,1 km/h (0 Bft) O 101 ° 0 min 0,000 mm 0,0 UV-I 0 W/m² 1,1 °C 2,9 °C 1,6 km/h (1 Bft)
03.02.2017 20:09 2,9 °C 2,9 °C 88 % 1007,5 hPa 0,0 mm 0,4 km/h (0 Bft) O 101 ° 0 min 0,000 mm 0,0 UV-I 0 W/m² 1,1 °C 2,9 °C 1,6 km/h (1 Bft)
03.02.2017 20:10 2,8 °C 2,9 °C 88 % 1007,5 hPa 0,0 mm 0,6 km/h (0 Bft) O 101 ° 0 min 0,000 mm 0,0 UV-I 0 W/m² 1,0 °C 2,8 °C 1,6 km/h (1 Bft)
03.02.2017 20:11 2,8 °C 2,8 °C 88 % 1007,5 hPa 0,0 mm 0,3 km/h (0 Bft) O 101 ° 0 min 0,000 mm 0,0 UV-I 0 W/m² 1,0 °C 2,8 °C 1,6 km/h (1 Bft)
03.02.2017 20:12 2,8 °C 2,8 °C 89 % 1007,5 hPa 0,0 mm 1,3 km/h (1 Bft) O 101 ° 0 min 0,000 mm 0,0 UV-I 0 W/m² 1,2 °C 2,8 °C 3,2 km/h (1 Bft)
03.02.2017 20:13 2,8 °C 2,8 °C 89 % 1007,5 hPa 0,0 mm 0,1 km/h (0 Bft) O 101 ° 0 min 0,000 mm 0,0 UV-I 0 W/m² 1,2 °C 2,8 °C 1,6 km/h (1 Bft)
03.02.2017 20:14 2,7 °C 2,8 °C 89 % 1007,6 hPa 0,0 mm 0,8 km/h (0 Bft) O 101 ° 0 min 0,000 mm 0,0 UV-I 0 W/m² 1,1 °C 2,7 °C 1,6 km/h (1 Bft)
03.02.2017 20:15 2,7 °C 2,7 °C 90 % 1007,6 hPa 0,0 mm 1,2 km/h (1 Bft) O 101 ° 0 min 0,000 mm 0,0 UV-I 0 W/m² 1,2 °C 2,7 °C 3,2 km/h (1 Bft)
03.02.2017 20:16 2,7 °C 2,7 °C 90 % 1007,6 hPa 0,0 mm 1,7 km/h (1 Bft) O 101 ° 0 min 0,000 mm 0,0 UV-I 0 W/m² 1,2 °C 2,7 °C 3,2 km/h (1 Bft)
03.02.2017 20:17 2,7 °C 2,7 °C 90 % 1007,7 hPa 0,0 mm 1,5 km/h (1 Bft) O 101 ° 0 min 0,000 mm 0,0 UV-I 0 W/m² 1,2 °C 2,7 °C 1,6 km/h (1 Bft)
03.02.2017 20:18 2,7 °C 2,7 °C 90 % 1007,7 hPa 0,0 mm 1,1 km/h (1 Bft) O 101 ° 0 min 0,000 mm 0,0 UV-I 0 W/m² 1,2 °C 2,7 °C 1,6 km/h (1 Bft)
03.02.2017 20:19 2,7 °C 2,7 °C 91 % 1007,7 hPa 0,0 mm 1,3 km/h (1 Bft) O 101 ° 0 min 0,000 mm 0,0 UV-I 0 W/m² 1,4 °C 2,7 °C 1,6 km/h (1 Bft)
03.02.2017 20:20 2,7 °C 2,7 °C 90 % 1007,7 hPa 0,0 mm 1,0 km/h (0 Bft) O 101 ° 0 min 0,000 mm 0,0 UV-I 0 W/m² 1,2 °C 2,7 °C 1,6 km/h (1 Bft)
03.02.2017 20:21 2,6 °C 2,7 °C 90 % 1007,8 hPa 0,0 mm 0,5 km/h (0 Bft) O 101 ° 0 min 0,000 mm 0,0 UV-I 0 W/m² 1,1 °C 2,6 °C 1,6 km/h (1 Bft)
03.02.2017 20:22 2,6 °C 2,7 °C 91 % 1007,7 hPa 0,0 mm 0,0 km/h (0 Bft) O 101 ° 0 min 0,000 mm 0,0 UV-I 0 W/m² 1,3 °C 2,6 °C 0,0 km/h (0 Bft)
03.02.2017 20:23 2,6 °C 2,6 °C 91 % 1007,8 hPa 0,0 mm 0,0 km/h (0 Bft) O 101 ° 0 min 0,000 mm 0,0 UV-I 0 W/m² 1,3 °C 2,6 °C 0,0 km/h (0 Bft)
03.02.2017 20:24 2,6 °C 2,6 °C 91 % 1007,8 hPa 0,0 mm 0,0 km/h (0 Bft) O 101 ° 0 min 0,000 mm 0,0 UV-I 0 W/m² 1,3 °C 2,6 °C 0,0 km/h (0 Bft)
03.02.2017 20:25 2,6 °C 2,6 °C 91 % 1007,8 hPa 0,0 mm 0,0 km/h (0 Bft) O 101 ° 0 min 0,000 mm 0,0 UV-I 0 W/m² 1,3 °C 2,6 °C 0,0 km/h (0 Bft)
03.02.2017 20:26 2,6 °C 2,6 °C 91 % 1007,8 hPa 0,0 mm 0,0 km/h (0 Bft) O 101 ° 0 min 0,000 mm 0,0 UV-I 0 W/m² 1,3 °C 2,6 °C 0,0 km/h (0 Bft)
03.02.2017 20:27 2,6 °C 2,6 °C 91 % 1007,8 hPa 0,0 mm 0,3 km/h (0 Bft) O 101 ° 0 min 0,000 mm 0,0 UV-I 0 W/m² 1,3 °C 2,6 °C 1,6 km/h (1 Bft)
03.02.2017 20:28 2,6 °C 2,6 °C 91 % 1007,8 hPa 0,0 mm 1,7 km/h (1 Bft) O 101 ° 0 min 0,000 mm 0,0 UV-I 0 W/m² 1,3 °C 2,6 °C 3,2 km/h (1 Bft)
03.02.2017 20:29 2,6 °C 2,6 °C 91 % 1007,9 hPa 0,0 mm 1,5 km/h (1 Bft) O 101 ° 0 min 0,000 mm 0,0 UV-I 0 W/m² 1,3 °C 2,6 °C 1,6 km/h (1 Bft)
03.02.2017 20:30 2,6 °C 2,6 °C 91 % 1007,9 hPa 0,0 mm 0,7 km/h (0 Bft) O 101 ° 0 min 0,000 mm 0,0 UV-I 0 W/m² 1,3 °C 2,6 °C 1,6 km/h (1 Bft)
03.02.2017 20:31 2,6 °C 2,6 °C 91 % 1007,9 hPa 0,0 mm 1,5 km/h (1 Bft) O 101 ° 0 min 0,000 mm 0,0 UV-I 0 W/m² 1,3 °C 2,6 °C 3,2 km/h (1 Bft)
03.02.2017 20:32 2,6 °C 2,6 °C 91 % 1007,9 hPa 0,0 mm 1,6 km/h (1 Bft) O 101 ° 0 min 0,000 mm 0,0 UV-I 0 W/m² 1,3 °C 2,6 °C 3,2 km/h (1 Bft)
03.02.2017 20:33 2,5 °C 2,6 °C 91 % 1007,9 hPa 0,0 mm 2,9 km/h (1 Bft) O 101 ° 0 min 0,000 mm 0,0 UV-I 0 W/m² 1,2 °C 2,5 °C 3,2 km/h (1 Bft)
03.02.2017 20:34 2,5 °C 2,5 °C 91 % 1007,9 hPa 0,0 mm 2,2 km/h (1 Bft) O 101 ° 0 min 0,000 mm 0,0 UV-I 0 W/m² 1,2 °C 2,5 °C 3,2 km/h (1 Bft)
03.02.2017 20:35 2,5 °C 2,5 °C 91 % 1007,9 hPa 0,0 mm 1,4 km/h (1 Bft) O 101 ° 0 min 0,000 mm 0,0 UV-I 0 W/m² 1,2 °C 2,5 °C 3,2 km/h (1 Bft)
03.02.2017 20:36 2,5 °C 2,5 °C 91 % 1007,9 hPa 0,0 mm 0,9 km/h (0 Bft) O 101 ° 0 min 0,000 mm 0,0 UV-I 0 W/m² 1,2 °C 2,5 °C 1,6 km/h (1 Bft)
03.02.2017 20:37 2,5 °C 2,6 °C 91 % 1007,9 hPa 0,0 mm 1,7 km/h (1 Bft) O 101 ° 0 min 0,000 mm 0,0 UV-I 0 W/m² 1,2 °C 2,5 °C 3,2 km/h (1 Bft)
03.02.2017 20:38 2,5 °C 2,6 °C 91 % 1007,8 hPa 0,0 mm 2,0 km/h (1 Bft) O 101 ° 0 min 0,000 mm 0,0 UV-I 0 W/m² 1,2 °C 2,5 °C 3,2 km/h (1 Bft)
03.02.2017 20:39 2,5 °C 2,5 °C 91 % 1007,8 hPa 0,0 mm 2,5 km/h (1 Bft) O 101 ° 0 min 0,000 mm 0,0 UV-I 0 W/m² 1,2 °C 2,5 °C 3,2 km/h (1 Bft)
03.02.2017 20:40 2,5 °C 2,6 °C 92 % 1007,8 hPa 0,0 mm 2,2 km/h (1 Bft) O 101 ° 0 min 0,000 mm 0,0 UV-I 0 W/m² 1,3 °C 2,5 °C 3,2 km/h (1 Bft)
03.02.2017 20:41 2,5 °C 2,5 °C 92 % 1007,7 hPa 0,0 mm 2,0 km/h (1 Bft) O 101 ° 0 min 0,000 mm 0,0 UV-I 0 W/m² 1,3 °C 2,5 °C 3,2 km/h (1 Bft)
03.02.2017 20:42 2,5 °C 2,6 °C 92 % 1007,7 hPa 0,0 mm 1,4 km/h (1 Bft) O 101 ° 0 min 0,000 mm 0,0 UV-I 0 W/m² 1,3 °C 2,5 °C 3,2 km/h (1 Bft)
03.02.2017 20:43 2,5 °C 2,6 °C 92 % 1007,8 hPa 0,0 mm 2,2 km/h (1 Bft) O 101 ° 0 min 0,000 mm 0,0 UV-I 0 W/m² 1,3 °C 2,5 °C 3,2 km/h (1 Bft)
03.02.2017 20:44 2,6 °C 2,6 °C 92 % 1007,8 hPa 0,0 mm 1,8 km/h (1 Bft) O 101 ° 0 min 0,000 mm 0,0 UV-I 0 W/m² 1,4 °C 2,6 °C 3,2 km/h (1 Bft)
03.02.2017 20:45 2,6 °C 2,6 °C 92 % 1007,8 hPa 0,0 mm 2,6 km/h (1 Bft) O-SO 114 ° 0 min 0,000 mm 0,0 UV-I 0 W/m² 1,4 °C 2,6 °C 4,8 km/h (1 Bft)
03.02.2017 20:46 2,5 °C 2,6 °C 91 % 1007,8 hPa 0,0 mm 2,6 km/h (1 Bft) S-SO 151 ° 0 min 0,000 mm 0,0 UV-I 0 W/m² 1,2 °C 2,5 °C 4,8 km/h (1 Bft)
03.02.2017 20:47 2,5 °C 2,5 °C 91 % 1007,8 hPa 0,0 mm 4,3 km/h (1 Bft) S-SO 151 ° 0 min 0,000 mm 0,0 UV-I 0 W/m² 1,2 °C 2,5 °C 4,8 km/h (1 Bft)
03.02.2017 20:48 2,5 °C 2,5 °C 91 % 1007,9 hPa 0,0 mm 4,3 km/h (1 Bft) S 179 ° 0 min 0,000 mm 0,0 UV-I 0 W/m² 1,2 °C 2,5 °C 4,8 km/h (1 Bft)
03.02.2017 20:49 2,4 °C 2,5 °C 91 % 1007,9 hPa 0,0 mm 5,8 km/h (2 Bft) S 184 ° 0 min 0,000 mm 0,0 UV-I 0 W/m² 1,1 °C 0,8 °C 8,0 km/h (2 Bft)
03.02.2017 20:50 2,5 °C 2,5 °C 91 % 1007,9 hPa 0,0 mm 5,2 km/h (1 Bft) S 180 ° 0 min 0,000 mm 0,0 UV-I 0 W/m² 1,2 °C 1,2 °C 6,4 km/h (2 Bft)
03.02.2017 20:51 2,5 °C 2,5 °C 91 % 1007,9 hPa 0,0 mm 4,8 km/h (1 Bft) S 180 ° 0 min 0,000 mm 0,0 UV-I 0 W/m² 1,2 °C 1,3 °C 6,4 km/h (2 Bft)
03.02.2017 20:52 2,4 °C 2,5 °C 91 % 1007,9 hPa 0,0 mm 2,8 km/h (1 Bft) S 180 ° 0 min 0,000 mm 0,0 UV-I 0 W/m² 1,1 °C 2,4 °C 3,2 km/h (1 Bft)
03.02.2017 20:53 2,4 °C 2,4 °C 91 % 1008,0 hPa 0,0 mm 3,1 km/h (1 Bft) S 180 ° 0 min 0,000 mm 0,0 UV-I 0 W/m² 1,1 °C 2,4 °C 3,2 km/h (1 Bft)
03.02.2017 20:54 2,4 °C 2,4 °C 91 % 1008,0 hPa 0,0 mm 3,9 km/h (1 Bft) S 180 ° 0 min 0,000 mm 0,0 UV-I 0 W/m² 1,1 °C 2,4 °C 4,8 km/h (1 Bft)
03.02.2017 20:55 2,4 °C 2,4 °C 91 % 1008,0 hPa 0,0 mm 3,5 km/h (1 Bft) S 180 ° 0 min 0,000 mm 0,0 UV-I 0 W/m² 1,1 °C 2,4 °C 4,8 km/h (1 Bft)
03.02.2017 20:56 2,4 °C 2,4 °C 91 % 1008,0 hPa 0,0 mm 2,8 km/h (1 Bft) S 180 ° 0 min 0,000 mm 0,0 UV-I 0 W/m² 1,1 °C 2,4 °C 4,8 km/h (1 Bft)
03.02.2017 20:57 2,4 °C 2,4 °C 91 % 1008,0 hPa 0,0 mm 1,5 km/h (1 Bft) S 175 ° 0 min 0,000 mm 0,0 UV-I 0 W/m² 1,1 °C 2,4 °C 3,2 km/h (1 Bft)
03.02.2017 20:58 2,4 °C 2,4 °C 91 % 1008,0 hPa 0,0 mm 0,3 km/h (0 Bft) S 175 ° 0 min 0,000 mm 0,0 UV-I 0 W/m² 1,1 °C 2,4 °C 1,6 km/h (1 Bft)
03.02.2017 20:59 2,4 °C 2,4 °C 91 % 1008,0 hPa 0,0 mm 0,1 km/h (0 Bft) S 175 ° 0 min 0,000 mm 0,0 UV-I 0 W/m² 1,1 °C 2,4 °C 1,6 km/h (1 Bft)
03.02.2017 21:00 2,4 °C 2,4 °C 91 % 1008,0 hPa 0,0 mm 0,0 km/h (0 Bft) S 175 ° 0 min 0,000 mm 0,0 UV-I 0 W/m² 1,1 °C 2,4 °C 0,0 km/h (0 Bft)
03.02.2017 21:01 2,4 °C 2,4 °C 91 % 1008,0 hPa 0,0 mm 0,1 km/h (0 Bft) S 175 ° 0 min 0,000 mm 0,0 UV-I 0 W/m² 1,1 °C 2,4 °C 1,6 km/h (1 Bft)
03.02.2017 21:02 2,4 °C 2,4 °C 90 % 1008,0 hPa 0,0 mm 0,0 km/h (0 Bft) S 175 ° 0 min 0,000 mm 0,0 UV-I 0 W/m² 0,9 °C 2,4 °C 0,0 km/h (0 Bft)
03.02.2017 21:03 2,3 °C 2,4 °C 90 % 1008,0 hPa 0,0 mm 0,0 km/h (0 Bft) S 175 ° 0 min 0,000 mm 0,0 UV-I 0 W/m² 0,8 °C 2,3 °C 0,0 km/h (0 Bft)
03.02.2017 21:04 2,3 °C 2,3 °C 90 % 1008,0 hPa 0,0 mm 0,3 km/h (0 Bft) S 175 ° 0 min 0,000 mm 0,0 UV-I 0 W/m² 0,8 °C 2,3 °C 1,6 km/h (1 Bft)
03.02.2017 21:05 2,3 °C 2,3 °C 90 % 1008,0 hPa 0,0 mm 0,1 km/h (0 Bft) S 175 ° 0 min 0,000 mm 0,0 UV-I 0 W/m² 0,8 °C 2,3 °C 1,6 km/h (1 Bft)
03.02.2017 21:06 2,3 °C 2,3 °C 90 % 1008,0 hPa 0,0 mm 0,0 km/h (0 Bft) S 175 ° 0 min 0,000 mm 0,0 UV-I 0 W/m² 0,8 °C 2,3 °C 0,0 km/h (0 Bft)
03.02.2017 21:07 2,3 °C 2,3 °C 89 % 1008,0 hPa 0,0 mm 0,0 km/h (0 Bft) S 175 ° 0 min 0,000 mm 0,0 UV-I 0 W/m² 0,7 °C 2,3 °C 0,0 km/h (0 Bft)
03.02.2017 21:08 2,2 °C 2,3 °C 89 % 1008,0 hPa 0,0 mm 0,0 km/h (0 Bft) S 175 ° 0 min 0,000 mm 0,0 UV-I 0 W/m² 0,6 °C 2,2 °C 0,0 km/h (0 Bft)
03.02.2017 21:09 2,2 °C 2,2 °C 89 % 1008,0 hPa 0,0 mm 0,1 km/h (0 Bft) S 175 ° 0 min 0,000 mm 0,0 UV-I 0 W/m² 0,6 °C 2,2 °C 1,6 km/h (1 Bft)
03.02.2017 21:10 2,2 °C 2,2 °C 89 % 1008,0 hPa 0,0 mm 0,4 km/h (0 Bft) S 175 ° 0 min 0,000 mm 0,0 UV-I 0 W/m² 0,6 °C 2,2 °C 1,6 km/h (1 Bft)
03.02.2017 21:11 2,2 °C 2,2 °C 89 % 1008,1 hPa 0,0 mm 0,4 km/h (0 Bft) S 175 ° 0 min 0,000 mm 0,0 UV-I 0 W/m² 0,6 °C 2,2 °C 1,6 km/h (1 Bft)
03.02.2017 21:12 2,1 °C 2,2 °C 90 % 1008,1 hPa 0,0 mm 0,0 km/h (0 Bft) S 175 ° 0 min 0,000 mm 0,0 UV-I 0 W/m² 0,6 °C 2,1 °C 0,0 km/h (0 Bft)
03.02.2017 21:13 2,1 °C 2,1 °C 90 % 1008,1 hPa 0,0 mm 0,0 km/h (0 Bft) S 175 ° 0 min 0,000 mm 0,0 UV-I 0 W/m² 0,6 °C 2,1 °C 0,0 km/h (0 Bft)
03.02.2017 21:14 2,1 °C 2,1 °C 90 % 1008,1 hPa 0,0 mm 0,8 km/h (0 Bft) S 175 ° 0 min 0,000 mm 0,0 UV-I 0 W/m² 0,6 °C 2,1 °C 1,6 km/h (1 Bft)
03.02.2017 21:15 2,1 °C 2,1 °C 90 % 1008,1 hPa 0,0 mm 1,3 km/h (1 Bft) S 175 ° 0 min 0,000 mm 0,0 UV-I 0 W/m² 0,6 °C 2,1 °C 1,6 km/h (1 Bft)
03.02.2017 21:16 2,1 °C 2,1 °C 91 % 1008,1 hPa 0,0 mm 1,9 km/h (1 Bft) S 175 ° 0 min 0,000 mm 0,0 UV-I 0 W/m² 0,8 °C 2,1 °C 3,2 km/h (1 Bft)
03.02.2017 21:17 2,1 °C 2,1 °C 91 % 1008,1 hPa 0,0 mm 3,2 km/h (1 Bft) S 175 ° 0 min 0,000 mm 0,0 UV-I 0 W/m² 0,8 °C 2,1 °C 4,8 km/h (1 Bft)
03.02.2017 21:18 2,1 °C 2,1 °C 91 % 1008,1 hPa 0,0 mm 2,1 km/h (1 Bft) S 175 ° 0 min 0,000 mm 0,0 UV-I 0 W/m² 0,8 °C 2,1 °C 3,2 km/h (1 Bft)
03.02.2017 21:19 2,1 °C 2,1 °C 91 % 1008,1 hPa 0,0 mm 1,6 km/h (1 Bft) S 175 ° 0 min 0,000 mm 0,0 UV-I 0 W/m² 0,8 °C 2,1 °C 1,6 km/h (1 Bft)
03.02.2017 21:20 2,1 °C 2,1 °C 91 % 1008,1 hPa 0,0 mm 1,9 km/h (1 Bft) S 175 ° 0 min 0,000 mm 0,0 UV-I 0 W/m² 0,8 °C 2,1 °C 3,2 km/h (1 Bft)
03.02.2017 21:21 2,1 °C 2,1 °C 92 % 1008,2 hPa 0,0 mm 2,7 km/h (1 Bft) S 175 ° 0 min 0,000 mm 0,0 UV-I 0 W/m² 0,9 °C 2,1 °C 4,8 km/h (1 Bft)
03.02.2017 21:22 2,1 °C 2,1 °C 92 % 1008,1 hPa 0,0 mm 1,6 km/h (1 Bft) S 175 ° 0 min 0,000 mm 0,0 UV-I 0 W/m² 0,9 °C 2,1 °C 3,2 km/h (1 Bft)
03.02.2017 21:23 2,1 °C 2,1 °C 92 % 1008,0 hPa 0,0 mm 2,2 km/h (1 Bft) S 175 ° 0 min 0,000 mm 0,0 UV-I 0 W/m² 0,9 °C 2,1 °C 4,8 km/h (1 Bft)
03.02.2017 21:24 2,1 °C 2,1 °C 92 % 1008,1 hPa 0,0 mm 1,3 km/h (1 Bft) S 175 ° 0 min 0,000 mm 0,0 UV-I 0 W/m² 0,9 °C 2,1 °C 3,2 km/h (1 Bft)
03.02.2017 21:25 2,1 °C 2,1 °C 92 % 1008,1 hPa 0,0 mm 0,8 km/h (0 Bft) S 175 ° 0 min 0,000 mm 0,0 UV-I 0 W/m² 0,9 °C 2,1 °C 1,6 km/h (1 Bft)
03.02.2017 21:26 2,1 °C 2,1 °C 92 % 1008,1 hPa 0,0 mm 0,8 km/h (0 Bft) S 175 ° 0 min 0,000 mm 0,0 UV-I 0 W/m² 0,9 °C 2,1 °C 1,6 km/h (1 Bft)
03.02.2017 21:27 2,1 °C 2,1 °C 92 % 1008,1 hPa 0,0 mm 1,1 km/h (1 Bft) S 175 ° 0 min 0,000 mm 0,0 UV-I 0 W/m² 0,9 °C 2,1 °C 1,6 km/h (1 Bft)
03.02.2017 21:28 2,1 °C 2,1 °C 92 % 1008,0 hPa 0,0 mm 1,4 km/h (1 Bft) S 175 ° 0 min 0,000 mm 0,0 UV-I 0 W/m² 0,9 °C 2,1 °C 1,6 km/h (1 Bft)
03.02.2017 21:29 2,1 °C 2,1 °C 92 % 1008,0 hPa 0,0 mm 1,7 km/h (1 Bft) S 175 ° 0 min 0,000 mm 0,0 UV-I 0 W/m² 0,9 °C 2,1 °C 3,2 km/h (1 Bft)
03.02.2017 21:30 2,1 °C 2,1 °C 92 % 1008,0 hPa 0,0 mm 2,9 km/h (1 Bft) S 175 ° 0 min 0,000 mm 0,0 UV-I 0 W/m² 0,9 °C 2,1 °C 3,2 km/h (1 Bft)
03.02.2017 21:31 2,1 °C 2,1 °C 92 % 1008,0 hPa 0,0 mm 2,7 km/h (1 Bft) S 175 ° 0 min 0,000 mm 0,0 UV-I 0 W/m² 0,9 °C 2,1 °C 3,2 km/h (1 Bft)
03.02.2017 21:32 2,1 °C 2,1 °C 92 % 1008,0 hPa 0,0 mm 2,9 km/h (1 Bft) S 175 ° 0 min 0,000 mm 0,0 UV-I 0 W/m² 0,9 °C 2,1 °C 4,8 km/h (1 Bft)
03.02.2017 21:33 2,1 °C 2,1 °C 92 % 1008,0 hPa 0,0 mm 2,3 km/h (1 Bft) S 175 ° 0 min 0,000 mm 0,0 UV-I 0 W/m² 0,9 °C 2,1 °C 3,2 km/h (1 Bft)
03.02.2017 21:34 2,1 °C 2,1 °C 92 % 1008,1 hPa 0,0 mm 0,7 km/h (0 Bft) S 175 ° 0 min 0,000 mm 0,0 UV-I 0 W/m² 0,9 °C 2,1 °C 1,6 km/h (1 Bft)
03.02.2017 21:35 2,1 °C 2,1 °C 92 % 1008,1 hPa 0,0 mm 0,2 km/h (0 Bft) S 175 ° 0 min 0,000 mm 0,0 UV-I 0 W/m² 0,9 °C 2,1 °C 1,6 km/h (1 Bft)
03.02.2017 21:36 2,1 °C 2,1 °C 92 % 1008,1 hPa 0,0 mm 0,6 km/h (0 Bft) S 175 ° 0 min 0,000 mm 0,0 UV-I 0 W/m² 0,9 °C 2,1 °C 1,6 km/h (1 Bft)
03.02.2017 21:37 2,1 °C 2,1 °C 92 % 1008,1 hPa 0,0 mm 0,7 km/h (0 Bft) S 175 ° 0 min 0,000 mm 0,0 UV-I 0 W/m² 0,9 °C 2,1 °C 3,2 km/h (1 Bft)
03.02.2017 21:38 2,1 °C 2,1 °C 92 % 1008,1 hPa 0,0 mm 0,6 km/h (0 Bft) S 175 ° 0 min 0,000 mm 0,0 UV-I 0 W/m² 0,9 °C 2,1 °C 1,6 km/h (1 Bft)
03.02.2017 21:39 2,1 °C 2,1 °C 92 % 1008,2 hPa 0,0 mm 0,1 km/h (0 Bft) S 175 ° 0 min 0,000 mm 0,0 UV-I 0 W/m² 0,9 °C 2,1 °C 1,6 km/h (1 Bft)
03.02.2017 21:40 2,2 °C 2,2 °C 92 % 1008,1 hPa 0,0 mm 0,1 km/h (0 Bft) S 175 ° 0 min 0,000 mm 0,0 UV-I 0 W/m² 1,0 °C 2,2 °C 1,6 km/h (1 Bft)
03.02.2017 21:41 2,1 °C 2,2 °C 92 % 1008,1 hPa 0,0 mm 0,0 km/h (0 Bft) S 175 ° 0 min 0,000 mm 0,0 UV-I 0 W/m² 0,9 °C 2,1 °C 0,0 km/h (0 Bft)
03.02.2017 21:42 2,1 °C 2,1 °C 92 % 1008,1 hPa 0,0 mm 0,0 km/h (0 Bft) S 175 ° 0 min 0,000 mm 0,0 UV-I 0 W/m² 0,9 °C 2,1 °C 0,0 km/h (0 Bft)
03.02.2017 21:43 2,1 °C 2,1 °C 92 % 1008,1 hPa 0,0 mm 0,3 km/h (0 Bft) S 175 ° 0 min 0,000 mm 0,0 UV-I 0 W/m² 0,9 °C 2,1 °C 1,6 km/h (1 Bft)
03.02.2017 21:44 2,1 °C 2,1 °C 92 % 1008,2 hPa 0,0 mm 0,0 km/h (0 Bft) S 175 ° 0 min 0,000 mm 0,0 UV-I 0 W/m² 0,9 °C 2,1 °C 0,0 km/h (0 Bft)
03.02.2017 21:45 2,1 °C 2,1 °C 92 % 1008,2 hPa 0,0 mm 0,0 km/h (0 Bft) S 175 ° 0 min 0,000 mm 0,0 UV-I 0 W/m² 0,9 °C 2,1 °C 0,0 km/h (0 Bft)
03.02.2017 21:46 2,1 °C 2,1 °C 92 % 1008,1 hPa 0,0 mm 0,0 km/h (0 Bft) S 175 ° 0 min 0,000 mm 0,0 UV-I 0 W/m² 0,9 °C 2,1 °C 0,0 km/h (0 Bft)
03.02.2017 21:47 2,1 °C 2,1 °C 92 % 1008,2 hPa 0,0 mm 0,5 km/h (0 Bft) S 175 ° 0 min 0,000 mm 0,0 UV-I 0 W/m² 0,9 °C 2,1 °C 1,6 km/h (1 Bft)
03.02.2017 21:48 2,1 °C 2,1 °C 92 % 1008,1 hPa 0,0 mm 0,6 km/h (0 Bft) S 175 ° 0 min 0,000 mm 0,0 UV-I 0 W/m² 0,9 °C 2,1 °C 1,6 km/h (1 Bft)
03.02.2017 21:49 2,1 °C 2,1 °C 92 % 1008,1 hPa 0,0 mm 0,7 km/h (0 Bft) S 175 ° 0 min 0,000 mm 0,0 UV-I 0 W/m² 0,9 °C 2,1 °C 1,6 km/h (1 Bft)
03.02.2017 21:50 2,0 °C 2,1 °C 92 % 1008,1 hPa 0,0 mm 1,4 km/h (1 Bft) S 175 ° 0 min 0,000 mm 0,0 UV-I 0 W/m² 0,8 °C 2,0 °C 1,6 km/h (1 Bft)
03.02.2017 21:51 2,1 °C 2,1 °C 92 % 1008,1 hPa 0,0 mm 0,4 km/h (0 Bft) S 175 ° 0 min 0,000 mm 0,0 UV-I 0 W/m² 0,9 °C 2,1 °C 1,6 km/h (1 Bft)
03.02.2017 21:52 2,0 °C 2,1 °C 92 % 1008,1 hPa 0,0 mm 0,2 km/h (0 Bft) S 175 ° 0 min 0,000 mm 0,0 UV-I 0 W/m² 0,8 °C 2,0 °C 1,6 km/h (1 Bft)
03.02.2017 21:53 2,1 °C 2,1 °C 92 % 1008,1 hPa 0,0 mm 0,1 km/h (0 Bft) S 175 ° 0 min 0,000 mm 0,0 UV-I 0 W/m² 0,9 °C 2,1 °C 1,6 km/h (1 Bft)
03.02.2017 21:54 2,0 °C 2,1 °C 92 % 1008,1 hPa 0,0 mm 0,4 km/h (0 Bft) S 175 ° 0 min 0,000 mm 0,0 UV-I 0 W/m² 0,8 °C 2,0 °C 1,6 km/h (1 Bft)
03.02.2017 21:55 2,0 °C 2,1 °C 92 % 1008,1 hPa 0,0 mm 2,7 km/h (1 Bft) W-SW 254 ° 0 min 0,000 mm 0,0 UV-I 0 W/m² 0,8 °C 2,0 °C 4,8 km/h (1 Bft)
03.02.2017 21:56 2,0 °C 2,1 °C 92 % 1008,1 hPa 0,0 mm 1,0 km/h (0 Bft) W-SW 254 ° 0 min 0,000 mm 0,0 UV-I 0 W/m² 0,8 °C 2,0 °C 1,6 km/h (1 Bft)
03.02.2017 21:57 2,0 °C 2,0 °C 92 % 1008,1 hPa 0,0 mm 1,0 km/h (0 Bft) W-SW 254 ° 0 min 0,000 mm 0,0 UV-I 0 W/m² 0,8 °C 2,0 °C 1,6 km/h (1 Bft)
03.02.2017 21:58 1,9 °C 2,0 °C 92 % 1008,1 hPa 0,0 mm 0,9 km/h (0 Bft) W-SW 254 ° 0 min 0,000 mm 0,0 UV-I 0 W/m² 0,7 °C 1,9 °C 1,6 km/h (1 Bft)
03.02.2017 21:59 1,9 °C 1,9 °C 92 % 1008,1 hPa 0,0 mm 2,7 km/h (1 Bft) S-SW 202 ° 0 min 0,000 mm 0,0 UV-I 0 W/m² 0,7 °C 1,9 °C 6,4 km/h (2 Bft)
03.02.2017 22:00 1,9 °C 1,9 °C 92 % 1008,2 hPa 0,0 mm 6,5 km/h (2 Bft) S-SW 197 ° 0 min 0,000 mm 0,0 UV-I 0 W/m² 0,7 °C -0,0 °C 8,0 km/h (2 Bft)
03.02.2017 22:01 1,9 °C 2,0 °C 92 % 1008,1 hPa 0,0 mm 7,2 km/h (2 Bft) SW 217 ° 0 min 0,000 mm 0,0 UV-I 0 W/m² 0,7 °C -0,3 °C 11,3 km/h (2 Bft)
03.02.2017 22:02 2,0 °C 2,0 °C 92 % 1008,2 hPa 0,0 mm 8,6 km/h (2 Bft) S-SW 205 ° 0 min 0,000 mm 0,0 UV-I 0 W/m² 0,8 °C -0,6 °C 11,3 km/h (2 Bft)
03.02.2017 22:03 2,0 °C 2,0 °C 92 % 1008,2 hPa 0,0 mm 8,0 km/h (2 Bft) S-SW 201 ° 0 min 0,000 mm 0,0 UV-I 0 W/m² 0,8 °C -0,4 °C 9,7 km/h (2 Bft)
03.02.2017 22:04 2,1 °C 2,1 °C 92 % 1008,2 hPa 0,0 mm 5,8 km/h (2 Bft) S-SW 205 ° 0 min 0,000 mm 0,0 UV-I 0 W/m² 0,9 °C 0,5 °C 8,0 km/h (2 Bft)
03.02.2017 22:05 2,1 °C 2,1 °C 92 % 1008,2 hPa 0,0 mm 3,2 km/h (1 Bft) S-SW 205 ° 0 min 0,000 mm 0,0 UV-I 0 W/m² 0,9 °C 2,1 °C 4,8 km/h (1 Bft)
03.02.2017 22:06 2,1 °C 2,1 °C 92 % 1008,2 hPa 0,0 mm 2,1 km/h (1 Bft) S-SW 205 ° 0 min 0,000 mm 0,0 UV-I 0 W/m² 0,9 °C 2,1 °C 3,2 km/h (1 Bft)
03.02.2017 22:07 2,1 °C 2,1 °C 92 % 1008,2 hPa 0,0 mm 3,1 km/h (1 Bft) SW 228 ° 0 min 0,000 mm 0,0 UV-I 0 W/m² 0,9 °C 2,1 °C 4,8 km/h (1 Bft)
03.02.2017 22:08 2,1 °C 2,1 °C 92 % 1008,1 hPa 0,0 mm 4,3 km/h (1 Bft) S-SW 208 ° 0 min 0,000 mm 0,0 UV-I 0 W/m² 0,9 °C 2,1 °C 6,4 km/h (2 Bft)
03.02.2017 22:09 2,1 °C 2,1 °C 91 % 1008,2 hPa 0,0 mm 4,1 km/h (1 Bft) S-SW 208 ° 0 min 0,000 mm 0,0 UV-I 0 W/m² 0,8 °C 2,1 °C 4,8 km/h (1 Bft)
03.02.2017 22:10 2,1 °C 2,1 °C 91 % 1008,2 hPa 0,0 mm 3,2 km/h (1 Bft) S-SW 208 ° 0 min 0,000 mm 0,0 UV-I 0 W/m² 0,8 °C 2,1 °C 4,8 km/h (1 Bft)
03.02.2017 22:11 2,1 °C 2,1 °C 91 % 1008,2 hPa 0,0 mm 3,6 km/h (1 Bft) S-SW 208 ° 0 min 0,000 mm 0,0 UV-I 0 W/m² 0,8 °C 2,1 °C 4,8 km/h (1 Bft)
03.02.2017 22:12 2,1 °C 2,1 °C 91 % 1008,2 hPa 0,0 mm 3,9 km/h (1 Bft) S-SW 208 ° 0 min 0,000 mm 0,0 UV-I 0 W/m² 0,8 °C 2,1 °C 4,8 km/h (1 Bft)
03.02.2017 22:13 2,1 °C 2,1 °C 91 % 1008,2 hPa 0,0 mm 2,7 km/h (1 Bft) S-SW 208 ° 0 min 0,000 mm 0,0 UV-I 0 W/m² 0,8 °C 2,1 °C 3,2 km/h (1 Bft)
03.02.2017 22:14 2,0 °C 2,1 °C 91 % 1008,3 hPa 0,0 mm 2,8 km/h (1 Bft) S-SW 208 ° 0 min 0,000 mm 0,0 UV-I 0 W/m² 0,7 °C 2,0 °C 4,8 km/h (1 Bft)
03.02.2017 22:15 2,0 °C 2,0 °C 91 % 1008,3 hPa 0,0 mm 3,1 km/h (1 Bft) S-SW 208 ° 0 min 0,000 mm 0,0 UV-I 0 W/m² 0,7 °C 2,0 °C 4,8 km/h (1 Bft)
03.02.2017 22:16 2,0 °C 2,0 °C 91 % 1008,3 hPa 0,0 mm 2,6 km/h (1 Bft) S-SW 208 ° 0 min 0,000 mm 0,0 UV-I 0 W/m² 0,7 °C 2,0 °C 3,2 km/h (1 Bft)
03.02.2017 22:17 1,9 °C 2,0 °C 91 % 1008,3 hPa 0,0 mm 2,3 km/h (1 Bft) S-SW 208 ° 0 min 0,000 mm 0,0 UV-I 0 W/m² 0,6 °C 1,9 °C 3,2 km/h (1 Bft)
03.02.2017 22:18 1,9 °C 2,0 °C 91 % 1008,3 hPa 0,0 mm 2,7 km/h (1 Bft) S-SW 208 ° 0 min 0,000 mm 0,0 UV-I 0 W/m² 0,6 °C 1,9 °C 3,2 km/h (1 Bft)
03.02.2017 22:19 1,9 °C 1,9 °C 91 % 1008,3 hPa 0,0 mm 3,2 km/h (1 Bft) S-SW 208 ° 0 min 0,000 mm 0,0 UV-I 0 W/m² 0,6 °C 1,9 °C 4,8 km/h (1 Bft)
03.02.2017 22:20 1,9 °C 1,9 °C 91 % 1008,3 hPa 0,0 mm 1,9 km/h (1 Bft) S-SW 208 ° 0 min 0,000 mm 0,0 UV-I 0 W/m² 0,6 °C 1,9 °C 3,2 km/h (1 Bft)
03.02.2017 22:21 1,9 °C 1,9 °C 91 % 1008,3 hPa 0,0 mm 1,5 km/h (1 Bft) S-SW 208 ° 0 min 0,000 mm 0,0 UV-I 0 W/m² 0,6 °C 1,9 °C 3,2 km/h (1 Bft)
03.02.2017 22:22 1,9 °C 1,9 °C 91 % 1008,4 hPa 0,0 mm 2,4 km/h (1 Bft) S-SW 208 ° 0 min 0,000 mm 0,0 UV-I 0 W/m² 0,6 °C 1,9 °C 3,2 km/h (1 Bft)
03.02.2017 22:23 1,9 °C 1,9 °C 91 % 1008,4 hPa 0,0 mm 2,4 km/h (1 Bft) S-SW 208 ° 0 min 0,000 mm 0,0 UV-I 0 W/m² 0,6 °C 1,9 °C 4,8 km/h (1 Bft)
03.02.2017 22:24 1,8 °C 1,9 °C 91 % 1008,4 hPa 0,0 mm 0,8 km/h (0 Bft) S-SW 208 ° 0 min 0,000 mm 0,0 UV-I 0 W/m² 0,5 °C 1,8 °C 4,8 km/h (1 Bft)
03.02.2017 22:25 1,9 °C 1,9 °C 91 % 1008,3 hPa 0,0 mm 4,6 km/h (1 Bft) S-SW 198 ° 0 min 0,000 mm 0,0 UV-I 0 W/m² 0,6 °C 0,7 °C 6,4 km/h (2 Bft)
03.02.2017 22:26 1,9 °C 1,9 °C 91 % 1008,3 hPa 0,0 mm 1,3 km/h (1 Bft) S 184 ° 0 min 0,000 mm 0,0 UV-I 0 W/m² 0,6 °C 1,9 °C 3,2 km/h (1 Bft)
03.02.2017 22:27 1,8 °C 1,9 °C 91 % 1008,4 hPa 0,0 mm 2,6 km/h (1 Bft) S-SW 192 ° 0 min 0,000 mm 0,0 UV-I 0 W/m² 0,5 °C 1,8 °C 4,8 km/h (1 Bft)
03.02.2017 22:28 1,8 °C 1,8 °C 91 % 1008,5 hPa 0,0 mm 4,7 km/h (1 Bft) S 173 ° 0 min 0,000 mm 0,0 UV-I 0 W/m² 0,5 °C 0,6 °C 8,0 km/h (2 Bft)
03.02.2017 22:29 1,8 °C 1,8 °C 91 % 1008,4 hPa 0,0 mm 6,2 km/h (2 Bft) S-SO 149 ° 0 min 0,000 mm 0,0 UV-I 0 W/m² 0,5 °C -0,0 °C 8,0 km/h (2 Bft)
03.02.2017 22:30 1,8 °C 1,8 °C 91 % 1008,3 hPa 0,0 mm 4,2 km/h (1 Bft) S-SO 150 ° 0 min 0,000 mm 0,0 UV-I 0 W/m² 0,5 °C 1,8 °C 6,4 km/h (2 Bft)
03.02.2017 22:31 1,8 °C 1,8 °C 91 % 1008,4 hPa 0,0 mm 2,2 km/h (1 Bft) SW 218 ° 0 min 0,000 mm 0,0 UV-I 0 W/m² 0,5 °C 1,8 °C 4,8 km/h (1 Bft)
03.02.2017 22:32 1,8 °C 1,8 °C 91 % 1008,5 hPa 0,0 mm 4,3 km/h (1 Bft) SW 219 ° 0 min 0,000 mm 0,0 UV-I 0 W/m² 0,5 °C 1,8 °C 6,4 km/h (2 Bft)
03.02.2017 22:33 1,8 °C 1,8 °C 91 % 1008,5 hPa 0,0 mm 1,8 km/h (1 Bft) SW 219 ° 0 min 0,000 mm 0,0 UV-I 0 W/m² 0,5 °C 1,8 °C 3,2 km/h (1 Bft)
03.02.2017 22:34 1,8 °C 1,8 °C 91 % 1008,5 hPa 0,0 mm 1,9 km/h (1 Bft) S 190 ° 0 min 0,000 mm 0,0 UV-I 0 W/m² 0,5 °C 1,8 °C 4,8 km/h (1 Bft)
03.02.2017 22:35 1,8 °C 1,8 °C 91 % 1008,5 hPa 0,0 mm 2,1 km/h (1 Bft) S 190 ° 0 min 0,000 mm 0,0 UV-I 0 W/m² 0,5 °C 1,8 °C 3,2 km/h (1 Bft)
03.02.2017 22:36 1,8 °C 1,8 °C 92 % 1008,6 hPa 0,0 mm 1,7 km/h (1 Bft) S 190 ° 0 min 0,000 mm 0,0 UV-I 0 W/m² 0,6 °C 1,8 °C 3,2 km/h (1 Bft)
03.02.2017 22:37 1,8 °C 1,8 °C 92 % 1008,5 hPa 0,0 mm 2,8 km/h (1 Bft) S 190 ° 0 min 0,000 mm 0,0 UV-I 0 W/m² 0,6 °C 1,8 °C 3,2 km/h (1 Bft)
03.02.2017 22:38 1,8 °C 1,9 °C 92 % 1008,5 hPa 0,0 mm 2,3 km/h (1 Bft) S 190 ° 0 min 0,000 mm 0,0 UV-I 0 W/m² 0,6 °C 1,8 °C 3,2 km/h (1 Bft)
03.02.2017 22:39 1,9 °C 1,9 °C 92 % 1008,5 hPa 0,0 mm 3,0 km/h (1 Bft) S 190 ° 0 min 0,000 mm 0,0 UV-I 0 W/m² 0,7 °C 1,9 °C 3,2 km/h (1 Bft)
03.02.2017 22:40 1,9 °C 1,9 °C 92 % 1008,6 hPa 0,0 mm 5,0 km/h (1 Bft) S-SO 160 ° 0 min 0,000 mm 0,0 UV-I 0 W/m² 0,7 °C 0,6 °C 6,4 km/h (2 Bft)
03.02.2017 22:41 1,9 °C 1,9 °C 92 % 1008,5 hPa 0,0 mm 5,0 km/h (1 Bft) SO 146 ° 0 min 0,000 mm 0,0 UV-I 0 W/m² 0,7 °C 0,6 °C 6,4 km/h (2 Bft)
03.02.2017 22:42 1,9 °C 1,9 °C 92 % 1008,5 hPa 0,0 mm 5,1 km/h (1 Bft) SO 146 ° 0 min 0,000 mm 0,0 UV-I 0 W/m² 0,7 °C 0,5 °C 6,4 km/h (2 Bft)
03.02.2017 22:43 1,8 °C 1,9 °C 92 % 1008,6 hPa 0,0 mm 2,7 km/h (1 Bft) SO 146 ° 0 min 0,000 mm 0,0 UV-I 0 W/m² 0,6 °C 1,8 °C 4,8 km/h (1 Bft)
03.02.2017 22:44 1,8 °C 1,9 °C 92 % 1008,6 hPa 0,0 mm 2,3 km/h (1 Bft) SO 145 ° 0 min 0,000 mm 0,0 UV-I 0 W/m² 0,6 °C 1,8 °C 4,8 km/h (1 Bft)
03.02.2017 22:45 1,9 °C 1,9 °C 92 % 1008,7 hPa 0,0 mm 2,3 km/h (1 Bft) W-SW 247 ° 0 min 0,000 mm 0,0 UV-I 0 W/m² 0,7 °C 1,9 °C 3,2 km/h (1 Bft)
03.02.2017 22:46 1,9 °C 1,9 °C 92 % 1008,7 hPa 0,0 mm 3,1 km/h (1 Bft) W-SW 246 ° 0 min 0,000 mm 0,0 UV-I 0 W/m² 0,7 °C 1,9 °C 4,8 km/h (1 Bft)
03.02.2017 22:47 1,9 °C 1,9 °C 92 % 1008,6 hPa 0,0 mm 0,7 km/h (0 Bft) W-SW 246 ° 0 min 0,000 mm 0,0 UV-I 0 W/m² 0,7 °C 1,9 °C 3,2 km/h (1 Bft)
03.02.2017 22:48 1,8 °C 1,9 °C 92 % 1008,6 hPa 0,0 mm 0,3 km/h (0 Bft) W-SW 246 ° 0 min 0,000 mm 0,0 UV-I 0 W/m² 0,6 °C 1,8 °C 3,2 km/h (1 Bft)
03.02.2017 22:49 1,9 °C 1,9 °C 92 % 1008,6 hPa 0,0 mm 3,0 km/h (1 Bft) W-SW 246 ° 0 min 0,000 mm 0,0 UV-I 0 W/m² 0,7 °C 1,9 °C 3,2 km/h (1 Bft)
03.02.2017 22:50 1,9 °C 1,9 °C 92 % 1008,6 hPa 0,0 mm 1,5 km/h (1 Bft) W-SW 246 ° 0 min 0,000 mm 0,0 UV-I 0 W/m² 0,7 °C 1,9 °C 3,2 km/h (1 Bft)
03.02.2017 22:51 1,9 °C 1,9 °C 92 % 1008,6 hPa 0,0 mm 0,3 km/h (0 Bft) W-SW 246 ° 0 min 0,000 mm 0,0 UV-I 0 W/m² 0,7 °C 1,9 °C 1,6 km/h (1 Bft)
03.02.2017 22:52 1,9 °C 1,9 °C 92 % 1008,6 hPa 0,0 mm 1,7 km/h (1 Bft) W-SW 246 ° 0 min 0,000 mm 0,0 UV-I 0 W/m² 0,7 °C 1,9 °C 4,8 km/h (1 Bft)
03.02.2017 22:53 1,9 °C 1,9 °C 92 % 1008,6 hPa 0,0 mm 4,1 km/h (1 Bft) S-SW 204 ° 0 min 0,000 mm 0,0 UV-I 0 W/m² 0,7 °C 1,9 °C 6,4 km/h (2 Bft)
03.02.2017 22:54 1,9 °C 1,9 °C 91 % 1008,6 hPa 0,0 mm 2,7 km/h (1 Bft) S-SW 204 ° 0 min 0,000 mm 0,0 UV-I 0 W/m² 0,6 °C 1,9 °C 4,8 km/h (1 Bft)
03.02.2017 22:55 1,9 °C 1,9 °C 91 % 1008,6 hPa 0,0 mm 0,1 km/h (0 Bft) S-SW 204 ° 0 min 0,000 mm 0,0 UV-I 0 W/m² 0,6 °C 1,9 °C 1,6 km/h (1 Bft)
03.02.2017 22:56 1,9 °C 1,9 °C 91 % 1008,6 hPa 0,0 mm 1,1 km/h (1 Bft) S-SW 204 ° 0 min 0,000 mm 0,0 UV-I 0 W/m² 0,6 °C 1,9 °C 1,6 km/h (1 Bft)
03.02.2017 22:57 1,9 °C 1,9 °C 91 % 1008,6 hPa 0,0 mm 0,0 km/h (0 Bft) S-SW 204 ° 0 min 0,000 mm 0,0 UV-I 0 W/m² 0,6 °C 1,9 °C 0,0 km/h (0 Bft)
03.02.2017 22:58 1,8 °C 1,9 °C 91 % 1008,6 hPa 0,0 mm 1,1 km/h (1 Bft) S-SW 204 ° 0 min 0,000 mm 0,0 UV-I 0 W/m² 0,5 °C 1,8 °C 3,2 km/h (1 Bft)
03.02.2017 22:59 1,8 °C 1,8 °C 91 % 1008,6 hPa 0,0 mm 4,0 km/h (1 Bft) S 182 ° 0 min 0,000 mm 0,0 UV-I 0 W/m² 0,5 °C 1,8 °C 8,0 km/h (2 Bft)
03.02.2017 23:00 1,8 °C 1,8 °C 91 % 1008,7 hPa 0,0 mm 4,2 km/h (1 Bft) S-SW 213 ° 0 min 0,000 mm 0,0 UV-I 0 W/m² 0,5 °C 1,8 °C 6,4 km/h (2 Bft)
03.02.2017 23:01 1,8 °C 1,8 °C 91 % 1008,6 hPa 0,0 mm 5,4 km/h (1 Bft) S-SW 204 ° 0 min 0,000 mm 0,0 UV-I 0 W/m² 0,5 °C 0,3 °C 6,4 km/h (2 Bft)
03.02.2017 23:02 1,9 °C 1,9 °C 91 % 1008,7 hPa 0,0 mm 7,2 km/h (2 Bft) S-SW 194 ° 0 min 0,000 mm 0,0 UV-I 0 W/m² 0,6 °C -0,3 °C 9,7 km/h (2 Bft)
03.02.2017 23:03 1,9 °C 1,9 °C 91 % 1008,7 hPa 0,0 mm 9,8 km/h (2 Bft) S-SW 205 ° 0 min 0,000 mm 0,0 UV-I 0 W/m² 0,6 °C -1,0 °C 14,5 km/h (3 Bft)
03.02.2017 23:04 2,0 °C 2,0 °C 92 % 1008,8 hPa 0,0 mm 8,5 km/h (2 Bft) S-SW 210 ° 0 min 0,000 mm 0,0 UV-I 0 W/m² 0,8 °C -0,5 °C 11,3 km/h (2 Bft)
03.02.2017 23:05 2,0 °C 2,0 °C 91 % 1008,8 hPa 0,0 mm 6,8 km/h (2 Bft) SW 234 ° 0 min 0,000 mm 0,0 UV-I 0 W/m² 0,7 °C -0,0 °C 9,7 km/h (2 Bft)
03.02.2017 23:06 2,1 °C 2,1 °C 91 % 1008,8 hPa 0,0 mm 6,0 km/h (2 Bft) S-SW 194 ° 0 min 0,000 mm 0,0 UV-I 0 W/m² 0,8 °C 0,4 °C 9,7 km/h (2 Bft)
03.02.2017 23:07 2,1 °C 2,1 °C 91 % 1008,9 hPa 0,0 mm 6,8 km/h (2 Bft) W-SW 240 ° 0 min 0,000 mm 0,0 UV-I 0 W/m² 0,8 °C 0,1 °C 9,7 km/h (2 Bft)
03.02.2017 23:08 2,2 °C 2,2 °C 91 % 1008,9 hPa 0,0 mm 3,8 km/h (1 Bft) S-SW 197 ° 0 min 0,000 mm 0,0 UV-I 0 W/m² 0,9 °C 2,2 °C 8,0 km/h (2 Bft)
03.02.2017 23:09 2,2 °C 2,2 °C 91 % 1008,9 hPa 0,0 mm 6,7 km/h (2 Bft) W-SW 239 ° 0 min 0,000 mm 0,0 UV-I 0 W/m² 0,9 °C 0,3 °C 11,3 km/h (2 Bft)
03.02.2017 23:10 2,2 °C 2,3 °C 92 % 1008,9 hPa 0,0 mm 5,7 km/h (1 Bft) W-SW 255 ° 0 min 0,000 mm 0,0 UV-I 0 W/m² 1,0 °C 0,6 °C 12,9 km/h (3 Bft)
03.02.2017 23:11 2,3 °C 2,3 °C 92 % 1008,9 hPa 0,0 mm 8,4 km/h (2 Bft) S-SW 205 ° 0 min 0,000 mm 0,0 UV-I 0 W/m² 1,1 °C -0,2 °C 14,5 km/h (3 Bft)
03.02.2017 23:12 2,3 °C 2,3 °C 91 % 1008,9 hPa 0,0 mm 3,0 km/h (1 Bft) S-SW 205 ° 0 min 0,000 mm 0,0 UV-I 0 W/m² 1,0 °C 2,3 °C 4,8 km/h (1 Bft)
03.02.2017 23:13 2,3 °C 2,3 °C 92 % 1008,9 hPa 0,0 mm 5,0 km/h (1 Bft) SW 215 ° 0 min 0,000 mm 0,0 UV-I 0 W/m² 1,1 °C 1,0 °C 8,0 km/h (2 Bft)
03.02.2017 23:14 2,4 °C 2,4 °C 92 % 1008,9 hPa 0,0 mm 3,3 km/h (1 Bft) SW 226 ° 0 min 0,000 mm 0,0 UV-I 0 W/m² 1,2 °C 2,4 °C 4,8 km/h (1 Bft)
03.02.2017 23:15 2,4 °C 2,4 °C 91 % 1008,9 hPa 0,0 mm 3,2 km/h (1 Bft) W-SW 247 ° 0 min 0,000 mm 0,0 UV-I 0 W/m² 1,1 °C 2,4 °C 4,8 km/h (1 Bft)
03.02.2017 23:16 2,4 °C 2,4 °C 91 % 1008,8 hPa 0,0 mm 4,1 km/h (1 Bft) S-SW 196 ° 0 min 0,000 mm 0,0 UV-I 0 W/m² 1,1 °C 2,4 °C 6,4 km/h (2 Bft)
03.02.2017 23:17 2,5 °C 2,5 °C 91 % 1008,8 hPa 0,0 mm 2,9 km/h (1 Bft) S-SW 196 ° 0 min 0,000 mm 0,0 UV-I 0 W/m² 1,2 °C 2,5 °C 6,4 km/h (2 Bft)
03.02.2017 23:18 2,6 °C 2,6 °C 91 % 1008,7 hPa 0,0 mm 4,7 km/h (1 Bft) S-SW 195 ° 0 min 0,000 mm 0,0 UV-I 0 W/m² 1,3 °C 1,5 °C 8,0 km/h (2 Bft)
03.02.2017 23:19 2,6 °C 2,6 °C 91 % 1008,7 hPa 0,0 mm 4,2 km/h (1 Bft) S-SW 206 ° 0 min 0,000 mm 0,0 UV-I 0 W/m² 1,3 °C 2,6 °C 8,0 km/h (2 Bft)
03.02.2017 23:20 2,7 °C 2,7 °C 91 % 1008,8 hPa 0,0 mm 3,1 km/h (1 Bft) S-SW 212 ° 0 min 0,000 mm 0,0 UV-I 0 W/m² 1,4 °C 2,7 °C 4,8 km/h (1 Bft)
03.02.2017 23:21 2,7 °C 2,7 °C 91 % 1008,8 hPa 0,0 mm 1,8 km/h (1 Bft) S-SW 212 ° 0 min 0,000 mm 0,0 UV-I 0 W/m² 1,4 °C 2,7 °C 3,2 km/h (1 Bft)
03.02.2017 23:22 2,7 °C 2,7 °C 91 % 1008,8 hPa 0,0 mm 3,6 km/h (1 Bft) SW 235 ° 0 min 0,000 mm 0,0 UV-I 0 W/m² 1,4 °C 2,7 °C 6,4 km/h (2 Bft)
03.02.2017 23:23 2,8 °C 2,8 °C 91 % 1008,8 hPa 0,0 mm 2,3 km/h (1 Bft) W-SW 239 ° 0 min 0,000 mm 0,0 UV-I 0 W/m² 1,5 °C 2,8 °C 4,8 km/h (1 Bft)
03.02.2017 23:24 2,8 °C 2,8 °C 91 % 1008,8 hPa 0,0 mm 1,5 km/h (1 Bft) W-SW 238 ° 0 min 0,000 mm 0,0 UV-I 0 W/m² 1,5 °C 2,8 °C 3,2 km/h (1 Bft)
03.02.2017 23:25 2,8 °C 2,8 °C 91 % 1008,8 hPa 0,0 mm 3,1 km/h (1 Bft) W-SW 238 ° 0 min 0,000 mm 0,0 UV-I 0 W/m² 1,5 °C 2,8 °C 4,8 km/h (1 Bft)
03.02.2017 23:26 2,9 °C 2,9 °C 91 % 1008,9 hPa 0,0 mm 4,0 km/h (1 Bft) W-SW 252 ° 0 min 0,000 mm 0,0 UV-I 0 W/m² 1,6 °C 2,9 °C 6,4 km/h (2 Bft)
03.02.2017 23:27 2,9 °C 2,9 °C 91 % 1009,0 hPa 0,0 mm 3,8 km/h (1 Bft) SW 234 ° 0 min 0,000 mm 0,0 UV-I 0 W/m² 1,6 °C 2,9 °C 4,8 km/h (1 Bft)
03.02.2017 23:28 2,9 °C 2,9 °C 91 % 1009,0 hPa 0,0 mm 4,5 km/h (1 Bft) W 263 ° 0 min 0,000 mm 0,0 UV-I 0 W/m² 1,6 °C 2,9 °C 9,7 km/h (2 Bft)
03.02.2017 23:29 3,0 °C 3,0 °C 90 % 1009,0 hPa 0,0 mm 5,7 km/h (1 Bft) SW 224 ° 0 min 0,000 mm 0,0 UV-I 0 W/m² 1,5 °C 1,5 °C 9,7 km/h (2 Bft)
03.02.2017 23:30 3,0 °C 3,0 °C 90 % 1009,0 hPa 0,0 mm 4,8 km/h (1 Bft) S-SW 212 ° 0 min 0,000 mm 0,0 UV-I 0 W/m² 1,5 °C 1,9 °C 6,4 km/h (2 Bft)
03.02.2017 23:31 3,1 °C 3,1 °C 90 % 1009,1 hPa 0,0 mm 5,0 km/h (1 Bft) W-SW 237 ° 0 min 0,000 mm 0,0 UV-I 0 W/m² 1,6 °C 1,9 °C 11,3 km/h (2 Bft)
03.02.2017 23:32 3,1 °C 3,1 °C 90 % 1009,0 hPa 0,0 mm 3,5 km/h (1 Bft) SW 234 ° 0 min 0,000 mm 0,0 UV-I 0 W/m² 1,6 °C 3,1 °C 4,8 km/h (1 Bft)
03.02.2017 23:33 3,2 °C 3,2 °C 90 % 1009,0 hPa 0,0 mm 2,4 km/h (1 Bft) SW 234 ° 0 min 0,000 mm 0,0 UV-I 0 W/m² 1,7 °C 3,2 °C 4,8 km/h (1 Bft)
03.02.2017 23:34 3,2 °C 3,2 °C 90 % 1009,0 hPa 0,0 mm 3,5 km/h (1 Bft) SW 234 ° 0 min 0,000 mm 0,0 UV-I 0 W/m² 1,7 °C 3,2 °C 4,8 km/h (1 Bft)
03.02.2017 23:35 3,2 °C 3,2 °C 90 % 1009,0 hPa 0,0 mm 3,4 km/h (1 Bft) SW 233 ° 0 min 0,000 mm 0,0 UV-I 0 W/m² 1,7 °C 3,2 °C 4,8 km/h (1 Bft)
03.02.2017 23:36 3,3 °C 3,3 °C 90 % 1009,1 hPa 0,0 mm 4,2 km/h (1 Bft) SW 225 ° 0 min 0,000 mm 0,0 UV-I 0 W/m² 1,8 °C 3,3 °C 4,8 km/h (1 Bft)
03.02.2017 23:37 3,3 °C 3,3 °C 90 % 1009,1 hPa 0,0 mm 5,1 km/h (1 Bft) S-SW 192 ° 0 min 0,000 mm 0,0 UV-I 0 W/m² 1,8 °C 2,1 °C 6,4 km/h (2 Bft)
03.02.2017 23:38 3,3 °C 3,3 °C 90 % 1009,0 hPa 0,0 mm 3,9 km/h (1 Bft) W-SW 252 ° 0 min 0,000 mm 0,0 UV-I 0 W/m² 1,8 °C 3,3 °C 6,4 km/h (2 Bft)
03.02.2017 23:39 3,4 °C 3,4 °C 89 % 1009,1 hPa 0,0 mm 4,4 km/h (1 Bft) S 188 ° 0 min 0,000 mm 0,0 UV-I 0 W/m² 1,8 °C 3,4 °C 6,4 km/h (2 Bft)
03.02.2017 23:40 3,4 °C 3,4 °C 89 % 1009,0 hPa 0,0 mm 4,4 km/h (1 Bft) S-SW 202 ° 0 min 0,000 mm 0,0 UV-I 0 W/m² 1,8 °C 3,4 °C 6,4 km/h (2 Bft)
03.02.2017 23:41 3,4 °C 3,4 °C 89 % 1009,1 hPa 0,0 mm 5,2 km/h (1 Bft) W-SW 246 ° 0 min 0,000 mm 0,0 UV-I 0 W/m² 1,8 °C 2,2 °C 6,4 km/h (2 Bft)
03.02.2017 23:42 3,4 °C 3,5 °C 89 % 1009,1 hPa 0,0 mm 7,1 km/h (2 Bft) W-SW 257 ° 0 min 0,000 mm 0,0 UV-I 0 W/m² 1,8 °C 1,5 °C 11,3 km/h (2 Bft)
03.02.2017 23:43 3,5 °C 3,5 °C 89 % 1009,1 hPa 0,0 mm 7,3 km/h (2 Bft) W-SW 240 ° 0 min 0,000 mm 0,0 UV-I 0 W/m² 1,9 °C 1,6 °C 12,9 km/h (3 Bft)
03.02.2017 23:44 3,5 °C 3,6 °C 89 % 1009,2 hPa 0,0 mm 5,3 km/h (1 Bft) S-SW 209 ° 0 min 0,000 mm 0,0 UV-I 0 W/m² 1,9 °C 2,3 °C 11,3 km/h (2 Bft)
03.02.2017 23:45 3,6 °C 3,6 °C 89 % 1009,1 hPa 0,0 mm 3,0 km/h (1 Bft) SW 236 ° 0 min 0,000 mm 0,0 UV-I 0 W/m² 2,0 °C 3,6 °C 4,8 km/h (1 Bft)
03.02.2017 23:46 3,6 °C 3,6 °C 89 % 1009,1 hPa 0,0 mm 2,8 km/h (1 Bft) W-SW 237 ° 0 min 0,000 mm 0,0 UV-I 0 W/m² 2,0 °C 3,6 °C 3,2 km/h (1 Bft)
03.02.2017 23:47 3,6 °C 3,6 °C 89 % 1009,1 hPa 0,0 mm 4,1 km/h (1 Bft) SW 219 ° 0 min 0,000 mm 0,0 UV-I 0 W/m² 2,0 °C 3,6 °C 8,0 km/h (2 Bft)
03.02.2017 23:48 3,6 °C 3,6 °C 88 % 1009,1 hPa 0,0 mm 8,0 km/h (2 Bft) W-SW 237 ° 0 min 0,000 mm 0,0 UV-I 0 W/m² 1,8 °C 1,5 °C 11,3 km/h (2 Bft)
03.02.2017 23:49 3,6 °C 3,6 °C 88 % 1009,1 hPa 0,0 mm 5,8 km/h (2 Bft) W 259 ° 0 min 0,000 mm 0,0 UV-I 0 W/m² 1,8 °C 2,2 °C 8,0 km/h (2 Bft)
03.02.2017 23:50 3,6 °C 3,6 °C 88 % 1009,2 hPa 0,0 mm 6,1 km/h (2 Bft) W-SW 252 ° 0 min 0,000 mm 0,0 UV-I 0 W/m² 1,8 °C 2,1 °C 11,3 km/h (2 Bft)
03.02.2017 23:51 3,6 °C 3,6 °C 88 % 1009,1 hPa 0,0 mm 6,4 km/h (2 Bft) W 260 ° 0 min 0,000 mm 0,0 UV-I 0 W/m² 1,8 °C 2,0 °C 8,0 km/h (2 Bft)
03.02.2017 23:52 3,6 °C 3,6 °C 88 % 1009,2 hPa 0,0 mm 7,8 km/h (2 Bft) W-SW 253 ° 0 min 0,000 mm 0,0 UV-I 0 W/m² 1,8 °C 1,5 °C 11,3 km/h (2 Bft)
03.02.2017 23:53 3,6 °C 3,7 °C 88 % 1009,1 hPa 0,0 mm 7,3 km/h (2 Bft) W-SW 242 ° 0 min 0,000 mm 0,0 UV-I 0 W/m² 1,8 °C 1,7 °C 11,3 km/h (2 Bft)
03.02.2017 23:54 3,7 °C 3,7 °C 88 % 1009,1 hPa 0,0 mm 6,4 km/h (2 Bft) W 261 ° 0 min 0,000 mm 0,0 UV-I 0 W/m² 1,9 °C 2,1 °C 11,3 km/h (2 Bft)
03.02.2017 23:55 3,7 °C 3,7 °C 88 % 1009,1 hPa 0,0 mm 5,1 km/h (1 Bft) W-SW 248 ° 0 min 0,000 mm 0,0 UV-I 0 W/m² 1,9 °C 2,6 °C 11,3 km/h (2 Bft)
03.02.2017 23:56 3,7 °C 3,7 °C 88 % 1009,1 hPa 0,0 mm 6,4 km/h (2 Bft) W-SW 252 ° 0 min 0,000 mm 0,0 UV-I 0 W/m² 1,9 °C 2,1 °C 9,7 km/h (2 Bft)
03.02.2017 23:57 3,7 °C 3,7 °C 88 % 1009,1 hPa 0,0 mm 4,6 km/h (1 Bft) W 260 ° 0 min 0,000 mm 0,0 UV-I 0 W/m² 1,9 °C 2,8 °C 6,4 km/h (2 Bft)
03.02.2017 23:58 3,7 °C 3,7 °C 87 % 1009,1 hPa 0,0 mm 4,0 km/h (1 Bft) W-SW 238 ° 0 min 0,000 mm 0,0 UV-I 0 W/m² 1,7 °C 3,7 °C 6,4 km/h (2 Bft)
03.02.2017 23:59 3,7 °C 3,8 °C 87 % 1009,1 hPa 0,0 mm 4,1 km/h (1 Bft) W-SW 248 ° 0 min 0,000 mm 0,0 UV-I 0 W/m² 1,7 °C 3,7 °C 6,4 km/h (2 Bft)
_ Min-Zeit 04:08 04:13 11:02 19:41 - 22:57 - - - - - - 04:00 23:03 22:57
Minimum _ -0,2 °C -0,1 °C 73 % 1007,0 hPa - 0,0 km/h (0 Bft) - - - - - - -1,5 °C -1,0 °C 0,0 km/h (0 Bft)
_ Max-Zeit 13:55 13:56 23:14 11:24 23:59 11:41 - - 14:39 15:01 13:50 13:49 13:53 13:55 11:41
Maximum _ 6,8 °C 6,8 °C 92 % 1009,3 hPa 0,0 mm 19,5 km/h
W (3 Bft)
- - 1 min 0,102 mm 1,9 UV-I 404 W/m² 3,6 °C 6,8 °C 29,0 km/h
W-SW (5 Bft)
Durchschnitt _ 3,4 °C 3,4 °C 85 % 1008,2 hPa #0,0 mm 2,6 km/h (1 Bft) W - #1:46 h #0,533 mm 1,1 UV-I 45 W/m² 1,1 °C 3,0 °C 4,2 km/h (1 Bft)